<?xml version="1.0" encoding="UTF-8" standalone="no" ?>
<gpx xmlns="http://www.topografix.com/GPX/1/1" xmlns:xsi="http://www.w3.org/2001/XMLSchema-instance" xsi:schemaLocation="http://www.topografix.com/GPX/1/1 http://www.topografix.com/GPX/1/1/gpx.xsd" version="1.1" creator="VisuGPX - https://www.visugpx.com">
  <metadata>
    <name>Fayet</name>
  </metadata>
  <trk>
    <name><![CDATA[SityTrail - fayet]]></name>
    <extensions>
      <line xmlns="http://www.topografix.com/GPX/gpx_style/0/2">
        <color>0000FF</color>
        <width>4</width>
      </line>
    </extensions>
    <trkseg>
      <trkpt lat="43.79632" lon="2.96663">
        <ele>503</ele>
        <time>2023-08-15T10:06:44.415Z</time>
      </trkpt>
      <trkpt lat="43.79632" lon="2.96663">
        <ele>503</ele>
        <time>2023-08-15T10:06:44.415Z</time>
      </trkpt>
      <trkpt lat="43.79633" lon="2.96664">
        <ele>503</ele>
        <time>2023-08-15T10:06:46.164Z</time>
      </trkpt>
      <trkpt lat="43.79565" lon="2.96664">
        <ele>513</ele>
        <time>2023-08-15T10:06:50.684Z</time>
      </trkpt>
      <trkpt lat="43.79553" lon="2.96661">
        <ele>513</ele>
        <time>2023-08-15T10:06:55.084Z</time>
      </trkpt>
      <trkpt lat="43.79552" lon="2.96659">
        <ele>513</ele>
        <time>2023-08-15T10:07:00.144Z</time>
      </trkpt>
      <trkpt lat="43.79548" lon="2.96659">
        <ele>513</ele>
        <time>2023-08-15T10:07:04.664Z</time>
      </trkpt>
      <trkpt lat="43.79548" lon="2.96665">
        <ele>513</ele>
        <time>2023-08-15T10:07:09.044Z</time>
      </trkpt>
      <trkpt lat="43.79551" lon="2.96671">
        <ele>513</ele>
        <time>2023-08-15T10:07:12.984Z</time>
      </trkpt>
      <trkpt lat="43.79554" lon="2.96676">
        <ele>513</ele>
        <time>2023-08-15T10:07:16.944Z</time>
      </trkpt>
      <trkpt lat="43.79557" lon="2.96678">
        <ele>513</ele>
        <time>2023-08-15T10:07:20.884Z</time>
      </trkpt>
      <trkpt lat="43.79561" lon="2.96683">
        <ele>515</ele>
        <time>2023-08-15T10:07:25.384Z</time>
      </trkpt>
      <trkpt lat="43.79566" lon="2.96689">
        <ele>515</ele>
        <time>2023-08-15T10:07:29.784Z</time>
      </trkpt>
      <trkpt lat="43.79571" lon="2.96693">
        <ele>508</ele>
        <time>2023-08-15T10:07:34.064Z</time>
      </trkpt>
      <trkpt lat="43.79576" lon="2.96697">
        <ele>508</ele>
        <time>2023-08-15T10:07:39.144Z</time>
      </trkpt>
      <trkpt lat="43.79579" lon="2.96701">
        <ele>508</ele>
        <time>2023-08-15T10:07:43.084Z</time>
      </trkpt>
      <trkpt lat="43.79583" lon="2.96705">
        <ele>508</ele>
        <time>2023-08-15T10:07:47.924Z</time>
      </trkpt>
      <trkpt lat="43.79587" lon="2.96708">
        <ele>508</ele>
        <time>2023-08-15T10:07:52.324Z</time>
      </trkpt>
      <trkpt lat="43.79592" lon="2.96711">
        <ele>511</ele>
        <time>2023-08-15T10:07:56.264Z</time>
      </trkpt>
      <trkpt lat="43.79597" lon="2.96714">
        <ele>508</ele>
        <time>2023-08-15T10:08:01.344Z</time>
      </trkpt>
      <trkpt lat="43.79602" lon="2.96717">
        <ele>508</ele>
        <time>2023-08-15T10:08:05.624Z</time>
      </trkpt>
      <trkpt lat="43.79605" lon="2.9672">
        <ele>508</ele>
        <time>2023-08-15T10:08:09.564Z</time>
      </trkpt>
      <trkpt lat="43.79609" lon="2.96723">
        <ele>508</ele>
        <time>2023-08-15T10:08:14.065Z</time>
      </trkpt>
      <trkpt lat="43.79612" lon="2.96726">
        <ele>508</ele>
        <time>2023-08-15T10:08:18.024Z</time>
      </trkpt>
      <trkpt lat="43.79612" lon="2.9673">
        <ele>508</ele>
        <time>2023-08-15T10:08:21.964Z</time>
      </trkpt>
      <trkpt lat="43.79613" lon="2.96733">
        <ele>508</ele>
        <time>2023-08-15T10:08:26.408Z</time>
      </trkpt>
      <trkpt lat="43.79611" lon="2.96736">
        <ele>508</ele>
        <time>2023-08-15T10:08:30.744Z</time>
      </trkpt>
      <trkpt lat="43.79608" lon="2.96742">
        <ele>511</ele>
        <time>2023-08-15T10:08:35.264Z</time>
      </trkpt>
      <trkpt lat="43.79603" lon="2.96746">
        <ele>511</ele>
        <time>2023-08-15T10:08:39.204Z</time>
      </trkpt>
      <trkpt lat="43.79598" lon="2.96748">
        <ele>511</ele>
        <time>2023-08-15T10:08:44.044Z</time>
      </trkpt>
      <trkpt lat="43.79592" lon="2.96747">
        <ele>518</ele>
        <time>2023-08-15T10:08:49.124Z</time>
      </trkpt>
      <trkpt lat="43.79588" lon="2.96746">
        <ele>518</ele>
        <time>2023-08-15T10:08:53.064Z</time>
      </trkpt>
      <trkpt lat="43.79584" lon="2.96746">
        <ele>518</ele>
        <time>2023-08-15T10:08:57.564Z</time>
      </trkpt>
      <trkpt lat="43.79579" lon="2.96746">
        <ele>518</ele>
        <time>2023-08-15T10:09:02.084Z</time>
      </trkpt>
      <trkpt lat="43.79575" lon="2.96747">
        <ele>518</ele>
        <time>2023-08-15T10:09:06.584Z</time>
      </trkpt>
      <trkpt lat="43.79572" lon="2.96746">
        <ele>518</ele>
        <time>2023-08-15T10:09:11.055Z</time>
      </trkpt>
      <trkpt lat="43.79572" lon="2.96745">
        <ele>518</ele>
        <time>2023-08-15T10:09:14.924Z</time>
      </trkpt>
      <trkpt lat="43.7957" lon="2.96745">
        <ele>518</ele>
        <time>2023-08-15T10:09:19.410Z</time>
      </trkpt>
      <trkpt lat="43.79566" lon="2.96746">
        <ele>526</ele>
        <time>2023-08-15T10:09:23.366Z</time>
      </trkpt>
      <trkpt lat="43.79562" lon="2.96746">
        <ele>526</ele>
        <time>2023-08-15T10:09:27.286Z</time>
      </trkpt>
      <trkpt lat="43.79559" lon="2.96746">
        <ele>526</ele>
        <time>2023-08-15T10:09:31.428Z</time>
      </trkpt>
      <trkpt lat="43.79558" lon="2.96747">
        <ele>526</ele>
        <time>2023-08-15T10:09:35.493Z</time>
      </trkpt>
      <trkpt lat="43.79554" lon="2.96753">
        <ele>526</ele>
        <time>2023-08-15T10:09:39.893Z</time>
      </trkpt>
      <trkpt lat="43.7955" lon="2.96756">
        <ele>526</ele>
        <time>2023-08-15T10:09:44.278Z</time>
      </trkpt>
      <trkpt lat="43.79544" lon="2.96755">
        <ele>526</ele>
        <time>2023-08-15T10:09:48.658Z</time>
      </trkpt>
      <trkpt lat="43.79541" lon="2.9675">
        <ele>533</ele>
        <time>2023-08-15T10:09:53.059Z</time>
      </trkpt>
      <trkpt lat="43.7954" lon="2.96746">
        <ele>533</ele>
        <time>2023-08-15T10:09:57.424Z</time>
      </trkpt>
      <trkpt lat="43.79535" lon="2.96743">
        <ele>533</ele>
        <time>2023-08-15T10:10:01.959Z</time>
      </trkpt>
      <trkpt lat="43.79529" lon="2.96742">
        <ele>533</ele>
        <time>2023-08-15T10:10:06.959Z</time>
      </trkpt>
      <trkpt lat="43.79524" lon="2.96741">
        <ele>533</ele>
        <time>2023-08-15T10:10:11.298Z</time>
      </trkpt>
      <trkpt lat="43.79518" lon="2.96742">
        <ele>533</ele>
        <time>2023-08-15T10:10:15.738Z</time>
      </trkpt>
      <trkpt lat="43.79512" lon="2.96744">
        <ele>535</ele>
        <time>2023-08-15T10:10:20.119Z</time>
      </trkpt>
      <trkpt lat="43.79506" lon="2.96746">
        <ele>535</ele>
        <time>2023-08-15T10:10:23.978Z</time>
      </trkpt>
      <trkpt lat="43.79501" lon="2.96747">
        <ele>535</ele>
        <time>2023-08-15T10:10:28.899Z</time>
      </trkpt>
      <trkpt lat="43.79496" lon="2.9675">
        <ele>535</ele>
        <time>2023-08-15T10:10:33.278Z</time>
      </trkpt>
      <trkpt lat="43.79491" lon="2.96752">
        <ele>535</ele>
        <time>2023-08-15T10:10:38.288Z</time>
      </trkpt>
      <trkpt lat="43.79487" lon="2.96754">
        <ele>535</ele>
        <time>2023-08-15T10:10:42.181Z</time>
      </trkpt>
      <trkpt lat="43.79484" lon="2.96756">
        <ele>536</ele>
        <time>2023-08-15T10:10:46.038Z</time>
      </trkpt>
      <trkpt lat="43.79482" lon="2.9676">
        <ele>536</ele>
        <time>2023-08-15T10:10:50.979Z</time>
      </trkpt>
      <trkpt lat="43.79479" lon="2.96764">
        <ele>536</ele>
        <time>2023-08-15T10:10:55.348Z</time>
      </trkpt>
      <trkpt lat="43.79476" lon="2.96766">
        <ele>543</ele>
        <time>2023-08-15T10:10:59.199Z</time>
      </trkpt>
      <trkpt lat="43.79473" lon="2.96768">
        <ele>543</ele>
        <time>2023-08-15T10:11:03.079Z</time>
      </trkpt>
      <trkpt lat="43.79468" lon="2.96771">
        <ele>543</ele>
        <time>2023-08-15T10:11:07.999Z</time>
      </trkpt>
      <trkpt lat="43.79464" lon="2.96773">
        <ele>543</ele>
        <time>2023-08-15T10:11:12.420Z</time>
      </trkpt>
      <trkpt lat="43.79459" lon="2.96775">
        <ele>543</ele>
        <time>2023-08-15T10:11:16.758Z</time>
      </trkpt>
      <trkpt lat="43.79454" lon="2.96778">
        <ele>538</ele>
        <time>2023-08-15T10:11:20.618Z</time>
      </trkpt>
      <trkpt lat="43.7945" lon="2.96781">
        <ele>538</ele>
        <time>2023-08-15T10:11:24.938Z</time>
      </trkpt>
      <trkpt lat="43.79445" lon="2.96783">
        <ele>538</ele>
        <time>2023-08-15T10:11:29.378Z</time>
      </trkpt>
      <trkpt lat="43.79441" lon="2.96784">
        <ele>538</ele>
        <time>2023-08-15T10:11:33.239Z</time>
      </trkpt>
      <trkpt lat="43.79436" lon="2.96785">
        <ele>538</ele>
        <time>2023-08-15T10:11:37.607Z</time>
      </trkpt>
      <trkpt lat="43.79431" lon="2.96786">
        <ele>538</ele>
        <time>2023-08-15T10:11:41.498Z</time>
      </trkpt>
      <trkpt lat="43.79424" lon="2.96784">
        <ele>540</ele>
        <time>2023-08-15T10:11:45.898Z</time>
      </trkpt>
      <trkpt lat="43.79418" lon="2.96781">
        <ele>540</ele>
        <time>2023-08-15T10:11:50.218Z</time>
      </trkpt>
      <trkpt lat="43.79412" lon="2.9678">
        <ele>540</ele>
        <time>2023-08-15T10:11:54.058Z</time>
      </trkpt>
      <trkpt lat="43.79407" lon="2.9678">
        <ele>540</ele>
        <time>2023-08-15T10:11:58.419Z</time>
      </trkpt>
      <trkpt lat="43.79402" lon="2.96782">
        <ele>547</ele>
        <time>2023-08-15T10:12:03.368Z</time>
      </trkpt>
      <trkpt lat="43.79398" lon="2.96784">
        <ele>547</ele>
        <time>2023-08-15T10:12:07.319Z</time>
      </trkpt>
      <trkpt lat="43.79395" lon="2.96786">
        <ele>547</ele>
        <time>2023-08-15T10:12:11.258Z</time>
      </trkpt>
      <trkpt lat="43.79391" lon="2.96788">
        <ele>547</ele>
        <time>2023-08-15T10:12:15.638Z</time>
      </trkpt>
      <trkpt lat="43.79387" lon="2.9679">
        <ele>547</ele>
        <time>2023-08-15T10:12:19.558Z</time>
      </trkpt>
      <trkpt lat="43.79384" lon="2.96792">
        <ele>550</ele>
        <time>2023-08-15T10:12:23.959Z</time>
      </trkpt>
      <trkpt lat="43.7938" lon="2.96794">
        <ele>550</ele>
        <time>2023-08-15T10:12:27.939Z</time>
      </trkpt>
      <trkpt lat="43.79375" lon="2.96795">
        <ele>551</ele>
        <time>2023-08-15T10:12:32.379Z</time>
      </trkpt>
      <trkpt lat="43.79369" lon="2.96794">
        <ele>551</ele>
        <time>2023-08-15T10:12:36.807Z</time>
      </trkpt>
      <trkpt lat="43.79361" lon="2.96794">
        <ele>551</ele>
        <time>2023-08-15T10:12:40.718Z</time>
      </trkpt>
      <trkpt lat="43.79353" lon="2.96793">
        <ele>551</ele>
        <time>2023-08-15T10:12:45.758Z</time>
      </trkpt>
      <trkpt lat="43.79347" lon="2.9679">
        <ele>560</ele>
        <time>2023-08-15T10:12:50.219Z</time>
      </trkpt>
      <trkpt lat="43.7934" lon="2.96786">
        <ele>560</ele>
        <time>2023-08-15T10:12:55.148Z</time>
      </trkpt>
      <trkpt lat="43.79335" lon="2.96783">
        <ele>560</ele>
        <time>2023-08-15T10:12:59.119Z</time>
      </trkpt>
      <trkpt lat="43.79332" lon="2.96778">
        <ele>560</ele>
        <time>2023-08-15T10:13:03.538Z</time>
      </trkpt>
      <trkpt lat="43.79329" lon="2.96773">
        <ele>560</ele>
        <time>2023-08-15T10:13:07.999Z</time>
      </trkpt>
      <trkpt lat="43.7933" lon="2.96768">
        <ele>560</ele>
        <time>2023-08-15T10:13:12.958Z</time>
      </trkpt>
      <trkpt lat="43.79332" lon="2.96765">
        <ele>560</ele>
        <time>2023-08-15T10:13:17.399Z</time>
      </trkpt>
      <trkpt lat="43.79336" lon="2.96763">
        <ele>565</ele>
        <time>2023-08-15T10:13:21.758Z</time>
      </trkpt>
      <trkpt lat="43.79347" lon="2.9677">
        <ele>560</ele>
        <time>2023-08-15T10:13:26.058Z</time>
      </trkpt>
      <trkpt lat="43.79352" lon="2.9677">
        <ele>553</ele>
        <time>2023-08-15T10:13:30.421Z</time>
      </trkpt>
      <trkpt lat="43.79356" lon="2.96768">
        <ele>553</ele>
        <time>2023-08-15T10:13:34.907Z</time>
      </trkpt>
      <trkpt lat="43.79359" lon="2.96765">
        <ele>553</ele>
        <time>2023-08-15T10:13:38.859Z</time>
      </trkpt>
      <trkpt lat="43.79362" lon="2.96761">
        <ele>555</ele>
        <time>2023-08-15T10:13:43.299Z</time>
      </trkpt>
      <trkpt lat="43.79364" lon="2.96756">
        <ele>555</ele>
        <time>2023-08-15T10:13:47.747Z</time>
      </trkpt>
      <trkpt lat="43.79365" lon="2.96749">
        <ele>555</ele>
        <time>2023-08-15T10:13:51.618Z</time>
      </trkpt>
      <trkpt lat="43.79366" lon="2.96742">
        <ele>555</ele>
        <time>2023-08-15T10:13:55.959Z</time>
      </trkpt>
      <trkpt lat="43.79368" lon="2.96736">
        <ele>556</ele>
        <time>2023-08-15T10:13:59.919Z</time>
      </trkpt>
      <trkpt lat="43.7937" lon="2.9673">
        <ele>556</ele>
        <time>2023-08-15T10:14:04.319Z</time>
      </trkpt>
      <trkpt lat="43.79371" lon="2.96724">
        <ele>556</ele>
        <time>2023-08-15T10:14:08.798Z</time>
      </trkpt>
      <trkpt lat="43.79372" lon="2.96719">
        <ele>556</ele>
        <time>2023-08-15T10:14:13.198Z</time>
      </trkpt>
      <trkpt lat="43.79372" lon="2.96715">
        <ele>556</ele>
        <time>2023-08-15T10:14:17.638Z</time>
      </trkpt>
      <trkpt lat="43.79373" lon="2.9671">
        <ele>556</ele>
        <time>2023-08-15T10:14:21.538Z</time>
      </trkpt>
      <trkpt lat="43.79373" lon="2.96706">
        <ele>561</ele>
        <time>2023-08-15T10:14:25.939Z</time>
      </trkpt>
      <trkpt lat="43.79368" lon="2.96704">
        <ele>561</ele>
        <time>2023-08-15T10:14:29.818Z</time>
      </trkpt>
      <trkpt lat="43.79365" lon="2.96702">
        <ele>561</ele>
        <time>2023-08-15T10:14:34.239Z</time>
      </trkpt>
      <trkpt lat="43.79365" lon="2.96698">
        <ele>561</ele>
        <time>2023-08-15T10:14:38.139Z</time>
      </trkpt>
      <trkpt lat="43.79364" lon="2.96693">
        <ele>561</ele>
        <time>2023-08-15T10:14:42.939Z</time>
      </trkpt>
      <trkpt lat="43.79362" lon="2.96687">
        <ele>561</ele>
        <time>2023-08-15T10:14:47.368Z</time>
      </trkpt>
      <trkpt lat="43.79349" lon="2.96674">
        <ele>564</ele>
        <time>2023-08-15T10:14:51.298Z</time>
      </trkpt>
      <trkpt lat="43.79345" lon="2.96667">
        <ele>575</ele>
        <time>2023-08-15T10:14:55.707Z</time>
      </trkpt>
      <trkpt lat="43.79342" lon="2.96661">
        <ele>575</ele>
        <time>2023-08-15T10:14:59.638Z</time>
      </trkpt>
      <trkpt lat="43.7934" lon="2.96655">
        <ele>575</ele>
        <time>2023-08-15T10:15:04.079Z</time>
      </trkpt>
      <trkpt lat="43.79341" lon="2.96645">
        <ele>577</ele>
        <time>2023-08-15T10:15:08.598Z</time>
      </trkpt>
      <trkpt lat="43.79342" lon="2.96639">
        <ele>577</ele>
        <time>2023-08-15T10:15:12.578Z</time>
      </trkpt>
      <trkpt lat="43.79342" lon="2.96633">
        <ele>577</ele>
        <time>2023-08-15T10:15:16.938Z</time>
      </trkpt>
      <trkpt lat="43.79342" lon="2.96628">
        <ele>577</ele>
        <time>2023-08-15T10:15:21.299Z</time>
      </trkpt>
      <trkpt lat="43.79344" lon="2.96623">
        <ele>581</ele>
        <time>2023-08-15T10:15:25.679Z</time>
      </trkpt>
      <trkpt lat="43.79346" lon="2.96618">
        <ele>581</ele>
        <time>2023-08-15T10:15:30.078Z</time>
      </trkpt>
      <trkpt lat="43.79351" lon="2.96613">
        <ele>573</ele>
        <time>2023-08-15T10:15:34.458Z</time>
      </trkpt>
      <trkpt lat="43.79358" lon="2.96608">
        <ele>573</ele>
        <time>2023-08-15T10:15:39.428Z</time>
      </trkpt>
      <trkpt lat="43.79364" lon="2.96604">
        <ele>573</ele>
        <time>2023-08-15T10:15:43.358Z</time>
      </trkpt>
      <trkpt lat="43.7937" lon="2.96601">
        <ele>573</ele>
        <time>2023-08-15T10:15:47.738Z</time>
      </trkpt>
      <trkpt lat="43.79374" lon="2.96597">
        <ele>573</ele>
        <time>2023-08-15T10:15:52.207Z</time>
      </trkpt>
      <trkpt lat="43.79377" lon="2.96592">
        <ele>571</ele>
        <time>2023-08-15T10:15:56.078Z</time>
      </trkpt>
      <trkpt lat="43.79379" lon="2.96587">
        <ele>571</ele>
        <time>2023-08-15T10:16:00.518Z</time>
      </trkpt>
      <trkpt lat="43.7938" lon="2.96582">
        <ele>571</ele>
        <time>2023-08-15T10:16:04.958Z</time>
      </trkpt>
      <trkpt lat="43.79382" lon="2.96574">
        <ele>571</ele>
        <time>2023-08-15T10:16:09.399Z</time>
      </trkpt>
      <trkpt lat="43.79384" lon="2.96567">
        <ele>577</ele>
        <time>2023-08-15T10:16:13.818Z</time>
      </trkpt>
      <trkpt lat="43.79386" lon="2.96563">
        <ele>577</ele>
        <time>2023-08-15T10:16:18.099Z</time>
      </trkpt>
      <trkpt lat="43.79391" lon="2.96559">
        <ele>577</ele>
        <time>2023-08-15T10:16:21.959Z</time>
      </trkpt>
      <trkpt lat="43.79401" lon="2.96551">
        <ele>577</ele>
        <time>2023-08-15T10:16:39.059Z</time>
      </trkpt>
      <trkpt lat="43.79403" lon="2.96552">
        <ele>577</ele>
        <time>2023-08-15T10:16:43.433Z</time>
      </trkpt>
      <trkpt lat="43.79405" lon="2.9655">
        <ele>573</ele>
        <time>2023-08-15T10:16:47.848Z</time>
      </trkpt>
      <trkpt lat="43.79412" lon="2.96549">
        <ele>573</ele>
        <time>2023-08-15T10:16:51.778Z</time>
      </trkpt>
      <trkpt lat="43.79419" lon="2.96548">
        <ele>573</ele>
        <time>2023-08-15T10:16:56.148Z</time>
      </trkpt>
      <trkpt lat="43.79426" lon="2.96545">
        <ele>573</ele>
        <time>2023-08-15T10:17:00.039Z</time>
      </trkpt>
      <trkpt lat="43.79431" lon="2.96543">
        <ele>573</ele>
        <time>2023-08-15T10:17:03.999Z</time>
      </trkpt>
      <trkpt lat="43.79435" lon="2.96541">
        <ele>574</ele>
        <time>2023-08-15T10:17:08.299Z</time>
      </trkpt>
      <trkpt lat="43.7944" lon="2.96536">
        <ele>574</ele>
        <time>2023-08-15T10:17:12.179Z</time>
      </trkpt>
      <trkpt lat="43.79443" lon="2.96534">
        <ele>574</ele>
        <time>2023-08-15T10:17:16.627Z</time>
      </trkpt>
      <trkpt lat="43.79446" lon="2.96531">
        <ele>574</ele>
        <time>2023-08-15T10:17:20.558Z</time>
      </trkpt>
      <trkpt lat="43.79449" lon="2.96529">
        <ele>574</ele>
        <time>2023-08-15T10:17:24.538Z</time>
      </trkpt>
      <trkpt lat="43.79457" lon="2.9653">
        <ele>574</ele>
        <time>2023-08-15T10:17:28.899Z</time>
      </trkpt>
      <trkpt lat="43.79463" lon="2.96531">
        <ele>567</ele>
        <time>2023-08-15T10:17:33.159Z</time>
      </trkpt>
      <trkpt lat="43.79467" lon="2.96529">
        <ele>567</ele>
        <time>2023-08-15T10:17:36.999Z</time>
      </trkpt>
      <trkpt lat="43.79473" lon="2.96523">
        <ele>567</ele>
        <time>2023-08-15T10:17:41.958Z</time>
      </trkpt>
      <trkpt lat="43.79476" lon="2.96517">
        <ele>567</ele>
        <time>2023-08-15T10:17:45.798Z</time>
      </trkpt>
      <trkpt lat="43.7948" lon="2.96509">
        <ele>570</ele>
        <time>2023-08-15T10:17:50.259Z</time>
      </trkpt>
      <trkpt lat="43.79484" lon="2.96503">
        <ele>570</ele>
        <time>2023-08-15T10:17:54.118Z</time>
      </trkpt>
      <trkpt lat="43.79488" lon="2.96497">
        <ele>566</ele>
        <time>2023-08-15T10:17:58.421Z</time>
      </trkpt>
      <trkpt lat="43.7949" lon="2.9649">
        <ele>566</ele>
        <time>2023-08-15T10:18:02.908Z</time>
      </trkpt>
      <trkpt lat="43.7949" lon="2.96483">
        <ele>567</ele>
        <time>2023-08-15T10:18:06.779Z</time>
      </trkpt>
      <trkpt lat="43.79488" lon="2.96476">
        <ele>567</ele>
        <time>2023-08-15T10:18:11.239Z</time>
      </trkpt>
      <trkpt lat="43.79484" lon="2.9647">
        <ele>571</ele>
        <time>2023-08-15T10:18:15.538Z</time>
      </trkpt>
      <trkpt lat="43.79482" lon="2.96466">
        <ele>571</ele>
        <time>2023-08-15T10:18:19.959Z</time>
      </trkpt>
      <trkpt lat="43.79479" lon="2.9646">
        <ele>571</ele>
        <time>2023-08-15T10:18:24.379Z</time>
      </trkpt>
      <trkpt lat="43.79478" lon="2.96455">
        <ele>569</ele>
        <time>2023-08-15T10:18:28.798Z</time>
      </trkpt>
      <trkpt lat="43.79476" lon="2.96451">
        <ele>569</ele>
        <time>2023-08-15T10:18:33.199Z</time>
      </trkpt>
      <trkpt lat="43.79473" lon="2.96448">
        <ele>569</ele>
        <time>2023-08-15T10:18:37.098Z</time>
      </trkpt>
      <trkpt lat="43.79468" lon="2.96446">
        <ele>569</ele>
        <time>2023-08-15T10:18:41.538Z</time>
      </trkpt>
      <trkpt lat="43.79464" lon="2.96445">
        <ele>569</ele>
        <time>2023-08-15T10:18:45.999Z</time>
      </trkpt>
      <trkpt lat="43.7946" lon="2.96444">
        <ele>569</ele>
        <time>2023-08-15T10:18:50.359Z</time>
      </trkpt>
      <trkpt lat="43.79456" lon="2.96441">
        <ele>576</ele>
        <time>2023-08-15T10:18:54.239Z</time>
      </trkpt>
      <trkpt lat="43.79451" lon="2.96436">
        <ele>576</ele>
        <time>2023-08-15T10:18:58.119Z</time>
      </trkpt>
      <trkpt lat="43.79447" lon="2.96433">
        <ele>576</ele>
        <time>2023-08-15T10:19:02.538Z</time>
      </trkpt>
      <trkpt lat="43.79445" lon="2.96429">
        <ele>571</ele>
        <time>2023-08-15T10:19:06.898Z</time>
      </trkpt>
      <trkpt lat="43.79444" lon="2.96428">
        <ele>571</ele>
        <time>2023-08-15T10:19:11.238Z</time>
      </trkpt>
      <trkpt lat="43.79442" lon="2.96426">
        <ele>571</ele>
        <time>2023-08-15T10:19:15.658Z</time>
      </trkpt>
      <trkpt lat="43.79438" lon="2.96424">
        <ele>571</ele>
        <time>2023-08-15T10:19:19.999Z</time>
      </trkpt>
      <trkpt lat="43.79433" lon="2.96421">
        <ele>571</ele>
        <time>2023-08-15T10:19:24.419Z</time>
      </trkpt>
      <trkpt lat="43.79427" lon="2.96419">
        <ele>578</ele>
        <time>2023-08-15T10:19:28.807Z</time>
      </trkpt>
      <trkpt lat="43.7942" lon="2.96415">
        <ele>578</ele>
        <time>2023-08-15T10:19:33.188Z</time>
      </trkpt>
      <trkpt lat="43.79414" lon="2.96412">
        <ele>578</ele>
        <time>2023-08-15T10:19:37.139Z</time>
      </trkpt>
      <trkpt lat="43.79408" lon="2.9641">
        <ele>578</ele>
        <time>2023-08-15T10:19:41.518Z</time>
      </trkpt>
      <trkpt lat="43.79404" lon="2.96407">
        <ele>578</ele>
        <time>2023-08-15T10:19:45.919Z</time>
      </trkpt>
      <trkpt lat="43.79398" lon="2.96404">
        <ele>586</ele>
        <time>2023-08-15T10:19:54.298Z</time>
      </trkpt>
      <trkpt lat="43.79398" lon="2.96404">
        <ele>586</ele>
        <time>2023-08-15T10:19:58.687Z</time>
      </trkpt>
      <trkpt lat="43.79397" lon="2.96403">
        <ele>582</ele>
        <time>2023-08-15T10:20:02.538Z</time>
      </trkpt>
      <trkpt lat="43.79395" lon="2.96401">
        <ele>582</ele>
        <time>2023-08-15T10:20:06.919Z</time>
      </trkpt>
      <trkpt lat="43.79392" lon="2.96399">
        <ele>582</ele>
        <time>2023-08-15T10:20:11.287Z</time>
      </trkpt>
      <trkpt lat="43.79389" lon="2.96396">
        <ele>582</ele>
        <time>2023-08-15T10:20:15.118Z</time>
      </trkpt>
      <trkpt lat="43.79386" lon="2.96391">
        <ele>582</ele>
        <time>2023-08-15T10:20:19.579Z</time>
      </trkpt>
      <trkpt lat="43.79382" lon="2.96386">
        <ele>582</ele>
        <time>2023-08-15T10:20:23.939Z</time>
      </trkpt>
      <trkpt lat="43.79377" lon="2.96381">
        <ele>582</ele>
        <time>2023-08-15T10:20:28.409Z</time>
      </trkpt>
      <trkpt lat="43.79372" lon="2.96377">
        <ele>587</ele>
        <time>2023-08-15T10:20:32.319Z</time>
      </trkpt>
      <trkpt lat="43.79367" lon="2.96372">
        <ele>584</ele>
        <time>2023-08-15T10:20:37.319Z</time>
      </trkpt>
      <trkpt lat="43.79362" lon="2.96365">
        <ele>584</ele>
        <time>2023-08-15T10:20:41.758Z</time>
      </trkpt>
      <trkpt lat="43.79362" lon="2.96365">
        <ele>584</ele>
        <time>2023-08-15T10:20:46.081Z</time>
      </trkpt>
      <trkpt lat="43.79361" lon="2.96362">
        <ele>584</ele>
        <time>2023-08-15T10:20:50.518Z</time>
      </trkpt>
      <trkpt lat="43.79359" lon="2.96359">
        <ele>584</ele>
        <time>2023-08-15T10:20:54.907Z</time>
      </trkpt>
      <trkpt lat="43.79356" lon="2.96355">
        <ele>584</ele>
        <time>2023-08-15T10:20:59.399Z</time>
      </trkpt>
      <trkpt lat="43.79348" lon="2.96345">
        <ele>578</ele>
        <time>2023-08-15T10:21:03.718Z</time>
      </trkpt>
      <trkpt lat="43.79345" lon="2.9634">
        <ele>583</ele>
        <time>2023-08-15T10:21:08.119Z</time>
      </trkpt>
      <trkpt lat="43.79342" lon="2.96336">
        <ele>583</ele>
        <time>2023-08-15T10:21:12.598Z</time>
      </trkpt>
      <trkpt lat="43.79338" lon="2.96331">
        <ele>583</ele>
        <time>2023-08-15T10:21:16.948Z</time>
      </trkpt>
      <trkpt lat="43.79334" lon="2.96328">
        <ele>583</ele>
        <time>2023-08-15T10:21:21.299Z</time>
      </trkpt>
      <trkpt lat="43.79329" lon="2.96323">
        <ele>583</ele>
        <time>2023-08-15T10:21:25.758Z</time>
      </trkpt>
      <trkpt lat="43.79325" lon="2.9632">
        <ele>583</ele>
        <time>2023-08-15T10:21:30.219Z</time>
      </trkpt>
      <trkpt lat="43.79321" lon="2.96318">
        <ele>575</ele>
        <time>2023-08-15T10:21:34.647Z</time>
      </trkpt>
      <trkpt lat="43.79316" lon="2.96316">
        <ele>578</ele>
        <time>2023-08-15T10:21:38.578Z</time>
      </trkpt>
      <trkpt lat="43.79312" lon="2.96315">
        <ele>578</ele>
        <time>2023-08-15T10:21:42.959Z</time>
      </trkpt>
      <trkpt lat="43.79307" lon="2.96313">
        <ele>578</ele>
        <time>2023-08-15T10:21:47.858Z</time>
      </trkpt>
      <trkpt lat="43.79302" lon="2.96311">
        <ele>578</ele>
        <time>2023-08-15T10:21:51.855Z</time>
      </trkpt>
      <trkpt lat="43.79294" lon="2.96306">
        <ele>578</ele>
        <time>2023-08-15T10:21:56.355Z</time>
      </trkpt>
      <trkpt lat="43.79294" lon="2.96305">
        <ele>578</ele>
        <time>2023-08-15T10:22:00.755Z</time>
      </trkpt>
      <trkpt lat="43.79293" lon="2.96306">
        <ele>578</ele>
        <time>2023-08-15T10:22:05.226Z</time>
      </trkpt>
      <trkpt lat="43.7929" lon="2.96307">
        <ele>589</ele>
        <time>2023-08-15T10:22:09.195Z</time>
      </trkpt>
      <trkpt lat="43.79287" lon="2.96308">
        <ele>589</ele>
        <time>2023-08-15T10:22:13.155Z</time>
      </trkpt>
      <trkpt lat="43.79284" lon="2.96307">
        <ele>589</ele>
        <time>2023-08-15T10:22:17.095Z</time>
      </trkpt>
      <trkpt lat="43.79281" lon="2.96308">
        <ele>589</ele>
        <time>2023-08-15T10:22:39.975Z</time>
      </trkpt>
      <trkpt lat="43.79279" lon="2.96308">
        <ele>589</ele>
        <time>2023-08-15T10:22:44.415Z</time>
      </trkpt>
      <trkpt lat="43.79278" lon="2.96307">
        <ele>589</ele>
        <time>2023-08-15T10:22:49.407Z</time>
      </trkpt>
      <trkpt lat="43.79276" lon="2.963">
        <ele>589</ele>
        <time>2023-08-15T10:22:53.375Z</time>
      </trkpt>
      <trkpt lat="43.79273" lon="2.96296">
        <ele>589</ele>
        <time>2023-08-15T10:22:57.875Z</time>
      </trkpt>
      <trkpt lat="43.79269" lon="2.96295">
        <ele>589</ele>
        <time>2023-08-15T10:23:02.275Z</time>
      </trkpt>
      <trkpt lat="43.79268" lon="2.96301">
        <ele>589</ele>
        <time>2023-08-15T10:23:06.215Z</time>
      </trkpt>
      <trkpt lat="43.7927" lon="2.96309">
        <ele>589</ele>
        <time>2023-08-15T10:23:10.615Z</time>
      </trkpt>
      <trkpt lat="43.79275" lon="2.96317">
        <ele>589</ele>
        <time>2023-08-15T10:23:15.015Z</time>
      </trkpt>
      <trkpt lat="43.79279" lon="2.96321">
        <ele>600</ele>
        <time>2023-08-15T10:23:18.955Z</time>
      </trkpt>
      <trkpt lat="43.79285" lon="2.96321">
        <ele>600</ele>
        <time>2023-08-15T10:23:23.915Z</time>
      </trkpt>
      <trkpt lat="43.79289" lon="2.96324">
        <ele>600</ele>
        <time>2023-08-15T10:23:28.875Z</time>
      </trkpt>
      <trkpt lat="43.79293" lon="2.96327">
        <ele>587</ele>
        <time>2023-08-15T10:23:32.815Z</time>
      </trkpt>
      <trkpt lat="43.79297" lon="2.9633">
        <ele>587</ele>
        <time>2023-08-15T10:23:37.215Z</time>
      </trkpt>
      <trkpt lat="43.793" lon="2.96333">
        <ele>587</ele>
        <time>2023-08-15T10:23:41.615Z</time>
      </trkpt>
      <trkpt lat="43.793" lon="2.96336">
        <ele>587</ele>
        <time>2023-08-15T10:23:45.555Z</time>
      </trkpt>
      <trkpt lat="43.79302" lon="2.96341">
        <ele>587</ele>
        <time>2023-08-15T10:23:50.055Z</time>
      </trkpt>
      <trkpt lat="43.79305" lon="2.96347">
        <ele>597</ele>
        <time>2023-08-15T10:23:54.546Z</time>
      </trkpt>
      <trkpt lat="43.79308" lon="2.96354">
        <ele>597</ele>
        <time>2023-08-15T10:23:58.515Z</time>
      </trkpt>
      <trkpt lat="43.79312" lon="2.96362">
        <ele>597</ele>
        <time>2023-08-15T10:24:02.915Z</time>
      </trkpt>
      <trkpt lat="43.79314" lon="2.96368">
        <ele>597</ele>
        <time>2023-08-15T10:24:07.295Z</time>
      </trkpt>
      <trkpt lat="43.79317" lon="2.96374">
        <ele>597</ele>
        <time>2023-08-15T10:24:11.695Z</time>
      </trkpt>
      <trkpt lat="43.7932" lon="2.96374">
        <ele>587</ele>
        <time>2023-08-15T10:24:16.146Z</time>
      </trkpt>
      <trkpt lat="43.79321" lon="2.96375">
        <ele>587</ele>
        <time>2023-08-15T10:24:20.035Z</time>
      </trkpt>
      <trkpt lat="43.79327" lon="2.9638">
        <ele>593</ele>
        <time>2023-08-15T10:24:24.555Z</time>
      </trkpt>
      <trkpt lat="43.79334" lon="2.96382">
        <ele>593</ele>
        <time>2023-08-15T10:24:29.006Z</time>
      </trkpt>
      <trkpt lat="43.79339" lon="2.96385">
        <ele>593</ele>
        <time>2023-08-15T10:24:32.995Z</time>
      </trkpt>
      <trkpt lat="43.79344" lon="2.96389">
        <ele>593</ele>
        <time>2023-08-15T10:24:37.443Z</time>
      </trkpt>
      <trkpt lat="43.7935" lon="2.96394">
        <ele>587</ele>
        <time>2023-08-15T10:24:41.895Z</time>
      </trkpt>
      <trkpt lat="43.79354" lon="2.964">
        <ele>587</ele>
        <time>2023-08-15T10:24:46.406Z</time>
      </trkpt>
      <trkpt lat="43.79359" lon="2.96405">
        <ele>591</ele>
        <time>2023-08-15T10:24:50.235Z</time>
      </trkpt>
      <trkpt lat="43.79363" lon="2.96411">
        <ele>591</ele>
        <time>2023-08-15T10:24:54.755Z</time>
      </trkpt>
      <trkpt lat="43.79366" lon="2.96417">
        <ele>591</ele>
        <time>2023-08-15T10:24:58.695Z</time>
      </trkpt>
      <trkpt lat="43.79368" lon="2.96423">
        <ele>591</ele>
        <time>2023-08-15T10:25:03.095Z</time>
      </trkpt>
      <trkpt lat="43.79371" lon="2.96429">
        <ele>591</ele>
        <time>2023-08-15T10:25:07.424Z</time>
      </trkpt>
      <trkpt lat="43.79373" lon="2.96435">
        <ele>593</ele>
        <time>2023-08-15T10:25:11.875Z</time>
      </trkpt>
      <trkpt lat="43.79373" lon="2.96442">
        <ele>593</ele>
        <time>2023-08-15T10:25:16.275Z</time>
      </trkpt>
      <trkpt lat="43.79365" lon="2.96461">
        <ele>593</ele>
        <time>2023-08-15T10:25:38.015Z</time>
      </trkpt>
      <trkpt lat="43.79365" lon="2.96461">
        <ele>593</ele>
        <time>2023-08-15T10:25:42.535Z</time>
      </trkpt>
      <trkpt lat="43.79364" lon="2.96462">
        <ele>593</ele>
        <time>2023-08-15T10:25:47.035Z</time>
      </trkpt>
      <trkpt lat="43.79364" lon="2.96463">
        <ele>593</ele>
        <time>2023-08-15T10:25:50.975Z</time>
      </trkpt>
      <trkpt lat="43.79364" lon="2.96465">
        <ele>593</ele>
        <time>2023-08-15T10:25:55.935Z</time>
      </trkpt>
      <trkpt lat="43.79361" lon="2.96468">
        <ele>593</ele>
        <time>2023-08-15T10:26:00.410Z</time>
      </trkpt>
      <trkpt lat="43.79357" lon="2.9647">
        <ele>593</ele>
        <time>2023-08-15T10:26:04.955Z</time>
      </trkpt>
      <trkpt lat="43.79351" lon="2.96472">
        <ele>593</ele>
        <time>2023-08-15T10:26:08.895Z</time>
      </trkpt>
      <trkpt lat="43.79344" lon="2.96475">
        <ele>600</ele>
        <time>2023-08-15T10:26:13.175Z</time>
      </trkpt>
      <trkpt lat="43.7934" lon="2.96482">
        <ele>600</ele>
        <time>2023-08-15T10:26:17.575Z</time>
      </trkpt>
      <trkpt lat="43.79339" lon="2.96486">
        <ele>596</ele>
        <time>2023-08-15T10:26:21.515Z</time>
      </trkpt>
      <trkpt lat="43.79336" lon="2.96493">
        <ele>596</ele>
        <time>2023-08-15T10:26:25.915Z</time>
      </trkpt>
      <trkpt lat="43.79332" lon="2.965">
        <ele>596</ele>
        <time>2023-08-15T10:26:30.315Z</time>
      </trkpt>
      <trkpt lat="43.79328" lon="2.96507">
        <ele>596</ele>
        <time>2023-08-15T10:26:34.815Z</time>
      </trkpt>
      <trkpt lat="43.79325" lon="2.9651">
        <ele>596</ele>
        <time>2023-08-15T10:26:38.755Z</time>
      </trkpt>
      <trkpt lat="43.79325" lon="2.96512">
        <ele>596</ele>
        <time>2023-08-15T10:26:43.275Z</time>
      </trkpt>
      <trkpt lat="43.79323" lon="2.96516">
        <ele>594</ele>
        <time>2023-08-15T10:26:47.775Z</time>
      </trkpt>
      <trkpt lat="43.79319" lon="2.96521">
        <ele>600</ele>
        <time>2023-08-15T10:26:51.955Z</time>
      </trkpt>
      <trkpt lat="43.79316" lon="2.96522">
        <ele>600</ele>
        <time>2023-08-15T10:26:57.015Z</time>
      </trkpt>
      <trkpt lat="43.79312" lon="2.96522">
        <ele>600</ele>
        <time>2023-08-15T10:27:01.405Z</time>
      </trkpt>
      <trkpt lat="43.79308" lon="2.96522">
        <ele>600</ele>
        <time>2023-08-15T10:27:05.355Z</time>
      </trkpt>
      <trkpt lat="43.79304" lon="2.96524">
        <ele>600</ele>
        <time>2023-08-15T10:27:09.855Z</time>
      </trkpt>
      <trkpt lat="43.793" lon="2.96525">
        <ele>600</ele>
        <time>2023-08-15T10:27:14.375Z</time>
      </trkpt>
      <trkpt lat="43.79297" lon="2.96525">
        <ele>600</ele>
        <time>2023-08-15T10:27:18.315Z</time>
      </trkpt>
      <trkpt lat="43.79294" lon="2.96527">
        <ele>600</ele>
        <time>2023-08-15T10:27:22.035Z</time>
      </trkpt>
      <trkpt lat="43.79292" lon="2.96533">
        <ele>608</ele>
        <time>2023-08-15T10:27:27.086Z</time>
      </trkpt>
      <trkpt lat="43.7929" lon="2.96539">
        <ele>608</ele>
        <time>2023-08-15T10:27:30.935Z</time>
      </trkpt>
      <trkpt lat="43.7929" lon="2.96546">
        <ele>603</ele>
        <time>2023-08-15T10:27:36.414Z</time>
      </trkpt>
      <trkpt lat="43.79291" lon="2.96549">
        <ele>603</ele>
        <time>2023-08-15T10:27:41.315Z</time>
      </trkpt>
      <trkpt lat="43.79293" lon="2.9655">
        <ele>596</ele>
        <time>2023-08-15T10:27:45.767Z</time>
      </trkpt>
      <trkpt lat="43.79293" lon="2.96552">
        <ele>596</ele>
        <time>2023-08-15T10:27:50.215Z</time>
      </trkpt>
      <trkpt lat="43.79295" lon="2.96557">
        <ele>596</ele>
        <time>2023-08-15T10:27:54.436Z</time>
      </trkpt>
      <trkpt lat="43.79298" lon="2.96565">
        <ele>596</ele>
        <time>2023-08-15T10:27:58.995Z</time>
      </trkpt>
      <trkpt lat="43.79301" lon="2.96571">
        <ele>592</ele>
        <time>2023-08-15T10:28:02.835Z</time>
      </trkpt>
      <trkpt lat="43.79302" lon="2.96578">
        <ele>592</ele>
        <time>2023-08-15T10:28:07.335Z</time>
      </trkpt>
      <trkpt lat="43.79299" lon="2.96588">
        <ele>592</ele>
        <time>2023-08-15T10:28:11.615Z</time>
      </trkpt>
      <trkpt lat="43.79298" lon="2.96598">
        <ele>589</ele>
        <time>2023-08-15T10:28:16.135Z</time>
      </trkpt>
      <trkpt lat="43.79295" lon="2.96611">
        <ele>589</ele>
        <time>2023-08-15T10:28:21.195Z</time>
      </trkpt>
      <trkpt lat="43.79294" lon="2.96623">
        <ele>589</ele>
        <time>2023-08-15T10:28:25.715Z</time>
      </trkpt>
      <trkpt lat="43.79293" lon="2.96633">
        <ele>586</ele>
        <time>2023-08-15T10:28:30.215Z</time>
      </trkpt>
      <trkpt lat="43.79289" lon="2.96644">
        <ele>599</ele>
        <time>2023-08-15T10:28:34.715Z</time>
      </trkpt>
      <trkpt lat="43.79288" lon="2.96651">
        <ele>599</ele>
        <time>2023-08-15T10:28:39.235Z</time>
      </trkpt>
      <trkpt lat="43.79285" lon="2.96657">
        <ele>597</ele>
        <time>2023-08-15T10:28:44.186Z</time>
      </trkpt>
      <trkpt lat="43.79281" lon="2.96663">
        <ele>597</ele>
        <time>2023-08-15T10:28:48.135Z</time>
      </trkpt>
      <trkpt lat="43.79277" lon="2.96669">
        <ele>597</ele>
        <time>2023-08-15T10:28:52.075Z</time>
      </trkpt>
      <trkpt lat="43.7927" lon="2.96677">
        <ele>597</ele>
        <time>2023-08-15T10:28:56.424Z</time>
      </trkpt>
      <trkpt lat="43.79263" lon="2.96688">
        <ele>608</ele>
        <time>2023-08-15T10:29:00.926Z</time>
      </trkpt>
      <trkpt lat="43.79255" lon="2.96701">
        <ele>608</ele>
        <time>2023-08-15T10:29:05.375Z</time>
      </trkpt>
      <trkpt lat="43.79249" lon="2.96711">
        <ele>604</ele>
        <time>2023-08-15T10:29:09.875Z</time>
      </trkpt>
      <trkpt lat="43.79245" lon="2.96718">
        <ele>604</ele>
        <time>2023-08-15T10:29:13.835Z</time>
      </trkpt>
      <trkpt lat="43.79243" lon="2.96723">
        <ele>604</ele>
        <time>2023-08-15T10:29:18.335Z</time>
      </trkpt>
      <trkpt lat="43.79243" lon="2.96729">
        <ele>604</ele>
        <time>2023-08-15T10:29:22.615Z</time>
      </trkpt>
      <trkpt lat="43.79247" lon="2.96734">
        <ele>604</ele>
        <time>2023-08-15T10:29:26.555Z</time>
      </trkpt>
      <trkpt lat="43.79252" lon="2.96737">
        <ele>601</ele>
        <time>2023-08-15T10:29:31.075Z</time>
      </trkpt>
      <trkpt lat="43.79261" lon="2.96739">
        <ele>601</ele>
        <time>2023-08-15T10:29:35.575Z</time>
      </trkpt>
      <trkpt lat="43.79267" lon="2.9674">
        <ele>590</ele>
        <time>2023-08-15T10:29:40.075Z</time>
      </trkpt>
      <trkpt lat="43.79271" lon="2.96744">
        <ele>590</ele>
        <time>2023-08-15T10:29:44.935Z</time>
      </trkpt>
      <trkpt lat="43.79274" lon="2.96748">
        <ele>590</ele>
        <time>2023-08-15T10:29:49.315Z</time>
      </trkpt>
      <trkpt lat="43.7928" lon="2.96752">
        <ele>590</ele>
        <time>2023-08-15T10:29:54.395Z</time>
      </trkpt>
      <trkpt lat="43.79281" lon="2.96754">
        <ele>590</ele>
        <time>2023-08-15T10:29:58.895Z</time>
      </trkpt>
      <trkpt lat="43.7928" lon="2.96755">
        <ele>590</ele>
        <time>2023-08-15T10:30:03.195Z</time>
      </trkpt>
      <trkpt lat="43.79275" lon="2.96759">
        <ele>590</ele>
        <time>2023-08-15T10:30:07.575Z</time>
      </trkpt>
      <trkpt lat="43.79271" lon="2.96765">
        <ele>584</ele>
        <time>2023-08-15T10:30:12.095Z</time>
      </trkpt>
      <trkpt lat="43.79264" lon="2.96774">
        <ele>584</ele>
        <time>2023-08-15T10:30:16.935Z</time>
      </trkpt>
      <trkpt lat="43.79255" lon="2.96784">
        <ele>597</ele>
        <time>2023-08-15T10:30:21.404Z</time>
      </trkpt>
      <trkpt lat="43.79246" lon="2.96793">
        <ele>592</ele>
        <time>2023-08-15T10:30:25.955Z</time>
      </trkpt>
      <trkpt lat="43.79239" lon="2.96801">
        <ele>592</ele>
        <time>2023-08-15T10:30:30.435Z</time>
      </trkpt>
      <trkpt lat="43.79234" lon="2.9681">
        <ele>602</ele>
        <time>2023-08-15T10:30:34.955Z</time>
      </trkpt>
      <trkpt lat="43.79231" lon="2.96819">
        <ele>602</ele>
        <time>2023-08-15T10:30:39.966Z</time>
      </trkpt>
      <trkpt lat="43.79229" lon="2.96827">
        <ele>597</ele>
        <time>2023-08-15T10:30:44.410Z</time>
      </trkpt>
      <trkpt lat="43.79228" lon="2.96835">
        <ele>597</ele>
        <time>2023-08-15T10:30:48.935Z</time>
      </trkpt>
      <trkpt lat="43.79228" lon="2.96841">
        <ele>597</ele>
        <time>2023-08-15T10:30:53.405Z</time>
      </trkpt>
      <trkpt lat="43.79229" lon="2.96845">
        <ele>597</ele>
        <time>2023-08-15T10:30:57.395Z</time>
      </trkpt>
      <trkpt lat="43.79228" lon="2.96848">
        <ele>591</ele>
        <time>2023-08-15T10:31:01.895Z</time>
      </trkpt>
      <trkpt lat="43.79227" lon="2.9685">
        <ele>591</ele>
        <time>2023-08-15T10:31:06.295Z</time>
      </trkpt>
      <trkpt lat="43.79224" lon="2.96853">
        <ele>591</ele>
        <time>2023-08-15T10:31:10.795Z</time>
      </trkpt>
      <trkpt lat="43.79221" lon="2.96857">
        <ele>591</ele>
        <time>2023-08-15T10:31:15.315Z</time>
      </trkpt>
      <trkpt lat="43.79218" lon="2.96863">
        <ele>591</ele>
        <time>2023-08-15T10:31:19.255Z</time>
      </trkpt>
      <trkpt lat="43.79213" lon="2.96871">
        <ele>591</ele>
        <time>2023-08-15T10:31:23.755Z</time>
      </trkpt>
      <trkpt lat="43.79209" lon="2.96878">
        <ele>586</ele>
        <time>2023-08-15T10:31:28.275Z</time>
      </trkpt>
      <trkpt lat="43.79205" lon="2.96882">
        <ele>595</ele>
        <time>2023-08-15T10:31:32.655Z</time>
      </trkpt>
      <trkpt lat="43.79201" lon="2.96879">
        <ele>595</ele>
        <time>2023-08-15T10:31:37.175Z</time>
      </trkpt>
      <trkpt lat="43.79196" lon="2.96875">
        <ele>595</ele>
        <time>2023-08-15T10:31:41.335Z</time>
      </trkpt>
      <trkpt lat="43.79189" lon="2.96869">
        <ele>602</ele>
        <time>2023-08-15T10:31:45.855Z</time>
      </trkpt>
      <trkpt lat="43.79182" lon="2.96867">
        <ele>602</ele>
        <time>2023-08-15T10:31:50.306Z</time>
      </trkpt>
      <trkpt lat="43.79176" lon="2.96866">
        <ele>613</ele>
        <time>2023-08-15T10:31:54.755Z</time>
      </trkpt>
      <trkpt lat="43.7917" lon="2.96867">
        <ele>613</ele>
        <time>2023-08-15T10:31:59.255Z</time>
      </trkpt>
      <trkpt lat="43.79165" lon="2.96869">
        <ele>613</ele>
        <time>2023-08-15T10:32:03.775Z</time>
      </trkpt>
      <trkpt lat="43.79161" lon="2.96869">
        <ele>613</ele>
        <time>2023-08-15T10:32:08.275Z</time>
      </trkpt>
      <trkpt lat="43.79158" lon="2.96867">
        <ele>613</ele>
        <time>2023-08-15T10:32:13.307Z</time>
      </trkpt>
      <trkpt lat="43.78965" lon="2.96987">
        <ele>630</ele>
        <time>2023-08-15T10:36:08.935Z</time>
      </trkpt>
      <trkpt lat="43.78964" lon="2.96991">
        <ele>630</ele>
        <time>2023-08-15T10:36:13.995Z</time>
      </trkpt>
      <trkpt lat="43.78966" lon="2.96994">
        <ele>630</ele>
        <time>2023-08-15T10:36:17.935Z</time>
      </trkpt>
      <trkpt lat="43.78969" lon="2.96995">
        <ele>630</ele>
        <time>2023-08-15T10:36:23.015Z</time>
      </trkpt>
      <trkpt lat="43.78971" lon="2.97003">
        <ele>630</ele>
        <time>2023-08-15T10:36:28.095Z</time>
      </trkpt>
      <trkpt lat="43.78945" lon="2.97001">
        <ele>641</ele>
        <time>2023-08-15T10:36:32.405Z</time>
      </trkpt>
      <trkpt lat="43.78943" lon="2.97024">
        <ele>641</ele>
        <time>2023-08-15T10:37:25.775Z</time>
      </trkpt>
      <trkpt lat="43.78951" lon="2.97028">
        <ele>641</ele>
        <time>2023-08-15T10:37:30.175Z</time>
      </trkpt>
      <trkpt lat="43.78958" lon="2.97033">
        <ele>641</ele>
        <time>2023-08-15T10:37:34.115Z</time>
      </trkpt>
      <trkpt lat="43.78963" lon="2.97038">
        <ele>631</ele>
        <time>2023-08-15T10:37:38.075Z</time>
      </trkpt>
      <trkpt lat="43.78967" lon="2.97042">
        <ele>636</ele>
        <time>2023-08-15T10:37:42.575Z</time>
      </trkpt>
      <trkpt lat="43.78968" lon="2.97044">
        <ele>636</ele>
        <time>2023-08-15T10:37:47.075Z</time>
      </trkpt>
      <trkpt lat="43.7897" lon="2.97046">
        <ele>636</ele>
        <time>2023-08-15T10:37:51.424Z</time>
      </trkpt>
      <trkpt lat="43.78973" lon="2.97049">
        <ele>636</ele>
        <time>2023-08-15T10:37:55.875Z</time>
      </trkpt>
      <trkpt lat="43.78979" lon="2.97056">
        <ele>636</ele>
        <time>2023-08-15T10:38:00.375Z</time>
      </trkpt>
      <trkpt lat="43.78985" lon="2.97064">
        <ele>636</ele>
        <time>2023-08-15T10:38:05.335Z</time>
      </trkpt>
      <trkpt lat="43.78987" lon="2.97068">
        <ele>633</ele>
        <time>2023-08-15T10:38:09.055Z</time>
      </trkpt>
      <trkpt lat="43.78989" lon="2.97071">
        <ele>638</ele>
        <time>2023-08-15T10:38:13.507Z</time>
      </trkpt>
      <trkpt lat="43.78992" lon="2.97077">
        <ele>638</ele>
        <time>2023-08-15T10:38:17.955Z</time>
      </trkpt>
      <trkpt lat="43.78995" lon="2.97096">
        <ele>638</ele>
        <time>2023-08-15T10:38:35.095Z</time>
      </trkpt>
      <trkpt lat="43.78996" lon="2.97099">
        <ele>643</ele>
        <time>2023-08-15T10:38:39.595Z</time>
      </trkpt>
      <trkpt lat="43.79002" lon="2.97102">
        <ele>643</ele>
        <time>2023-08-15T10:38:43.535Z</time>
      </trkpt>
      <trkpt lat="43.79004" lon="2.97104">
        <ele>643</ele>
        <time>2023-08-15T10:38:47.935Z</time>
      </trkpt>
      <trkpt lat="43.79008" lon="2.97111">
        <ele>643</ele>
        <time>2023-08-15T10:38:53.015Z</time>
      </trkpt>
      <trkpt lat="43.79011" lon="2.97117">
        <ele>643</ele>
        <time>2023-08-15T10:38:56.955Z</time>
      </trkpt>
      <trkpt lat="43.79014" lon="2.97124">
        <ele>639</ele>
        <time>2023-08-15T10:39:01.403Z</time>
      </trkpt>
      <trkpt lat="43.7902" lon="2.97132">
        <ele>644</ele>
        <time>2023-08-15T10:39:05.697Z</time>
      </trkpt>
      <trkpt lat="43.79023" lon="2.97137">
        <ele>644</ele>
        <time>2023-08-15T10:39:10.202Z</time>
      </trkpt>
      <trkpt lat="43.79025" lon="2.97142">
        <ele>644</ele>
        <time>2023-08-15T10:39:14.142Z</time>
      </trkpt>
      <trkpt lat="43.79029" lon="2.97146">
        <ele>644</ele>
        <time>2023-08-15T10:39:18.511Z</time>
      </trkpt>
      <trkpt lat="43.79034" lon="2.97149">
        <ele>644</ele>
        <time>2023-08-15T10:39:22.941Z</time>
      </trkpt>
      <trkpt lat="43.79042" lon="2.9715">
        <ele>644</ele>
        <time>2023-08-15T10:39:27.942Z</time>
      </trkpt>
      <trkpt lat="43.7905" lon="2.97147">
        <ele>640</ele>
        <time>2023-08-15T10:39:32.382Z</time>
      </trkpt>
      <trkpt lat="43.79059" lon="2.97144">
        <ele>640</ele>
        <time>2023-08-15T10:39:36.741Z</time>
      </trkpt>
      <trkpt lat="43.79067" lon="2.97144">
        <ele>640</ele>
        <time>2023-08-15T10:39:41.641Z</time>
      </trkpt>
      <trkpt lat="43.79073" lon="2.97145">
        <ele>639</ele>
        <time>2023-08-15T10:39:45.521Z</time>
      </trkpt>
      <trkpt lat="43.7908" lon="2.97149">
        <ele>639</ele>
        <time>2023-08-15T10:39:49.971Z</time>
      </trkpt>
      <trkpt lat="43.79086" lon="2.97154">
        <ele>646</ele>
        <time>2023-08-15T10:39:54.302Z</time>
      </trkpt>
      <trkpt lat="43.79093" lon="2.97159">
        <ele>646</ele>
        <time>2023-08-15T10:39:59.232Z</time>
      </trkpt>
      <trkpt lat="43.79099" lon="2.97163">
        <ele>643</ele>
        <time>2023-08-15T10:40:04.201Z</time>
      </trkpt>
      <trkpt lat="43.79106" lon="2.9717">
        <ele>643</ele>
        <time>2023-08-15T10:40:08.661Z</time>
      </trkpt>
      <trkpt lat="43.79114" lon="2.97175">
        <ele>643</ele>
        <time>2023-08-15T10:40:13.102Z</time>
      </trkpt>
      <trkpt lat="43.7912" lon="2.97178">
        <ele>643</ele>
        <time>2023-08-15T10:40:17.422Z</time>
      </trkpt>
      <trkpt lat="43.79124" lon="2.97181">
        <ele>647</ele>
        <time>2023-08-15T10:40:21.881Z</time>
      </trkpt>
      <trkpt lat="43.79127" lon="2.97184">
        <ele>648</ele>
        <time>2023-08-15T10:40:26.270Z</time>
      </trkpt>
      <trkpt lat="43.7913" lon="2.97187">
        <ele>648</ele>
        <time>2023-08-15T10:40:30.081Z</time>
      </trkpt>
      <trkpt lat="43.79131" lon="2.97191">
        <ele>648</ele>
        <time>2023-08-15T10:40:34.501Z</time>
      </trkpt>
      <trkpt lat="43.79132" lon="2.97194">
        <ele>648</ele>
        <time>2023-08-15T10:40:38.922Z</time>
      </trkpt>
      <trkpt lat="43.79124" lon="2.97192">
        <ele>647</ele>
        <time>2023-08-15T10:40:43.262Z</time>
      </trkpt>
      <trkpt lat="43.79124" lon="2.97194">
        <ele>647</ele>
        <time>2023-08-15T10:40:47.101Z</time>
      </trkpt>
      <trkpt lat="43.79125" lon="2.97197">
        <ele>647</ele>
        <time>2023-08-15T10:40:51.481Z</time>
      </trkpt>
      <trkpt lat="43.79127" lon="2.97202">
        <ele>648</ele>
        <time>2023-08-15T10:40:55.901Z</time>
      </trkpt>
      <trkpt lat="43.7913" lon="2.97206">
        <ele>648</ele>
        <time>2023-08-15T10:41:00.342Z</time>
      </trkpt>
      <trkpt lat="43.79133" lon="2.9721">
        <ele>650</ele>
        <time>2023-08-15T10:41:04.741Z</time>
      </trkpt>
      <trkpt lat="43.79137" lon="2.97214">
        <ele>650</ele>
        <time>2023-08-15T10:41:09.022Z</time>
      </trkpt>
      <trkpt lat="43.79145" lon="2.97223">
        <ele>650</ele>
        <time>2023-08-15T10:41:13.501Z</time>
      </trkpt>
      <trkpt lat="43.79148" lon="2.97227">
        <ele>650</ele>
        <time>2023-08-15T10:41:18.433Z</time>
      </trkpt>
      <trkpt lat="43.7915" lon="2.97229">
        <ele>650</ele>
        <time>2023-08-15T10:41:22.841Z</time>
      </trkpt>
      <trkpt lat="43.79148" lon="2.97238">
        <ele>649</ele>
        <time>2023-08-15T10:41:27.242Z</time>
      </trkpt>
      <trkpt lat="43.79145" lon="2.97245">
        <ele>649</ele>
        <time>2023-08-15T10:41:31.581Z</time>
      </trkpt>
      <trkpt lat="43.79142" lon="2.9725">
        <ele>649</ele>
        <time>2023-08-15T10:41:36.022Z</time>
      </trkpt>
      <trkpt lat="43.79137" lon="2.97258">
        <ele>649</ele>
        <time>2023-08-15T10:41:40.424Z</time>
      </trkpt>
      <trkpt lat="43.79133" lon="2.97266">
        <ele>649</ele>
        <time>2023-08-15T10:41:44.213Z</time>
      </trkpt>
      <trkpt lat="43.79128" lon="2.97271">
        <ele>649</ele>
        <time>2023-08-15T10:41:49.214Z</time>
      </trkpt>
      <trkpt lat="43.79127" lon="2.97273">
        <ele>649</ele>
        <time>2023-08-15T10:41:52.942Z</time>
      </trkpt>
      <trkpt lat="43.79127" lon="2.97275">
        <ele>649</ele>
        <time>2023-08-15T10:41:57.405Z</time>
      </trkpt>
      <trkpt lat="43.79128" lon="2.97283">
        <ele>649</ele>
        <time>2023-08-15T10:42:01.813Z</time>
      </trkpt>
      <trkpt lat="43.79129" lon="2.9729">
        <ele>649</ele>
        <time>2023-08-15T10:42:05.782Z</time>
      </trkpt>
      <trkpt lat="43.79133" lon="2.97298">
        <ele>649</ele>
        <time>2023-08-15T10:42:10.302Z</time>
      </trkpt>
      <trkpt lat="43.79136" lon="2.97305">
        <ele>649</ele>
        <time>2023-08-15T10:42:14.204Z</time>
      </trkpt>
      <trkpt lat="43.79139" lon="2.97314">
        <ele>649</ele>
        <time>2023-08-15T10:42:18.684Z</time>
      </trkpt>
      <trkpt lat="43.7914" lon="2.97321">
        <ele>649</ele>
        <time>2023-08-15T10:42:23.085Z</time>
      </trkpt>
      <trkpt lat="43.79142" lon="2.97328">
        <ele>649</ele>
        <time>2023-08-15T10:42:27.484Z</time>
      </trkpt>
      <trkpt lat="43.79145" lon="2.97335">
        <ele>649</ele>
        <time>2023-08-15T10:42:31.945Z</time>
      </trkpt>
      <trkpt lat="43.79149" lon="2.97341">
        <ele>649</ele>
        <time>2023-08-15T10:42:36.385Z</time>
      </trkpt>
      <trkpt lat="43.79153" lon="2.97348">
        <ele>646</ele>
        <time>2023-08-15T10:42:41.345Z</time>
      </trkpt>
      <trkpt lat="43.79157" lon="2.97354">
        <ele>646</ele>
        <time>2023-08-15T10:42:45.793Z</time>
      </trkpt>
      <trkpt lat="43.79161" lon="2.9736">
        <ele>646</ele>
        <time>2023-08-15T10:42:50.234Z</time>
      </trkpt>
      <trkpt lat="43.79164" lon="2.97361">
        <ele>646</ele>
        <time>2023-08-15T10:42:54.084Z</time>
      </trkpt>
      <trkpt lat="43.79169" lon="2.97365">
        <ele>646</ele>
        <time>2023-08-15T10:42:59.005Z</time>
      </trkpt>
      <trkpt lat="43.79173" lon="2.97369">
        <ele>646</ele>
        <time>2023-08-15T10:43:03.406Z</time>
      </trkpt>
      <trkpt lat="43.79178" lon="2.97372">
        <ele>646</ele>
        <time>2023-08-15T10:43:07.864Z</time>
      </trkpt>
      <trkpt lat="43.79182" lon="2.97375">
        <ele>641</ele>
        <time>2023-08-15T10:43:12.265Z</time>
      </trkpt>
      <trkpt lat="43.79184" lon="2.97381">
        <ele>641</ele>
        <time>2023-08-15T10:43:16.165Z</time>
      </trkpt>
      <trkpt lat="43.79186" lon="2.97388">
        <ele>641</ele>
        <time>2023-08-15T10:43:20.624Z</time>
      </trkpt>
      <trkpt lat="43.79189" lon="2.97393">
        <ele>641</ele>
        <time>2023-08-15T10:43:25.105Z</time>
      </trkpt>
      <trkpt lat="43.79192" lon="2.97397">
        <ele>641</ele>
        <time>2023-08-15T10:43:29.564Z</time>
      </trkpt>
      <trkpt lat="43.79195" lon="2.97403">
        <ele>641</ele>
        <time>2023-08-15T10:43:33.904Z</time>
      </trkpt>
      <trkpt lat="43.79198" lon="2.97406">
        <ele>638</ele>
        <time>2023-08-15T10:43:38.225Z</time>
      </trkpt>
      <trkpt lat="43.79202" lon="2.97409">
        <ele>638</ele>
        <time>2023-08-15T10:43:42.684Z</time>
      </trkpt>
      <trkpt lat="43.79203" lon="2.97413">
        <ele>638</ele>
        <time>2023-08-15T10:43:47.245Z</time>
      </trkpt>
      <trkpt lat="43.79204" lon="2.97418">
        <ele>638</ele>
        <time>2023-08-15T10:43:51.085Z</time>
      </trkpt>
      <trkpt lat="43.79205" lon="2.97423">
        <ele>638</ele>
        <time>2023-08-15T10:43:56.025Z</time>
      </trkpt>
      <trkpt lat="43.79207" lon="2.97428">
        <ele>638</ele>
        <time>2023-08-15T10:44:00.385Z</time>
      </trkpt>
      <trkpt lat="43.79209" lon="2.97434">
        <ele>635</ele>
        <time>2023-08-15T10:44:04.265Z</time>
      </trkpt>
      <trkpt lat="43.79211" lon="2.9744">
        <ele>635</ele>
        <time>2023-08-15T10:44:09.215Z</time>
      </trkpt>
      <trkpt lat="43.79212" lon="2.97447">
        <ele>635</ele>
        <time>2023-08-15T10:44:13.045Z</time>
      </trkpt>
      <trkpt lat="43.79213" lon="2.97453">
        <ele>635</ele>
        <time>2023-08-15T10:44:17.423Z</time>
      </trkpt>
      <trkpt lat="43.79212" lon="2.9746">
        <ele>634</ele>
        <time>2023-08-15T10:44:21.753Z</time>
      </trkpt>
      <trkpt lat="43.79213" lon="2.97466">
        <ele>634</ele>
        <time>2023-08-15T10:44:25.624Z</time>
      </trkpt>
      <trkpt lat="43.79215" lon="2.97473">
        <ele>634</ele>
        <time>2023-08-15T10:44:29.965Z</time>
      </trkpt>
      <trkpt lat="43.79219" lon="2.97477">
        <ele>634</ele>
        <time>2023-08-15T10:44:34.304Z</time>
      </trkpt>
      <trkpt lat="43.79225" lon="2.97474">
        <ele>634</ele>
        <time>2023-08-15T10:44:38.804Z</time>
      </trkpt>
      <trkpt lat="43.79229" lon="2.97468">
        <ele>634</ele>
        <time>2023-08-15T10:44:43.125Z</time>
      </trkpt>
      <trkpt lat="43.79228" lon="2.9746">
        <ele>634</ele>
        <time>2023-08-15T10:44:47.564Z</time>
      </trkpt>
      <trkpt lat="43.79226" lon="2.97452">
        <ele>635</ele>
        <time>2023-08-15T10:44:51.945Z</time>
      </trkpt>
      <trkpt lat="43.79223" lon="2.97445">
        <ele>635</ele>
        <time>2023-08-15T10:44:56.385Z</time>
      </trkpt>
      <trkpt lat="43.79221" lon="2.97437">
        <ele>635</ele>
        <time>2023-08-15T10:45:00.824Z</time>
      </trkpt>
      <trkpt lat="43.79219" lon="2.97431">
        <ele>635</ele>
        <time>2023-08-15T10:45:05.224Z</time>
      </trkpt>
      <trkpt lat="43.79219" lon="2.97424">
        <ele>638</ele>
        <time>2023-08-15T10:45:09.644Z</time>
      </trkpt>
      <trkpt lat="43.79218" lon="2.97417">
        <ele>638</ele>
        <time>2023-08-15T10:45:14.025Z</time>
      </trkpt>
      <trkpt lat="43.79218" lon="2.9741">
        <ele>638</ele>
        <time>2023-08-15T10:45:18.504Z</time>
      </trkpt>
      <trkpt lat="43.79218" lon="2.97402">
        <ele>642</ele>
        <time>2023-08-15T10:45:22.925Z</time>
      </trkpt>
      <trkpt lat="43.79218" lon="2.97395">
        <ele>642</ele>
        <time>2023-08-15T10:45:27.385Z</time>
      </trkpt>
      <trkpt lat="43.7922" lon="2.97387">
        <ele>642</ele>
        <time>2023-08-15T10:45:31.845Z</time>
      </trkpt>
      <trkpt lat="43.79222" lon="2.9738">
        <ele>642</ele>
        <time>2023-08-15T10:45:36.305Z</time>
      </trkpt>
      <trkpt lat="43.79228" lon="2.97377">
        <ele>642</ele>
        <time>2023-08-15T10:45:40.684Z</time>
      </trkpt>
      <trkpt lat="43.79236" lon="2.97381">
        <ele>642</ele>
        <time>2023-08-15T10:45:45.065Z</time>
      </trkpt>
      <trkpt lat="43.7924" lon="2.97391">
        <ele>642</ele>
        <time>2023-08-15T10:45:49.945Z</time>
      </trkpt>
      <trkpt lat="43.79239" lon="2.97401">
        <ele>642</ele>
        <time>2023-08-15T10:45:53.764Z</time>
      </trkpt>
      <trkpt lat="43.79237" lon="2.9741">
        <ele>635</ele>
        <time>2023-08-15T10:45:58.185Z</time>
      </trkpt>
      <trkpt lat="43.79235" lon="2.97418">
        <ele>638</ele>
        <time>2023-08-15T10:46:02.604Z</time>
      </trkpt>
      <trkpt lat="43.79234" lon="2.97424">
        <ele>638</ele>
        <time>2023-08-15T10:46:07.064Z</time>
      </trkpt>
      <trkpt lat="43.79235" lon="2.9743">
        <ele>638</ele>
        <time>2023-08-15T10:46:11.504Z</time>
      </trkpt>
      <trkpt lat="43.79235" lon="2.97436">
        <ele>635</ele>
        <time>2023-08-15T10:46:15.945Z</time>
      </trkpt>
      <trkpt lat="43.79237" lon="2.97442">
        <ele>629</ele>
        <time>2023-08-15T10:46:20.405Z</time>
      </trkpt>
      <trkpt lat="43.79239" lon="2.97448">
        <ele>629</ele>
        <time>2023-08-15T10:46:24.864Z</time>
      </trkpt>
      <trkpt lat="43.79242" lon="2.97453">
        <ele>629</ele>
        <time>2023-08-15T10:46:29.325Z</time>
      </trkpt>
      <trkpt lat="43.79246" lon="2.97459">
        <ele>626</ele>
        <time>2023-08-15T10:46:33.744Z</time>
      </trkpt>
      <trkpt lat="43.79249" lon="2.97463">
        <ele>626</ele>
        <time>2023-08-15T10:46:38.145Z</time>
      </trkpt>
      <trkpt lat="43.79252" lon="2.97467">
        <ele>626</ele>
        <time>2023-08-15T10:46:42.484Z</time>
      </trkpt>
      <trkpt lat="43.79255" lon="2.97471">
        <ele>626</ele>
        <time>2023-08-15T10:46:46.944Z</time>
      </trkpt>
      <trkpt lat="43.79257" lon="2.97478">
        <ele>626</ele>
        <time>2023-08-15T10:46:51.385Z</time>
      </trkpt>
      <trkpt lat="43.7926" lon="2.97486">
        <ele>626</ele>
        <time>2023-08-15T10:46:55.644Z</time>
      </trkpt>
      <trkpt lat="43.79262" lon="2.97494">
        <ele>625</ele>
        <time>2023-08-15T10:47:00.045Z</time>
      </trkpt>
      <trkpt lat="43.79264" lon="2.97502">
        <ele>620</ele>
        <time>2023-08-15T10:47:04.408Z</time>
      </trkpt>
      <trkpt lat="43.79266" lon="2.97509">
        <ele>620</ele>
        <time>2023-08-15T10:47:08.245Z</time>
      </trkpt>
      <trkpt lat="43.79266" lon="2.97517">
        <ele>617</ele>
        <time>2023-08-15T10:47:13.245Z</time>
      </trkpt>
      <trkpt lat="43.79268" lon="2.97525">
        <ele>617</ele>
        <time>2023-08-15T10:47:17.524Z</time>
      </trkpt>
      <trkpt lat="43.79269" lon="2.97532">
        <ele>617</ele>
        <time>2023-08-15T10:47:21.924Z</time>
      </trkpt>
      <trkpt lat="43.7927" lon="2.97539">
        <ele>617</ele>
        <time>2023-08-15T10:47:26.264Z</time>
      </trkpt>
      <trkpt lat="43.79272" lon="2.97545">
        <ele>616</ele>
        <time>2023-08-15T10:47:30.604Z</time>
      </trkpt>
      <trkpt lat="43.79275" lon="2.97548">
        <ele>616</ele>
        <time>2023-08-15T10:47:34.965Z</time>
      </trkpt>
      <trkpt lat="43.79278" lon="2.97555">
        <ele>616</ele>
        <time>2023-08-15T10:47:39.345Z</time>
      </trkpt>
      <trkpt lat="43.79278" lon="2.97562">
        <ele>616</ele>
        <time>2023-08-15T10:47:43.724Z</time>
      </trkpt>
      <trkpt lat="43.79279" lon="2.9757">
        <ele>614</ele>
        <time>2023-08-15T10:47:48.025Z</time>
      </trkpt>
      <trkpt lat="43.79278" lon="2.97579">
        <ele>614</ele>
        <time>2023-08-15T10:47:52.544Z</time>
      </trkpt>
      <trkpt lat="43.79277" lon="2.97588">
        <ele>614</ele>
        <time>2023-08-15T10:47:56.885Z</time>
      </trkpt>
      <trkpt lat="43.79278" lon="2.97596">
        <ele>614</ele>
        <time>2023-08-15T10:48:01.305Z</time>
      </trkpt>
      <trkpt lat="43.79278" lon="2.97604">
        <ele>612</ele>
        <time>2023-08-15T10:48:05.604Z</time>
      </trkpt>
      <trkpt lat="43.79279" lon="2.97609">
        <ele>612</ele>
        <time>2023-08-15T10:48:09.985Z</time>
      </trkpt>
      <trkpt lat="43.79279" lon="2.97613">
        <ele>612</ele>
        <time>2023-08-15T10:48:14.405Z</time>
      </trkpt>
      <trkpt lat="43.7928" lon="2.97621">
        <ele>612</ele>
        <time>2023-08-15T10:48:18.724Z</time>
      </trkpt>
      <trkpt lat="43.79285" lon="2.97636">
        <ele>613</ele>
        <time>2023-08-15T10:48:36.365Z</time>
      </trkpt>
      <trkpt lat="43.79285" lon="2.97643">
        <ele>613</ele>
        <time>2023-08-15T10:48:40.724Z</time>
      </trkpt>
      <trkpt lat="43.79285" lon="2.97652">
        <ele>613</ele>
        <time>2023-08-15T10:48:45.154Z</time>
      </trkpt>
      <trkpt lat="43.79287" lon="2.97661">
        <ele>615</ele>
        <time>2023-08-15T10:48:49.025Z</time>
      </trkpt>
      <trkpt lat="43.79288" lon="2.97671">
        <ele>615</ele>
        <time>2023-08-15T10:48:53.944Z</time>
      </trkpt>
      <trkpt lat="43.7929" lon="2.97679">
        <ele>615</ele>
        <time>2023-08-15T10:48:58.305Z</time>
      </trkpt>
      <trkpt lat="43.7929" lon="2.97688">
        <ele>617</ele>
        <time>2023-08-15T10:49:02.165Z</time>
      </trkpt>
      <trkpt lat="43.7929" lon="2.97697">
        <ele>617</ele>
        <time>2023-08-15T10:49:07.064Z</time>
      </trkpt>
      <trkpt lat="43.7929" lon="2.97705">
        <ele>617</ele>
        <time>2023-08-15T10:49:11.434Z</time>
      </trkpt>
      <trkpt lat="43.79292" lon="2.97714">
        <ele>605</ele>
        <time>2023-08-15T10:49:15.884Z</time>
      </trkpt>
      <trkpt lat="43.79294" lon="2.97721">
        <ele>605</ele>
        <time>2023-08-15T10:49:19.744Z</time>
      </trkpt>
      <trkpt lat="43.79296" lon="2.97728">
        <ele>605</ele>
        <time>2023-08-15T10:49:24.205Z</time>
      </trkpt>
      <trkpt lat="43.79298" lon="2.97736">
        <ele>605</ele>
        <time>2023-08-15T10:49:28.664Z</time>
      </trkpt>
      <trkpt lat="43.79301" lon="2.97743">
        <ele>605</ele>
        <time>2023-08-15T10:49:32.924Z</time>
      </trkpt>
      <trkpt lat="43.79303" lon="2.97749">
        <ele>605</ele>
        <time>2023-08-15T10:49:37.345Z</time>
      </trkpt>
      <trkpt lat="43.79307" lon="2.97755">
        <ele>605</ele>
        <time>2023-08-15T10:49:41.824Z</time>
      </trkpt>
      <trkpt lat="43.79309" lon="2.97763">
        <ele>605</ele>
        <time>2023-08-15T10:49:46.285Z</time>
      </trkpt>
      <trkpt lat="43.79312" lon="2.9777">
        <ele>602</ele>
        <time>2023-08-15T10:49:50.184Z</time>
      </trkpt>
      <trkpt lat="43.79314" lon="2.97779">
        <ele>602</ele>
        <time>2023-08-15T10:49:54.673Z</time>
      </trkpt>
      <trkpt lat="43.79315" lon="2.97787">
        <ele>602</ele>
        <time>2023-08-15T10:49:58.484Z</time>
      </trkpt>
      <trkpt lat="43.79317" lon="2.97795">
        <ele>603</ele>
        <time>2023-08-15T10:50:02.925Z</time>
      </trkpt>
      <trkpt lat="43.7932" lon="2.97802">
        <ele>596</ele>
        <time>2023-08-15T10:50:07.345Z</time>
      </trkpt>
      <trkpt lat="43.79323" lon="2.97809">
        <ele>596</ele>
        <time>2023-08-15T10:50:11.704Z</time>
      </trkpt>
      <trkpt lat="43.79325" lon="2.97817">
        <ele>596</ele>
        <time>2023-08-15T10:50:16.165Z</time>
      </trkpt>
      <trkpt lat="43.79327" lon="2.97824">
        <ele>595</ele>
        <time>2023-08-15T10:50:20.484Z</time>
      </trkpt>
      <trkpt lat="43.79329" lon="2.97831">
        <ele>595</ele>
        <time>2023-08-15T10:50:25.375Z</time>
      </trkpt>
      <trkpt lat="43.79331" lon="2.97837">
        <ele>595</ele>
        <time>2023-08-15T10:50:29.205Z</time>
      </trkpt>
      <trkpt lat="43.79332" lon="2.97844">
        <ele>595</ele>
        <time>2023-08-15T10:50:33.553Z</time>
      </trkpt>
      <trkpt lat="43.79333" lon="2.9785">
        <ele>593</ele>
        <time>2023-08-15T10:50:37.993Z</time>
      </trkpt>
      <trkpt lat="43.79336" lon="2.97855">
        <ele>593</ele>
        <time>2023-08-15T10:50:42.364Z</time>
      </trkpt>
      <trkpt lat="43.79338" lon="2.9786">
        <ele>593</ele>
        <time>2023-08-15T10:50:46.653Z</time>
      </trkpt>
      <trkpt lat="43.7934" lon="2.97866">
        <ele>593</ele>
        <time>2023-08-15T10:50:50.484Z</time>
      </trkpt>
      <trkpt lat="43.79343" lon="2.97871">
        <ele>593</ele>
        <time>2023-08-15T10:50:55.385Z</time>
      </trkpt>
      <trkpt lat="43.79347" lon="2.97872">
        <ele>593</ele>
        <time>2023-08-15T10:50:59.824Z</time>
      </trkpt>
      <trkpt lat="43.7935" lon="2.97875">
        <ele>585</ele>
        <time>2023-08-15T10:51:04.225Z</time>
      </trkpt>
      <trkpt lat="43.79353" lon="2.97879">
        <ele>586</ele>
        <time>2023-08-15T10:51:08.673Z</time>
      </trkpt>
      <trkpt lat="43.79355" lon="2.97885">
        <ele>586</ele>
        <time>2023-08-15T10:51:12.945Z</time>
      </trkpt>
      <trkpt lat="43.79354" lon="2.97892">
        <ele>586</ele>
        <time>2023-08-15T10:51:17.374Z</time>
      </trkpt>
      <trkpt lat="43.79354" lon="2.97898">
        <ele>586</ele>
        <time>2023-08-15T10:51:21.245Z</time>
      </trkpt>
      <trkpt lat="43.79355" lon="2.97903">
        <ele>585</ele>
        <time>2023-08-15T10:51:25.604Z</time>
      </trkpt>
      <trkpt lat="43.79358" lon="2.97906">
        <ele>585</ele>
        <time>2023-08-15T10:51:30.005Z</time>
      </trkpt>
      <trkpt lat="43.79361" lon="2.97909">
        <ele>585</ele>
        <time>2023-08-15T10:51:34.427Z</time>
      </trkpt>
      <trkpt lat="43.79366" lon="2.97914">
        <ele>585</ele>
        <time>2023-08-15T10:51:38.844Z</time>
      </trkpt>
      <trkpt lat="43.79371" lon="2.97918">
        <ele>585</ele>
        <time>2023-08-15T10:51:43.225Z</time>
      </trkpt>
      <trkpt lat="43.79375" lon="2.97922">
        <ele>579</ele>
        <time>2023-08-15T10:51:47.684Z</time>
      </trkpt>
      <trkpt lat="43.79379" lon="2.97926">
        <ele>579</ele>
        <time>2023-08-15T10:51:52.065Z</time>
      </trkpt>
      <trkpt lat="43.79382" lon="2.97931">
        <ele>579</ele>
        <time>2023-08-15T10:51:56.428Z</time>
      </trkpt>
      <trkpt lat="43.79385" lon="2.97936">
        <ele>579</ele>
        <time>2023-08-15T10:52:00.885Z</time>
      </trkpt>
      <trkpt lat="43.79388" lon="2.9794">
        <ele>579</ele>
        <time>2023-08-15T10:52:05.385Z</time>
      </trkpt>
      <trkpt lat="43.79391" lon="2.97945">
        <ele>579</ele>
        <time>2023-08-15T10:52:09.844Z</time>
      </trkpt>
      <trkpt lat="43.79392" lon="2.97952">
        <ele>579</ele>
        <time>2023-08-15T10:52:14.184Z</time>
      </trkpt>
      <trkpt lat="43.79394" lon="2.97959">
        <ele>579</ele>
        <time>2023-08-15T10:52:18.584Z</time>
      </trkpt>
      <trkpt lat="43.79396" lon="2.97965">
        <ele>579</ele>
        <time>2023-08-15T10:52:22.925Z</time>
      </trkpt>
      <trkpt lat="43.79397" lon="2.97971">
        <ele>579</ele>
        <time>2023-08-15T10:52:27.365Z</time>
      </trkpt>
      <trkpt lat="43.79398" lon="2.97976">
        <ele>579</ele>
        <time>2023-08-15T10:52:31.764Z</time>
      </trkpt>
      <trkpt lat="43.79398" lon="2.97983">
        <ele>579</ele>
        <time>2023-08-15T10:52:36.165Z</time>
      </trkpt>
      <trkpt lat="43.79399" lon="2.9799">
        <ele>576</ele>
        <time>2023-08-15T10:52:40.484Z</time>
      </trkpt>
      <trkpt lat="43.79397" lon="2.97998">
        <ele>576</ele>
        <time>2023-08-15T10:52:44.904Z</time>
      </trkpt>
      <trkpt lat="43.79394" lon="2.98005">
        <ele>576</ele>
        <time>2023-08-15T10:52:49.264Z</time>
      </trkpt>
      <trkpt lat="43.79391" lon="2.98012">
        <ele>576</ele>
        <time>2023-08-15T10:52:53.533Z</time>
      </trkpt>
      <trkpt lat="43.7939" lon="2.98021">
        <ele>575</ele>
        <time>2023-08-15T10:52:57.944Z</time>
      </trkpt>
      <trkpt lat="43.7939" lon="2.98029">
        <ele>575</ele>
        <time>2023-08-15T10:53:02.405Z</time>
      </trkpt>
      <trkpt lat="43.79391" lon="2.98032">
        <ele>575</ele>
        <time>2023-08-15T10:53:06.943Z</time>
      </trkpt>
      <trkpt lat="43.79392" lon="2.98033">
        <ele>575</ele>
        <time>2023-08-15T10:53:12.023Z</time>
      </trkpt>
      <trkpt lat="43.79394" lon="2.98036">
        <ele>575</ele>
        <time>2023-08-15T10:53:16.515Z</time>
      </trkpt>
      <trkpt lat="43.79398" lon="2.98042">
        <ele>575</ele>
        <time>2023-08-15T10:53:20.923Z</time>
      </trkpt>
      <trkpt lat="43.79402" lon="2.98048">
        <ele>575</ele>
        <time>2023-08-15T10:53:25.305Z</time>
      </trkpt>
      <trkpt lat="43.79403" lon="2.98055">
        <ele>568</ele>
        <time>2023-08-15T10:53:29.086Z</time>
      </trkpt>
      <trkpt lat="43.79404" lon="2.98063">
        <ele>568</ele>
        <time>2023-08-15T10:53:33.565Z</time>
      </trkpt>
      <trkpt lat="43.79404" lon="2.9807">
        <ele>562</ele>
        <time>2023-08-15T10:53:37.945Z</time>
      </trkpt>
      <trkpt lat="43.79401" lon="2.98076">
        <ele>573</ele>
        <time>2023-08-15T10:53:41.825Z</time>
      </trkpt>
      <trkpt lat="43.79398" lon="2.98083">
        <ele>573</ele>
        <time>2023-08-15T10:53:46.265Z</time>
      </trkpt>
      <trkpt lat="43.79397" lon="2.9809">
        <ele>573</ele>
        <time>2023-08-15T10:53:50.725Z</time>
      </trkpt>
      <trkpt lat="43.79397" lon="2.98097">
        <ele>573</ele>
        <time>2023-08-15T10:53:55.166Z</time>
      </trkpt>
      <trkpt lat="43.79397" lon="2.98105">
        <ele>568</ele>
        <time>2023-08-15T10:53:59.445Z</time>
      </trkpt>
      <trkpt lat="43.79396" lon="2.98114">
        <ele>568</ele>
        <time>2023-08-15T10:54:03.886Z</time>
      </trkpt>
      <trkpt lat="43.79394" lon="2.98122">
        <ele>568</ele>
        <time>2023-08-15T10:54:08.105Z</time>
      </trkpt>
      <trkpt lat="43.79392" lon="2.98129">
        <ele>563</ele>
        <time>2023-08-15T10:54:12.565Z</time>
      </trkpt>
      <trkpt lat="43.7939" lon="2.98136">
        <ele>563</ele>
        <time>2023-08-15T10:54:16.926Z</time>
      </trkpt>
      <trkpt lat="43.7939" lon="2.98141">
        <ele>563</ele>
        <time>2023-08-15T10:54:21.326Z</time>
      </trkpt>
      <trkpt lat="43.79389" lon="2.9815">
        <ele>563</ele>
        <time>2023-08-15T10:54:25.745Z</time>
      </trkpt>
      <trkpt lat="43.79389" lon="2.98158">
        <ele>562</ele>
        <time>2023-08-15T10:54:30.205Z</time>
      </trkpt>
      <trkpt lat="43.79387" lon="2.98165">
        <ele>562</ele>
        <time>2023-08-15T10:54:34.085Z</time>
      </trkpt>
      <trkpt lat="43.79384" lon="2.98174">
        <ele>562</ele>
        <time>2023-08-15T10:54:38.525Z</time>
      </trkpt>
      <trkpt lat="43.79381" lon="2.98182">
        <ele>559</ele>
        <time>2023-08-15T10:54:42.926Z</time>
      </trkpt>
      <trkpt lat="43.79377" lon="2.9819">
        <ele>559</ele>
        <time>2023-08-15T10:54:47.346Z</time>
      </trkpt>
      <trkpt lat="43.79374" lon="2.98196">
        <ele>568</ele>
        <time>2023-08-15T10:54:51.725Z</time>
      </trkpt>
      <trkpt lat="43.7937" lon="2.98201">
        <ele>568</ele>
        <time>2023-08-15T10:54:56.107Z</time>
      </trkpt>
      <trkpt lat="43.79367" lon="2.98205">
        <ele>568</ele>
        <time>2023-08-15T10:54:59.985Z</time>
      </trkpt>
      <trkpt lat="43.79364" lon="2.98209">
        <ele>565</ele>
        <time>2023-08-15T10:55:04.366Z</time>
      </trkpt>
      <trkpt lat="43.79362" lon="2.98214">
        <ele>565</ele>
        <time>2023-08-15T10:55:08.765Z</time>
      </trkpt>
      <trkpt lat="43.79361" lon="2.98219">
        <ele>565</ele>
        <time>2023-08-15T10:55:13.145Z</time>
      </trkpt>
      <trkpt lat="43.79361" lon="2.98224">
        <ele>565</ele>
        <time>2023-08-15T10:55:17.625Z</time>
      </trkpt>
      <trkpt lat="43.79361" lon="2.98229">
        <ele>565</ele>
        <time>2023-08-15T10:55:22.046Z</time>
      </trkpt>
      <trkpt lat="43.79361" lon="2.98219">
        <ele>565</ele>
        <time>2023-08-15T10:55:26.565Z</time>
      </trkpt>
      <trkpt lat="43.7936" lon="2.98225">
        <ele>565</ele>
        <time>2023-08-15T10:55:30.885Z</time>
      </trkpt>
      <trkpt lat="43.7936" lon="2.98234">
        <ele>565</ele>
        <time>2023-08-15T10:55:35.785Z</time>
      </trkpt>
      <trkpt lat="43.79363" lon="2.98243">
        <ele>565</ele>
        <time>2023-08-15T10:55:40.166Z</time>
      </trkpt>
      <trkpt lat="43.79368" lon="2.98249">
        <ele>565</ele>
        <time>2023-08-15T10:55:44.605Z</time>
      </trkpt>
      <trkpt lat="43.79371" lon="2.98256">
        <ele>565</ele>
        <time>2023-08-15T10:55:49.046Z</time>
      </trkpt>
      <trkpt lat="43.79376" lon="2.98261">
        <ele>556</ele>
        <time>2023-08-15T10:55:53.406Z</time>
      </trkpt>
      <trkpt lat="43.79382" lon="2.98267">
        <ele>560</ele>
        <time>2023-08-15T10:55:58.335Z</time>
      </trkpt>
      <trkpt lat="43.79389" lon="2.98272">
        <ele>560</ele>
        <time>2023-08-15T10:56:02.145Z</time>
      </trkpt>
      <trkpt lat="43.79396" lon="2.98278">
        <ele>560</ele>
        <time>2023-08-15T10:56:06.525Z</time>
      </trkpt>
      <trkpt lat="43.79403" lon="2.98284">
        <ele>560</ele>
        <time>2023-08-15T10:56:10.865Z</time>
      </trkpt>
      <trkpt lat="43.7941" lon="2.98289">
        <ele>551</ele>
        <time>2023-08-15T10:56:15.305Z</time>
      </trkpt>
      <trkpt lat="43.79417" lon="2.98294">
        <ele>555</ele>
        <time>2023-08-15T10:56:19.765Z</time>
      </trkpt>
      <trkpt lat="43.79422" lon="2.98297">
        <ele>555</ele>
        <time>2023-08-15T10:56:24.066Z</time>
      </trkpt>
      <trkpt lat="43.79428" lon="2.98302">
        <ele>555</ele>
        <time>2023-08-15T10:56:28.505Z</time>
      </trkpt>
      <trkpt lat="43.79427" lon="2.98309">
        <ele>555</ele>
        <time>2023-08-15T10:56:32.885Z</time>
      </trkpt>
      <trkpt lat="43.79429" lon="2.98316">
        <ele>555</ele>
        <time>2023-08-15T10:56:54.404Z</time>
      </trkpt>
      <trkpt lat="43.79435" lon="2.98319">
        <ele>548</ele>
        <time>2023-08-15T10:56:58.785Z</time>
      </trkpt>
      <trkpt lat="43.79441" lon="2.98321">
        <ele>553</ele>
        <time>2023-08-15T10:57:03.186Z</time>
      </trkpt>
      <trkpt lat="43.79447" lon="2.98325">
        <ele>553</ele>
        <time>2023-08-15T10:57:07.525Z</time>
      </trkpt>
      <trkpt lat="43.79452" lon="2.98332">
        <ele>553</ele>
        <time>2023-08-15T10:57:11.945Z</time>
      </trkpt>
      <trkpt lat="43.79456" lon="2.98341">
        <ele>553</ele>
        <time>2023-08-15T10:57:16.366Z</time>
      </trkpt>
      <trkpt lat="43.79462" lon="2.98346">
        <ele>545</ele>
        <time>2023-08-15T10:57:20.645Z</time>
      </trkpt>
      <trkpt lat="43.7947" lon="2.98347">
        <ele>545</ele>
        <time>2023-08-15T10:57:24.966Z</time>
      </trkpt>
      <trkpt lat="43.79475" lon="2.98348">
        <ele>550</ele>
        <time>2023-08-15T10:57:29.326Z</time>
      </trkpt>
      <trkpt lat="43.79481" lon="2.98349">
        <ele>550</ele>
        <time>2023-08-15T10:57:34.235Z</time>
      </trkpt>
      <trkpt lat="43.79486" lon="2.98352">
        <ele>541</ele>
        <time>2023-08-15T10:57:38.086Z</time>
      </trkpt>
      <trkpt lat="43.79491" lon="2.98356">
        <ele>541</ele>
        <time>2023-08-15T10:57:42.430Z</time>
      </trkpt>
      <trkpt lat="43.79495" lon="2.98361">
        <ele>541</ele>
        <time>2023-08-15T10:57:46.946Z</time>
      </trkpt>
      <trkpt lat="43.79499" lon="2.98364">
        <ele>541</ele>
        <time>2023-08-15T10:57:51.305Z</time>
      </trkpt>
      <trkpt lat="43.79502" lon="2.98368">
        <ele>541</ele>
        <time>2023-08-15T10:57:55.186Z</time>
      </trkpt>
      <trkpt lat="43.79504" lon="2.98374">
        <ele>541</ele>
        <time>2023-08-15T10:57:59.605Z</time>
      </trkpt>
      <trkpt lat="43.79506" lon="2.9838">
        <ele>545</ele>
        <time>2023-08-15T10:58:03.986Z</time>
      </trkpt>
      <trkpt lat="43.79508" lon="2.98384">
        <ele>545</ele>
        <time>2023-08-15T10:58:08.407Z</time>
      </trkpt>
      <trkpt lat="43.7951" lon="2.98387">
        <ele>545</ele>
        <time>2023-08-15T10:58:12.346Z</time>
      </trkpt>
      <trkpt lat="43.79514" lon="2.98389">
        <ele>545</ele>
        <time>2023-08-15T10:58:16.674Z</time>
      </trkpt>
      <trkpt lat="43.79519" lon="2.9839">
        <ele>535</ele>
        <time>2023-08-15T10:58:21.146Z</time>
      </trkpt>
      <trkpt lat="43.79526" lon="2.9839">
        <ele>535</ele>
        <time>2023-08-15T10:58:26.135Z</time>
      </trkpt>
      <trkpt lat="43.79531" lon="2.98389">
        <ele>535</ele>
        <time>2023-08-15T10:58:29.946Z</time>
      </trkpt>
      <trkpt lat="43.79536" lon="2.9839">
        <ele>535</ele>
        <time>2023-08-15T10:58:34.326Z</time>
      </trkpt>
      <trkpt lat="43.79541" lon="2.98393">
        <ele>535</ele>
        <time>2023-08-15T10:58:38.725Z</time>
      </trkpt>
      <trkpt lat="43.79545" lon="2.98396">
        <ele>527</ele>
        <time>2023-08-15T10:58:43.166Z</time>
      </trkpt>
      <trkpt lat="43.79549" lon="2.984">
        <ele>527</ele>
        <time>2023-08-15T10:58:47.625Z</time>
      </trkpt>
      <trkpt lat="43.79553" lon="2.98404">
        <ele>530</ele>
        <time>2023-08-15T10:58:52.026Z</time>
      </trkpt>
      <trkpt lat="43.79556" lon="2.98409">
        <ele>530</ele>
        <time>2023-08-15T10:58:56.465Z</time>
      </trkpt>
      <trkpt lat="43.79561" lon="2.98411">
        <ele>530</ele>
        <time>2023-08-15T10:59:00.874Z</time>
      </trkpt>
      <trkpt lat="43.79565" lon="2.98415">
        <ele>530</ele>
        <time>2023-08-15T10:59:05.245Z</time>
      </trkpt>
      <trkpt lat="43.79565" lon="2.98419">
        <ele>530</ele>
        <time>2023-08-15T10:59:09.066Z</time>
      </trkpt>
      <trkpt lat="43.79568" lon="2.98423">
        <ele>530</ele>
        <time>2023-08-15T10:59:13.406Z</time>
      </trkpt>
      <trkpt lat="43.79572" lon="2.98425">
        <ele>525</ele>
        <time>2023-08-15T10:59:17.794Z</time>
      </trkpt>
      <trkpt lat="43.79576" lon="2.98429">
        <ele>525</ele>
        <time>2023-08-15T10:59:22.146Z</time>
      </trkpt>
      <trkpt lat="43.79579" lon="2.98437">
        <ele>529</ele>
        <time>2023-08-15T10:59:27.146Z</time>
      </trkpt>
      <trkpt lat="43.79581" lon="2.98446">
        <ele>529</ele>
        <time>2023-08-15T10:59:31.565Z</time>
      </trkpt>
      <trkpt lat="43.79583" lon="2.98454">
        <ele>529</ele>
        <time>2023-08-15T10:59:35.986Z</time>
      </trkpt>
      <trkpt lat="43.79588" lon="2.98459">
        <ele>531</ele>
        <time>2023-08-15T10:59:40.433Z</time>
      </trkpt>
      <trkpt lat="43.79593" lon="2.98462">
        <ele>531</ele>
        <time>2023-08-15T10:59:44.365Z</time>
      </trkpt>
      <trkpt lat="43.796" lon="2.98464">
        <ele>527</ele>
        <time>2023-08-15T10:59:48.785Z</time>
      </trkpt>
      <trkpt lat="43.79605" lon="2.98467">
        <ele>527</ele>
        <time>2023-08-15T10:59:53.106Z</time>
      </trkpt>
      <trkpt lat="43.79609" lon="2.98471">
        <ele>527</ele>
        <time>2023-08-15T10:59:57.545Z</time>
      </trkpt>
      <trkpt lat="43.79613" lon="2.98476">
        <ele>527</ele>
        <time>2023-08-15T11:00:01.925Z</time>
      </trkpt>
      <trkpt lat="43.79616" lon="2.98482">
        <ele>527</ele>
        <time>2023-08-15T11:00:06.286Z</time>
      </trkpt>
      <trkpt lat="43.79621" lon="2.98485">
        <ele>527</ele>
        <time>2023-08-15T11:00:10.665Z</time>
      </trkpt>
      <trkpt lat="43.79624" lon="2.9848">
        <ele>527</ele>
        <time>2023-08-15T11:00:15.085Z</time>
      </trkpt>
      <trkpt lat="43.79622" lon="2.98468">
        <ele>527</ele>
        <time>2023-08-15T11:00:19.505Z</time>
      </trkpt>
      <trkpt lat="43.79617" lon="2.9846">
        <ele>527</ele>
        <time>2023-08-15T11:00:23.985Z</time>
      </trkpt>
      <trkpt lat="43.79612" lon="2.98454">
        <ele>522</ele>
        <time>2023-08-15T11:00:28.326Z</time>
      </trkpt>
      <trkpt lat="43.79608" lon="2.98448">
        <ele>522</ele>
        <time>2023-08-15T11:00:32.765Z</time>
      </trkpt>
      <trkpt lat="43.79605" lon="2.9844">
        <ele>522</ele>
        <time>2023-08-15T11:00:37.146Z</time>
      </trkpt>
      <trkpt lat="43.79604" lon="2.98431">
        <ele>522</ele>
        <time>2023-08-15T11:00:41.425Z</time>
      </trkpt>
      <trkpt lat="43.79604" lon="2.9842">
        <ele>519</ele>
        <time>2023-08-15T11:00:45.805Z</time>
      </trkpt>
      <trkpt lat="43.79604" lon="2.9841">
        <ele>519</ele>
        <time>2023-08-15T11:00:50.186Z</time>
      </trkpt>
      <trkpt lat="43.79608" lon="2.98409">
        <ele>519</ele>
        <time>2023-08-15T11:00:54.545Z</time>
      </trkpt>
      <trkpt lat="43.79608" lon="2.98402">
        <ele>514</ele>
        <time>2023-08-15T11:00:58.946Z</time>
      </trkpt>
      <trkpt lat="43.79605" lon="2.98394">
        <ele>514</ele>
        <time>2023-08-15T11:01:03.405Z</time>
      </trkpt>
      <trkpt lat="43.79601" lon="2.98394">
        <ele>514</ele>
        <time>2023-08-15T11:01:07.345Z</time>
      </trkpt>
      <trkpt lat="43.79597" lon="2.98391">
        <ele>520</ele>
        <time>2023-08-15T11:01:11.745Z</time>
      </trkpt>
      <trkpt lat="43.79593" lon="2.98386">
        <ele>520</ele>
        <time>2023-08-15T11:01:16.106Z</time>
      </trkpt>
      <trkpt lat="43.79586" lon="2.98382">
        <ele>520</ele>
        <time>2023-08-15T11:01:20.525Z</time>
      </trkpt>
      <trkpt lat="43.7958" lon="2.98377">
        <ele>520</ele>
        <time>2023-08-15T11:01:25.403Z</time>
      </trkpt>
      <trkpt lat="43.79576" lon="2.98374">
        <ele>514</ele>
        <time>2023-08-15T11:01:29.310Z</time>
      </trkpt>
      <trkpt lat="43.79572" lon="2.98368">
        <ele>514</ele>
        <time>2023-08-15T11:01:33.830Z</time>
      </trkpt>
      <trkpt lat="43.79569" lon="2.98362">
        <ele>522</ele>
        <time>2023-08-15T11:01:38.210Z</time>
      </trkpt>
      <trkpt lat="43.79566" lon="2.98357">
        <ele>522</ele>
        <time>2023-08-15T11:01:42.610Z</time>
      </trkpt>
      <trkpt lat="43.79563" lon="2.9835">
        <ele>522</ele>
        <time>2023-08-15T11:01:47.071Z</time>
      </trkpt>
      <trkpt lat="43.79562" lon="2.98344">
        <ele>517</ele>
        <time>2023-08-15T11:01:51.393Z</time>
      </trkpt>
      <trkpt lat="43.79563" lon="2.98336">
        <ele>517</ele>
        <time>2023-08-15T11:01:55.832Z</time>
      </trkpt>
      <trkpt lat="43.79563" lon="2.98328">
        <ele>517</ele>
        <time>2023-08-15T11:02:00.252Z</time>
      </trkpt>
      <trkpt lat="43.79561" lon="2.9832">
        <ele>517</ele>
        <time>2023-08-15T11:02:04.133Z</time>
      </trkpt>
      <trkpt lat="43.79557" lon="2.98311">
        <ele>514</ele>
        <time>2023-08-15T11:02:09.093Z</time>
      </trkpt>
      <trkpt lat="43.79554" lon="2.98304">
        <ele>514</ele>
        <time>2023-08-15T11:02:13.413Z</time>
      </trkpt>
      <trkpt lat="43.7955" lon="2.98295">
        <ele>514</ele>
        <time>2023-08-15T11:02:18.312Z</time>
      </trkpt>
      <trkpt lat="43.79549" lon="2.98287">
        <ele>513</ele>
        <time>2023-08-15T11:02:22.173Z</time>
      </trkpt>
      <trkpt lat="43.79551" lon="2.98281">
        <ele>513</ele>
        <time>2023-08-15T11:02:26.552Z</time>
      </trkpt>
      <trkpt lat="43.79557" lon="2.9828">
        <ele>513</ele>
        <time>2023-08-15T11:02:30.933Z</time>
      </trkpt>
      <trkpt lat="43.79562" lon="2.98287">
        <ele>513</ele>
        <time>2023-08-15T11:02:35.403Z</time>
      </trkpt>
      <trkpt lat="43.79565" lon="2.98299">
        <ele>514</ele>
        <time>2023-08-15T11:02:39.873Z</time>
      </trkpt>
      <trkpt lat="43.79565" lon="2.98308">
        <ele>514</ele>
        <time>2023-08-15T11:02:43.792Z</time>
      </trkpt>
      <trkpt lat="43.79566" lon="2.98316">
        <ele>514</ele>
        <time>2023-08-15T11:02:48.152Z</time>
      </trkpt>
      <trkpt lat="43.79569" lon="2.98321">
        <ele>517</ele>
        <time>2023-08-15T11:02:52.531Z</time>
      </trkpt>
      <trkpt lat="43.79574" lon="2.98326">
        <ele>510</ele>
        <time>2023-08-15T11:02:56.973Z</time>
      </trkpt>
      <trkpt lat="43.79579" lon="2.9833">
        <ele>510</ele>
        <time>2023-08-15T11:03:01.424Z</time>
      </trkpt>
      <trkpt lat="43.79583" lon="2.98337">
        <ele>510</ele>
        <time>2023-08-15T11:03:05.932Z</time>
      </trkpt>
      <trkpt lat="43.79586" lon="2.98346">
        <ele>510</ele>
        <time>2023-08-15T11:03:10.333Z</time>
      </trkpt>
      <trkpt lat="43.79589" lon="2.98355">
        <ele>514</ele>
        <time>2023-08-15T11:03:14.772Z</time>
      </trkpt>
      <trkpt lat="43.79591" lon="2.98361">
        <ele>514</ele>
        <time>2023-08-15T11:03:19.213Z</time>
      </trkpt>
      <trkpt lat="43.79595" lon="2.98367">
        <ele>514</ele>
        <time>2023-08-15T11:03:23.492Z</time>
      </trkpt>
      <trkpt lat="43.796" lon="2.9837">
        <ele>506</ele>
        <time>2023-08-15T11:03:27.952Z</time>
      </trkpt>
      <trkpt lat="43.79606" lon="2.9837">
        <ele>506</ele>
        <time>2023-08-15T11:03:32.352Z</time>
      </trkpt>
      <trkpt lat="43.79612" lon="2.98368">
        <ele>506</ele>
        <time>2023-08-15T11:03:36.732Z</time>
      </trkpt>
      <trkpt lat="43.79618" lon="2.98367">
        <ele>506</ele>
        <time>2023-08-15T11:03:41.153Z</time>
      </trkpt>
      <trkpt lat="43.79625" lon="2.98365">
        <ele>506</ele>
        <time>2023-08-15T11:03:46.053Z</time>
      </trkpt>
      <trkpt lat="43.79629" lon="2.98365">
        <ele>494</ele>
        <time>2023-08-15T11:03:49.953Z</time>
      </trkpt>
      <trkpt lat="43.79632" lon="2.98365">
        <ele>494</ele>
        <time>2023-08-15T11:03:54.913Z</time>
      </trkpt>
      <trkpt lat="43.79636" lon="2.98367">
        <ele>494</ele>
        <time>2023-08-15T11:03:59.392Z</time>
      </trkpt>
      <trkpt lat="43.7964" lon="2.98372">
        <ele>494</ele>
        <time>2023-08-15T11:04:03.252Z</time>
      </trkpt>
      <trkpt lat="43.79644" lon="2.9838">
        <ele>501</ele>
        <time>2023-08-15T11:04:07.712Z</time>
      </trkpt>
      <trkpt lat="43.79647" lon="2.98387">
        <ele>501</ele>
        <time>2023-08-15T11:04:12.052Z</time>
      </trkpt>
      <trkpt lat="43.79645" lon="2.98391">
        <ele>501</ele>
        <time>2023-08-15T11:04:16.424Z</time>
      </trkpt>
      <trkpt lat="43.79648" lon="2.98394">
        <ele>501</ele>
        <time>2023-08-15T11:04:20.852Z</time>
      </trkpt>
      <trkpt lat="43.79653" lon="2.98397">
        <ele>486</ele>
        <time>2023-08-15T11:04:25.252Z</time>
      </trkpt>
      <trkpt lat="43.79658" lon="2.98401">
        <ele>486</ele>
        <time>2023-08-15T11:04:29.551Z</time>
      </trkpt>
      <trkpt lat="43.79663" lon="2.98405">
        <ele>492</ele>
        <time>2023-08-15T11:04:33.931Z</time>
      </trkpt>
      <trkpt lat="43.79667" lon="2.9841">
        <ele>492</ele>
        <time>2023-08-15T11:04:37.852Z</time>
      </trkpt>
      <trkpt lat="43.79672" lon="2.98415">
        <ele>492</ele>
        <time>2023-08-15T11:04:42.293Z</time>
      </trkpt>
      <trkpt lat="43.79678" lon="2.98419">
        <ele>492</ele>
        <time>2023-08-15T11:04:46.692Z</time>
      </trkpt>
      <trkpt lat="43.79682" lon="2.98424">
        <ele>482</ele>
        <time>2023-08-15T11:04:51.092Z</time>
      </trkpt>
      <trkpt lat="43.79686" lon="2.98429">
        <ele>482</ele>
        <time>2023-08-15T11:04:55.429Z</time>
      </trkpt>
      <trkpt lat="43.79686" lon="2.98433">
        <ele>483</ele>
        <time>2023-08-15T11:05:00.333Z</time>
      </trkpt>
      <trkpt lat="43.79686" lon="2.98435">
        <ele>483</ele>
        <time>2023-08-15T11:05:04.752Z</time>
      </trkpt>
      <trkpt lat="43.79687" lon="2.98438">
        <ele>483</ele>
        <time>2023-08-15T11:05:09.173Z</time>
      </trkpt>
      <trkpt lat="43.7969" lon="2.98444">
        <ele>483</ele>
        <time>2023-08-15T11:05:13.572Z</time>
      </trkpt>
      <trkpt lat="43.79694" lon="2.9845">
        <ele>483</ele>
        <time>2023-08-15T11:05:17.953Z</time>
      </trkpt>
      <trkpt lat="43.79699" lon="2.98457">
        <ele>483</ele>
        <time>2023-08-15T11:05:22.403Z</time>
      </trkpt>
      <trkpt lat="43.79702" lon="2.98466">
        <ele>483</ele>
        <time>2023-08-15T11:05:26.913Z</time>
      </trkpt>
      <trkpt lat="43.79699" lon="2.98472">
        <ele>483</ele>
        <time>2023-08-15T11:05:45.403Z</time>
      </trkpt>
      <trkpt lat="43.79701" lon="2.98475">
        <ele>483</ele>
        <time>2023-08-15T11:05:49.312Z</time>
      </trkpt>
      <trkpt lat="43.79705" lon="2.98481">
        <ele>483</ele>
        <time>2023-08-15T11:05:53.691Z</time>
      </trkpt>
      <trkpt lat="43.79711" lon="2.98483">
        <ele>473</ele>
        <time>2023-08-15T11:05:57.612Z</time>
      </trkpt>
      <trkpt lat="43.79718" lon="2.9848">
        <ele>473</ele>
        <time>2023-08-15T11:06:01.973Z</time>
      </trkpt>
      <trkpt lat="43.7972" lon="2.98475">
        <ele>473</ele>
        <time>2023-08-15T11:06:06.373Z</time>
      </trkpt>
      <trkpt lat="43.79721" lon="2.98472">
        <ele>473</ele>
        <time>2023-08-15T11:06:10.256Z</time>
      </trkpt>
      <trkpt lat="43.79726" lon="2.98464">
        <ele>473</ele>
        <time>2023-08-15T11:06:15.896Z</time>
      </trkpt>
      <trkpt lat="43.79731" lon="2.98459">
        <ele>473</ele>
        <time>2023-08-15T11:06:20.358Z</time>
      </trkpt>
      <trkpt lat="43.79741" lon="2.98461">
        <ele>466</ele>
        <time>2023-08-15T11:06:24.758Z</time>
      </trkpt>
      <trkpt lat="43.79748" lon="2.9846">
        <ele>466</ele>
        <time>2023-08-15T11:06:29.228Z</time>
      </trkpt>
      <trkpt lat="43.79754" lon="2.98457">
        <ele>467</ele>
        <time>2023-08-15T11:06:33.079Z</time>
      </trkpt>
      <trkpt lat="43.79759" lon="2.98451">
        <ele>467</ele>
        <time>2023-08-15T11:06:37.938Z</time>
      </trkpt>
      <trkpt lat="43.79763" lon="2.98445">
        <ele>467</ele>
        <time>2023-08-15T11:06:42.359Z</time>
      </trkpt>
      <trkpt lat="43.79768" lon="2.9844">
        <ele>464</ele>
        <time>2023-08-15T11:06:46.159Z</time>
      </trkpt>
      <trkpt lat="43.79774" lon="2.98437">
        <ele>464</ele>
        <time>2023-08-15T11:06:51.159Z</time>
      </trkpt>
      <trkpt lat="43.79778" lon="2.98441">
        <ele>464</ele>
        <time>2023-08-15T11:06:55.019Z</time>
      </trkpt>
      <trkpt lat="43.79777" lon="2.98451">
        <ele>464</ele>
        <time>2023-08-15T11:06:59.999Z</time>
      </trkpt>
      <trkpt lat="43.79772" lon="2.98459">
        <ele>463</ele>
        <time>2023-08-15T11:07:04.938Z</time>
      </trkpt>
      <trkpt lat="43.79766" lon="2.98466">
        <ele>463</ele>
        <time>2023-08-15T11:07:09.339Z</time>
      </trkpt>
      <trkpt lat="43.79758" lon="2.98474">
        <ele>466</ele>
        <time>2023-08-15T11:07:13.738Z</time>
      </trkpt>
      <trkpt lat="43.7975" lon="2.98479">
        <ele>466</ele>
        <time>2023-08-15T11:07:18.039Z</time>
      </trkpt>
      <trkpt lat="43.79744" lon="2.98486">
        <ele>466</ele>
        <time>2023-08-15T11:07:22.999Z</time>
      </trkpt>
      <trkpt lat="43.79741" lon="2.98493">
        <ele>465</ele>
        <time>2023-08-15T11:07:27.518Z</time>
      </trkpt>
      <trkpt lat="43.7974" lon="2.985">
        <ele>465</ele>
        <time>2023-08-15T11:07:31.939Z</time>
      </trkpt>
      <trkpt lat="43.79738" lon="2.98506">
        <ele>465</ele>
        <time>2023-08-15T11:07:35.798Z</time>
      </trkpt>
      <trkpt lat="43.79736" lon="2.98513">
        <ele>471</ele>
        <time>2023-08-15T11:07:40.219Z</time>
      </trkpt>
      <trkpt lat="43.79735" lon="2.9852">
        <ele>469</ele>
        <time>2023-08-15T11:07:44.678Z</time>
      </trkpt>
      <trkpt lat="43.79737" lon="2.98529">
        <ele>464</ele>
        <time>2023-08-15T11:07:49.099Z</time>
      </trkpt>
      <trkpt lat="43.79742" lon="2.98537">
        <ele>464</ele>
        <time>2023-08-15T11:07:53.428Z</time>
      </trkpt>
      <trkpt lat="43.79748" lon="2.98545">
        <ele>468</ele>
        <time>2023-08-15T11:07:57.879Z</time>
      </trkpt>
      <trkpt lat="43.79754" lon="2.98552">
        <ele>468</ele>
        <time>2023-08-15T11:08:02.279Z</time>
      </trkpt>
      <trkpt lat="43.79759" lon="2.98558">
        <ele>468</ele>
        <time>2023-08-15T11:08:06.238Z</time>
      </trkpt>
      <trkpt lat="43.79764" lon="2.98561">
        <ele>464</ele>
        <time>2023-08-15T11:08:10.658Z</time>
      </trkpt>
      <trkpt lat="43.7977" lon="2.98564">
        <ele>464</ele>
        <time>2023-08-15T11:08:14.538Z</time>
      </trkpt>
      <trkpt lat="43.79775" lon="2.98566">
        <ele>464</ele>
        <time>2023-08-15T11:08:18.878Z</time>
      </trkpt>
      <trkpt lat="43.79781" lon="2.98567">
        <ele>464</ele>
        <time>2023-08-15T11:08:23.259Z</time>
      </trkpt>
      <trkpt lat="43.79785" lon="2.98567">
        <ele>464</ele>
        <time>2023-08-15T11:08:27.718Z</time>
      </trkpt>
      <trkpt lat="43.79785" lon="2.98567">
        <ele>464</ele>
        <time>2023-08-15T11:08:32.119Z</time>
      </trkpt>
      <trkpt lat="43.79783" lon="2.98564">
        <ele>464</ele>
        <time>2023-08-15T11:08:35.979Z</time>
      </trkpt>
      <trkpt lat="43.79788" lon="2.98564">
        <ele>464</ele>
        <time>2023-08-15T11:08:40.938Z</time>
      </trkpt>
      <trkpt lat="43.79794" lon="2.98563">
        <ele>459</ele>
        <time>2023-08-15T11:08:45.319Z</time>
      </trkpt>
      <trkpt lat="43.798" lon="2.98563">
        <ele>459</ele>
        <time>2023-08-15T11:08:49.239Z</time>
      </trkpt>
      <trkpt lat="43.79807" lon="2.98565">
        <ele>459</ele>
        <time>2023-08-15T11:08:54.299Z</time>
      </trkpt>
      <trkpt lat="43.79814" lon="2.98569">
        <ele>459</ele>
        <time>2023-08-15T11:08:58.219Z</time>
      </trkpt>
      <trkpt lat="43.79819" lon="2.98573">
        <ele>462</ele>
        <time>2023-08-15T11:09:03.168Z</time>
      </trkpt>
      <trkpt lat="43.79824" lon="2.98576">
        <ele>453</ele>
        <time>2023-08-15T11:09:06.939Z</time>
      </trkpt>
      <trkpt lat="43.79829" lon="2.98577">
        <ele>453</ele>
        <time>2023-08-15T11:09:11.878Z</time>
      </trkpt>
      <trkpt lat="43.79834" lon="2.98577">
        <ele>453</ele>
        <time>2023-08-15T11:09:16.238Z</time>
      </trkpt>
      <trkpt lat="43.79839" lon="2.98577">
        <ele>453</ele>
        <time>2023-08-15T11:09:21.300Z</time>
      </trkpt>
      <trkpt lat="43.79843" lon="2.98576">
        <ele>453</ele>
        <time>2023-08-15T11:09:25.800Z</time>
      </trkpt>
      <trkpt lat="43.79844" lon="2.98575">
        <ele>453</ele>
        <time>2023-08-15T11:09:30.320Z</time>
      </trkpt>
      <trkpt lat="43.79845" lon="2.98574">
        <ele>453</ele>
        <time>2023-08-15T11:09:34.720Z</time>
      </trkpt>
      <trkpt lat="43.79848" lon="2.98572">
        <ele>448</ele>
        <time>2023-08-15T11:09:38.660Z</time>
      </trkpt>
      <trkpt lat="43.79853" lon="2.9857">
        <ele>448</ele>
        <time>2023-08-15T11:09:42.940Z</time>
      </trkpt>
      <trkpt lat="43.79858" lon="2.98567">
        <ele>448</ele>
        <time>2023-08-15T11:09:47.408Z</time>
      </trkpt>
      <trkpt lat="43.79864" lon="2.98564">
        <ele>448</ele>
        <time>2023-08-15T11:09:51.960Z</time>
      </trkpt>
      <trkpt lat="43.79869" lon="2.98562">
        <ele>448</ele>
        <time>2023-08-15T11:09:56.403Z</time>
      </trkpt>
      <trkpt lat="43.79873" lon="2.9856">
        <ele>448</ele>
        <time>2023-08-15T11:10:00.300Z</time>
      </trkpt>
      <trkpt lat="43.79879" lon="2.98558">
        <ele>447</ele>
        <time>2023-08-15T11:10:04.800Z</time>
      </trkpt>
      <trkpt lat="43.79884" lon="2.98563">
        <ele>447</ele>
        <time>2023-08-15T11:10:09.200Z</time>
      </trkpt>
      <trkpt lat="43.79889" lon="2.98571">
        <ele>449</ele>
        <time>2023-08-15T11:10:13.020Z</time>
      </trkpt>
      <trkpt lat="43.79893" lon="2.98578">
        <ele>449</ele>
        <time>2023-08-15T11:10:17.980Z</time>
      </trkpt>
      <trkpt lat="43.79897" lon="2.98582">
        <ele>449</ele>
        <time>2023-08-15T11:10:21.920Z</time>
      </trkpt>
      <trkpt lat="43.79899" lon="2.98586">
        <ele>449</ele>
        <time>2023-08-15T11:10:26.320Z</time>
      </trkpt>
      <trkpt lat="43.79902" lon="2.98585">
        <ele>449</ele>
        <time>2023-08-15T11:10:30.260Z</time>
      </trkpt>
      <trkpt lat="43.79908" lon="2.98583">
        <ele>450</ele>
        <time>2023-08-15T11:10:34.660Z</time>
      </trkpt>
      <trkpt lat="43.79915" lon="2.98581">
        <ele>450</ele>
        <time>2023-08-15T11:10:39.060Z</time>
      </trkpt>
      <trkpt lat="43.7992" lon="2.98578">
        <ele>450</ele>
        <time>2023-08-15T11:10:43Z</time>
      </trkpt>
      <trkpt lat="43.79923" lon="2.98573">
        <ele>450</ele>
        <time>2023-08-15T11:10:47.960Z</time>
      </trkpt>
      <trkpt lat="43.79925" lon="2.98572">
        <ele>450</ele>
        <time>2023-08-15T11:10:52.411Z</time>
      </trkpt>
      <trkpt lat="43.79931" lon="2.98571">
        <ele>455</ele>
        <time>2023-08-15T11:10:56.862Z</time>
      </trkpt>
      <trkpt lat="43.79936" lon="2.98571">
        <ele>455</ele>
        <time>2023-08-15T11:11:00.742Z</time>
      </trkpt>
      <trkpt lat="43.79941" lon="2.9857">
        <ele>455</ele>
        <time>2023-08-15T11:11:05.163Z</time>
      </trkpt>
      <trkpt lat="43.79946" lon="2.9857">
        <ele>455</ele>
        <time>2023-08-15T11:11:09.611Z</time>
      </trkpt>
      <trkpt lat="43.79951" lon="2.98566">
        <ele>457</ele>
        <time>2023-08-15T11:11:14.043Z</time>
      </trkpt>
      <trkpt lat="43.79952" lon="2.98558">
        <ele>457</ele>
        <time>2023-08-15T11:11:18.406Z</time>
      </trkpt>
      <trkpt lat="43.79949" lon="2.98548">
        <ele>457</ele>
        <time>2023-08-15T11:11:22.363Z</time>
      </trkpt>
      <trkpt lat="43.79945" lon="2.98539">
        <ele>458</ele>
        <time>2023-08-15T11:11:26.782Z</time>
      </trkpt>
      <trkpt lat="43.79942" lon="2.98532">
        <ele>458</ele>
        <time>2023-08-15T11:11:31.123Z</time>
      </trkpt>
      <trkpt lat="43.7994" lon="2.98526">
        <ele>458</ele>
        <time>2023-08-15T11:11:36.123Z</time>
      </trkpt>
      <trkpt lat="43.7994" lon="2.98516">
        <ele>458</ele>
        <time>2023-08-15T11:11:40.562Z</time>
      </trkpt>
      <trkpt lat="43.79941" lon="2.98508">
        <ele>458</ele>
        <time>2023-08-15T11:11:44.983Z</time>
      </trkpt>
      <trkpt lat="43.79941" lon="2.98496">
        <ele>458</ele>
        <time>2023-08-15T11:11:49.903Z</time>
      </trkpt>
      <trkpt lat="43.79941" lon="2.98488">
        <ele>458</ele>
        <time>2023-08-15T11:11:54.283Z</time>
      </trkpt>
      <trkpt lat="43.7994" lon="2.9848">
        <ele>456</ele>
        <time>2023-08-15T11:11:58.203Z</time>
      </trkpt>
      <trkpt lat="43.79939" lon="2.98473">
        <ele>456</ele>
        <time>2023-08-15T11:12:02.531Z</time>
      </trkpt>
      <trkpt lat="43.79937" lon="2.98467">
        <ele>456</ele>
        <time>2023-08-15T11:12:06.912Z</time>
      </trkpt>
      <trkpt lat="43.79937" lon="2.98464">
        <ele>456</ele>
        <time>2023-08-15T11:12:10.742Z</time>
      </trkpt>
      <trkpt lat="43.79938" lon="2.98458">
        <ele>453</ele>
        <time>2023-08-15T11:12:15.142Z</time>
      </trkpt>
      <trkpt lat="43.79939" lon="2.98449">
        <ele>453</ele>
        <time>2023-08-15T11:12:19.582Z</time>
      </trkpt>
      <trkpt lat="43.79941" lon="2.9844">
        <ele>453</ele>
        <time>2023-08-15T11:12:23.943Z</time>
      </trkpt>
      <trkpt lat="43.79944" lon="2.98431">
        <ele>453</ele>
        <time>2023-08-15T11:12:28.323Z</time>
      </trkpt>
      <trkpt lat="43.79946" lon="2.98421">
        <ele>449</ele>
        <time>2023-08-15T11:12:32.742Z</time>
      </trkpt>
      <trkpt lat="43.79946" lon="2.98413">
        <ele>449</ele>
        <time>2023-08-15T11:12:36.602Z</time>
      </trkpt>
      <trkpt lat="43.79947" lon="2.98403">
        <ele>449</ele>
        <time>2023-08-15T11:12:40.882Z</time>
      </trkpt>
      <trkpt lat="43.79948" lon="2.98393">
        <ele>447</ele>
        <time>2023-08-15T11:12:45.292Z</time>
      </trkpt>
      <trkpt lat="43.79948" lon="2.98384">
        <ele>447</ele>
        <time>2023-08-15T11:12:49.023Z</time>
      </trkpt>
      <trkpt lat="43.79949" lon="2.98375">
        <ele>447</ele>
        <time>2023-08-15T11:12:53.424Z</time>
      </trkpt>
      <trkpt lat="43.79952" lon="2.98366">
        <ele>449</ele>
        <time>2023-08-15T11:12:58.283Z</time>
      </trkpt>
      <trkpt lat="43.79956" lon="2.9836">
        <ele>449</ele>
        <time>2023-08-15T11:13:02.123Z</time>
      </trkpt>
      <trkpt lat="43.7996" lon="2.98355">
        <ele>454</ele>
        <time>2023-08-15T11:13:07.023Z</time>
      </trkpt>
      <trkpt lat="43.79965" lon="2.9835">
        <ele>454</ele>
        <time>2023-08-15T11:13:11.373Z</time>
      </trkpt>
      <trkpt lat="43.79969" lon="2.98348">
        <ele>454</ele>
        <time>2023-08-15T11:13:15.222Z</time>
      </trkpt>
      <trkpt lat="43.79975" lon="2.98345">
        <ele>453</ele>
        <time>2023-08-15T11:13:20.071Z</time>
      </trkpt>
      <trkpt lat="43.7998" lon="2.98343">
        <ele>453</ele>
        <time>2023-08-15T11:13:23.963Z</time>
      </trkpt>
      <trkpt lat="43.79986" lon="2.98339">
        <ele>453</ele>
        <time>2023-08-15T11:13:28.923Z</time>
      </trkpt>
      <trkpt lat="43.79989" lon="2.98332">
        <ele>464</ele>
        <time>2023-08-15T11:13:33.212Z</time>
      </trkpt>
      <trkpt lat="43.79988" lon="2.98322">
        <ele>464</ele>
        <time>2023-08-15T11:13:37.688Z</time>
      </trkpt>
      <trkpt lat="43.79981" lon="2.98315">
        <ele>453</ele>
        <time>2023-08-15T11:13:41.628Z</time>
      </trkpt>
      <trkpt lat="43.79974" lon="2.98309">
        <ele>453</ele>
        <time>2023-08-15T11:13:45.908Z</time>
      </trkpt>
      <trkpt lat="43.79967" lon="2.98303">
        <ele>453</ele>
        <time>2023-08-15T11:13:50.289Z</time>
      </trkpt>
      <trkpt lat="43.79964" lon="2.98297">
        <ele>453</ele>
        <time>2023-08-15T11:13:54.248Z</time>
      </trkpt>
      <trkpt lat="43.79962" lon="2.98291">
        <ele>456</ele>
        <time>2023-08-15T11:13:58.768Z</time>
      </trkpt>
      <trkpt lat="43.79963" lon="2.98285">
        <ele>456</ele>
        <time>2023-08-15T11:14:03.148Z</time>
      </trkpt>
      <trkpt lat="43.79963" lon="2.98279">
        <ele>456</ele>
        <time>2023-08-15T11:14:07.108Z</time>
      </trkpt>
      <trkpt lat="43.79963" lon="2.98273">
        <ele>456</ele>
        <time>2023-08-15T11:14:11.909Z</time>
      </trkpt>
      <trkpt lat="43.79964" lon="2.98266">
        <ele>456</ele>
        <time>2023-08-15T11:14:16.171Z</time>
      </trkpt>
      <trkpt lat="43.79964" lon="2.9826">
        <ele>458</ele>
        <time>2023-08-15T11:14:20.629Z</time>
      </trkpt>
      <trkpt lat="43.79964" lon="2.98253">
        <ele>458</ele>
        <time>2023-08-15T11:14:25.048Z</time>
      </trkpt>
      <trkpt lat="43.79962" lon="2.98245">
        <ele>458</ele>
        <time>2023-08-15T11:14:29.548Z</time>
      </trkpt>
      <trkpt lat="43.7996" lon="2.98239">
        <ele>458</ele>
        <time>2023-08-15T11:14:34.068Z</time>
      </trkpt>
      <trkpt lat="43.79956" lon="2.98232">
        <ele>452</ele>
        <time>2023-08-15T11:14:38.568Z</time>
      </trkpt>
      <trkpt lat="43.79953" lon="2.98224">
        <ele>452</ele>
        <time>2023-08-15T11:14:43.068Z</time>
      </trkpt>
      <trkpt lat="43.79949" lon="2.98217">
        <ele>452</ele>
        <time>2023-08-15T11:14:47.424Z</time>
      </trkpt>
      <trkpt lat="43.79946" lon="2.98211">
        <ele>452</ele>
        <time>2023-08-15T11:14:51.308Z</time>
      </trkpt>
      <trkpt lat="43.79941" lon="2.98204">
        <ele>458</ele>
        <time>2023-08-15T11:14:55.750Z</time>
      </trkpt>
      <trkpt lat="43.79937" lon="2.98198">
        <ele>458</ele>
        <time>2023-08-15T11:15:00.208Z</time>
      </trkpt>
      <trkpt lat="43.79933" lon="2.98194">
        <ele>458</ele>
        <time>2023-08-15T11:15:04.607Z</time>
      </trkpt>
      <trkpt lat="43.79929" lon="2.98189">
        <ele>449</ele>
        <time>2023-08-15T11:15:09.107Z</time>
      </trkpt>
      <trkpt lat="43.79925" lon="2.98183">
        <ele>449</ele>
        <time>2023-08-15T11:15:13.067Z</time>
      </trkpt>
      <trkpt lat="43.79921" lon="2.98159">
        <ele>450</ele>
        <time>2023-08-15T11:15:31.987Z</time>
      </trkpt>
      <trkpt lat="43.7992" lon="2.98155">
        <ele>450</ele>
        <time>2023-08-15T11:15:36.947Z</time>
      </trkpt>
      <trkpt lat="43.79919" lon="2.98147">
        <ele>448</ele>
        <time>2023-08-15T11:15:41.414Z</time>
      </trkpt>
      <trkpt lat="43.79919" lon="2.98138">
        <ele>448</ele>
        <time>2023-08-15T11:15:45.919Z</time>
      </trkpt>
      <trkpt lat="43.79921" lon="2.98129">
        <ele>448</ele>
        <time>2023-08-15T11:15:50.404Z</time>
      </trkpt>
      <trkpt lat="43.79921" lon="2.98124">
        <ele>444</ele>
        <time>2023-08-15T11:15:54.379Z</time>
      </trkpt>
      <trkpt lat="43.79922" lon="2.98119">
        <ele>444</ele>
        <time>2023-08-15T11:15:58.319Z</time>
      </trkpt>
      <trkpt lat="43.79926" lon="2.98114">
        <ele>444</ele>
        <time>2023-08-15T11:16:02.819Z</time>
      </trkpt>
      <trkpt lat="43.7993" lon="2.98109">
        <ele>444</ele>
        <time>2023-08-15T11:16:07.339Z</time>
      </trkpt>
      <trkpt lat="43.79935" lon="2.98104">
        <ele>452</ele>
        <time>2023-08-15T11:16:11.739Z</time>
      </trkpt>
      <trkpt lat="43.79939" lon="2.98101">
        <ele>452</ele>
        <time>2023-08-15T11:16:16.239Z</time>
      </trkpt>
      <trkpt lat="43.79943" lon="2.98095">
        <ele>449</ele>
        <time>2023-08-15T11:16:20.739Z</time>
      </trkpt>
      <trkpt lat="43.79946" lon="2.98087">
        <ele>449</ele>
        <time>2023-08-15T11:16:25.259Z</time>
      </trkpt>
      <trkpt lat="43.79947" lon="2.9808">
        <ele>449</ele>
        <time>2023-08-15T11:16:55.445Z</time>
      </trkpt>
      <trkpt lat="43.79948" lon="2.98078">
        <ele>449</ele>
        <time>2023-08-15T11:17:00.404Z</time>
      </trkpt>
      <trkpt lat="43.7995" lon="2.98076">
        <ele>449</ele>
        <time>2023-08-15T11:17:05.139Z</time>
      </trkpt>
      <trkpt lat="43.79953" lon="2.98076">
        <ele>449</ele>
        <time>2023-08-15T11:17:10.219Z</time>
      </trkpt>
      <trkpt lat="43.79958" lon="2.98076">
        <ele>449</ele>
        <time>2023-08-15T11:17:15.010Z</time>
      </trkpt>
      <trkpt lat="43.79965" lon="2.98075">
        <ele>455</ele>
        <time>2023-08-15T11:17:19.339Z</time>
      </trkpt>
      <trkpt lat="43.7997" lon="2.98072">
        <ele>455</ele>
        <time>2023-08-15T11:17:23.299Z</time>
      </trkpt>
      <trkpt lat="43.79975" lon="2.98067">
        <ele>450</ele>
        <time>2023-08-15T11:17:27.799Z</time>
      </trkpt>
      <trkpt lat="43.7998" lon="2.98061">
        <ele>450</ele>
        <time>2023-08-15T11:17:32.199Z</time>
      </trkpt>
      <trkpt lat="43.79984" lon="2.98052">
        <ele>450</ele>
        <time>2023-08-15T11:17:36.690Z</time>
      </trkpt>
      <trkpt lat="43.79988" lon="2.98046">
        <ele>454</ele>
        <time>2023-08-15T11:17:41.162Z</time>
      </trkpt>
      <trkpt lat="43.79992" lon="2.9804">
        <ele>447</ele>
        <time>2023-08-15T11:17:45.681Z</time>
      </trkpt>
      <trkpt lat="43.79998" lon="2.98034">
        <ele>447</ele>
        <time>2023-08-15T11:17:50.121Z</time>
      </trkpt>
      <trkpt lat="43.80003" lon="2.98027">
        <ele>447</ele>
        <time>2023-08-15T11:17:55.090Z</time>
      </trkpt>
      <trkpt lat="43.80007" lon="2.9802">
        <ele>447</ele>
        <time>2023-08-15T11:17:58.921Z</time>
      </trkpt>
      <trkpt lat="43.80011" lon="2.98013">
        <ele>443</ele>
        <time>2023-08-15T11:18:03.841Z</time>
      </trkpt>
      <trkpt lat="43.80016" lon="2.98007">
        <ele>443</ele>
        <time>2023-08-15T11:18:08.272Z</time>
      </trkpt>
      <trkpt lat="43.80021" lon="2.98">
        <ele>443</ele>
        <time>2023-08-15T11:18:13.281Z</time>
      </trkpt>
      <trkpt lat="43.80026" lon="2.97994">
        <ele>443</ele>
        <time>2023-08-15T11:18:17.101Z</time>
      </trkpt>
      <trkpt lat="43.80031" lon="2.97989">
        <ele>443</ele>
        <time>2023-08-15T11:18:21.501Z</time>
      </trkpt>
      <trkpt lat="43.80037" lon="2.97985">
        <ele>443</ele>
        <time>2023-08-15T11:18:25.921Z</time>
      </trkpt>
      <trkpt lat="43.80043" lon="2.97982">
        <ele>446</ele>
        <time>2023-08-15T11:18:30.342Z</time>
      </trkpt>
      <trkpt lat="43.80048" lon="2.97978">
        <ele>446</ele>
        <time>2023-08-15T11:18:34.182Z</time>
      </trkpt>
      <trkpt lat="43.80052" lon="2.97972">
        <ele>446</ele>
        <time>2023-08-15T11:18:39.011Z</time>
      </trkpt>
      <trkpt lat="43.80055" lon="2.97965">
        <ele>446</ele>
        <time>2023-08-15T11:18:42.862Z</time>
      </trkpt>
      <trkpt lat="43.80055" lon="2.9796">
        <ele>446</ele>
        <time>2023-08-15T11:18:47.262Z</time>
      </trkpt>
      <trkpt lat="43.80057" lon="2.97956">
        <ele>444</ele>
        <time>2023-08-15T11:18:51.721Z</time>
      </trkpt>
      <trkpt lat="43.80061" lon="2.97949">
        <ele>444</ele>
        <time>2023-08-15T11:18:56.162Z</time>
      </trkpt>
      <trkpt lat="43.80066" lon="2.97943">
        <ele>444</ele>
        <time>2023-08-15T11:19:00.042Z</time>
      </trkpt>
      <trkpt lat="43.80071" lon="2.97936">
        <ele>445</ele>
        <time>2023-08-15T11:19:04.982Z</time>
      </trkpt>
      <trkpt lat="43.80076" lon="2.9793">
        <ele>443</ele>
        <time>2023-08-15T11:19:09.382Z</time>
      </trkpt>
      <trkpt lat="43.80082" lon="2.97925">
        <ele>443</ele>
        <time>2023-08-15T11:19:13.770Z</time>
      </trkpt>
      <trkpt lat="43.80088" lon="2.97922">
        <ele>443</ele>
        <time>2023-08-15T11:19:17.561Z</time>
      </trkpt>
      <trkpt lat="43.80094" lon="2.97918">
        <ele>443</ele>
        <time>2023-08-15T11:19:22.021Z</time>
      </trkpt>
      <trkpt lat="43.80099" lon="2.97913">
        <ele>445</ele>
        <time>2023-08-15T11:19:25.921Z</time>
      </trkpt>
      <trkpt lat="43.80104" lon="2.97908">
        <ele>445</ele>
        <time>2023-08-15T11:19:30.801Z</time>
      </trkpt>
      <trkpt lat="43.80108" lon="2.97906">
        <ele>445</ele>
        <time>2023-08-15T11:19:35.212Z</time>
      </trkpt>
      <trkpt lat="43.80112" lon="2.97908">
        <ele>445</ele>
        <time>2023-08-15T11:19:39.062Z</time>
      </trkpt>
      <trkpt lat="43.80115" lon="2.97904">
        <ele>445</ele>
        <time>2023-08-15T11:19:43.451Z</time>
      </trkpt>
      <trkpt lat="43.80118" lon="2.97899">
        <ele>443</ele>
        <time>2023-08-15T11:19:47.850Z</time>
      </trkpt>
      <trkpt lat="43.80122" lon="2.97895">
        <ele>443</ele>
        <time>2023-08-15T11:19:51.721Z</time>
      </trkpt>
      <trkpt lat="43.80125" lon="2.97891">
        <ele>443</ele>
        <time>2023-08-15T11:19:56.122Z</time>
      </trkpt>
      <trkpt lat="43.80128" lon="2.97885">
        <ele>444</ele>
        <time>2023-08-15T11:20:00.601Z</time>
      </trkpt>
      <trkpt lat="43.80132" lon="2.9788">
        <ele>444</ele>
        <time>2023-08-15T11:20:04.981Z</time>
      </trkpt>
      <trkpt lat="43.80137" lon="2.97877">
        <ele>444</ele>
        <time>2023-08-15T11:20:09.982Z</time>
      </trkpt>
      <trkpt lat="43.80141" lon="2.97876">
        <ele>444</ele>
        <time>2023-08-15T11:20:14.321Z</time>
      </trkpt>
      <trkpt lat="43.80142" lon="2.97881">
        <ele>444</ele>
        <time>2023-08-15T11:20:19.302Z</time>
      </trkpt>
      <trkpt lat="43.80145" lon="2.97883">
        <ele>444</ele>
        <time>2023-08-15T11:20:23.201Z</time>
      </trkpt>
      <trkpt lat="43.80149" lon="2.97887">
        <ele>444</ele>
        <time>2023-08-15T11:20:28.102Z</time>
      </trkpt>
      <trkpt lat="43.80152" lon="2.97888">
        <ele>444</ele>
        <time>2023-08-15T11:20:32.425Z</time>
      </trkpt>
      <trkpt lat="43.80153" lon="2.97888">
        <ele>447</ele>
        <time>2023-08-15T11:20:36.821Z</time>
      </trkpt>
      <trkpt lat="43.80155" lon="2.97888">
        <ele>447</ele>
        <time>2023-08-15T11:20:40.721Z</time>
      </trkpt>
      <trkpt lat="43.80158" lon="2.97888">
        <ele>447</ele>
        <time>2023-08-15T11:20:45.082Z</time>
      </trkpt>
      <trkpt lat="43.80161" lon="2.9789">
        <ele>447</ele>
        <time>2023-08-15T11:20:48.881Z</time>
      </trkpt>
      <trkpt lat="43.80166" lon="2.97893">
        <ele>447</ele>
        <time>2023-08-15T11:20:53.321Z</time>
      </trkpt>
      <trkpt lat="43.80173" lon="2.979">
        <ele>447</ele>
        <time>2023-08-15T11:20:58.281Z</time>
      </trkpt>
      <trkpt lat="43.80178" lon="2.97907">
        <ele>449</ele>
        <time>2023-08-15T11:21:02.661Z</time>
      </trkpt>
      <trkpt lat="43.80177" lon="2.97909">
        <ele>449</ele>
        <time>2023-08-15T11:21:07.042Z</time>
      </trkpt>
      <trkpt lat="43.80177" lon="2.97909">
        <ele>449</ele>
        <time>2023-08-15T11:21:11.476Z</time>
      </trkpt>
      <trkpt lat="43.80177" lon="2.9791">
        <ele>449</ele>
        <time>2023-08-15T11:21:15.922Z</time>
      </trkpt>
      <trkpt lat="43.8018" lon="2.97917">
        <ele>449</ele>
        <time>2023-08-15T11:21:22.008Z</time>
      </trkpt>
      <trkpt lat="43.80182" lon="2.97921">
        <ele>453</ele>
        <time>2023-08-15T11:21:25.948Z</time>
      </trkpt>
      <trkpt lat="43.80184" lon="2.97926">
        <ele>453</ele>
        <time>2023-08-15T11:21:30.399Z</time>
      </trkpt>
      <trkpt lat="43.80186" lon="2.97932">
        <ele>455</ele>
        <time>2023-08-15T11:21:34.748Z</time>
      </trkpt>
      <trkpt lat="43.8019" lon="2.97938">
        <ele>455</ele>
        <time>2023-08-15T11:21:39.708Z</time>
      </trkpt>
      <trkpt lat="43.80193" lon="2.97943">
        <ele>455</ele>
        <time>2023-08-15T11:21:44.151Z</time>
      </trkpt>
      <trkpt lat="43.80192" lon="2.97943">
        <ele>455</ele>
        <time>2023-08-15T11:21:48.050Z</time>
      </trkpt>
      <trkpt lat="43.80191" lon="2.97946">
        <ele>455</ele>
        <time>2023-08-15T11:21:52.951Z</time>
      </trkpt>
      <trkpt lat="43.80191" lon="2.9795">
        <ele>455</ele>
        <time>2023-08-15T11:21:56.871Z</time>
      </trkpt>
      <trkpt lat="43.80195" lon="2.97955">
        <ele>455</ele>
        <time>2023-08-15T11:22:01.271Z</time>
      </trkpt>
      <trkpt lat="43.80197" lon="2.97961">
        <ele>459</ele>
        <time>2023-08-15T11:22:05.750Z</time>
      </trkpt>
      <trkpt lat="43.802" lon="2.97967">
        <ele>459</ele>
        <time>2023-08-15T11:22:10.191Z</time>
      </trkpt>
      <trkpt lat="43.80204" lon="2.97971">
        <ele>459</ele>
        <time>2023-08-15T11:22:13.950Z</time>
      </trkpt>
      <trkpt lat="43.8021" lon="2.97977">
        <ele>453</ele>
        <time>2023-08-15T11:22:18.970Z</time>
      </trkpt>
      <trkpt lat="43.80214" lon="2.97983">
        <ele>453</ele>
        <time>2023-08-15T11:22:23.411Z</time>
      </trkpt>
      <trkpt lat="43.80221" lon="2.97989">
        <ele>458</ele>
        <time>2023-08-15T11:22:28.391Z</time>
      </trkpt>
      <trkpt lat="43.80227" lon="2.97994">
        <ele>458</ele>
        <time>2023-08-15T11:22:33.370Z</time>
      </trkpt>
      <trkpt lat="43.80233" lon="2.97999">
        <ele>458</ele>
        <time>2023-08-15T11:22:37.830Z</time>
      </trkpt>
      <trkpt lat="43.80238" lon="2.98004">
        <ele>458</ele>
        <time>2023-08-15T11:22:42.231Z</time>
      </trkpt>
      <trkpt lat="43.80243" lon="2.98009">
        <ele>458</ele>
        <time>2023-08-15T11:22:47.211Z</time>
      </trkpt>
      <trkpt lat="43.80246" lon="2.9801">
        <ele>458</ele>
        <time>2023-08-15T11:22:51.650Z</time>
      </trkpt>
      <trkpt lat="43.80246" lon="2.9801">
        <ele>458</ele>
        <time>2023-08-15T11:22:56.130Z</time>
      </trkpt>
      <trkpt lat="43.80246" lon="2.98013">
        <ele>458</ele>
        <time>2023-08-15T11:23:10.290Z</time>
      </trkpt>
      <trkpt lat="43.80246" lon="2.98014">
        <ele>462</ele>
        <time>2023-08-15T11:23:14.750Z</time>
      </trkpt>
      <trkpt lat="43.80248" lon="2.98017">
        <ele>462</ele>
        <time>2023-08-15T11:23:19.210Z</time>
      </trkpt>
      <trkpt lat="43.80252" lon="2.9802">
        <ele>462</ele>
        <time>2023-08-15T11:23:24.171Z</time>
      </trkpt>
      <trkpt lat="43.8026" lon="2.98031">
        <ele>462</ele>
        <time>2023-08-15T11:23:28.071Z</time>
      </trkpt>
      <trkpt lat="43.80263" lon="2.98037">
        <ele>462</ele>
        <time>2023-08-15T11:23:32.510Z</time>
      </trkpt>
      <trkpt lat="43.80265" lon="2.98039">
        <ele>463</ele>
        <time>2023-08-15T11:23:36.890Z</time>
      </trkpt>
      <trkpt lat="43.80266" lon="2.98042">
        <ele>466</ele>
        <time>2023-08-15T11:23:41.210Z</time>
      </trkpt>
      <trkpt lat="43.80267" lon="2.98046">
        <ele>466</ele>
        <time>2023-08-15T11:23:45.071Z</time>
      </trkpt>
      <trkpt lat="43.80267" lon="2.98049">
        <ele>466</ele>
        <time>2023-08-15T11:23:49.424Z</time>
      </trkpt>
      <trkpt lat="43.80262" lon="2.98063">
        <ele>469</ele>
        <time>2023-08-15T11:24:07.110Z</time>
      </trkpt>
      <trkpt lat="43.80262" lon="2.98065">
        <ele>469</ele>
        <time>2023-08-15T11:24:12.425Z</time>
      </trkpt>
      <trkpt lat="43.8026" lon="2.98067">
        <ele>469</ele>
        <time>2023-08-15T11:24:17.424Z</time>
      </trkpt>
      <trkpt lat="43.80249" lon="2.98067">
        <ele>469</ele>
        <time>2023-08-15T11:24:22.424Z</time>
      </trkpt>
      <trkpt lat="43.80249" lon="2.98067">
        <ele>469</ele>
        <time>2023-08-15T11:24:27.419Z</time>
      </trkpt>
      <trkpt lat="43.80263" lon="2.98072">
        <ele>476</ele>
        <time>2023-08-15T11:35:50.725Z</time>
      </trkpt>
      <trkpt lat="43.80262" lon="2.98078">
        <ele>476</ele>
        <time>2023-08-15T11:35:55.146Z</time>
      </trkpt>
      <trkpt lat="43.80262" lon="2.98093">
        <ele>476</ele>
        <time>2023-08-15T11:35:59.046Z</time>
      </trkpt>
      <trkpt lat="43.80262" lon="2.981">
        <ele>481</ele>
        <time>2023-08-15T11:36:03.485Z</time>
      </trkpt>
      <trkpt lat="43.80267" lon="2.98105">
        <ele>474</ele>
        <time>2023-08-15T11:36:07.905Z</time>
      </trkpt>
      <trkpt lat="43.80267" lon="2.98108">
        <ele>474</ele>
        <time>2023-08-15T11:36:11.806Z</time>
      </trkpt>
      <trkpt lat="43.80266" lon="2.98112">
        <ele>474</ele>
        <time>2023-08-15T11:36:16.265Z</time>
      </trkpt>
      <trkpt lat="43.80267" lon="2.9812">
        <ele>474</ele>
        <time>2023-08-15T11:36:20.125Z</time>
      </trkpt>
      <trkpt lat="43.80269" lon="2.98127">
        <ele>478</ele>
        <time>2023-08-15T11:36:24.447Z</time>
      </trkpt>
      <trkpt lat="43.80271" lon="2.98134">
        <ele>478</ele>
        <time>2023-08-15T11:36:28.985Z</time>
      </trkpt>
      <trkpt lat="43.80276" lon="2.98146">
        <ele>478</ele>
        <time>2023-08-15T11:36:32.806Z</time>
      </trkpt>
      <trkpt lat="43.80275" lon="2.98153">
        <ele>480</ele>
        <time>2023-08-15T11:36:37.285Z</time>
      </trkpt>
      <trkpt lat="43.80274" lon="2.98155">
        <ele>480</ele>
        <time>2023-08-15T11:36:41.694Z</time>
      </trkpt>
      <trkpt lat="43.80274" lon="2.98157">
        <ele>480</ele>
        <time>2023-08-15T11:36:46.185Z</time>
      </trkpt>
      <trkpt lat="43.80275" lon="2.9816">
        <ele>480</ele>
        <time>2023-08-15T11:36:50.006Z</time>
      </trkpt>
      <trkpt lat="43.80276" lon="2.98165">
        <ele>480</ele>
        <time>2023-08-15T11:36:54.545Z</time>
      </trkpt>
      <trkpt lat="43.80277" lon="2.98171">
        <ele>480</ele>
        <time>2023-08-15T11:36:58.826Z</time>
      </trkpt>
      <trkpt lat="43.80279" lon="2.98178">
        <ele>480</ele>
        <time>2023-08-15T11:37:03.166Z</time>
      </trkpt>
      <trkpt lat="43.8028" lon="2.98185">
        <ele>483</ele>
        <time>2023-08-15T11:37:06.925Z</time>
      </trkpt>
      <trkpt lat="43.8028" lon="2.98196">
        <ele>483</ele>
        <time>2023-08-15T11:37:11.946Z</time>
      </trkpt>
      <trkpt lat="43.80281" lon="2.98201">
        <ele>483</ele>
        <time>2023-08-15T11:37:16.906Z</time>
      </trkpt>
      <trkpt lat="43.80279" lon="2.98208">
        <ele>483</ele>
        <time>2023-08-15T11:37:21.346Z</time>
      </trkpt>
      <trkpt lat="43.80276" lon="2.98211">
        <ele>486</ele>
        <time>2023-08-15T11:37:26.275Z</time>
      </trkpt>
      <trkpt lat="43.80274" lon="2.98215">
        <ele>486</ele>
        <time>2023-08-15T11:37:30.775Z</time>
      </trkpt>
      <trkpt lat="43.80273" lon="2.98217">
        <ele>486</ele>
        <time>2023-08-15T11:37:34.717Z</time>
      </trkpt>
      <trkpt lat="43.8027" lon="2.98214">
        <ele>486</ele>
        <time>2023-08-15T11:37:39.097Z</time>
      </trkpt>
      <trkpt lat="43.80268" lon="2.98208">
        <ele>483</ele>
        <time>2023-08-15T11:37:43.424Z</time>
      </trkpt>
      <trkpt lat="43.8027" lon="2.98195">
        <ele>483</ele>
        <time>2023-08-15T11:37:47.757Z</time>
      </trkpt>
      <trkpt lat="43.8027" lon="2.98189">
        <ele>483</ele>
        <time>2023-08-15T11:37:52.157Z</time>
      </trkpt>
      <trkpt lat="43.80268" lon="2.98181">
        <ele>483</ele>
        <time>2023-08-15T11:37:56.017Z</time>
      </trkpt>
      <trkpt lat="43.80265" lon="2.98173">
        <ele>480</ele>
        <time>2023-08-15T11:38:00.937Z</time>
      </trkpt>
      <trkpt lat="43.80262" lon="2.98163">
        <ele>486</ele>
        <time>2023-08-15T11:38:05.957Z</time>
      </trkpt>
      <trkpt lat="43.80259" lon="2.98155">
        <ele>486</ele>
        <time>2023-08-15T11:38:10.396Z</time>
      </trkpt>
      <trkpt lat="43.80253" lon="2.98146">
        <ele>484</ele>
        <time>2023-08-15T11:38:14.817Z</time>
      </trkpt>
      <trkpt lat="43.80248" lon="2.98137">
        <ele>484</ele>
        <time>2023-08-15T11:38:19.098Z</time>
      </trkpt>
      <trkpt lat="43.80243" lon="2.98129">
        <ele>484</ele>
        <time>2023-08-15T11:38:23.422Z</time>
      </trkpt>
      <trkpt lat="43.80237" lon="2.98122">
        <ele>481</ele>
        <time>2023-08-15T11:38:28.414Z</time>
      </trkpt>
      <trkpt lat="43.80232" lon="2.98116">
        <ele>490</ele>
        <time>2023-08-15T11:38:32.918Z</time>
      </trkpt>
      <trkpt lat="43.80229" lon="2.98113">
        <ele>490</ele>
        <time>2023-08-15T11:38:37.846Z</time>
      </trkpt>
      <trkpt lat="43.80226" lon="2.98113">
        <ele>490</ele>
        <time>2023-08-15T11:38:42.158Z</time>
      </trkpt>
      <trkpt lat="43.80225" lon="2.98113">
        <ele>490</ele>
        <time>2023-08-15T11:38:46.557Z</time>
      </trkpt>
      <trkpt lat="43.80222" lon="2.98111">
        <ele>490</ele>
        <time>2023-08-15T11:38:50.917Z</time>
      </trkpt>
      <trkpt lat="43.80217" lon="2.98108">
        <ele>490</ele>
        <time>2023-08-15T11:38:55.346Z</time>
      </trkpt>
      <trkpt lat="43.80214" lon="2.98104">
        <ele>490</ele>
        <time>2023-08-15T11:38:59.237Z</time>
      </trkpt>
      <trkpt lat="43.80212" lon="2.98102">
        <ele>490</ele>
        <time>2023-08-15T11:39:03.737Z</time>
      </trkpt>
      <trkpt lat="43.8021" lon="2.98099">
        <ele>490</ele>
        <time>2023-08-15T11:39:08.158Z</time>
      </trkpt>
      <trkpt lat="43.80206" lon="2.98093">
        <ele>492</ele>
        <time>2023-08-15T11:39:12.617Z</time>
      </trkpt>
      <trkpt lat="43.80202" lon="2.98086">
        <ele>492</ele>
        <time>2023-08-15T11:39:16.577Z</time>
      </trkpt>
      <trkpt lat="43.802" lon="2.98078">
        <ele>492</ele>
        <time>2023-08-15T11:39:20.998Z</time>
      </trkpt>
      <trkpt lat="43.80196" lon="2.98072">
        <ele>492</ele>
        <time>2023-08-15T11:39:25.377Z</time>
      </trkpt>
      <trkpt lat="43.80193" lon="2.98068">
        <ele>486</ele>
        <time>2023-08-15T11:39:29.238Z</time>
      </trkpt>
      <trkpt lat="43.80191" lon="2.98064">
        <ele>486</ele>
        <time>2023-08-15T11:39:33.677Z</time>
      </trkpt>
      <trkpt lat="43.80189" lon="2.98062">
        <ele>486</ele>
        <time>2023-08-15T11:39:38.038Z</time>
      </trkpt>
      <trkpt lat="43.80186" lon="2.9806">
        <ele>486</ele>
        <time>2023-08-15T11:39:42.397Z</time>
      </trkpt>
      <trkpt lat="43.80183" lon="2.98057">
        <ele>486</ele>
        <time>2023-08-15T11:39:46.817Z</time>
      </trkpt>
      <trkpt lat="43.80177" lon="2.98055">
        <ele>488</ele>
        <time>2023-08-15T11:39:51.310Z</time>
      </trkpt>
      <trkpt lat="43.80171" lon="2.98054">
        <ele>488</ele>
        <time>2023-08-15T11:39:55.217Z</time>
      </trkpt>
      <trkpt lat="43.80164" lon="2.98055">
        <ele>488</ele>
        <time>2023-08-15T11:39:59.677Z</time>
      </trkpt>
      <trkpt lat="43.8016" lon="2.98057">
        <ele>488</ele>
        <time>2023-08-15T11:40:04.137Z</time>
      </trkpt>
      <trkpt lat="43.80158" lon="2.98057">
        <ele>488</ele>
        <time>2023-08-15T11:40:09.027Z</time>
      </trkpt>
      <trkpt lat="43.80157" lon="2.98058">
        <ele>488</ele>
        <time>2023-08-15T11:40:13.418Z</time>
      </trkpt>
      <trkpt lat="43.80156" lon="2.98061">
        <ele>488</ele>
        <time>2023-08-15T11:40:17.838Z</time>
      </trkpt>
      <trkpt lat="43.80153" lon="2.98065">
        <ele>488</ele>
        <time>2023-08-15T11:40:22.246Z</time>
      </trkpt>
      <trkpt lat="43.80148" lon="2.98072">
        <ele>489</ele>
        <time>2023-08-15T11:40:26.098Z</time>
      </trkpt>
      <trkpt lat="43.80144" lon="2.98078">
        <ele>489</ele>
        <time>2023-08-15T11:40:30.577Z</time>
      </trkpt>
      <trkpt lat="43.80141" lon="2.98081">
        <ele>489</ele>
        <time>2023-08-15T11:40:34.958Z</time>
      </trkpt>
      <trkpt lat="43.80139" lon="2.98086">
        <ele>489</ele>
        <time>2023-08-15T11:40:39.797Z</time>
      </trkpt>
      <trkpt lat="43.80137" lon="2.98089">
        <ele>489</ele>
        <time>2023-08-15T11:40:44.178Z</time>
      </trkpt>
      <trkpt lat="43.80135" lon="2.98093">
        <ele>489</ele>
        <time>2023-08-15T11:40:48.517Z</time>
      </trkpt>
      <trkpt lat="43.8013" lon="2.98099">
        <ele>493</ele>
        <time>2023-08-15T11:40:52.917Z</time>
      </trkpt>
      <trkpt lat="43.80127" lon="2.98104">
        <ele>493</ele>
        <time>2023-08-15T11:40:57.777Z</time>
      </trkpt>
      <trkpt lat="43.80125" lon="2.98109">
        <ele>493</ele>
        <time>2023-08-15T11:41:02.158Z</time>
      </trkpt>
      <trkpt lat="43.80123" lon="2.98115">
        <ele>488</ele>
        <time>2023-08-15T11:41:06.557Z</time>
      </trkpt>
      <trkpt lat="43.8012" lon="2.98119">
        <ele>488</ele>
        <time>2023-08-15T11:41:10.938Z</time>
      </trkpt>
      <trkpt lat="43.80118" lon="2.98124">
        <ele>488</ele>
        <time>2023-08-15T11:41:15.357Z</time>
      </trkpt>
      <trkpt lat="43.80115" lon="2.9813">
        <ele>490</ele>
        <time>2023-08-15T11:41:19.797Z</time>
      </trkpt>
      <trkpt lat="43.80113" lon="2.98136">
        <ele>490</ele>
        <time>2023-08-15T11:41:24.137Z</time>
      </trkpt>
      <trkpt lat="43.80112" lon="2.98144">
        <ele>490</ele>
        <time>2023-08-15T11:41:28.537Z</time>
      </trkpt>
      <trkpt lat="43.80114" lon="2.9815">
        <ele>490</ele>
        <time>2023-08-15T11:41:32.897Z</time>
      </trkpt>
      <trkpt lat="43.80116" lon="2.98156">
        <ele>491</ele>
        <time>2023-08-15T11:41:37.357Z</time>
      </trkpt>
      <trkpt lat="43.80118" lon="2.98162">
        <ele>491</ele>
        <time>2023-08-15T11:41:41.757Z</time>
      </trkpt>
      <trkpt lat="43.80119" lon="2.98167">
        <ele>491</ele>
        <time>2023-08-15T11:41:46.177Z</time>
      </trkpt>
      <trkpt lat="43.80121" lon="2.98172">
        <ele>491</ele>
        <time>2023-08-15T11:41:50.422Z</time>
      </trkpt>
      <trkpt lat="43.80122" lon="2.98177">
        <ele>491</ele>
        <time>2023-08-15T11:41:54.258Z</time>
      </trkpt>
      <trkpt lat="43.80124" lon="2.98182">
        <ele>495</ele>
        <time>2023-08-15T11:41:58.717Z</time>
      </trkpt>
      <trkpt lat="43.80127" lon="2.98187">
        <ele>497</ele>
        <time>2023-08-15T11:42:03.098Z</time>
      </trkpt>
      <trkpt lat="43.80129" lon="2.98192">
        <ele>497</ele>
        <time>2023-08-15T11:42:07.400Z</time>
      </trkpt>
      <trkpt lat="43.8013" lon="2.98199">
        <ele>497</ele>
        <time>2023-08-15T11:42:11.837Z</time>
      </trkpt>
      <trkpt lat="43.80129" lon="2.98204">
        <ele>497</ele>
        <time>2023-08-15T11:42:16.178Z</time>
      </trkpt>
      <trkpt lat="43.8013" lon="2.98209">
        <ele>501</ele>
        <time>2023-08-15T11:42:20.606Z</time>
      </trkpt>
      <trkpt lat="43.80131" lon="2.98214">
        <ele>501</ele>
        <time>2023-08-15T11:42:24.977Z</time>
      </trkpt>
      <trkpt lat="43.80131" lon="2.98218">
        <ele>501</ele>
        <time>2023-08-15T11:42:29.378Z</time>
      </trkpt>
      <trkpt lat="43.80131" lon="2.98223">
        <ele>501</ele>
        <time>2023-08-15T11:42:33.858Z</time>
      </trkpt>
      <trkpt lat="43.80132" lon="2.98228">
        <ele>501</ele>
        <time>2023-08-15T11:42:38.238Z</time>
      </trkpt>
      <trkpt lat="43.80132" lon="2.98233">
        <ele>501</ele>
        <time>2023-08-15T11:42:42.197Z</time>
      </trkpt>
      <trkpt lat="43.80133" lon="2.98239">
        <ele>504</ele>
        <time>2023-08-15T11:42:47.158Z</time>
      </trkpt>
      <trkpt lat="43.80134" lon="2.98243">
        <ele>504</ele>
        <time>2023-08-15T11:42:51.597Z</time>
      </trkpt>
      <trkpt lat="43.80136" lon="2.98249">
        <ele>504</ele>
        <time>2023-08-15T11:42:55.897Z</time>
      </trkpt>
      <trkpt lat="43.80139" lon="2.98252">
        <ele>504</ele>
        <time>2023-08-15T11:43:00.717Z</time>
      </trkpt>
      <trkpt lat="43.80143" lon="2.98255">
        <ele>504</ele>
        <time>2023-08-15T11:43:05.038Z</time>
      </trkpt>
      <trkpt lat="43.80147" lon="2.98256">
        <ele>504</ele>
        <time>2023-08-15T11:43:13.757Z</time>
      </trkpt>
      <trkpt lat="43.80147" lon="2.98256">
        <ele>504</ele>
        <time>2023-08-15T11:43:18.198Z</time>
      </trkpt>
      <trkpt lat="43.8015" lon="2.98256">
        <ele>504</ele>
        <time>2023-08-15T11:43:22.537Z</time>
      </trkpt>
      <trkpt lat="43.80155" lon="2.98256">
        <ele>506</ele>
        <time>2023-08-15T11:43:26.958Z</time>
      </trkpt>
      <trkpt lat="43.80162" lon="2.98258">
        <ele>506</ele>
        <time>2023-08-15T11:43:31.337Z</time>
      </trkpt>
      <trkpt lat="43.80165" lon="2.98259">
        <ele>506</ele>
        <time>2023-08-15T11:43:35.737Z</time>
      </trkpt>
      <trkpt lat="43.80168" lon="2.98261">
        <ele>506</ele>
        <time>2023-08-15T11:43:39.597Z</time>
      </trkpt>
      <trkpt lat="43.80173" lon="2.98264">
        <ele>508</ele>
        <time>2023-08-15T11:43:44.018Z</time>
      </trkpt>
      <trkpt lat="43.80178" lon="2.98268">
        <ele>508</ele>
        <time>2023-08-15T11:43:47.937Z</time>
      </trkpt>
      <trkpt lat="43.80185" lon="2.98273">
        <ele>511</ele>
        <time>2023-08-15T11:43:52.278Z</time>
      </trkpt>
      <trkpt lat="43.80196" lon="2.98278">
        <ele>511</ele>
        <time>2023-08-15T11:43:57.217Z</time>
      </trkpt>
      <trkpt lat="43.80205" lon="2.98282">
        <ele>511</ele>
        <time>2023-08-15T11:44:01.637Z</time>
      </trkpt>
      <trkpt lat="43.80211" lon="2.98286">
        <ele>511</ele>
        <time>2023-08-15T11:44:06.078Z</time>
      </trkpt>
      <trkpt lat="43.80216" lon="2.98291">
        <ele>511</ele>
        <time>2023-08-15T11:44:10.477Z</time>
      </trkpt>
      <trkpt lat="43.80219" lon="2.98295">
        <ele>516</ele>
        <time>2023-08-15T11:44:14.838Z</time>
      </trkpt>
      <trkpt lat="43.8022" lon="2.98296">
        <ele>516</ele>
        <time>2023-08-15T11:44:19.338Z</time>
      </trkpt>
      <trkpt lat="43.80224" lon="2.98298">
        <ele>516</ele>
        <time>2023-08-15T11:44:24.318Z</time>
      </trkpt>
      <trkpt lat="43.80229" lon="2.98303">
        <ele>516</ele>
        <time>2023-08-15T11:44:28.737Z</time>
      </trkpt>
      <trkpt lat="43.80234" lon="2.98309">
        <ele>516</ele>
        <time>2023-08-15T11:44:33.037Z</time>
      </trkpt>
      <trkpt lat="43.8024" lon="2.98315">
        <ele>513</ele>
        <time>2023-08-15T11:44:37.477Z</time>
      </trkpt>
      <trkpt lat="43.80245" lon="2.98321">
        <ele>519</ele>
        <time>2023-08-15T11:44:41.877Z</time>
      </trkpt>
      <trkpt lat="43.80249" lon="2.98328">
        <ele>519</ele>
        <time>2023-08-15T11:44:46.198Z</time>
      </trkpt>
      <trkpt lat="43.80253" lon="2.98336">
        <ele>519</ele>
        <time>2023-08-15T11:44:50.617Z</time>
      </trkpt>
      <trkpt lat="43.80257" lon="2.98344">
        <ele>519</ele>
        <time>2023-08-15T11:44:55.557Z</time>
      </trkpt>
      <trkpt lat="43.8026" lon="2.9835">
        <ele>520</ele>
        <time>2023-08-15T11:44:59.917Z</time>
      </trkpt>
      <trkpt lat="43.80263" lon="2.98357">
        <ele>520</ele>
        <time>2023-08-15T11:45:04.897Z</time>
      </trkpt>
      <trkpt lat="43.80267" lon="2.98364">
        <ele>511</ele>
        <time>2023-08-15T11:45:09.258Z</time>
      </trkpt>
      <trkpt lat="43.80267" lon="2.98366">
        <ele>511</ele>
        <time>2023-08-15T11:45:14.047Z</time>
      </trkpt>
      <trkpt lat="43.80267" lon="2.98367">
        <ele>511</ele>
        <time>2023-08-15T11:45:18.424Z</time>
      </trkpt>
      <trkpt lat="43.80268" lon="2.98371">
        <ele>511</ele>
        <time>2023-08-15T11:45:22.858Z</time>
      </trkpt>
      <trkpt lat="43.80269" lon="2.98375">
        <ele>514</ele>
        <time>2023-08-15T11:45:26.737Z</time>
      </trkpt>
      <trkpt lat="43.80269" lon="2.98381">
        <ele>514</ele>
        <time>2023-08-15T11:45:31.077Z</time>
      </trkpt>
      <trkpt lat="43.80269" lon="2.98389">
        <ele>514</ele>
        <time>2023-08-15T11:45:35.446Z</time>
      </trkpt>
      <trkpt lat="43.80269" lon="2.98398">
        <ele>514</ele>
        <time>2023-08-15T11:45:39.837Z</time>
      </trkpt>
      <trkpt lat="43.8027" lon="2.98407">
        <ele>519</ele>
        <time>2023-08-15T11:45:44.298Z</time>
      </trkpt>
      <trkpt lat="43.80271" lon="2.98413">
        <ele>519</ele>
        <time>2023-08-15T11:45:48.117Z</time>
      </trkpt>
      <trkpt lat="43.80272" lon="2.98419">
        <ele>519</ele>
        <time>2023-08-15T11:45:52.422Z</time>
      </trkpt>
      <trkpt lat="43.80273" lon="2.98426">
        <ele>519</ele>
        <time>2023-08-15T11:45:56.797Z</time>
      </trkpt>
      <trkpt lat="43.80274" lon="2.98431">
        <ele>525</ele>
        <time>2023-08-15T11:46:01.238Z</time>
      </trkpt>
      <trkpt lat="43.80277" lon="2.98435">
        <ele>525</ele>
        <time>2023-08-15T11:46:05.606Z</time>
      </trkpt>
      <trkpt lat="43.80279" lon="2.98436">
        <ele>525</ele>
        <time>2023-08-15T11:46:09.424Z</time>
      </trkpt>
      <trkpt lat="43.80281" lon="2.9844">
        <ele>525</ele>
        <time>2023-08-15T11:46:13.757Z</time>
      </trkpt>
      <trkpt lat="43.80286" lon="2.98443">
        <ele>525</ele>
        <time>2023-08-15T11:46:18.168Z</time>
      </trkpt>
      <trkpt lat="43.80293" lon="2.98447">
        <ele>514</ele>
        <time>2023-08-15T11:46:22.597Z</time>
      </trkpt>
      <trkpt lat="43.80298" lon="2.98452">
        <ele>514</ele>
        <time>2023-08-15T11:46:26.938Z</time>
      </trkpt>
      <trkpt lat="43.80302" lon="2.98457">
        <ele>514</ele>
        <time>2023-08-15T11:46:31.379Z</time>
      </trkpt>
      <trkpt lat="43.80305" lon="2.98462">
        <ele>522</ele>
        <time>2023-08-15T11:46:35.786Z</time>
      </trkpt>
      <trkpt lat="43.80307" lon="2.98467">
        <ele>522</ele>
        <time>2023-08-15T11:46:39.597Z</time>
      </trkpt>
      <trkpt lat="43.8031" lon="2.98473">
        <ele>522</ele>
        <time>2023-08-15T11:46:43.957Z</time>
      </trkpt>
      <trkpt lat="43.80312" lon="2.98482">
        <ele>522</ele>
        <time>2023-08-15T11:46:48.777Z</time>
      </trkpt>
      <trkpt lat="43.80313" lon="2.9849">
        <ele>527</ele>
        <time>2023-08-15T11:46:53.217Z</time>
      </trkpt>
      <trkpt lat="43.80314" lon="2.98495">
        <ele>527</ele>
        <time>2023-08-15T11:46:57.586Z</time>
      </trkpt>
      <trkpt lat="43.80316" lon="2.98501">
        <ele>527</ele>
        <time>2023-08-15T11:47:01.958Z</time>
      </trkpt>
      <trkpt lat="43.80318" lon="2.98508">
        <ele>527</ele>
        <time>2023-08-15T11:47:06.386Z</time>
      </trkpt>
      <trkpt lat="43.80321" lon="2.98513">
        <ele>517</ele>
        <time>2023-08-15T11:47:10.258Z</time>
      </trkpt>
      <trkpt lat="43.80323" lon="2.98519">
        <ele>521</ele>
        <time>2023-08-15T11:47:14.677Z</time>
      </trkpt>
      <trkpt lat="43.80326" lon="2.98527">
        <ele>521</ele>
        <time>2023-08-15T11:47:18.978Z</time>
      </trkpt>
      <trkpt lat="43.80329" lon="2.98532">
        <ele>521</ele>
        <time>2023-08-15T11:47:23.406Z</time>
      </trkpt>
      <trkpt lat="43.80334" lon="2.98536">
        <ele>521</ele>
        <time>2023-08-15T11:47:27.258Z</time>
      </trkpt>
      <trkpt lat="43.80339" lon="2.98539">
        <ele>521</ele>
        <time>2023-08-15T11:47:31.666Z</time>
      </trkpt>
      <trkpt lat="43.80344" lon="2.98542">
        <ele>520</ele>
        <time>2023-08-15T11:47:35.497Z</time>
      </trkpt>
      <trkpt lat="43.80348" lon="2.98546">
        <ele>516</ele>
        <time>2023-08-15T11:47:39.898Z</time>
      </trkpt>
      <trkpt lat="43.80351" lon="2.98551">
        <ele>516</ele>
        <time>2023-08-15T11:47:44.278Z</time>
      </trkpt>
      <trkpt lat="43.80355" lon="2.98555">
        <ele>516</ele>
        <time>2023-08-15T11:47:48.617Z</time>
      </trkpt>
      <trkpt lat="43.80358" lon="2.98555">
        <ele>516</ele>
        <time>2023-08-15T11:47:52.958Z</time>
      </trkpt>
      <trkpt lat="43.80362" lon="2.98557">
        <ele>516</ele>
        <time>2023-08-15T11:47:57.443Z</time>
      </trkpt>
      <trkpt lat="43.80366" lon="2.98562">
        <ele>516</ele>
        <time>2023-08-15T11:48:01.858Z</time>
      </trkpt>
      <trkpt lat="43.8037" lon="2.98566">
        <ele>516</ele>
        <time>2023-08-15T11:48:06.297Z</time>
      </trkpt>
      <trkpt lat="43.80373" lon="2.9857">
        <ele>517</ele>
        <time>2023-08-15T11:48:10.697Z</time>
      </trkpt>
      <trkpt lat="43.80378" lon="2.98574">
        <ele>521</ele>
        <time>2023-08-15T11:48:15.158Z</time>
      </trkpt>
      <trkpt lat="43.80382" lon="2.98577">
        <ele>521</ele>
        <time>2023-08-15T11:48:19.037Z</time>
      </trkpt>
      <trkpt lat="43.80386" lon="2.98582">
        <ele>521</ele>
        <time>2023-08-15T11:48:23.957Z</time>
      </trkpt>
      <trkpt lat="43.80389" lon="2.98588">
        <ele>521</ele>
        <time>2023-08-15T11:48:28.397Z</time>
      </trkpt>
      <trkpt lat="43.8039" lon="2.98593">
        <ele>521</ele>
        <time>2023-08-15T11:48:32.218Z</time>
      </trkpt>
      <trkpt lat="43.8039" lon="2.986">
        <ele>521</ele>
        <time>2023-08-15T11:48:36.657Z</time>
      </trkpt>
      <trkpt lat="43.80389" lon="2.98605">
        <ele>521</ele>
        <time>2023-08-15T11:48:41.038Z</time>
      </trkpt>
      <trkpt lat="43.80389" lon="2.98611">
        <ele>521</ele>
        <time>2023-08-15T11:48:45.437Z</time>
      </trkpt>
      <trkpt lat="43.80391" lon="2.98615">
        <ele>521</ele>
        <time>2023-08-15T11:48:50.398Z</time>
      </trkpt>
      <trkpt lat="43.80397" lon="2.98613">
        <ele>521</ele>
        <time>2023-08-15T11:48:55.378Z</time>
      </trkpt>
      <trkpt lat="43.804" lon="2.98607">
        <ele>521</ele>
        <time>2023-08-15T11:48:59.817Z</time>
      </trkpt>
      <trkpt lat="43.80403" lon="2.98601">
        <ele>521</ele>
        <time>2023-08-15T11:49:04.237Z</time>
      </trkpt>
      <trkpt lat="43.80405" lon="2.98593">
        <ele>529</ele>
        <time>2023-08-15T11:49:09.178Z</time>
      </trkpt>
      <trkpt lat="43.8041" lon="2.98586">
        <ele>529</ele>
        <time>2023-08-15T11:49:13.557Z</time>
      </trkpt>
      <trkpt lat="43.80414" lon="2.98579">
        <ele>529</ele>
        <time>2023-08-15T11:49:17.938Z</time>
      </trkpt>
      <trkpt lat="43.80418" lon="2.98573">
        <ele>529</ele>
        <time>2023-08-15T11:49:22.857Z</time>
      </trkpt>
      <trkpt lat="43.80422" lon="2.9857">
        <ele>529</ele>
        <time>2023-08-15T11:49:27.258Z</time>
      </trkpt>
      <trkpt lat="43.80424" lon="2.98567">
        <ele>527</ele>
        <time>2023-08-15T11:49:31.177Z</time>
      </trkpt>
      <trkpt lat="43.80426" lon="2.98563">
        <ele>527</ele>
        <time>2023-08-15T11:49:35.557Z</time>
      </trkpt>
      <trkpt lat="43.8043" lon="2.9856">
        <ele>527</ele>
        <time>2023-08-15T11:49:39.938Z</time>
      </trkpt>
      <trkpt lat="43.80433" lon="2.98556">
        <ele>536</ele>
        <time>2023-08-15T11:49:44.837Z</time>
      </trkpt>
      <trkpt lat="43.80435" lon="2.98551">
        <ele>536</ele>
        <time>2023-08-15T11:49:49.238Z</time>
      </trkpt>
      <trkpt lat="43.80437" lon="2.98545">
        <ele>536</ele>
        <time>2023-08-15T11:49:53.717Z</time>
      </trkpt>
      <trkpt lat="43.80438" lon="2.98539">
        <ele>536</ele>
        <time>2023-08-15T11:49:58.118Z</time>
      </trkpt>
      <trkpt lat="43.80438" lon="2.98532">
        <ele>536</ele>
        <time>2023-08-15T11:50:03.118Z</time>
      </trkpt>
      <trkpt lat="43.80438" lon="2.98525">
        <ele>536</ele>
        <time>2023-08-15T11:50:07.537Z</time>
      </trkpt>
      <trkpt lat="43.80439" lon="2.98518">
        <ele>536</ele>
        <time>2023-08-15T11:50:11.938Z</time>
      </trkpt>
      <trkpt lat="43.8044" lon="2.98513">
        <ele>533</ele>
        <time>2023-08-15T11:50:16.317Z</time>
      </trkpt>
      <trkpt lat="43.80442" lon="2.98507">
        <ele>533</ele>
        <time>2023-08-15T11:50:21.248Z</time>
      </trkpt>
      <trkpt lat="43.80444" lon="2.98502">
        <ele>533</ele>
        <time>2023-08-15T11:50:25.158Z</time>
      </trkpt>
      <trkpt lat="43.80446" lon="2.98496">
        <ele>533</ele>
        <time>2023-08-15T11:50:29.506Z</time>
      </trkpt>
      <trkpt lat="43.80448" lon="2.98489">
        <ele>533</ele>
        <time>2023-08-15T11:50:33.957Z</time>
      </trkpt>
      <trkpt lat="43.8045" lon="2.98486">
        <ele>530</ele>
        <time>2023-08-15T11:50:38.917Z</time>
      </trkpt>
      <trkpt lat="43.80451" lon="2.98484">
        <ele>530</ele>
        <time>2023-08-15T11:50:43.358Z</time>
      </trkpt>
      <trkpt lat="43.80452" lon="2.9848">
        <ele>530</ele>
        <time>2023-08-15T11:50:47.777Z</time>
      </trkpt>
      <trkpt lat="43.80453" lon="2.98475">
        <ele>530</ele>
        <time>2023-08-15T11:50:51.677Z</time>
      </trkpt>
      <trkpt lat="43.80455" lon="2.9847">
        <ele>530</ele>
        <time>2023-08-15T11:50:56.217Z</time>
      </trkpt>
      <trkpt lat="43.80457" lon="2.98463">
        <ele>530</ele>
        <time>2023-08-15T11:51:00.657Z</time>
      </trkpt>
      <trkpt lat="43.80459" lon="2.98457">
        <ele>540</ele>
        <time>2023-08-15T11:51:04.938Z</time>
      </trkpt>
      <trkpt lat="43.8046" lon="2.98453">
        <ele>540</ele>
        <time>2023-08-15T11:51:09.958Z</time>
      </trkpt>
      <trkpt lat="43.8046" lon="2.9845">
        <ele>540</ele>
        <time>2023-08-15T11:51:14.378Z</time>
      </trkpt>
      <trkpt lat="43.80461" lon="2.98445">
        <ele>540</ele>
        <time>2023-08-15T11:51:18.817Z</time>
      </trkpt>
      <trkpt lat="43.80462" lon="2.9844">
        <ele>540</ele>
        <time>2023-08-15T11:51:23.138Z</time>
      </trkpt>
      <trkpt lat="43.80463" lon="2.98431">
        <ele>540</ele>
        <time>2023-08-15T11:51:28.007Z</time>
      </trkpt>
      <trkpt lat="43.80464" lon="2.98423">
        <ele>537</ele>
        <time>2023-08-15T11:51:32.429Z</time>
      </trkpt>
      <trkpt lat="43.80465" lon="2.98413">
        <ele>537</ele>
        <time>2023-08-15T11:51:36.878Z</time>
      </trkpt>
      <trkpt lat="43.80464" lon="2.98404">
        <ele>537</ele>
        <time>2023-08-15T11:51:41.358Z</time>
      </trkpt>
      <trkpt lat="43.80464" lon="2.98397">
        <ele>536</ele>
        <time>2023-08-15T11:51:45.758Z</time>
      </trkpt>
      <trkpt lat="43.80465" lon="2.9839">
        <ele>536</ele>
        <time>2023-08-15T11:51:50.178Z</time>
      </trkpt>
      <trkpt lat="43.80465" lon="2.98384">
        <ele>536</ele>
        <time>2023-08-15T11:51:54.637Z</time>
      </trkpt>
      <trkpt lat="43.80464" lon="2.98377">
        <ele>536</ele>
        <time>2023-08-15T11:51:58.918Z</time>
      </trkpt>
      <trkpt lat="43.80464" lon="2.9837">
        <ele>536</ele>
        <time>2023-08-15T11:52:03.277Z</time>
      </trkpt>
      <trkpt lat="43.80464" lon="2.98365">
        <ele>536</ele>
        <time>2023-08-15T11:52:07.158Z</time>
      </trkpt>
      <trkpt lat="43.80464" lon="2.98359">
        <ele>536</ele>
        <time>2023-08-15T11:52:11.597Z</time>
      </trkpt>
      <trkpt lat="43.80464" lon="2.98359">
        <ele>536</ele>
        <time>2023-08-15T11:52:15.997Z</time>
      </trkpt>
      <trkpt lat="43.80464" lon="2.98353">
        <ele>536</ele>
        <time>2023-08-15T11:52:20.418Z</time>
      </trkpt>
      <trkpt lat="43.80463" lon="2.98346">
        <ele>538</ele>
        <time>2023-08-15T11:52:24.877Z</time>
      </trkpt>
      <trkpt lat="43.80463" lon="2.98339">
        <ele>538</ele>
        <time>2023-08-15T11:52:29.378Z</time>
      </trkpt>
      <trkpt lat="43.80463" lon="2.98332">
        <ele>538</ele>
        <time>2023-08-15T11:52:33.817Z</time>
      </trkpt>
      <trkpt lat="43.80463" lon="2.98326">
        <ele>538</ele>
        <time>2023-08-15T11:52:38.258Z</time>
      </trkpt>
      <trkpt lat="43.80463" lon="2.98321">
        <ele>538</ele>
        <time>2023-08-15T11:52:42.118Z</time>
      </trkpt>
      <trkpt lat="43.80465" lon="2.98317">
        <ele>539</ele>
        <time>2023-08-15T11:52:46.487Z</time>
      </trkpt>
      <trkpt lat="43.80467" lon="2.98314">
        <ele>539</ele>
        <time>2023-08-15T11:52:50.846Z</time>
      </trkpt>
      <trkpt lat="43.80468" lon="2.98312">
        <ele>539</ele>
        <time>2023-08-15T11:52:55.278Z</time>
      </trkpt>
      <trkpt lat="43.8047" lon="2.98309">
        <ele>539</ele>
        <time>2023-08-15T11:52:59.677Z</time>
      </trkpt>
      <trkpt lat="43.80474" lon="2.98306">
        <ele>539</ele>
        <time>2023-08-15T11:53:04.058Z</time>
      </trkpt>
      <trkpt lat="43.80483" lon="2.9831">
        <ele>539</ele>
        <time>2023-08-15T11:53:16.537Z</time>
      </trkpt>
      <trkpt lat="43.80482" lon="2.98311">
        <ele>539</ele>
        <time>2023-08-15T11:53:20.898Z</time>
      </trkpt>
      <trkpt lat="43.80482" lon="2.98313">
        <ele>539</ele>
        <time>2023-08-15T11:53:24.053Z</time>
      </trkpt>
      <trkpt lat="43.80481" lon="2.98317">
        <ele>539</ele>
        <time>2023-08-15T11:53:29.693Z</time>
      </trkpt>
      <trkpt lat="43.80481" lon="2.98318">
        <ele>539</ele>
        <time>2023-08-15T11:53:34.193Z</time>
      </trkpt>
      <trkpt lat="43.80482" lon="2.98318">
        <ele>539</ele>
        <time>2023-08-15T11:53:38.033Z</time>
      </trkpt>
      <trkpt lat="43.80482" lon="2.98318">
        <ele>539</ele>
        <time>2023-08-15T11:53:43.034Z</time>
      </trkpt>
      <trkpt lat="43.80483" lon="2.98321">
        <ele>538</ele>
        <time>2023-08-15T11:53:46.933Z</time>
      </trkpt>
      <trkpt lat="43.80484" lon="2.98326">
        <ele>538</ele>
        <time>2023-08-15T11:53:51.393Z</time>
      </trkpt>
      <trkpt lat="43.80485" lon="2.98332">
        <ele>538</ele>
        <time>2023-08-15T11:53:55.615Z</time>
      </trkpt>
      <trkpt lat="43.80484" lon="2.98339">
        <ele>538</ele>
        <time>2023-08-15T11:53:59.976Z</time>
      </trkpt>
      <trkpt lat="43.80483" lon="2.98344">
        <ele>538</ele>
        <time>2023-08-15T11:54:04.396Z</time>
      </trkpt>
      <trkpt lat="43.80483" lon="2.98349">
        <ele>536</ele>
        <time>2023-08-15T11:54:08.835Z</time>
      </trkpt>
      <trkpt lat="43.80485" lon="2.98354">
        <ele>536</ele>
        <time>2023-08-15T11:54:13.096Z</time>
      </trkpt>
      <trkpt lat="43.80485" lon="2.9836">
        <ele>536</ele>
        <time>2023-08-15T11:54:17.555Z</time>
      </trkpt>
      <trkpt lat="43.80486" lon="2.98366">
        <ele>536</ele>
        <time>2023-08-15T11:54:22.036Z</time>
      </trkpt>
      <trkpt lat="43.80487" lon="2.98373">
        <ele>543</ele>
        <time>2023-08-15T11:54:26.424Z</time>
      </trkpt>
      <trkpt lat="43.80488" lon="2.98381">
        <ele>547</ele>
        <time>2023-08-15T11:54:30.855Z</time>
      </trkpt>
      <trkpt lat="43.80491" lon="2.98388">
        <ele>547</ele>
        <time>2023-08-15T11:54:35.316Z</time>
      </trkpt>
      <trkpt lat="43.80493" lon="2.98392">
        <ele>547</ele>
        <time>2023-08-15T11:54:40.276Z</time>
      </trkpt>
      <trkpt lat="43.80494" lon="2.98395">
        <ele>547</ele>
        <time>2023-08-15T11:54:44.715Z</time>
      </trkpt>
      <trkpt lat="43.80495" lon="2.98399">
        <ele>547</ele>
        <time>2023-08-15T11:54:49.056Z</time>
      </trkpt>
      <trkpt lat="43.80497" lon="2.98403">
        <ele>547</ele>
        <time>2023-08-15T11:54:54.076Z</time>
      </trkpt>
      <trkpt lat="43.80497" lon="2.98404">
        <ele>551</ele>
        <time>2023-08-15T11:54:58.495Z</time>
      </trkpt>
      <trkpt lat="43.80498" lon="2.98406">
        <ele>551</ele>
        <time>2023-08-15T11:55:03.410Z</time>
      </trkpt>
      <trkpt lat="43.805" lon="2.9841">
        <ele>551</ele>
        <time>2023-08-15T11:55:07.855Z</time>
      </trkpt>
      <trkpt lat="43.80502" lon="2.98416">
        <ele>551</ele>
        <time>2023-08-15T11:55:12.255Z</time>
      </trkpt>
      <trkpt lat="43.80505" lon="2.98425">
        <ele>551</ele>
        <time>2023-08-15T11:55:17.175Z</time>
      </trkpt>
      <trkpt lat="43.80509" lon="2.98435">
        <ele>552</ele>
        <time>2023-08-15T11:55:21.555Z</time>
      </trkpt>
      <trkpt lat="43.80511" lon="2.98441">
        <ele>552</ele>
        <time>2023-08-15T11:55:25.915Z</time>
      </trkpt>
      <trkpt lat="43.80512" lon="2.98446">
        <ele>552</ele>
        <time>2023-08-15T11:55:30.355Z</time>
      </trkpt>
      <trkpt lat="43.80513" lon="2.9845">
        <ele>552</ele>
        <time>2023-08-15T11:55:34.694Z</time>
      </trkpt>
      <trkpt lat="43.80515" lon="2.98455">
        <ele>558</ele>
        <time>2023-08-15T11:55:39.116Z</time>
      </trkpt>
      <trkpt lat="43.80516" lon="2.98459">
        <ele>561</ele>
        <time>2023-08-15T11:55:43.555Z</time>
      </trkpt>
      <trkpt lat="43.80516" lon="2.98465">
        <ele>561</ele>
        <time>2023-08-15T11:55:48.055Z</time>
      </trkpt>
      <trkpt lat="43.80517" lon="2.9847">
        <ele>561</ele>
        <time>2023-08-15T11:55:52.515Z</time>
      </trkpt>
      <trkpt lat="43.80517" lon="2.98475">
        <ele>561</ele>
        <time>2023-08-15T11:55:56.935Z</time>
      </trkpt>
      <trkpt lat="43.80518" lon="2.98479">
        <ele>561</ele>
        <time>2023-08-15T11:56:01.356Z</time>
      </trkpt>
      <trkpt lat="43.8052" lon="2.98485">
        <ele>561</ele>
        <time>2023-08-15T11:56:05.795Z</time>
      </trkpt>
      <trkpt lat="43.80523" lon="2.9849">
        <ele>564</ele>
        <time>2023-08-15T11:56:10.076Z</time>
      </trkpt>
      <trkpt lat="43.80527" lon="2.98496">
        <ele>564</ele>
        <time>2023-08-15T11:56:15.137Z</time>
      </trkpt>
      <trkpt lat="43.80529" lon="2.98499">
        <ele>564</ele>
        <time>2023-08-15T11:56:19.637Z</time>
      </trkpt>
      <trkpt lat="43.80531" lon="2.98501">
        <ele>564</ele>
        <time>2023-08-15T11:56:24.037Z</time>
      </trkpt>
      <trkpt lat="43.80531" lon="2.98502">
        <ele>564</ele>
        <time>2023-08-15T11:56:28.537Z</time>
      </trkpt>
      <trkpt lat="43.80532" lon="2.98504">
        <ele>564</ele>
        <time>2023-08-15T11:56:32.960Z</time>
      </trkpt>
      <trkpt lat="43.80534" lon="2.9851">
        <ele>564</ele>
        <time>2023-08-15T11:56:37.919Z</time>
      </trkpt>
      <trkpt lat="43.80536" lon="2.98516">
        <ele>565</ele>
        <time>2023-08-15T11:56:42.288Z</time>
      </trkpt>
      <trkpt lat="43.80537" lon="2.98521">
        <ele>565</ele>
        <time>2023-08-15T11:56:46.159Z</time>
      </trkpt>
      <trkpt lat="43.80537" lon="2.98522">
        <ele>565</ele>
        <time>2023-08-15T11:56:50.639Z</time>
      </trkpt>
      <trkpt lat="43.80538" lon="2.98525">
        <ele>565</ele>
        <time>2023-08-15T11:56:55.040Z</time>
      </trkpt>
      <trkpt lat="43.80539" lon="2.98529">
        <ele>565</ele>
        <time>2023-08-15T11:56:59.420Z</time>
      </trkpt>
      <trkpt lat="43.8054" lon="2.98537">
        <ele>565</ele>
        <time>2023-08-15T11:57:03.360Z</time>
      </trkpt>
      <trkpt lat="43.80543" lon="2.98546">
        <ele>568</ele>
        <time>2023-08-15T11:57:07.788Z</time>
      </trkpt>
      <trkpt lat="43.80546" lon="2.98554">
        <ele>568</ele>
        <time>2023-08-15T11:57:12.189Z</time>
      </trkpt>
      <trkpt lat="43.80548" lon="2.9856">
        <ele>568</ele>
        <time>2023-08-15T11:57:16.080Z</time>
      </trkpt>
      <trkpt lat="43.8055" lon="2.98566">
        <ele>568</ele>
        <time>2023-08-15T11:57:20.539Z</time>
      </trkpt>
      <trkpt lat="43.80553" lon="2.98571">
        <ele>566</ele>
        <time>2023-08-15T11:57:25.039Z</time>
      </trkpt>
      <trkpt lat="43.80556" lon="2.98578">
        <ele>566</ele>
        <time>2023-08-15T11:57:29.424Z</time>
      </trkpt>
      <trkpt lat="43.80559" lon="2.98584">
        <ele>566</ele>
        <time>2023-08-15T11:57:33.799Z</time>
      </trkpt>
      <trkpt lat="43.8056" lon="2.98591">
        <ele>566</ele>
        <time>2023-08-15T11:57:38.120Z</time>
      </trkpt>
      <trkpt lat="43.80561" lon="2.98596">
        <ele>566</ele>
        <time>2023-08-15T11:57:42.619Z</time>
      </trkpt>
      <trkpt lat="43.80563" lon="2.98602">
        <ele>565</ele>
        <time>2023-08-15T11:57:46.930Z</time>
      </trkpt>
      <trkpt lat="43.80566" lon="2.98609">
        <ele>565</ele>
        <time>2023-08-15T11:57:50.879Z</time>
      </trkpt>
      <trkpt lat="43.80568" lon="2.98616">
        <ele>565</ele>
        <time>2023-08-15T11:57:56.399Z</time>
      </trkpt>
      <trkpt lat="43.80569" lon="2.98617">
        <ele>565</ele>
        <time>2023-08-15T11:58:00.840Z</time>
      </trkpt>
      <trkpt lat="43.8057" lon="2.98621">
        <ele>568</ele>
        <time>2023-08-15T11:58:05.280Z</time>
      </trkpt>
      <trkpt lat="43.80573" lon="2.98624">
        <ele>568</ele>
        <time>2023-08-15T11:58:09.759Z</time>
      </trkpt>
      <trkpt lat="43.80575" lon="2.98627">
        <ele>569</ele>
        <time>2023-08-15T11:58:13.639Z</time>
      </trkpt>
      <trkpt lat="43.80578" lon="2.98631">
        <ele>569</ele>
        <time>2023-08-15T11:58:18.040Z</time>
      </trkpt>
      <trkpt lat="43.8058" lon="2.98634">
        <ele>569</ele>
        <time>2023-08-15T11:58:22.379Z</time>
      </trkpt>
      <trkpt lat="43.80583" lon="2.98638">
        <ele>569</ele>
        <time>2023-08-15T11:58:26.819Z</time>
      </trkpt>
      <trkpt lat="43.80585" lon="2.98643">
        <ele>569</ele>
        <time>2023-08-15T11:58:31.159Z</time>
      </trkpt>
      <trkpt lat="43.80585" lon="2.98648">
        <ele>569</ele>
        <time>2023-08-15T11:58:35.499Z</time>
      </trkpt>
      <trkpt lat="43.80585" lon="2.98653">
        <ele>569</ele>
        <time>2023-08-15T11:58:39.840Z</time>
      </trkpt>
      <trkpt lat="43.80586" lon="2.98658">
        <ele>571</ele>
        <time>2023-08-15T11:58:44.140Z</time>
      </trkpt>
      <trkpt lat="43.80588" lon="2.98665">
        <ele>571</ele>
        <time>2023-08-15T11:58:48.499Z</time>
      </trkpt>
      <trkpt lat="43.80591" lon="2.98671">
        <ele>571</ele>
        <time>2023-08-15T11:58:52.908Z</time>
      </trkpt>
      <trkpt lat="43.80593" lon="2.98677">
        <ele>571</ele>
        <time>2023-08-15T11:58:57.312Z</time>
      </trkpt>
      <trkpt lat="43.80595" lon="2.98683">
        <ele>573</ele>
        <time>2023-08-15T11:59:01.219Z</time>
      </trkpt>
      <trkpt lat="43.80598" lon="2.98688">
        <ele>580</ele>
        <time>2023-08-15T11:59:05.539Z</time>
      </trkpt>
      <trkpt lat="43.806" lon="2.98693">
        <ele>580</ele>
        <time>2023-08-15T11:59:10Z</time>
      </trkpt>
      <trkpt lat="43.80602" lon="2.98699">
        <ele>580</ele>
        <time>2023-08-15T11:59:14.400Z</time>
      </trkpt>
      <trkpt lat="43.80603" lon="2.98707">
        <ele>580</ele>
        <time>2023-08-15T11:59:18.839Z</time>
      </trkpt>
      <trkpt lat="43.80604" lon="2.98712">
        <ele>583</ele>
        <time>2023-08-15T11:59:23.159Z</time>
      </trkpt>
      <trkpt lat="43.80606" lon="2.98717">
        <ele>583</ele>
        <time>2023-08-15T11:59:32.100Z</time>
      </trkpt>
      <trkpt lat="43.80607" lon="2.98719">
        <ele>583</ele>
        <time>2023-08-15T11:59:36.424Z</time>
      </trkpt>
      <trkpt lat="43.80608" lon="2.98722">
        <ele>583</ele>
        <time>2023-08-15T11:59:40.799Z</time>
      </trkpt>
      <trkpt lat="43.8061" lon="2.98726">
        <ele>583</ele>
        <time>2023-08-15T11:59:45.199Z</time>
      </trkpt>
      <trkpt lat="43.80612" lon="2.98732">
        <ele>583</ele>
        <time>2023-08-15T11:59:49.619Z</time>
      </trkpt>
      <trkpt lat="43.80613" lon="2.98738">
        <ele>583</ele>
        <time>2023-08-15T11:59:53.979Z</time>
      </trkpt>
      <trkpt lat="43.80614" lon="2.98742">
        <ele>583</ele>
        <time>2023-08-15T11:59:58.398Z</time>
      </trkpt>
      <trkpt lat="43.80615" lon="2.98745">
        <ele>583</ele>
        <time>2023-08-15T12:00:02.300Z</time>
      </trkpt>
      <trkpt lat="43.80618" lon="2.98749">
        <ele>583</ele>
        <time>2023-08-15T12:00:06.768Z</time>
      </trkpt>
      <trkpt lat="43.80622" lon="2.98754">
        <ele>583</ele>
        <time>2023-08-15T12:00:11.020Z</time>
      </trkpt>
      <trkpt lat="43.80626" lon="2.98759">
        <ele>591</ele>
        <time>2023-08-15T12:00:15.423Z</time>
      </trkpt>
      <trkpt lat="43.80632" lon="2.98763">
        <ele>591</ele>
        <time>2023-08-15T12:00:19.842Z</time>
      </trkpt>
      <trkpt lat="43.80638" lon="2.98766">
        <ele>588</ele>
        <time>2023-08-15T12:00:24.320Z</time>
      </trkpt>
      <trkpt lat="43.80644" lon="2.98766">
        <ele>588</ele>
        <time>2023-08-15T12:00:28.759Z</time>
      </trkpt>
      <trkpt lat="43.80649" lon="2.98763">
        <ele>591</ele>
        <time>2023-08-15T12:00:33.180Z</time>
      </trkpt>
      <trkpt lat="43.80653" lon="2.98758">
        <ele>597</ele>
        <time>2023-08-15T12:00:37.619Z</time>
      </trkpt>
      <trkpt lat="43.80658" lon="2.98753">
        <ele>597</ele>
        <time>2023-08-15T12:00:42.020Z</time>
      </trkpt>
      <trkpt lat="43.80663" lon="2.98747">
        <ele>597</ele>
        <time>2023-08-15T12:00:46.499Z</time>
      </trkpt>
      <trkpt lat="43.80668" lon="2.98741">
        <ele>597</ele>
        <time>2023-08-15T12:00:50.960Z</time>
      </trkpt>
      <trkpt lat="43.80673" lon="2.98735">
        <ele>594</ele>
        <time>2023-08-15T12:00:55.409Z</time>
      </trkpt>
      <trkpt lat="43.80677" lon="2.98731">
        <ele>594</ele>
        <time>2023-08-15T12:01:00.390Z</time>
      </trkpt>
      <trkpt lat="43.80682" lon="2.98726">
        <ele>602</ele>
        <time>2023-08-15T12:01:04.799Z</time>
      </trkpt>
      <trkpt lat="43.80685" lon="2.98721">
        <ele>602</ele>
        <time>2023-08-15T12:01:09.260Z</time>
      </trkpt>
      <trkpt lat="43.80686" lon="2.98716">
        <ele>602</ele>
        <time>2023-08-15T12:01:14.260Z</time>
      </trkpt>
      <trkpt lat="43.80689" lon="2.98712">
        <ele>602</ele>
        <time>2023-08-15T12:01:18.140Z</time>
      </trkpt>
      <trkpt lat="43.80693" lon="2.98708">
        <ele>602</ele>
        <time>2023-08-15T12:01:22.639Z</time>
      </trkpt>
      <trkpt lat="43.80697" lon="2.98705">
        <ele>597</ele>
        <time>2023-08-15T12:01:27.020Z</time>
      </trkpt>
      <trkpt lat="43.80699" lon="2.98702">
        <ele>597</ele>
        <time>2023-08-15T12:01:31.519Z</time>
      </trkpt>
      <trkpt lat="43.80702" lon="2.98699">
        <ele>597</ele>
        <time>2023-08-15T12:01:35.879Z</time>
      </trkpt>
      <trkpt lat="43.80703" lon="2.98699">
        <ele>597</ele>
        <time>2023-08-15T12:01:40.280Z</time>
      </trkpt>
      <trkpt lat="43.80706" lon="2.98697">
        <ele>597</ele>
        <time>2023-08-15T12:01:45.069Z</time>
      </trkpt>
      <trkpt lat="43.8071" lon="2.98694">
        <ele>606</ele>
        <time>2023-08-15T12:01:49.499Z</time>
      </trkpt>
      <trkpt lat="43.80712" lon="2.9869">
        <ele>606</ele>
        <time>2023-08-15T12:01:54.400Z</time>
      </trkpt>
      <trkpt lat="43.80715" lon="2.98686">
        <ele>606</ele>
        <time>2023-08-15T12:02:20.719Z</time>
      </trkpt>
      <trkpt lat="43.80714" lon="2.9869">
        <ele>606</ele>
        <time>2023-08-15T12:02:25.040Z</time>
      </trkpt>
      <trkpt lat="43.80711" lon="2.98692">
        <ele>606</ele>
        <time>2023-08-15T12:02:29.489Z</time>
      </trkpt>
      <trkpt lat="43.80707" lon="2.98694">
        <ele>597</ele>
        <time>2023-08-15T12:02:33.899Z</time>
      </trkpt>
      <trkpt lat="43.80704" lon="2.98696">
        <ele>597</ele>
        <time>2023-08-15T12:02:38.300Z</time>
      </trkpt>
      <trkpt lat="43.80701" lon="2.98699">
        <ele>597</ele>
        <time>2023-08-15T12:02:42.739Z</time>
      </trkpt>
      <trkpt lat="43.80699" lon="2.98702">
        <ele>597</ele>
        <time>2023-08-15T12:02:47.139Z</time>
      </trkpt>
      <trkpt lat="43.80698" lon="2.98708">
        <ele>597</ele>
        <time>2023-08-15T12:02:51.619Z</time>
      </trkpt>
      <trkpt lat="43.80697" lon="2.98715">
        <ele>602</ele>
        <time>2023-08-15T12:02:56Z</time>
      </trkpt>
      <trkpt lat="43.80696" lon="2.98721">
        <ele>602</ele>
        <time>2023-08-15T12:03:00.400Z</time>
      </trkpt>
      <trkpt lat="43.80696" lon="2.98727">
        <ele>602</ele>
        <time>2023-08-15T12:03:04.819Z</time>
      </trkpt>
      <trkpt lat="43.80696" lon="2.98732">
        <ele>602</ele>
        <time>2023-08-15T12:03:09.180Z</time>
      </trkpt>
      <trkpt lat="43.80696" lon="2.98739">
        <ele>603</ele>
        <time>2023-08-15T12:03:13.539Z</time>
      </trkpt>
      <trkpt lat="43.80698" lon="2.98745">
        <ele>603</ele>
        <time>2023-08-15T12:03:17.939Z</time>
      </trkpt>
      <trkpt lat="43.807" lon="2.98751">
        <ele>603</ele>
        <time>2023-08-15T12:03:22.299Z</time>
      </trkpt>
      <trkpt lat="43.80701" lon="2.98758">
        <ele>603</ele>
        <time>2023-08-15T12:03:26.599Z</time>
      </trkpt>
      <trkpt lat="43.80702" lon="2.98766">
        <ele>601</ele>
        <time>2023-08-15T12:03:31.079Z</time>
      </trkpt>
      <trkpt lat="43.80703" lon="2.98772">
        <ele>601</ele>
        <time>2023-08-15T12:03:35.479Z</time>
      </trkpt>
      <trkpt lat="43.80704" lon="2.98778">
        <ele>601</ele>
        <time>2023-08-15T12:03:39.940Z</time>
      </trkpt>
      <trkpt lat="43.80703" lon="2.98782">
        <ele>601</ele>
        <time>2023-08-15T12:03:44.960Z</time>
      </trkpt>
      <trkpt lat="43.80703" lon="2.98785">
        <ele>601</ele>
        <time>2023-08-15T12:03:49.369Z</time>
      </trkpt>
      <trkpt lat="43.80705" lon="2.9879">
        <ele>601</ele>
        <time>2023-08-15T12:03:53.659Z</time>
      </trkpt>
      <trkpt lat="43.80707" lon="2.98794">
        <ele>597</ele>
        <time>2023-08-15T12:03:58.060Z</time>
      </trkpt>
      <trkpt lat="43.8071" lon="2.98799">
        <ele>605</ele>
        <time>2023-08-15T12:04:02.424Z</time>
      </trkpt>
      <trkpt lat="43.80714" lon="2.98804">
        <ele>605</ele>
        <time>2023-08-15T12:04:06.819Z</time>
      </trkpt>
      <trkpt lat="43.8072" lon="2.98809">
        <ele>605</ele>
        <time>2023-08-15T12:04:11.239Z</time>
      </trkpt>
      <trkpt lat="43.80724" lon="2.98812">
        <ele>605</ele>
        <time>2023-08-15T12:04:15.079Z</time>
      </trkpt>
      <trkpt lat="43.80728" lon="2.98814">
        <ele>605</ele>
        <time>2023-08-15T12:04:20.020Z</time>
      </trkpt>
      <trkpt lat="43.80731" lon="2.98817">
        <ele>605</ele>
        <time>2023-08-15T12:04:24.401Z</time>
      </trkpt>
      <trkpt lat="43.80732" lon="2.98819">
        <ele>605</ele>
        <time>2023-08-15T12:04:48.395Z</time>
      </trkpt>
      <trkpt lat="43.80732" lon="2.98816">
        <ele>605</ele>
        <time>2023-08-15T12:04:57.129Z</time>
      </trkpt>
      <trkpt lat="43.80728" lon="2.98812">
        <ele>605</ele>
        <time>2023-08-15T12:05:01.010Z</time>
      </trkpt>
      <trkpt lat="43.80726" lon="2.98804">
        <ele>605</ele>
        <time>2023-08-15T12:05:05.400Z</time>
      </trkpt>
      <trkpt lat="43.80725" lon="2.98795">
        <ele>605</ele>
        <time>2023-08-15T12:05:09.811Z</time>
      </trkpt>
      <trkpt lat="43.80725" lon="2.98786">
        <ele>610</ele>
        <time>2023-08-15T12:05:14.251Z</time>
      </trkpt>
      <trkpt lat="43.80726" lon="2.98781">
        <ele>610</ele>
        <time>2023-08-15T12:05:18.489Z</time>
      </trkpt>
      <trkpt lat="43.80727" lon="2.98773">
        <ele>610</ele>
        <time>2023-08-15T12:05:22.951Z</time>
      </trkpt>
      <trkpt lat="43.80728" lon="2.98766">
        <ele>610</ele>
        <time>2023-08-15T12:05:27.351Z</time>
      </trkpt>
      <trkpt lat="43.80728" lon="2.98759">
        <ele>615</ele>
        <time>2023-08-15T12:05:31.750Z</time>
      </trkpt>
      <trkpt lat="43.80728" lon="2.98753">
        <ele>615</ele>
        <time>2023-08-15T12:05:36.111Z</time>
      </trkpt>
      <trkpt lat="43.80728" lon="2.98746">
        <ele>615</ele>
        <time>2023-08-15T12:05:40.550Z</time>
      </trkpt>
      <trkpt lat="43.80728" lon="2.9874">
        <ele>615</ele>
        <time>2023-08-15T12:05:44.910Z</time>
      </trkpt>
      <trkpt lat="43.80728" lon="2.98733">
        <ele>613</ele>
        <time>2023-08-15T12:05:49.250Z</time>
      </trkpt>
      <trkpt lat="43.80729" lon="2.98725">
        <ele>613</ele>
        <time>2023-08-15T12:05:53.710Z</time>
      </trkpt>
      <trkpt lat="43.80729" lon="2.98718">
        <ele>613</ele>
        <time>2023-08-15T12:05:58.030Z</time>
      </trkpt>
      <trkpt lat="43.80729" lon="2.9871">
        <ele>613</ele>
        <time>2023-08-15T12:06:02.395Z</time>
      </trkpt>
      <trkpt lat="43.80731" lon="2.98704">
        <ele>606</ele>
        <time>2023-08-15T12:06:06.870Z</time>
      </trkpt>
      <trkpt lat="43.80734" lon="2.98698">
        <ele>606</ele>
        <time>2023-08-15T12:06:10.831Z</time>
      </trkpt>
      <trkpt lat="43.80736" lon="2.98692">
        <ele>606</ele>
        <time>2023-08-15T12:06:15.250Z</time>
      </trkpt>
      <trkpt lat="43.80738" lon="2.98684">
        <ele>619</ele>
        <time>2023-08-15T12:06:19.690Z</time>
      </trkpt>
      <trkpt lat="43.80741" lon="2.98679">
        <ele>612</ele>
        <time>2023-08-15T12:06:24.050Z</time>
      </trkpt>
      <trkpt lat="43.80743" lon="2.98674">
        <ele>612</ele>
        <time>2023-08-15T12:06:28.391Z</time>
      </trkpt>
      <trkpt lat="43.80746" lon="2.98669">
        <ele>612</ele>
        <time>2023-08-15T12:06:32.250Z</time>
      </trkpt>
      <trkpt lat="43.80748" lon="2.98663">
        <ele>612</ele>
        <time>2023-08-15T12:06:37.191Z</time>
      </trkpt>
      <trkpt lat="43.80751" lon="2.98658">
        <ele>612</ele>
        <time>2023-08-15T12:06:42.151Z</time>
      </trkpt>
      <trkpt lat="43.80752" lon="2.98653">
        <ele>606</ele>
        <time>2023-08-15T12:06:46.530Z</time>
      </trkpt>
      <trkpt lat="43.80755" lon="2.98647">
        <ele>606</ele>
        <time>2023-08-15T12:06:50.971Z</time>
      </trkpt>
      <trkpt lat="43.80759" lon="2.98642">
        <ele>606</ele>
        <time>2023-08-15T12:06:55.951Z</time>
      </trkpt>
      <trkpt lat="43.80763" lon="2.98638">
        <ele>606</ele>
        <time>2023-08-15T12:07:00.331Z</time>
      </trkpt>
      <trkpt lat="43.80767" lon="2.98634">
        <ele>619</ele>
        <time>2023-08-15T12:07:04.750Z</time>
      </trkpt>
      <trkpt lat="43.80771" lon="2.9863">
        <ele>619</ele>
        <time>2023-08-15T12:07:09.151Z</time>
      </trkpt>
      <trkpt lat="43.80774" lon="2.98627">
        <ele>619</ele>
        <time>2023-08-15T12:07:13.031Z</time>
      </trkpt>
      <trkpt lat="43.80779" lon="2.98621">
        <ele>613</ele>
        <time>2023-08-15T12:07:36.251Z</time>
      </trkpt>
      <trkpt lat="43.80782" lon="2.98617">
        <ele>613</ele>
        <time>2023-08-15T12:07:41.171Z</time>
      </trkpt>
      <trkpt lat="43.80788" lon="2.98612">
        <ele>613</ele>
        <time>2023-08-15T12:07:45.550Z</time>
      </trkpt>
      <trkpt lat="43.80794" lon="2.98606">
        <ele>624</ele>
        <time>2023-08-15T12:07:49.990Z</time>
      </trkpt>
      <trkpt lat="43.808" lon="2.98598">
        <ele>624</ele>
        <time>2023-08-15T12:07:54.411Z</time>
      </trkpt>
      <trkpt lat="43.80807" lon="2.98592">
        <ele>616</ele>
        <time>2023-08-15T12:07:58.810Z</time>
      </trkpt>
      <trkpt lat="43.80813" lon="2.98587">
        <ele>616</ele>
        <time>2023-08-15T12:08:03.191Z</time>
      </trkpt>
      <trkpt lat="43.80819" lon="2.98582">
        <ele>616</ele>
        <time>2023-08-15T12:08:08.151Z</time>
      </trkpt>
      <trkpt lat="43.80825" lon="2.98576">
        <ele>622</ele>
        <time>2023-08-15T12:08:12.590Z</time>
      </trkpt>
      <trkpt lat="43.8083" lon="2.98572">
        <ele>622</ele>
        <time>2023-08-15T12:08:16.991Z</time>
      </trkpt>
      <trkpt lat="43.80835" lon="2.98568">
        <ele>614</ele>
        <time>2023-08-15T12:08:21.931Z</time>
      </trkpt>
      <trkpt lat="43.8084" lon="2.98563">
        <ele>614</ele>
        <time>2023-08-15T12:08:26.331Z</time>
      </trkpt>
      <trkpt lat="43.80845" lon="2.9856">
        <ele>614</ele>
        <time>2023-08-15T12:08:30.770Z</time>
      </trkpt>
      <trkpt lat="43.80849" lon="2.98557">
        <ele>622</ele>
        <time>2023-08-15T12:08:35.191Z</time>
      </trkpt>
      <trkpt lat="43.80853" lon="2.98553">
        <ele>622</ele>
        <time>2023-08-15T12:08:39.570Z</time>
      </trkpt>
      <trkpt lat="43.80856" lon="2.98549">
        <ele>622</ele>
        <time>2023-08-15T12:08:44.051Z</time>
      </trkpt>
      <trkpt lat="43.8086" lon="2.98545">
        <ele>622</ele>
        <time>2023-08-15T12:08:48.871Z</time>
      </trkpt>
      <trkpt lat="43.80863" lon="2.98541">
        <ele>615</ele>
        <time>2023-08-15T12:08:53.230Z</time>
      </trkpt>
      <trkpt lat="43.80867" lon="2.98536">
        <ele>615</ele>
        <time>2023-08-15T12:08:57.690Z</time>
      </trkpt>
      <trkpt lat="43.8087" lon="2.98531">
        <ele>615</ele>
        <time>2023-08-15T12:09:02.131Z</time>
      </trkpt>
      <trkpt lat="43.80873" lon="2.98526">
        <ele>615</ele>
        <time>2023-08-15T12:09:06.070Z</time>
      </trkpt>
      <trkpt lat="43.80878" lon="2.98519">
        <ele>627</ele>
        <time>2023-08-15T12:09:10.991Z</time>
      </trkpt>
      <trkpt lat="43.80881" lon="2.98513">
        <ele>624</ele>
        <time>2023-08-15T12:09:15.311Z</time>
      </trkpt>
      <trkpt lat="43.80884" lon="2.98506">
        <ele>624</ele>
        <time>2023-08-15T12:09:20.351Z</time>
      </trkpt>
      <trkpt lat="43.80885" lon="2.985">
        <ele>624</ele>
        <time>2023-08-15T12:09:24.750Z</time>
      </trkpt>
      <trkpt lat="43.80887" lon="2.98493">
        <ele>624</ele>
        <time>2023-08-15T12:09:29.690Z</time>
      </trkpt>
      <trkpt lat="43.80889" lon="2.98488">
        <ele>624</ele>
        <time>2023-08-15T12:09:34.011Z</time>
      </trkpt>
      <trkpt lat="43.80891" lon="2.98488">
        <ele>624</ele>
        <time>2023-08-15T12:09:37.890Z</time>
      </trkpt>
      <trkpt lat="43.80892" lon="2.98484">
        <ele>621</ele>
        <time>2023-08-15T12:09:42.251Z</time>
      </trkpt>
      <trkpt lat="43.80895" lon="2.9848">
        <ele>621</ele>
        <time>2023-08-15T12:09:46.130Z</time>
      </trkpt>
      <trkpt lat="43.80899" lon="2.98477">
        <ele>621</ele>
        <time>2023-08-15T12:09:50.529Z</time>
      </trkpt>
      <trkpt lat="43.80901" lon="2.98472">
        <ele>621</ele>
        <time>2023-08-15T12:09:54.891Z</time>
      </trkpt>
      <trkpt lat="43.80903" lon="2.98466">
        <ele>631</ele>
        <time>2023-08-15T12:09:59.251Z</time>
      </trkpt>
      <trkpt lat="43.80904" lon="2.98458">
        <ele>629</ele>
        <time>2023-08-15T12:10:03.550Z</time>
      </trkpt>
      <trkpt lat="43.80904" lon="2.98449">
        <ele>629</ele>
        <time>2023-08-15T12:10:07.991Z</time>
      </trkpt>
      <trkpt lat="43.80903" lon="2.98441">
        <ele>629</ele>
        <time>2023-08-15T12:10:12.411Z</time>
      </trkpt>
      <trkpt lat="43.80903" lon="2.98432">
        <ele>618</ele>
        <time>2023-08-15T12:10:16.850Z</time>
      </trkpt>
      <trkpt lat="43.80903" lon="2.98431">
        <ele>629</ele>
        <time>2023-08-15T12:10:21.271Z</time>
      </trkpt>
      <trkpt lat="43.80904" lon="2.98425">
        <ele>630</ele>
        <time>2023-08-15T12:10:25.670Z</time>
      </trkpt>
      <trkpt lat="43.80905" lon="2.98417">
        <ele>630</ele>
        <time>2023-08-15T12:10:30.050Z</time>
      </trkpt>
      <trkpt lat="43.80906" lon="2.98407">
        <ele>630</ele>
        <time>2023-08-15T12:10:34.351Z</time>
      </trkpt>
      <trkpt lat="43.80906" lon="2.98394">
        <ele>633</ele>
        <time>2023-08-15T12:10:39.291Z</time>
      </trkpt>
      <trkpt lat="43.80905" lon="2.98381">
        <ele>633</ele>
        <time>2023-08-15T12:10:43.670Z</time>
      </trkpt>
      <trkpt lat="43.80903" lon="2.98372">
        <ele>633</ele>
        <time>2023-08-15T12:10:48.151Z</time>
      </trkpt>
      <trkpt lat="43.80901" lon="2.98363">
        <ele>614</ele>
        <time>2023-08-15T12:10:53.150Z</time>
      </trkpt>
      <trkpt lat="43.80899" lon="2.98356">
        <ele>614</ele>
        <time>2023-08-15T12:10:57.510Z</time>
      </trkpt>
      <trkpt lat="43.80898" lon="2.98355">
        <ele>614</ele>
        <time>2023-08-15T12:11:01.971Z</time>
      </trkpt>
      <trkpt lat="43.80897" lon="2.98352">
        <ele>614</ele>
        <time>2023-08-15T12:11:06.429Z</time>
      </trkpt>
      <trkpt lat="43.80895" lon="2.98348">
        <ele>614</ele>
        <time>2023-08-15T12:11:10.351Z</time>
      </trkpt>
      <trkpt lat="43.80891" lon="2.98342">
        <ele>618</ele>
        <time>2023-08-15T12:11:15.291Z</time>
      </trkpt>
      <trkpt lat="43.80887" lon="2.98338">
        <ele>618</ele>
        <time>2023-08-15T12:11:19.710Z</time>
      </trkpt>
      <trkpt lat="43.80885" lon="2.98335">
        <ele>618</ele>
        <time>2023-08-15T12:11:24.151Z</time>
      </trkpt>
      <trkpt lat="43.8088" lon="2.98328">
        <ele>618</ele>
        <time>2023-08-15T12:11:29.031Z</time>
      </trkpt>
      <trkpt lat="43.80874" lon="2.98326">
        <ele>607</ele>
        <time>2023-08-15T12:11:33.470Z</time>
      </trkpt>
      <trkpt lat="43.80867" lon="2.98322">
        <ele>607</ele>
        <time>2023-08-15T12:11:37.850Z</time>
      </trkpt>
      <trkpt lat="43.8086" lon="2.98317">
        <ele>612</ele>
        <time>2023-08-15T12:11:42.750Z</time>
      </trkpt>
      <trkpt lat="43.80854" lon="2.98311">
        <ele>612</ele>
        <time>2023-08-15T12:11:47.171Z</time>
      </trkpt>
      <trkpt lat="43.8085" lon="2.98305">
        <ele>612</ele>
        <time>2023-08-15T12:11:52.210Z</time>
      </trkpt>
      <trkpt lat="43.80851" lon="2.98301">
        <ele>612</ele>
        <time>2023-08-15T12:11:56.550Z</time>
      </trkpt>
      <trkpt lat="43.80849" lon="2.98296">
        <ele>612</ele>
        <time>2023-08-15T12:12:00.990Z</time>
      </trkpt>
      <trkpt lat="43.80848" lon="2.98288">
        <ele>617</ele>
        <time>2023-08-15T12:12:06.011Z</time>
      </trkpt>
      <trkpt lat="43.80849" lon="2.98279">
        <ele>617</ele>
        <time>2023-08-15T12:12:10.395Z</time>
      </trkpt>
      <trkpt lat="43.80851" lon="2.9827">
        <ele>617</ele>
        <time>2023-08-15T12:12:15.331Z</time>
      </trkpt>
      <trkpt lat="43.80853" lon="2.98264">
        <ele>623</ele>
        <time>2023-08-15T12:12:19.210Z</time>
      </trkpt>
      <trkpt lat="43.80853" lon="2.98256">
        <ele>623</ele>
        <time>2023-08-15T12:12:23.011Z</time>
      </trkpt>
      <trkpt lat="43.80852" lon="2.98247">
        <ele>623</ele>
        <time>2023-08-15T12:12:28.011Z</time>
      </trkpt>
      <trkpt lat="43.80851" lon="2.98238">
        <ele>623</ele>
        <time>2023-08-15T12:12:32.971Z</time>
      </trkpt>
      <trkpt lat="43.8085" lon="2.98231">
        <ele>629</ele>
        <time>2023-08-15T12:12:37.291Z</time>
      </trkpt>
      <trkpt lat="43.80848" lon="2.98225">
        <ele>629</ele>
        <time>2023-08-15T12:12:41.690Z</time>
      </trkpt>
      <trkpt lat="43.80845" lon="2.9822">
        <ele>614</ele>
        <time>2023-08-15T12:12:46.051Z</time>
      </trkpt>
      <trkpt lat="43.80843" lon="2.98215">
        <ele>614</ele>
        <time>2023-08-15T12:12:50.424Z</time>
      </trkpt>
      <trkpt lat="43.80841" lon="2.9821">
        <ele>614</ele>
        <time>2023-08-15T12:12:55.351Z</time>
      </trkpt>
      <trkpt lat="43.80839" lon="2.98205">
        <ele>617</ele>
        <time>2023-08-15T12:12:59.190Z</time>
      </trkpt>
      <trkpt lat="43.80837" lon="2.982">
        <ele>617</ele>
        <time>2023-08-15T12:13:03.510Z</time>
      </trkpt>
      <trkpt lat="43.80835" lon="2.98194">
        <ele>617</ele>
        <time>2023-08-15T12:13:07.931Z</time>
      </trkpt>
      <trkpt lat="43.80834" lon="2.98189">
        <ele>617</ele>
        <time>2023-08-15T12:13:12.311Z</time>
      </trkpt>
      <trkpt lat="43.80831" lon="2.98183">
        <ele>617</ele>
        <time>2023-08-15T12:13:16.830Z</time>
      </trkpt>
      <trkpt lat="43.80829" lon="2.98177">
        <ele>622</ele>
        <time>2023-08-15T12:13:21.270Z</time>
      </trkpt>
      <trkpt lat="43.80827" lon="2.9817">
        <ele>622</ele>
        <time>2023-08-15T12:13:25.689Z</time>
      </trkpt>
      <trkpt lat="43.80826" lon="2.98164">
        <ele>622</ele>
        <time>2023-08-15T12:13:30.011Z</time>
      </trkpt>
      <trkpt lat="43.80824" lon="2.98159">
        <ele>622</ele>
        <time>2023-08-15T12:13:34.391Z</time>
      </trkpt>
      <trkpt lat="43.80819" lon="2.98155">
        <ele>610</ele>
        <time>2023-08-15T12:13:39.371Z</time>
      </trkpt>
      <trkpt lat="43.80813" lon="2.98151">
        <ele>616</ele>
        <time>2023-08-15T12:13:43.730Z</time>
      </trkpt>
      <trkpt lat="43.80807" lon="2.98147">
        <ele>616</ele>
        <time>2023-08-15T12:13:48.071Z</time>
      </trkpt>
      <trkpt lat="43.80801" lon="2.98143">
        <ele>616</ele>
        <time>2023-08-15T12:13:52.510Z</time>
      </trkpt>
      <trkpt lat="43.80796" lon="2.9814">
        <ele>616</ele>
        <time>2023-08-15T12:13:56.946Z</time>
      </trkpt>
      <trkpt lat="43.80794" lon="2.98143">
        <ele>616</ele>
        <time>2023-08-15T12:14:20.427Z</time>
      </trkpt>
      <trkpt lat="43.80792" lon="2.98142">
        <ele>616</ele>
        <time>2023-08-15T12:14:24.774Z</time>
      </trkpt>
      <trkpt lat="43.80789" lon="2.98138">
        <ele>607</ele>
        <time>2023-08-15T12:14:29.614Z</time>
      </trkpt>
      <trkpt lat="43.80784" lon="2.98134">
        <ele>607</ele>
        <time>2023-08-15T12:14:33.997Z</time>
      </trkpt>
      <trkpt lat="43.80781" lon="2.98128">
        <ele>607</ele>
        <time>2023-08-15T12:14:38.393Z</time>
      </trkpt>
      <trkpt lat="43.80778" lon="2.98121">
        <ele>612</ele>
        <time>2023-08-15T12:14:43.392Z</time>
      </trkpt>
      <trkpt lat="43.80775" lon="2.98115">
        <ele>612</ele>
        <time>2023-08-15T12:14:47.716Z</time>
      </trkpt>
      <trkpt lat="43.80772" lon="2.98109">
        <ele>612</ele>
        <time>2023-08-15T12:14:52.097Z</time>
      </trkpt>
      <trkpt lat="43.8077" lon="2.98102">
        <ele>612</ele>
        <time>2023-08-15T12:14:57.066Z</time>
      </trkpt>
      <trkpt lat="43.80769" lon="2.98096">
        <ele>616</ele>
        <time>2023-08-15T12:15:00.956Z</time>
      </trkpt>
      <trkpt lat="43.80768" lon="2.98091">
        <ele>616</ele>
        <time>2023-08-15T12:15:05.896Z</time>
      </trkpt>
      <trkpt lat="43.80766" lon="2.98084">
        <ele>616</ele>
        <time>2023-08-15T12:15:10.217Z</time>
      </trkpt>
      <trkpt lat="43.80764" lon="2.98075">
        <ele>602</ele>
        <time>2023-08-15T12:15:15.126Z</time>
      </trkpt>
      <trkpt lat="43.80763" lon="2.98066">
        <ele>606</ele>
        <time>2023-08-15T12:15:18.937Z</time>
      </trkpt>
      <trkpt lat="43.80763" lon="2.98056">
        <ele>606</ele>
        <time>2023-08-15T12:15:23.336Z</time>
      </trkpt>
      <trkpt lat="43.80763" lon="2.98047">
        <ele>606</ele>
        <time>2023-08-15T12:15:27.685Z</time>
      </trkpt>
      <trkpt lat="43.80763" lon="2.98039">
        <ele>608</ele>
        <time>2023-08-15T12:15:32.137Z</time>
      </trkpt>
      <trkpt lat="43.80761" lon="2.98031">
        <ele>608</ele>
        <time>2023-08-15T12:15:36.576Z</time>
      </trkpt>
      <trkpt lat="43.80761" lon="2.98024">
        <ele>608</ele>
        <time>2023-08-15T12:15:41.037Z</time>
      </trkpt>
      <trkpt lat="43.8076" lon="2.98016">
        <ele>608</ele>
        <time>2023-08-15T12:15:46.046Z</time>
      </trkpt>
      <trkpt lat="43.80762" lon="2.98008">
        <ele>611</ele>
        <time>2023-08-15T12:15:49.916Z</time>
      </trkpt>
      <trkpt lat="43.80763" lon="2.98001">
        <ele>611</ele>
        <time>2023-08-15T12:15:54.996Z</time>
      </trkpt>
      <trkpt lat="43.80766" lon="2.97994">
        <ele>621</ele>
        <time>2023-08-15T12:15:59.399Z</time>
      </trkpt>
      <trkpt lat="43.80769" lon="2.97989">
        <ele>621</ele>
        <time>2023-08-15T12:16:03.856Z</time>
      </trkpt>
      <trkpt lat="43.80768" lon="2.97988">
        <ele>621</ele>
        <time>2023-08-15T12:16:08.237Z</time>
      </trkpt>
      <trkpt lat="43.8077" lon="2.97987">
        <ele>621</ele>
        <time>2023-08-15T12:16:12.716Z</time>
      </trkpt>
      <trkpt lat="43.80773" lon="2.97988">
        <ele>621</ele>
        <time>2023-08-15T12:16:17.037Z</time>
      </trkpt>
      <trkpt lat="43.80777" lon="2.97991">
        <ele>621</ele>
        <time>2023-08-15T12:16:21.425Z</time>
      </trkpt>
      <trkpt lat="43.80781" lon="2.97995">
        <ele>621</ele>
        <time>2023-08-15T12:16:25.785Z</time>
      </trkpt>
      <trkpt lat="43.80785" lon="2.97998">
        <ele>621</ele>
        <time>2023-08-15T12:16:29.576Z</time>
      </trkpt>
      <trkpt lat="43.8079" lon="2.97999">
        <ele>621</ele>
        <time>2023-08-15T12:16:33.977Z</time>
      </trkpt>
      <trkpt lat="43.80794" lon="2.98">
        <ele>627</ele>
        <time>2023-08-15T12:16:38.976Z</time>
      </trkpt>
      <trkpt lat="43.80798" lon="2.98001">
        <ele>627</ele>
        <time>2023-08-15T12:16:43.337Z</time>
      </trkpt>
      <trkpt lat="43.80802" lon="2.98002">
        <ele>627</ele>
        <time>2023-08-15T12:16:47.756Z</time>
      </trkpt>
      <trkpt lat="43.80807" lon="2.98003">
        <ele>627</ele>
        <time>2023-08-15T12:16:52.106Z</time>
      </trkpt>
      <trkpt lat="43.80812" lon="2.98006">
        <ele>627</ele>
        <time>2023-08-15T12:16:55.977Z</time>
      </trkpt>
      <trkpt lat="43.80814" lon="2.98006">
        <ele>627</ele>
        <time>2023-08-15T12:17:00.357Z</time>
      </trkpt>
      <trkpt lat="43.80815" lon="2.98003">
        <ele>627</ele>
        <time>2023-08-15T12:17:04.785Z</time>
      </trkpt>
      <trkpt lat="43.80816" lon="2.98002">
        <ele>627</ele>
        <time>2023-08-15T12:17:08.736Z</time>
      </trkpt>
      <trkpt lat="43.8082" lon="2.98002">
        <ele>629</ele>
        <time>2023-08-15T12:17:13.137Z</time>
      </trkpt>
      <trkpt lat="43.80825" lon="2.98002">
        <ele>629</ele>
        <time>2023-08-15T12:17:17.476Z</time>
      </trkpt>
      <trkpt lat="43.80833" lon="2.98002">
        <ele>629</ele>
        <time>2023-08-15T12:17:22.426Z</time>
      </trkpt>
      <trkpt lat="43.8084" lon="2.98002">
        <ele>629</ele>
        <time>2023-08-15T12:17:26.397Z</time>
      </trkpt>
      <trkpt lat="43.80853" lon="2.98005">
        <ele>631</ele>
        <time>2023-08-15T12:17:30.816Z</time>
      </trkpt>
      <trkpt lat="43.80858" lon="2.98007">
        <ele>631</ele>
        <time>2023-08-15T12:17:35.236Z</time>
      </trkpt>
      <trkpt lat="43.80859" lon="2.98008">
        <ele>631</ele>
        <time>2023-08-15T12:17:43.997Z</time>
      </trkpt>
      <trkpt lat="43.80861" lon="2.98006">
        <ele>631</ele>
        <time>2023-08-15T12:17:47.917Z</time>
      </trkpt>
      <trkpt lat="43.80862" lon="2.98003">
        <ele>631</ele>
        <time>2023-08-15T12:17:52.256Z</time>
      </trkpt>
      <trkpt lat="43.80864" lon="2.98002">
        <ele>631</ele>
        <time>2023-08-15T12:17:56.196Z</time>
      </trkpt>
      <trkpt lat="43.80867" lon="2.98004">
        <ele>631</ele>
        <time>2023-08-15T12:18:00.636Z</time>
      </trkpt>
      <trkpt lat="43.80869" lon="2.98004">
        <ele>631</ele>
        <time>2023-08-15T12:18:05.116Z</time>
      </trkpt>
      <trkpt lat="43.80872" lon="2.98005">
        <ele>631</ele>
        <time>2023-08-15T12:18:09.424Z</time>
      </trkpt>
      <trkpt lat="43.80878" lon="2.98007">
        <ele>635</ele>
        <time>2023-08-15T12:18:13.916Z</time>
      </trkpt>
      <trkpt lat="43.80887" lon="2.98007">
        <ele>635</ele>
        <time>2023-08-15T12:18:18.326Z</time>
      </trkpt>
      <trkpt lat="43.80893" lon="2.98007">
        <ele>635</ele>
        <time>2023-08-15T12:18:22.796Z</time>
      </trkpt>
      <trkpt lat="43.80897" lon="2.98008">
        <ele>635</ele>
        <time>2023-08-15T12:18:27.117Z</time>
      </trkpt>
      <trkpt lat="43.80901" lon="2.98007">
        <ele>635</ele>
        <time>2023-08-15T12:18:31.056Z</time>
      </trkpt>
      <trkpt lat="43.80906" lon="2.98005">
        <ele>639</ele>
        <time>2023-08-15T12:18:36.017Z</time>
      </trkpt>
      <trkpt lat="43.8091" lon="2.98003">
        <ele>639</ele>
        <time>2023-08-15T12:18:40.496Z</time>
      </trkpt>
      <trkpt lat="43.80914" lon="2.98001">
        <ele>639</ele>
        <time>2023-08-15T12:18:44.876Z</time>
      </trkpt>
      <trkpt lat="43.80918" lon="2.97999">
        <ele>639</ele>
        <time>2023-08-15T12:18:49.237Z</time>
      </trkpt>
      <trkpt lat="43.80922" lon="2.97998">
        <ele>639</ele>
        <time>2023-08-15T12:18:54.116Z</time>
      </trkpt>
      <trkpt lat="43.80922" lon="2.97998">
        <ele>639</ele>
        <time>2023-08-15T12:18:58.536Z</time>
      </trkpt>
      <trkpt lat="43.80923" lon="2.97996">
        <ele>639</ele>
        <time>2023-08-15T12:19:02.917Z</time>
      </trkpt>
      <trkpt lat="43.80925" lon="2.97993">
        <ele>639</ele>
        <time>2023-08-15T12:19:07.378Z</time>
      </trkpt>
      <trkpt lat="43.8093" lon="2.97988">
        <ele>639</ele>
        <time>2023-08-15T12:19:11.716Z</time>
      </trkpt>
      <trkpt lat="43.80936" lon="2.97984">
        <ele>639</ele>
        <time>2023-08-15T12:19:15.936Z</time>
      </trkpt>
      <trkpt lat="43.80939" lon="2.9798">
        <ele>639</ele>
        <time>2023-08-15T12:19:20.937Z</time>
      </trkpt>
      <trkpt lat="43.80941" lon="2.97977">
        <ele>639</ele>
        <time>2023-08-15T12:19:25.378Z</time>
      </trkpt>
      <trkpt lat="43.80944" lon="2.97972">
        <ele>639</ele>
        <time>2023-08-15T12:19:29.596Z</time>
      </trkpt>
      <trkpt lat="43.80951" lon="2.97974">
        <ele>639</ele>
        <time>2023-08-15T12:19:38.456Z</time>
      </trkpt>
      <trkpt lat="43.80951" lon="2.97976">
        <ele>639</ele>
        <time>2023-08-15T12:19:42.937Z</time>
      </trkpt>
      <trkpt lat="43.80952" lon="2.97976">
        <ele>639</ele>
        <time>2023-08-15T12:19:47.337Z</time>
      </trkpt>
      <trkpt lat="43.80954" lon="2.97972">
        <ele>639</ele>
        <time>2023-08-15T12:19:51.236Z</time>
      </trkpt>
      <trkpt lat="43.80958" lon="2.97968">
        <ele>639</ele>
        <time>2023-08-15T12:19:55.685Z</time>
      </trkpt>
      <trkpt lat="43.80965" lon="2.97961">
        <ele>650</ele>
        <time>2023-08-15T12:20:00.057Z</time>
      </trkpt>
      <trkpt lat="43.8098" lon="2.97948">
        <ele>645</ele>
        <time>2023-08-15T12:20:03.937Z</time>
      </trkpt>
      <trkpt lat="43.80985" lon="2.97944">
        <ele>645</ele>
        <time>2023-08-15T12:20:08.356Z</time>
      </trkpt>
      <trkpt lat="43.80988" lon="2.97943">
        <ele>660</ele>
        <time>2023-08-15T12:20:13.247Z</time>
      </trkpt>
      <trkpt lat="43.80991" lon="2.9794">
        <ele>660</ele>
        <time>2023-08-15T12:20:17.056Z</time>
      </trkpt>
      <trkpt lat="43.80991" lon="2.97928">
        <ele>659</ele>
        <time>2023-08-15T12:20:21.496Z</time>
      </trkpt>
      <trkpt lat="43.80993" lon="2.97912">
        <ele>659</ele>
        <time>2023-08-15T12:20:25.876Z</time>
      </trkpt>
      <trkpt lat="43.80995" lon="2.97905">
        <ele>659</ele>
        <time>2023-08-15T12:20:30.297Z</time>
      </trkpt>
      <trkpt lat="43.80997" lon="2.97898">
        <ele>655</ele>
        <time>2023-08-15T12:20:34.656Z</time>
      </trkpt>
      <trkpt lat="43.80995" lon="2.97891">
        <ele>655</ele>
        <time>2023-08-15T12:20:39.036Z</time>
      </trkpt>
      <trkpt lat="43.80995" lon="2.97885">
        <ele>655</ele>
        <time>2023-08-15T12:20:43.451Z</time>
      </trkpt>
      <trkpt lat="43.80995" lon="2.97879">
        <ele>655</ele>
        <time>2023-08-15T12:20:47.856Z</time>
      </trkpt>
      <trkpt lat="43.80994" lon="2.97876">
        <ele>655</ele>
        <time>2023-08-15T12:20:52.337Z</time>
      </trkpt>
      <trkpt lat="43.80994" lon="2.97876">
        <ele>655</ele>
        <time>2023-08-15T12:20:56.776Z</time>
      </trkpt>
      <trkpt lat="43.80994" lon="2.97873">
        <ele>654</ele>
        <time>2023-08-15T12:21:01.217Z</time>
      </trkpt>
      <trkpt lat="43.80993" lon="2.97861">
        <ele>654</ele>
        <time>2023-08-15T12:21:05.596Z</time>
      </trkpt>
      <trkpt lat="43.80993" lon="2.97853">
        <ele>654</ele>
        <time>2023-08-15T12:21:10.016Z</time>
      </trkpt>
      <trkpt lat="43.80995" lon="2.97844">
        <ele>654</ele>
        <time>2023-08-15T12:21:14.897Z</time>
      </trkpt>
      <trkpt lat="43.80996" lon="2.97837">
        <ele>654</ele>
        <time>2023-08-15T12:21:19.825Z</time>
      </trkpt>
      <trkpt lat="43.80996" lon="2.97831">
        <ele>654</ele>
        <time>2023-08-15T12:21:24.136Z</time>
      </trkpt>
      <trkpt lat="43.80996" lon="2.97824">
        <ele>654</ele>
        <time>2023-08-15T12:21:27.917Z</time>
      </trkpt>
      <trkpt lat="43.80993" lon="2.97816">
        <ele>656</ele>
        <time>2023-08-15T12:21:32.917Z</time>
      </trkpt>
      <trkpt lat="43.80992" lon="2.9781">
        <ele>656</ele>
        <time>2023-08-15T12:21:37.317Z</time>
      </trkpt>
      <trkpt lat="43.80992" lon="2.97803">
        <ele>656</ele>
        <time>2023-08-15T12:21:41.716Z</time>
      </trkpt>
      <trkpt lat="43.80993" lon="2.97796">
        <ele>656</ele>
        <time>2023-08-15T12:21:46.157Z</time>
      </trkpt>
      <trkpt lat="43.80995" lon="2.9779">
        <ele>654</ele>
        <time>2023-08-15T12:21:49.977Z</time>
      </trkpt>
      <trkpt lat="43.80998" lon="2.97784">
        <ele>654</ele>
        <time>2023-08-15T12:21:54.876Z</time>
      </trkpt>
      <trkpt lat="43.81001" lon="2.97778">
        <ele>654</ele>
        <time>2023-08-15T12:21:59.217Z</time>
      </trkpt>
      <trkpt lat="43.81003" lon="2.97772">
        <ele>654</ele>
        <time>2023-08-15T12:22:03.636Z</time>
      </trkpt>
      <trkpt lat="43.81003" lon="2.9777">
        <ele>654</ele>
        <time>2023-08-15T12:22:07.916Z</time>
      </trkpt>
      <trkpt lat="43.81003" lon="2.97767">
        <ele>654</ele>
        <time>2023-08-15T12:22:12.837Z</time>
      </trkpt>
      <trkpt lat="43.81003" lon="2.97762">
        <ele>657</ele>
        <time>2023-08-15T12:22:17.257Z</time>
      </trkpt>
      <trkpt lat="43.81003" lon="2.97753">
        <ele>657</ele>
        <time>2023-08-15T12:22:21.576Z</time>
      </trkpt>
      <trkpt lat="43.81004" lon="2.97743">
        <ele>657</ele>
        <time>2023-08-15T12:22:26.496Z</time>
      </trkpt>
      <trkpt lat="43.81003" lon="2.97736">
        <ele>661</ele>
        <time>2023-08-15T12:22:30.917Z</time>
      </trkpt>
      <trkpt lat="43.81003" lon="2.97729">
        <ele>661</ele>
        <time>2023-08-15T12:22:35.357Z</time>
      </trkpt>
      <trkpt lat="43.81001" lon="2.97722">
        <ele>661</ele>
        <time>2023-08-15T12:22:39.716Z</time>
      </trkpt>
      <trkpt lat="43.81" lon="2.97717">
        <ele>661</ele>
        <time>2023-08-15T12:22:44.117Z</time>
      </trkpt>
      <trkpt lat="43.80997" lon="2.97712">
        <ele>661</ele>
        <time>2023-08-15T12:22:47.937Z</time>
      </trkpt>
      <trkpt lat="43.80996" lon="2.97707">
        <ele>663</ele>
        <time>2023-08-15T12:22:52.917Z</time>
      </trkpt>
      <trkpt lat="43.80995" lon="2.97703">
        <ele>663</ele>
        <time>2023-08-15T12:22:56.716Z</time>
      </trkpt>
      <trkpt lat="43.80994" lon="2.97699">
        <ele>663</ele>
        <time>2023-08-15T12:23:01.576Z</time>
      </trkpt>
      <trkpt lat="43.80991" lon="2.97694">
        <ele>663</ele>
        <time>2023-08-15T12:23:05.937Z</time>
      </trkpt>
      <trkpt lat="43.80988" lon="2.97688">
        <ele>663</ele>
        <time>2023-08-15T12:23:10.357Z</time>
      </trkpt>
      <trkpt lat="43.80986" lon="2.97683">
        <ele>663</ele>
        <time>2023-08-15T12:23:14.776Z</time>
      </trkpt>
      <trkpt lat="43.80986" lon="2.97676">
        <ele>652</ele>
        <time>2023-08-15T12:23:19.157Z</time>
      </trkpt>
      <trkpt lat="43.80985" lon="2.9767">
        <ele>652</ele>
        <time>2023-08-15T12:23:23.103Z</time>
      </trkpt>
      <trkpt lat="43.80984" lon="2.97664">
        <ele>652</ele>
        <time>2023-08-15T12:23:28.063Z</time>
      </trkpt>
      <trkpt lat="43.80981" lon="2.97661">
        <ele>652</ele>
        <time>2023-08-15T12:23:31.903Z</time>
      </trkpt>
      <trkpt lat="43.80974" lon="2.97659">
        <ele>652</ele>
        <time>2023-08-15T12:23:45.065Z</time>
      </trkpt>
      <trkpt lat="43.80974" lon="2.97658">
        <ele>652</ele>
        <time>2023-08-15T12:23:49.525Z</time>
      </trkpt>
      <trkpt lat="43.80974" lon="2.97654">
        <ele>652</ele>
        <time>2023-08-15T12:23:53.925Z</time>
      </trkpt>
      <trkpt lat="43.80974" lon="2.9765">
        <ele>655</ele>
        <time>2023-08-15T12:23:58.345Z</time>
      </trkpt>
      <trkpt lat="43.80974" lon="2.97645">
        <ele>655</ele>
        <time>2023-08-15T12:24:02.125Z</time>
      </trkpt>
      <trkpt lat="43.80972" lon="2.97633">
        <ele>655</ele>
        <time>2023-08-15T12:25:18.410Z</time>
      </trkpt>
      <trkpt lat="43.80971" lon="2.97633">
        <ele>655</ele>
        <time>2023-08-15T12:25:23.408Z</time>
      </trkpt>
      <trkpt lat="43.8097" lon="2.97631">
        <ele>655</ele>
        <time>2023-08-15T12:25:27.525Z</time>
      </trkpt>
      <trkpt lat="43.80971" lon="2.97626">
        <ele>655</ele>
        <time>2023-08-15T12:25:31.965Z</time>
      </trkpt>
      <trkpt lat="43.80971" lon="2.97622">
        <ele>662</ele>
        <time>2023-08-15T12:25:36.345Z</time>
      </trkpt>
      <trkpt lat="43.80973" lon="2.97612">
        <ele>662</ele>
        <time>2023-08-15T12:26:16.245Z</time>
      </trkpt>
      <trkpt lat="43.80972" lon="2.97611">
        <ele>662</ele>
        <time>2023-08-15T12:26:21.125Z</time>
      </trkpt>
      <trkpt lat="43.80972" lon="2.97609">
        <ele>662</ele>
        <time>2023-08-15T12:26:25.965Z</time>
      </trkpt>
      <trkpt lat="43.80972" lon="2.97606">
        <ele>662</ele>
        <time>2023-08-15T12:26:30.397Z</time>
      </trkpt>
      <trkpt lat="43.80971" lon="2.97602">
        <ele>662</ele>
        <time>2023-08-15T12:26:34.365Z</time>
      </trkpt>
      <trkpt lat="43.8097" lon="2.97597">
        <ele>670</ele>
        <time>2023-08-15T12:27:04.411Z</time>
      </trkpt>
      <trkpt lat="43.80969" lon="2.97595">
        <ele>670</ele>
        <time>2023-08-15T12:27:14.045Z</time>
      </trkpt>
      <trkpt lat="43.80968" lon="2.9759">
        <ele>670</ele>
        <time>2023-08-15T12:27:18.411Z</time>
      </trkpt>
      <trkpt lat="43.80966" lon="2.97582">
        <ele>670</ele>
        <time>2023-08-15T12:27:22.945Z</time>
      </trkpt>
      <trkpt lat="43.80964" lon="2.97576">
        <ele>670</ele>
        <time>2023-08-15T12:27:27.285Z</time>
      </trkpt>
      <trkpt lat="43.8096" lon="2.97569">
        <ele>679</ele>
        <time>2023-08-15T12:28:04.411Z</time>
      </trkpt>
      <trkpt lat="43.8096" lon="2.97567">
        <ele>679</ele>
        <time>2023-08-15T12:28:09.438Z</time>
      </trkpt>
      <trkpt lat="43.80959" lon="2.97566">
        <ele>679</ele>
        <time>2023-08-15T12:28:13.906Z</time>
      </trkpt>
      <trkpt lat="43.80958" lon="2.97563">
        <ele>662</ele>
        <time>2023-08-15T12:28:18.345Z</time>
      </trkpt>
      <trkpt lat="43.80954" lon="2.97556">
        <ele>662</ele>
        <time>2023-08-15T12:28:23.374Z</time>
      </trkpt>
      <trkpt lat="43.80948" lon="2.97553">
        <ele>662</ele>
        <time>2023-08-15T12:28:55.411Z</time>
      </trkpt>
      <trkpt lat="43.80947" lon="2.97552">
        <ele>662</ele>
        <time>2023-08-15T12:29:00.306Z</time>
      </trkpt>
      <trkpt lat="43.80946" lon="2.9755">
        <ele>662</ele>
        <time>2023-08-15T12:29:04.754Z</time>
      </trkpt>
      <trkpt lat="43.80945" lon="2.97546">
        <ele>662</ele>
        <time>2023-08-15T12:29:09.085Z</time>
      </trkpt>
      <trkpt lat="43.80944" lon="2.97542">
        <ele>662</ele>
        <time>2023-08-15T12:29:13.525Z</time>
      </trkpt>
      <trkpt lat="43.80944" lon="2.97538">
        <ele>668</ele>
        <time>2023-08-15T12:29:37.408Z</time>
      </trkpt>
      <trkpt lat="43.80943" lon="2.97535">
        <ele>668</ele>
        <time>2023-08-15T12:29:41.585Z</time>
      </trkpt>
      <trkpt lat="43.80943" lon="2.97528">
        <ele>668</ele>
        <time>2023-08-15T12:29:46.006Z</time>
      </trkpt>
      <trkpt lat="43.80942" lon="2.97522">
        <ele>668</ele>
        <time>2023-08-15T12:29:49.945Z</time>
      </trkpt>
      <trkpt lat="43.80941" lon="2.97515">
        <ele>668</ele>
        <time>2023-08-15T12:29:54.385Z</time>
      </trkpt>
      <trkpt lat="43.8094" lon="2.97508">
        <ele>672</ele>
        <time>2023-08-15T12:29:58.705Z</time>
      </trkpt>
      <trkpt lat="43.80939" lon="2.97501">
        <ele>672</ele>
        <time>2023-08-15T12:30:03.206Z</time>
      </trkpt>
      <trkpt lat="43.80937" lon="2.97496">
        <ele>672</ele>
        <time>2023-08-15T12:30:08.195Z</time>
      </trkpt>
      <trkpt lat="43.80936" lon="2.97491">
        <ele>672</ele>
        <time>2023-08-15T12:30:12.585Z</time>
      </trkpt>
      <trkpt lat="43.80934" lon="2.97486">
        <ele>672</ele>
        <time>2023-08-15T12:30:17.025Z</time>
      </trkpt>
      <trkpt lat="43.80932" lon="2.97482">
        <ele>672</ele>
        <time>2023-08-15T12:30:21.413Z</time>
      </trkpt>
      <trkpt lat="43.8093" lon="2.97477">
        <ele>667</ele>
        <time>2023-08-15T12:30:25.885Z</time>
      </trkpt>
      <trkpt lat="43.80927" lon="2.97473">
        <ele>667</ele>
        <time>2023-08-15T12:30:30.215Z</time>
      </trkpt>
      <trkpt lat="43.80923" lon="2.9747">
        <ele>667</ele>
        <time>2023-08-15T12:30:34.123Z</time>
      </trkpt>
      <trkpt lat="43.8092" lon="2.97468">
        <ele>667</ele>
        <time>2023-08-15T12:30:37.503Z</time>
      </trkpt>
      <trkpt lat="43.80916" lon="2.97463">
        <ele>667</ele>
        <time>2023-08-15T12:30:42.010Z</time>
      </trkpt>
      <trkpt lat="43.80914" lon="2.97461">
        <ele>667</ele>
        <time>2023-08-15T12:30:47.070Z</time>
      </trkpt>
      <trkpt lat="43.80914" lon="2.97461">
        <ele>667</ele>
        <time>2023-08-15T12:30:56.391Z</time>
      </trkpt>
      <trkpt lat="43.80914" lon="2.9746">
        <ele>667</ele>
        <time>2023-08-15T12:31:00.370Z</time>
      </trkpt>
      <trkpt lat="43.80914" lon="2.9746">
        <ele>667</ele>
        <time>2023-08-15T12:31:04.890Z</time>
      </trkpt>
      <trkpt lat="43.80912" lon="2.97456">
        <ele>666</ele>
        <time>2023-08-15T12:31:09.390Z</time>
      </trkpt>
      <trkpt lat="43.80908" lon="2.97449">
        <ele>666</ele>
        <time>2023-08-15T12:31:13.890Z</time>
      </trkpt>
      <trkpt lat="43.80906" lon="2.97441">
        <ele>666</ele>
        <time>2023-08-15T12:31:18.170Z</time>
      </trkpt>
      <trkpt lat="43.80905" lon="2.97439">
        <ele>666</ele>
        <time>2023-08-15T12:31:23.250Z</time>
      </trkpt>
      <trkpt lat="43.80905" lon="2.97438">
        <ele>666</ele>
        <time>2023-08-15T12:31:28.330Z</time>
      </trkpt>
      <trkpt lat="43.80904" lon="2.97435">
        <ele>666</ele>
        <time>2023-08-15T12:31:32.830Z</time>
      </trkpt>
      <trkpt lat="43.80904" lon="2.97429">
        <ele>666</ele>
        <time>2023-08-15T12:31:36.650Z</time>
      </trkpt>
      <trkpt lat="43.80906" lon="2.97424">
        <ele>666</ele>
        <time>2023-08-15T12:31:41.112Z</time>
      </trkpt>
      <trkpt lat="43.80908" lon="2.97419">
        <ele>666</ele>
        <time>2023-08-15T12:31:45.424Z</time>
      </trkpt>
      <trkpt lat="43.80912" lon="2.97415">
        <ele>666</ele>
        <time>2023-08-15T12:31:49.913Z</time>
      </trkpt>
      <trkpt lat="43.80918" lon="2.97413">
        <ele>666</ele>
        <time>2023-08-15T12:31:54.332Z</time>
      </trkpt>
      <trkpt lat="43.80925" lon="2.97412">
        <ele>666</ele>
        <time>2023-08-15T12:31:58.752Z</time>
      </trkpt>
      <trkpt lat="43.80932" lon="2.97414">
        <ele>665</ele>
        <time>2023-08-15T12:32:02.712Z</time>
      </trkpt>
      <trkpt lat="43.80938" lon="2.97418">
        <ele>665</ele>
        <time>2023-08-15T12:32:07.173Z</time>
      </trkpt>
      <trkpt lat="43.80942" lon="2.97422">
        <ele>665</ele>
        <time>2023-08-15T12:32:11.013Z</time>
      </trkpt>
      <trkpt lat="43.80946" lon="2.97426">
        <ele>665</ele>
        <time>2023-08-15T12:32:15.480Z</time>
      </trkpt>
      <trkpt lat="43.80951" lon="2.97428">
        <ele>665</ele>
        <time>2023-08-15T12:32:19.932Z</time>
      </trkpt>
      <trkpt lat="43.80956" lon="2.97428">
        <ele>665</ele>
        <time>2023-08-15T12:32:24.333Z</time>
      </trkpt>
      <trkpt lat="43.80961" lon="2.97425">
        <ele>669</ele>
        <time>2023-08-15T12:32:28.752Z</time>
      </trkpt>
      <trkpt lat="43.80959" lon="2.97418">
        <ele>669</ele>
        <time>2023-08-15T12:32:33.172Z</time>
      </trkpt>
      <trkpt lat="43.80961" lon="2.97417">
        <ele>669</ele>
        <time>2023-08-15T12:32:38.133Z</time>
      </trkpt>
      <trkpt lat="43.80967" lon="2.97416">
        <ele>669</ele>
        <time>2023-08-15T12:32:42.492Z</time>
      </trkpt>
      <trkpt lat="43.80973" lon="2.97414">
        <ele>669</ele>
        <time>2023-08-15T12:32:47.374Z</time>
      </trkpt>
      <trkpt lat="43.8098" lon="2.97412">
        <ele>669</ele>
        <time>2023-08-15T12:32:51.752Z</time>
      </trkpt>
      <trkpt lat="43.80987" lon="2.97414">
        <ele>675</ele>
        <time>2023-08-15T12:32:56.233Z</time>
      </trkpt>
      <trkpt lat="43.80994" lon="2.97417">
        <ele>675</ele>
        <time>2023-08-15T12:33:01.193Z</time>
      </trkpt>
      <trkpt lat="43.81003" lon="2.97421">
        <ele>675</ele>
        <time>2023-08-15T12:33:05.632Z</time>
      </trkpt>
      <trkpt lat="43.81023" lon="2.97419">
        <ele>676</ele>
        <time>2023-08-15T12:33:23.692Z</time>
      </trkpt>
      <trkpt lat="43.81027" lon="2.9742">
        <ele>676</ele>
        <time>2023-08-15T12:33:28.532Z</time>
      </trkpt>
      <trkpt lat="43.81033" lon="2.97419">
        <ele>676</ele>
        <time>2023-08-15T12:33:32.913Z</time>
      </trkpt>
      <trkpt lat="43.81039" lon="2.97418">
        <ele>676</ele>
        <time>2023-08-15T12:33:37.312Z</time>
      </trkpt>
      <trkpt lat="43.8104" lon="2.97418">
        <ele>676</ele>
        <time>2023-08-15T12:33:41.632Z</time>
      </trkpt>
      <trkpt lat="43.8104" lon="2.97419">
        <ele>676</ele>
        <time>2023-08-15T12:33:45.532Z</time>
      </trkpt>
      <trkpt lat="43.81044" lon="2.97418">
        <ele>678</ele>
        <time>2023-08-15T12:33:49.933Z</time>
      </trkpt>
      <trkpt lat="43.81051" lon="2.97418">
        <ele>678</ele>
        <time>2023-08-15T12:33:54.913Z</time>
      </trkpt>
      <trkpt lat="43.81059" lon="2.97417">
        <ele>678</ele>
        <time>2023-08-15T12:33:59.313Z</time>
      </trkpt>
      <trkpt lat="43.81069" lon="2.97417">
        <ele>678</ele>
        <time>2023-08-15T12:34:03.732Z</time>
      </trkpt>
      <trkpt lat="43.81075" lon="2.97414">
        <ele>684</ele>
        <time>2023-08-15T12:34:08.093Z</time>
      </trkpt>
      <trkpt lat="43.81079" lon="2.97406">
        <ele>684</ele>
        <time>2023-08-15T12:34:13.133Z</time>
      </trkpt>
      <trkpt lat="43.8108" lon="2.97398">
        <ele>669</ele>
        <time>2023-08-15T12:34:17.492Z</time>
      </trkpt>
      <trkpt lat="43.81087" lon="2.97375">
        <ele>669</ele>
        <time>2023-08-15T12:34:34.932Z</time>
      </trkpt>
      <trkpt lat="43.8109" lon="2.97371">
        <ele>659</ele>
        <time>2023-08-15T12:34:39.832Z</time>
      </trkpt>
      <trkpt lat="43.81094" lon="2.97363">
        <ele>659</ele>
        <time>2023-08-15T12:34:44.233Z</time>
      </trkpt>
      <trkpt lat="43.81099" lon="2.97354">
        <ele>673</ele>
        <time>2023-08-15T12:34:49.233Z</time>
      </trkpt>
      <trkpt lat="43.81104" lon="2.97345">
        <ele>663</ele>
        <time>2023-08-15T12:34:53.592Z</time>
      </trkpt>
      <trkpt lat="43.81108" lon="2.97336">
        <ele>663</ele>
        <time>2023-08-15T12:34:58.013Z</time>
      </trkpt>
      <trkpt lat="43.81111" lon="2.97328">
        <ele>663</ele>
        <time>2023-08-15T12:35:02.424Z</time>
      </trkpt>
      <trkpt lat="43.81115" lon="2.97322">
        <ele>663</ele>
        <time>2023-08-15T12:35:06.891Z</time>
      </trkpt>
      <trkpt lat="43.81119" lon="2.97319">
        <ele>657</ele>
        <time>2023-08-15T12:35:10.572Z</time>
      </trkpt>
      <trkpt lat="43.81123" lon="2.97321">
        <ele>663</ele>
        <time>2023-08-15T12:35:14.953Z</time>
      </trkpt>
      <trkpt lat="43.81127" lon="2.97316">
        <ele>664</ele>
        <time>2023-08-15T12:35:19.893Z</time>
      </trkpt>
      <trkpt lat="43.81131" lon="2.9731">
        <ele>664</ele>
        <time>2023-08-15T12:35:24.411Z</time>
      </trkpt>
      <trkpt lat="43.81134" lon="2.97304">
        <ele>664</ele>
        <time>2023-08-15T12:35:29.353Z</time>
      </trkpt>
      <trkpt lat="43.81137" lon="2.97298">
        <ele>664</ele>
        <time>2023-08-15T12:35:33.812Z</time>
      </trkpt>
      <trkpt lat="43.81139" lon="2.97293">
        <ele>664</ele>
        <time>2023-08-15T12:35:38.232Z</time>
      </trkpt>
      <trkpt lat="43.81142" lon="2.97288">
        <ele>656</ele>
        <time>2023-08-15T12:35:42.712Z</time>
      </trkpt>
      <trkpt lat="43.81146" lon="2.97284">
        <ele>656</ele>
        <time>2023-08-15T12:35:47.172Z</time>
      </trkpt>
      <trkpt lat="43.81144" lon="2.9729">
        <ele>656</ele>
        <time>2023-08-15T12:35:51.592Z</time>
      </trkpt>
      <trkpt lat="43.81144" lon="2.97293">
        <ele>664</ele>
        <time>2023-08-15T12:35:56.032Z</time>
      </trkpt>
      <trkpt lat="43.81148" lon="2.97291">
        <ele>656</ele>
        <time>2023-08-15T12:36:00.913Z</time>
      </trkpt>
      <trkpt lat="43.81155" lon="2.97288">
        <ele>665</ele>
        <time>2023-08-15T12:36:05.372Z</time>
      </trkpt>
      <trkpt lat="43.81163" lon="2.97285">
        <ele>665</ele>
        <time>2023-08-15T12:36:09.832Z</time>
      </trkpt>
      <trkpt lat="43.81168" lon="2.97282">
        <ele>665</ele>
        <time>2023-08-15T12:36:14.213Z</time>
      </trkpt>
      <trkpt lat="43.81174" lon="2.97277">
        <ele>665</ele>
        <time>2023-08-15T12:36:18.571Z</time>
      </trkpt>
      <trkpt lat="43.8118" lon="2.97272">
        <ele>665</ele>
        <time>2023-08-15T12:36:22.472Z</time>
      </trkpt>
      <trkpt lat="43.81186" lon="2.97267">
        <ele>676</ele>
        <time>2023-08-15T12:36:26.913Z</time>
      </trkpt>
      <trkpt lat="43.81192" lon="2.97262">
        <ele>664</ele>
        <time>2023-08-15T12:36:31.293Z</time>
      </trkpt>
      <trkpt lat="43.81199" lon="2.97256">
        <ele>664</ele>
        <time>2023-08-15T12:36:36.272Z</time>
      </trkpt>
      <trkpt lat="43.81204" lon="2.9725">
        <ele>664</ele>
        <time>2023-08-15T12:36:40.112Z</time>
      </trkpt>
      <trkpt lat="43.81202" lon="2.97245">
        <ele>664</ele>
        <time>2023-08-15T12:36:53.072Z</time>
      </trkpt>
      <trkpt lat="43.81205" lon="2.97242">
        <ele>664</ele>
        <time>2023-08-15T12:36:56.913Z</time>
      </trkpt>
      <trkpt lat="43.8121" lon="2.97235">
        <ele>662</ele>
        <time>2023-08-15T12:37:01.832Z</time>
      </trkpt>
      <trkpt lat="43.81216" lon="2.97229">
        <ele>662</ele>
        <time>2023-08-15T12:37:06.252Z</time>
      </trkpt>
      <trkpt lat="43.81222" lon="2.97226">
        <ele>662</ele>
        <time>2023-08-15T12:37:10.672Z</time>
      </trkpt>
      <trkpt lat="43.81226" lon="2.97223">
        <ele>662</ele>
        <time>2023-08-15T12:37:15.133Z</time>
      </trkpt>
      <trkpt lat="43.81228" lon="2.97222">
        <ele>662</ele>
        <time>2023-08-15T12:37:19.492Z</time>
      </trkpt>
      <trkpt lat="43.8123" lon="2.97217">
        <ele>662</ele>
        <time>2023-08-15T12:37:23.852Z</time>
      </trkpt>
      <trkpt lat="43.81232" lon="2.97211">
        <ele>662</ele>
        <time>2023-08-15T12:37:27.632Z</time>
      </trkpt>
      <trkpt lat="43.81232" lon="2.97208">
        <ele>654</ele>
        <time>2023-08-15T12:37:31.933Z</time>
      </trkpt>
      <trkpt lat="43.81232" lon="2.97208">
        <ele>654</ele>
        <time>2023-08-15T12:37:36.312Z</time>
      </trkpt>
      <trkpt lat="43.81233" lon="2.97205">
        <ele>654</ele>
        <time>2023-08-15T12:37:40.712Z</time>
      </trkpt>
      <trkpt lat="43.81235" lon="2.97198">
        <ele>654</ele>
        <time>2023-08-15T12:37:45.173Z</time>
      </trkpt>
      <trkpt lat="43.81239" lon="2.97188">
        <ele>671</ele>
        <time>2023-08-15T12:37:49.592Z</time>
      </trkpt>
      <trkpt lat="43.81249" lon="2.9718">
        <ele>666</ele>
        <time>2023-08-15T12:37:53.932Z</time>
      </trkpt>
      <trkpt lat="43.81254" lon="2.97173">
        <ele>666</ele>
        <time>2023-08-15T12:37:58.931Z</time>
      </trkpt>
      <trkpt lat="43.81256" lon="2.97166">
        <ele>666</ele>
        <time>2023-08-15T12:38:03.373Z</time>
      </trkpt>
      <trkpt lat="43.81257" lon="2.97156">
        <ele>666</ele>
        <time>2023-08-15T12:38:07.772Z</time>
      </trkpt>
      <trkpt lat="43.8125" lon="2.97145">
        <ele>663</ele>
        <time>2023-08-15T12:38:12.153Z</time>
      </trkpt>
      <trkpt lat="43.81245" lon="2.97137">
        <ele>663</ele>
        <time>2023-08-15T12:38:16.572Z</time>
      </trkpt>
      <trkpt lat="43.81242" lon="2.9713">
        <ele>663</ele>
        <time>2023-08-15T12:38:20.952Z</time>
      </trkpt>
      <trkpt lat="43.81241" lon="2.97122">
        <ele>658</ele>
        <time>2023-08-15T12:38:25.372Z</time>
      </trkpt>
      <trkpt lat="43.81244" lon="2.97117">
        <ele>658</ele>
        <time>2023-08-15T12:38:30.332Z</time>
      </trkpt>
      <trkpt lat="43.81245" lon="2.97118">
        <ele>658</ele>
        <time>2023-08-15T12:38:34.213Z</time>
      </trkpt>
      <trkpt lat="43.81244" lon="2.97111">
        <ele>658</ele>
        <time>2023-08-15T12:38:38.592Z</time>
      </trkpt>
      <trkpt lat="43.81244" lon="2.971">
        <ele>658</ele>
        <time>2023-08-15T12:38:42.892Z</time>
      </trkpt>
      <trkpt lat="43.81246" lon="2.97088">
        <ele>653</ele>
        <time>2023-08-15T12:38:47.252Z</time>
      </trkpt>
      <trkpt lat="43.81247" lon="2.9708">
        <ele>653</ele>
        <time>2023-08-15T12:38:51.173Z</time>
      </trkpt>
      <trkpt lat="43.81247" lon="2.97075">
        <ele>653</ele>
        <time>2023-08-15T12:38:55.631Z</time>
      </trkpt>
      <trkpt lat="43.81248" lon="2.97073">
        <ele>653</ele>
        <time>2023-08-15T12:38:59.424Z</time>
      </trkpt>
      <trkpt lat="43.81247" lon="2.97066">
        <ele>652</ele>
        <time>2023-08-15T12:39:03.913Z</time>
      </trkpt>
      <trkpt lat="43.81245" lon="2.97057">
        <ele>652</ele>
        <time>2023-08-15T12:39:08.394Z</time>
      </trkpt>
      <trkpt lat="43.81241" lon="2.9705">
        <ele>652</ele>
        <time>2023-08-15T12:39:12.812Z</time>
      </trkpt>
      <trkpt lat="43.81238" lon="2.97043">
        <ele>652</ele>
        <time>2023-08-15T12:39:17.253Z</time>
      </trkpt>
      <trkpt lat="43.81234" lon="2.97035">
        <ele>636</ele>
        <time>2023-08-15T12:39:22.252Z</time>
      </trkpt>
      <trkpt lat="43.81231" lon="2.97031">
        <ele>636</ele>
        <time>2023-08-15T12:39:26.113Z</time>
      </trkpt>
      <trkpt lat="43.81231" lon="2.9703">
        <ele>636</ele>
        <time>2023-08-15T12:39:31.053Z</time>
      </trkpt>
      <trkpt lat="43.81229" lon="2.97028">
        <ele>636</ele>
        <time>2023-08-15T12:39:35.413Z</time>
      </trkpt>
      <trkpt lat="43.81228" lon="2.97022">
        <ele>636</ele>
        <time>2023-08-15T12:39:39.812Z</time>
      </trkpt>
      <trkpt lat="43.81227" lon="2.9702">
        <ele>636</ele>
        <time>2023-08-15T12:39:44.192Z</time>
      </trkpt>
      <trkpt lat="43.81224" lon="2.97014">
        <ele>640</ele>
        <time>2023-08-15T12:39:48.592Z</time>
      </trkpt>
      <trkpt lat="43.81221" lon="2.97006">
        <ele>640</ele>
        <time>2023-08-15T12:39:52.424Z</time>
      </trkpt>
      <trkpt lat="43.81217" lon="2.96998">
        <ele>640</ele>
        <time>2023-08-15T12:39:56.872Z</time>
      </trkpt>
      <trkpt lat="43.81214" lon="2.9699">
        <ele>640</ele>
        <time>2023-08-15T12:40:01.193Z</time>
      </trkpt>
      <trkpt lat="43.81212" lon="2.96979">
        <ele>645</ele>
        <time>2023-08-15T12:40:06.133Z</time>
      </trkpt>
      <trkpt lat="43.81213" lon="2.96969">
        <ele>645</ele>
        <time>2023-08-15T12:40:10.532Z</time>
      </trkpt>
      <trkpt lat="43.81216" lon="2.96968">
        <ele>645</ele>
        <time>2023-08-15T12:40:14.932Z</time>
      </trkpt>
      <trkpt lat="43.81215" lon="2.96964">
        <ele>645</ele>
        <time>2023-08-15T12:40:19.393Z</time>
      </trkpt>
      <trkpt lat="43.81212" lon="2.96956">
        <ele>649</ele>
        <time>2023-08-15T12:40:23.832Z</time>
      </trkpt>
      <trkpt lat="43.81208" lon="2.96949">
        <ele>638</ele>
        <time>2023-08-15T12:40:28.272Z</time>
      </trkpt>
      <trkpt lat="43.81203" lon="2.96941">
        <ele>638</ele>
        <time>2023-08-15T12:40:33.133Z</time>
      </trkpt>
      <trkpt lat="43.81197" lon="2.96933">
        <ele>638</ele>
        <time>2023-08-15T12:40:37.452Z</time>
      </trkpt>
      <trkpt lat="43.81192" lon="2.96927">
        <ele>640</ele>
        <time>2023-08-15T12:40:41.872Z</time>
      </trkpt>
      <trkpt lat="43.81189" lon="2.9692">
        <ele>640</ele>
        <time>2023-08-15T12:40:46.233Z</time>
      </trkpt>
      <trkpt lat="43.81187" lon="2.96912">
        <ele>640</ele>
        <time>2023-08-15T12:40:50.712Z</time>
      </trkpt>
      <trkpt lat="43.81186" lon="2.96912">
        <ele>640</ele>
        <time>2023-08-15T12:41:12.712Z</time>
      </trkpt>
      <trkpt lat="43.8118" lon="2.96904">
        <ele>631</ele>
        <time>2023-08-15T12:41:17.212Z</time>
      </trkpt>
      <trkpt lat="43.81175" lon="2.96892">
        <ele>633</ele>
        <time>2023-08-15T12:41:21.652Z</time>
      </trkpt>
      <trkpt lat="43.81172" lon="2.96883">
        <ele>633</ele>
        <time>2023-08-15T12:41:26.013Z</time>
      </trkpt>
      <trkpt lat="43.81169" lon="2.96875">
        <ele>634</ele>
        <time>2023-08-15T12:41:30.973Z</time>
      </trkpt>
      <trkpt lat="43.81169" lon="2.96866">
        <ele>634</ele>
        <time>2023-08-15T12:41:35.373Z</time>
      </trkpt>
      <trkpt lat="43.8117" lon="2.96856">
        <ele>634</ele>
        <time>2023-08-15T12:41:39.712Z</time>
      </trkpt>
      <trkpt lat="43.81172" lon="2.96847">
        <ele>630</ele>
        <time>2023-08-15T12:41:44.152Z</time>
      </trkpt>
      <trkpt lat="43.81175" lon="2.96839">
        <ele>630</ele>
        <time>2023-08-15T12:41:48.492Z</time>
      </trkpt>
      <trkpt lat="43.81179" lon="2.96833">
        <ele>630</ele>
        <time>2023-08-15T12:41:52.913Z</time>
      </trkpt>
      <trkpt lat="43.81183" lon="2.96829">
        <ele>634</ele>
        <time>2023-08-15T12:41:57.373Z</time>
      </trkpt>
      <trkpt lat="43.81188" lon="2.96826">
        <ele>634</ele>
        <time>2023-08-15T12:42:01.812Z</time>
      </trkpt>
      <trkpt lat="43.81192" lon="2.96824">
        <ele>634</ele>
        <time>2023-08-15T12:42:06.173Z</time>
      </trkpt>
      <trkpt lat="43.81188" lon="2.96831">
        <ele>634</ele>
        <time>2023-08-15T12:42:10.632Z</time>
      </trkpt>
      <trkpt lat="43.81188" lon="2.96832">
        <ele>634</ele>
        <time>2023-08-15T12:42:14.993Z</time>
      </trkpt>
      <trkpt lat="43.81191" lon="2.96832">
        <ele>634</ele>
        <time>2023-08-15T12:42:19.933Z</time>
      </trkpt>
      <trkpt lat="43.81196" lon="2.9683">
        <ele>634</ele>
        <time>2023-08-15T12:42:24.415Z</time>
      </trkpt>
      <trkpt lat="43.81202" lon="2.96826">
        <ele>634</ele>
        <time>2023-08-15T12:42:28.193Z</time>
      </trkpt>
      <trkpt lat="43.81208" lon="2.96821">
        <ele>634</ele>
        <time>2023-08-15T12:42:32.592Z</time>
      </trkpt>
      <trkpt lat="43.81213" lon="2.96815">
        <ele>629</ele>
        <time>2023-08-15T12:42:36.413Z</time>
      </trkpt>
      <trkpt lat="43.81219" lon="2.96811">
        <ele>629</ele>
        <time>2023-08-15T12:42:40.792Z</time>
      </trkpt>
      <trkpt lat="43.81227" lon="2.9681">
        <ele>629</ele>
        <time>2023-08-15T12:42:45.053Z</time>
      </trkpt>
      <trkpt lat="43.81232" lon="2.96811">
        <ele>629</ele>
        <time>2023-08-15T12:42:50.093Z</time>
      </trkpt>
      <trkpt lat="43.81235" lon="2.96811">
        <ele>629</ele>
        <time>2023-08-15T12:42:54.409Z</time>
      </trkpt>
      <trkpt lat="43.81241" lon="2.96809">
        <ele>628</ele>
        <time>2023-08-15T12:42:58.893Z</time>
      </trkpt>
      <trkpt lat="43.81242" lon="2.96813">
        <ele>628</ele>
        <time>2023-08-15T12:43:03.193Z</time>
      </trkpt>
      <trkpt lat="43.81245" lon="2.96815">
        <ele>628</ele>
        <time>2023-08-15T12:43:07.632Z</time>
      </trkpt>
      <trkpt lat="43.8125" lon="2.96817">
        <ele>628</ele>
        <time>2023-08-15T12:43:12.033Z</time>
      </trkpt>
      <trkpt lat="43.81256" lon="2.9682">
        <ele>639</ele>
        <time>2023-08-15T12:43:17.032Z</time>
      </trkpt>
      <trkpt lat="43.81263" lon="2.96824">
        <ele>639</ele>
        <time>2023-08-15T12:43:20.972Z</time>
      </trkpt>
      <trkpt lat="43.81271" lon="2.96825">
        <ele>635</ele>
        <time>2023-08-15T12:43:25.892Z</time>
      </trkpt>
      <trkpt lat="43.81277" lon="2.96824">
        <ele>635</ele>
        <time>2023-08-15T12:43:30.313Z</time>
      </trkpt>
      <trkpt lat="43.81284" lon="2.96822">
        <ele>635</ele>
        <time>2023-08-15T12:43:34.732Z</time>
      </trkpt>
      <trkpt lat="43.81288" lon="2.96824">
        <ele>635</ele>
        <time>2023-08-15T12:43:39.133Z</time>
      </trkpt>
      <trkpt lat="43.81292" lon="2.96826">
        <ele>634</ele>
        <time>2023-08-15T12:43:43.592Z</time>
      </trkpt>
      <trkpt lat="43.81296" lon="2.9683">
        <ele>634</ele>
        <time>2023-08-15T12:43:47.953Z</time>
      </trkpt>
      <trkpt lat="43.81298" lon="2.96834">
        <ele>634</ele>
        <time>2023-08-15T12:43:52.933Z</time>
      </trkpt>
      <trkpt lat="43.81303" lon="2.96836">
        <ele>634</ele>
        <time>2023-08-15T12:43:57.353Z</time>
      </trkpt>
      <trkpt lat="43.81309" lon="2.96838">
        <ele>634</ele>
        <time>2023-08-15T12:44:01.233Z</time>
      </trkpt>
      <trkpt lat="43.81315" lon="2.96838">
        <ele>634</ele>
        <time>2023-08-15T12:44:06.253Z</time>
      </trkpt>
      <trkpt lat="43.81321" lon="2.96839">
        <ele>628</ele>
        <time>2023-08-15T12:44:10.032Z</time>
      </trkpt>
      <trkpt lat="43.81327" lon="2.96839">
        <ele>628</ele>
        <time>2023-08-15T12:44:14.431Z</time>
      </trkpt>
      <trkpt lat="43.81333" lon="2.96841">
        <ele>628</ele>
        <time>2023-08-15T12:44:18.913Z</time>
      </trkpt>
      <trkpt lat="43.81338" lon="2.96844">
        <ele>628</ele>
        <time>2023-08-15T12:44:22.812Z</time>
      </trkpt>
      <trkpt lat="43.81344" lon="2.96849">
        <ele>637</ele>
        <time>2023-08-15T12:44:27.172Z</time>
      </trkpt>
      <trkpt lat="43.81349" lon="2.96853">
        <ele>635</ele>
        <time>2023-08-15T12:44:32.013Z</time>
      </trkpt>
      <trkpt lat="43.81355" lon="2.96854">
        <ele>635</ele>
        <time>2023-08-15T12:44:36.373Z</time>
      </trkpt>
      <trkpt lat="43.81361" lon="2.96852">
        <ele>635</ele>
        <time>2023-08-15T12:44:40.752Z</time>
      </trkpt>
      <trkpt lat="43.81367" lon="2.96851">
        <ele>635</ele>
        <time>2023-08-15T12:44:45.073Z</time>
      </trkpt>
      <trkpt lat="43.81372" lon="2.9685">
        <ele>635</ele>
        <time>2023-08-15T12:44:49.973Z</time>
      </trkpt>
      <trkpt lat="43.81378" lon="2.96845">
        <ele>624</ele>
        <time>2023-08-15T12:45:03.173Z</time>
      </trkpt>
      <trkpt lat="43.81379" lon="2.96846">
        <ele>624</ele>
        <time>2023-08-15T12:45:07.572Z</time>
      </trkpt>
      <trkpt lat="43.81383" lon="2.96844">
        <ele>624</ele>
        <time>2023-08-15T12:45:11.993Z</time>
      </trkpt>
      <trkpt lat="43.81388" lon="2.96842">
        <ele>624</ele>
        <time>2023-08-15T12:45:16.353Z</time>
      </trkpt>
      <trkpt lat="43.81395" lon="2.9684">
        <ele>624</ele>
        <time>2023-08-15T12:45:21.233Z</time>
      </trkpt>
      <trkpt lat="43.81402" lon="2.96842">
        <ele>624</ele>
        <time>2023-08-15T12:45:25.033Z</time>
      </trkpt>
      <trkpt lat="43.8141" lon="2.96841">
        <ele>622</ele>
        <time>2023-08-15T12:45:29.953Z</time>
      </trkpt>
      <trkpt lat="43.81413" lon="2.96837">
        <ele>622</ele>
        <time>2023-08-15T12:45:34.492Z</time>
      </trkpt>
      <trkpt lat="43.81416" lon="2.96836">
        <ele>622</ele>
        <time>2023-08-15T12:45:38.913Z</time>
      </trkpt>
      <trkpt lat="43.81419" lon="2.96835">
        <ele>622</ele>
        <time>2023-08-15T12:45:43.232Z</time>
      </trkpt>
      <trkpt lat="43.81425" lon="2.96834">
        <ele>622</ele>
        <time>2023-08-15T12:45:47.692Z</time>
      </trkpt>
      <trkpt lat="43.81432" lon="2.96835">
        <ele>622</ele>
        <time>2023-08-15T12:45:52.073Z</time>
      </trkpt>
      <trkpt lat="43.81436" lon="2.96847">
        <ele>622</ele>
        <time>2023-08-15T12:45:57.013Z</time>
      </trkpt>
      <trkpt lat="43.81438" lon="2.96852">
        <ele>631</ele>
        <time>2023-08-15T12:46:01.410Z</time>
      </trkpt>
      <trkpt lat="43.81438" lon="2.96853">
        <ele>631</ele>
        <time>2023-08-15T12:46:05.812Z</time>
      </trkpt>
      <trkpt lat="43.81442" lon="2.96854">
        <ele>631</ele>
        <time>2023-08-15T12:46:10.173Z</time>
      </trkpt>
      <trkpt lat="43.81448" lon="2.96856">
        <ele>631</ele>
        <time>2023-08-15T12:46:14.592Z</time>
      </trkpt>
      <trkpt lat="43.81454" lon="2.96858">
        <ele>631</ele>
        <time>2023-08-15T12:46:18.932Z</time>
      </trkpt>
      <trkpt lat="43.8146" lon="2.96861">
        <ele>628</ele>
        <time>2023-08-15T12:46:23.333Z</time>
      </trkpt>
      <trkpt lat="43.81466" lon="2.96861">
        <ele>628</ele>
        <time>2023-08-15T12:46:28.113Z</time>
      </trkpt>
      <trkpt lat="43.81469" lon="2.96861">
        <ele>628</ele>
        <time>2023-08-15T12:46:31.953Z</time>
      </trkpt>
      <trkpt lat="43.81474" lon="2.96861">
        <ele>628</ele>
        <time>2023-08-15T12:46:36.374Z</time>
      </trkpt>
      <trkpt lat="43.81481" lon="2.9686">
        <ele>628</ele>
        <time>2023-08-15T12:46:40.772Z</time>
      </trkpt>
      <trkpt lat="43.81486" lon="2.96859">
        <ele>624</ele>
        <time>2023-08-15T12:46:45.194Z</time>
      </trkpt>
      <trkpt lat="43.81488" lon="2.96855">
        <ele>624</ele>
        <time>2023-08-15T12:46:49.014Z</time>
      </trkpt>
      <trkpt lat="43.81488" lon="2.96853">
        <ele>624</ele>
        <time>2023-08-15T12:47:12.424Z</time>
      </trkpt>
      <trkpt lat="43.81489" lon="2.96854">
        <ele>624</ele>
        <time>2023-08-15T12:47:16.956Z</time>
      </trkpt>
      <trkpt lat="43.81491" lon="2.96856">
        <ele>624</ele>
        <time>2023-08-15T12:47:21.376Z</time>
      </trkpt>
      <trkpt lat="43.81496" lon="2.96856">
        <ele>624</ele>
        <time>2023-08-15T12:47:25.716Z</time>
      </trkpt>
      <trkpt lat="43.815" lon="2.96852">
        <ele>624</ele>
        <time>2023-08-15T12:47:30.017Z</time>
      </trkpt>
      <trkpt lat="43.81503" lon="2.96849">
        <ele>624</ele>
        <time>2023-08-15T12:47:34.411Z</time>
      </trkpt>
      <trkpt lat="43.81507" lon="2.96848">
        <ele>624</ele>
        <time>2023-08-15T12:47:38.796Z</time>
      </trkpt>
      <trkpt lat="43.81512" lon="2.9685">
        <ele>624</ele>
        <time>2023-08-15T12:47:42.716Z</time>
      </trkpt>
      <trkpt lat="43.81513" lon="2.96851">
        <ele>624</ele>
        <time>2023-08-15T12:47:47.085Z</time>
      </trkpt>
      <trkpt lat="43.81511" lon="2.96847">
        <ele>623</ele>
        <time>2023-08-15T12:47:50.977Z</time>
      </trkpt>
      <trkpt lat="43.81504" lon="2.96846">
        <ele>623</ele>
        <time>2023-08-15T12:47:55.390Z</time>
      </trkpt>
      <trkpt lat="43.81498" lon="2.96843">
        <ele>623</ele>
        <time>2023-08-15T12:47:59.836Z</time>
      </trkpt>
      <trkpt lat="43.81492" lon="2.96841">
        <ele>623</ele>
        <time>2023-08-15T12:48:04.217Z</time>
      </trkpt>
      <trkpt lat="43.81486" lon="2.96838">
        <ele>623</ele>
        <time>2023-08-15T12:48:08.665Z</time>
      </trkpt>
      <trkpt lat="43.81481" lon="2.96834">
        <ele>623</ele>
        <time>2023-08-15T12:48:12.576Z</time>
      </trkpt>
      <trkpt lat="43.81476" lon="2.96831">
        <ele>623</ele>
        <time>2023-08-15T12:48:16.965Z</time>
      </trkpt>
      <trkpt lat="43.81471" lon="2.96822">
        <ele>623</ele>
        <time>2023-08-15T12:48:21.506Z</time>
      </trkpt>
      <trkpt lat="43.81468" lon="2.96814">
        <ele>621</ele>
        <time>2023-08-15T12:48:25.936Z</time>
      </trkpt>
      <trkpt lat="43.81465" lon="2.96807">
        <ele>621</ele>
        <time>2023-08-15T12:48:29.776Z</time>
      </trkpt>
      <trkpt lat="43.81462" lon="2.96799">
        <ele>621</ele>
        <time>2023-08-15T12:48:34.136Z</time>
      </trkpt>
      <trkpt lat="43.8146" lon="2.9679">
        <ele>625</ele>
        <time>2023-08-15T12:48:38.476Z</time>
      </trkpt>
      <trkpt lat="43.81456" lon="2.96783">
        <ele>620</ele>
        <time>2023-08-15T12:48:42.917Z</time>
      </trkpt>
      <trkpt lat="43.81453" lon="2.96782">
        <ele>620</ele>
        <time>2023-08-15T12:48:47.237Z</time>
      </trkpt>
      <trkpt lat="43.81451" lon="2.96778">
        <ele>620</ele>
        <time>2023-08-15T12:48:51.596Z</time>
      </trkpt>
      <trkpt lat="43.81447" lon="2.96774">
        <ele>620</ele>
        <time>2023-08-15T12:48:56.057Z</time>
      </trkpt>
      <trkpt lat="43.81441" lon="2.9677">
        <ele>620</ele>
        <time>2023-08-15T12:49:00.986Z</time>
      </trkpt>
      <trkpt lat="43.81436" lon="2.96766">
        <ele>620</ele>
        <time>2023-08-15T12:49:05.357Z</time>
      </trkpt>
      <trkpt lat="43.8143" lon="2.96761">
        <ele>618</ele>
        <time>2023-08-15T12:49:09.796Z</time>
      </trkpt>
      <trkpt lat="43.81424" lon="2.96756">
        <ele>618</ele>
        <time>2023-08-15T12:49:14.217Z</time>
      </trkpt>
      <trkpt lat="43.81418" lon="2.96752">
        <ele>618</ele>
        <time>2023-08-15T12:49:19.116Z</time>
      </trkpt>
      <trkpt lat="43.81413" lon="2.9675">
        <ele>618</ele>
        <time>2023-08-15T12:49:22.896Z</time>
      </trkpt>
      <trkpt lat="43.81409" lon="2.96748">
        <ele>618</ele>
        <time>2023-08-15T12:49:27.336Z</time>
      </trkpt>
      <trkpt lat="43.81403" lon="2.96745">
        <ele>618</ele>
        <time>2023-08-15T12:49:31.776Z</time>
      </trkpt>
      <trkpt lat="43.81399" lon="2.96742">
        <ele>609</ele>
        <time>2023-08-15T12:49:36.257Z</time>
      </trkpt>
      <trkpt lat="43.81397" lon="2.96738">
        <ele>609</ele>
        <time>2023-08-15T12:49:41.177Z</time>
      </trkpt>
      <trkpt lat="43.81393" lon="2.96735">
        <ele>617</ele>
        <time>2023-08-15T12:49:45.596Z</time>
      </trkpt>
      <trkpt lat="43.81389" lon="2.96731">
        <ele>617</ele>
        <time>2023-08-15T12:49:49.997Z</time>
      </trkpt>
      <trkpt lat="43.81382" lon="2.96727">
        <ele>617</ele>
        <time>2023-08-15T12:49:55.086Z</time>
      </trkpt>
      <trkpt lat="43.81374" lon="2.96725">
        <ele>608</ele>
        <time>2023-08-15T12:49:59.406Z</time>
      </trkpt>
      <trkpt lat="43.81365" lon="2.96723">
        <ele>608</ele>
        <time>2023-08-15T12:50:03.836Z</time>
      </trkpt>
      <trkpt lat="43.81358" lon="2.96722">
        <ele>608</ele>
        <time>2023-08-15T12:50:08.276Z</time>
      </trkpt>
      <trkpt lat="43.81354" lon="2.9672">
        <ele>608</ele>
        <time>2023-08-15T12:50:12.696Z</time>
      </trkpt>
      <trkpt lat="43.81354" lon="2.9672">
        <ele>608</ele>
        <time>2023-08-15T12:50:16.978Z</time>
      </trkpt>
      <trkpt lat="43.81353" lon="2.9672">
        <ele>608</ele>
        <time>2023-08-15T12:50:20.937Z</time>
      </trkpt>
      <trkpt lat="43.81349" lon="2.96721">
        <ele>608</ele>
        <time>2023-08-15T12:50:25.916Z</time>
      </trkpt>
      <trkpt lat="43.81348" lon="2.96705">
        <ele>617</ele>
        <time>2023-08-15T12:50:30.836Z</time>
      </trkpt>
      <trkpt lat="43.81347" lon="2.96699">
        <ele>604</ele>
        <time>2023-08-15T12:50:35.217Z</time>
      </trkpt>
      <trkpt lat="43.81345" lon="2.96695">
        <ele>604</ele>
        <time>2023-08-15T12:50:39.056Z</time>
      </trkpt>
      <trkpt lat="43.81344" lon="2.96687">
        <ele>604</ele>
        <time>2023-08-15T12:50:43.917Z</time>
      </trkpt>
      <trkpt lat="43.81343" lon="2.96679">
        <ele>613</ele>
        <time>2023-08-15T12:50:48.205Z</time>
      </trkpt>
      <trkpt lat="43.81341" lon="2.9667">
        <ele>613</ele>
        <time>2023-08-15T12:50:52.496Z</time>
      </trkpt>
      <trkpt lat="43.81338" lon="2.96663">
        <ele>613</ele>
        <time>2023-08-15T12:50:56.896Z</time>
      </trkpt>
      <trkpt lat="43.81333" lon="2.96655">
        <ele>613</ele>
        <time>2023-08-15T12:51:01.297Z</time>
      </trkpt>
      <trkpt lat="43.8133" lon="2.96647">
        <ele>623</ele>
        <time>2023-08-15T12:51:05.665Z</time>
      </trkpt>
      <trkpt lat="43.81327" lon="2.9664">
        <ele>623</ele>
        <time>2023-08-15T12:51:09.496Z</time>
      </trkpt>
      <trkpt lat="43.81323" lon="2.96633">
        <ele>623</ele>
        <time>2023-08-15T12:51:13.917Z</time>
      </trkpt>
      <trkpt lat="43.81318" lon="2.96628">
        <ele>607</ele>
        <time>2023-08-15T12:51:18.297Z</time>
      </trkpt>
      <trkpt lat="43.81312" lon="2.96624">
        <ele>618</ele>
        <time>2023-08-15T12:51:23.157Z</time>
      </trkpt>
      <trkpt lat="43.81307" lon="2.9662">
        <ele>618</ele>
        <time>2023-08-15T12:51:27.415Z</time>
      </trkpt>
      <trkpt lat="43.81302" lon="2.96615">
        <ele>618</ele>
        <time>2023-08-15T12:51:31.897Z</time>
      </trkpt>
      <trkpt lat="43.813" lon="2.96611">
        <ele>618</ele>
        <time>2023-08-15T12:51:36.297Z</time>
      </trkpt>
      <trkpt lat="43.81299" lon="2.96606">
        <ele>618</ele>
        <time>2023-08-15T12:51:40.625Z</time>
      </trkpt>
      <trkpt lat="43.81298" lon="2.96599">
        <ele>618</ele>
        <time>2023-08-15T12:51:44.957Z</time>
      </trkpt>
      <trkpt lat="43.81295" lon="2.96595">
        <ele>626</ele>
        <time>2023-08-15T12:51:49.365Z</time>
      </trkpt>
      <trkpt lat="43.81292" lon="2.9659">
        <ele>626</ele>
        <time>2023-08-15T12:51:53.596Z</time>
      </trkpt>
      <trkpt lat="43.8129" lon="2.96584">
        <ele>616</ele>
        <time>2023-08-15T12:51:58.017Z</time>
      </trkpt>
      <trkpt lat="43.81287" lon="2.96578">
        <ele>616</ele>
        <time>2023-08-15T12:52:02.957Z</time>
      </trkpt>
      <trkpt lat="43.81285" lon="2.96575">
        <ele>616</ele>
        <time>2023-08-15T12:52:07.317Z</time>
      </trkpt>
      <trkpt lat="43.81282" lon="2.96571">
        <ele>616</ele>
        <time>2023-08-15T12:52:11.756Z</time>
      </trkpt>
      <trkpt lat="43.81279" lon="2.96565">
        <ele>625</ele>
        <time>2023-08-15T12:52:16.117Z</time>
      </trkpt>
      <trkpt lat="43.81277" lon="2.9656">
        <ele>625</ele>
        <time>2023-08-15T12:52:20.037Z</time>
      </trkpt>
      <trkpt lat="43.81274" lon="2.96553">
        <ele>625</ele>
        <time>2023-08-15T12:52:24.937Z</time>
      </trkpt>
      <trkpt lat="43.8127" lon="2.96547">
        <ele>625</ele>
        <time>2023-08-15T12:52:28.857Z</time>
      </trkpt>
      <trkpt lat="43.81266" lon="2.96543">
        <ele>625</ele>
        <time>2023-08-15T12:52:33.356Z</time>
      </trkpt>
      <trkpt lat="43.81263" lon="2.96541">
        <ele>623</ele>
        <time>2023-08-15T12:52:37.177Z</time>
      </trkpt>
      <trkpt lat="43.8126" lon="2.96539">
        <ele>623</ele>
        <time>2023-08-15T12:52:41.506Z</time>
      </trkpt>
      <trkpt lat="43.8126" lon="2.96537">
        <ele>623</ele>
        <time>2023-08-15T12:52:45.957Z</time>
      </trkpt>
      <trkpt lat="43.81257" lon="2.96535">
        <ele>623</ele>
        <time>2023-08-15T12:52:49.796Z</time>
      </trkpt>
      <trkpt lat="43.81254" lon="2.96531">
        <ele>623</ele>
        <time>2023-08-15T12:52:54.116Z</time>
      </trkpt>
      <trkpt lat="43.8125" lon="2.96526">
        <ele>623</ele>
        <time>2023-08-15T12:52:59.077Z</time>
      </trkpt>
      <trkpt lat="43.81244" lon="2.96521">
        <ele>623</ele>
        <time>2023-08-15T12:53:03.415Z</time>
      </trkpt>
      <trkpt lat="43.81237" lon="2.96516">
        <ele>623</ele>
        <time>2023-08-15T12:53:07.816Z</time>
      </trkpt>
      <trkpt lat="43.81229" lon="2.96513">
        <ele>629</ele>
        <time>2023-08-15T12:53:12.237Z</time>
      </trkpt>
      <trkpt lat="43.81223" lon="2.9651">
        <ele>629</ele>
        <time>2023-08-15T12:53:16.596Z</time>
      </trkpt>
      <trkpt lat="43.81217" lon="2.96509">
        <ele>629</ele>
        <time>2023-08-15T12:53:20.926Z</time>
      </trkpt>
      <trkpt lat="43.81213" lon="2.96508">
        <ele>629</ele>
        <time>2023-08-15T12:53:24.240Z</time>
      </trkpt>
      <trkpt lat="43.81208" lon="2.96507">
        <ele>627</ele>
        <time>2023-08-15T12:53:30.320Z</time>
      </trkpt>
      <trkpt lat="43.81202" lon="2.96516">
        <ele>611</ele>
        <time>2023-08-15T12:53:34.771Z</time>
      </trkpt>
      <trkpt lat="43.81199" lon="2.96519">
        <ele>611</ele>
        <time>2023-08-15T12:53:39.220Z</time>
      </trkpt>
      <trkpt lat="43.81194" lon="2.9652">
        <ele>611</ele>
        <time>2023-08-15T12:53:44.143Z</time>
      </trkpt>
      <trkpt lat="43.81191" lon="2.96519">
        <ele>611</ele>
        <time>2023-08-15T12:53:48.602Z</time>
      </trkpt>
      <trkpt lat="43.81189" lon="2.96516">
        <ele>611</ele>
        <time>2023-08-15T12:53:57.343Z</time>
      </trkpt>
      <trkpt lat="43.81189" lon="2.96515">
        <ele>611</ele>
        <time>2023-08-15T12:54:01.682Z</time>
      </trkpt>
      <trkpt lat="43.81187" lon="2.96514">
        <ele>611</ele>
        <time>2023-08-15T12:54:05.542Z</time>
      </trkpt>
      <trkpt lat="43.81184" lon="2.96513">
        <ele>627</ele>
        <time>2023-08-15T12:54:09.943Z</time>
      </trkpt>
      <trkpt lat="43.81179" lon="2.96511">
        <ele>622</ele>
        <time>2023-08-15T12:54:14.822Z</time>
      </trkpt>
      <trkpt lat="43.81172" lon="2.9651">
        <ele>622</ele>
        <time>2023-08-15T12:54:18.722Z</time>
      </trkpt>
      <trkpt lat="43.81165" lon="2.96509">
        <ele>622</ele>
        <time>2023-08-15T12:54:23.062Z</time>
      </trkpt>
      <trkpt lat="43.81155" lon="2.96508">
        <ele>622</ele>
        <time>2023-08-15T12:54:28.042Z</time>
      </trkpt>
      <trkpt lat="43.81151" lon="2.96507">
        <ele>615</ele>
        <time>2023-08-15T12:54:31.883Z</time>
      </trkpt>
      <trkpt lat="43.81148" lon="2.96506">
        <ele>615</ele>
        <time>2023-08-15T12:54:36.302Z</time>
      </trkpt>
      <trkpt lat="43.81143" lon="2.96503">
        <ele>615</ele>
        <time>2023-08-15T12:54:41.283Z</time>
      </trkpt>
      <trkpt lat="43.81139" lon="2.96499">
        <ele>615</ele>
        <time>2023-08-15T12:54:45.602Z</time>
      </trkpt>
      <trkpt lat="43.81135" lon="2.96492">
        <ele>615</ele>
        <time>2023-08-15T12:54:50.602Z</time>
      </trkpt>
      <trkpt lat="43.81132" lon="2.96485">
        <ele>628</ele>
        <time>2023-08-15T12:54:54.983Z</time>
      </trkpt>
      <trkpt lat="43.81127" lon="2.96479">
        <ele>628</ele>
        <time>2023-08-15T12:54:59.323Z</time>
      </trkpt>
      <trkpt lat="43.81124" lon="2.96474">
        <ele>620</ele>
        <time>2023-08-15T12:55:03.182Z</time>
      </trkpt>
      <trkpt lat="43.8112" lon="2.96467">
        <ele>620</ele>
        <time>2023-08-15T12:55:07.502Z</time>
      </trkpt>
      <trkpt lat="43.81116" lon="2.96462">
        <ele>620</ele>
        <time>2023-08-15T12:55:11.843Z</time>
      </trkpt>
      <trkpt lat="43.81111" lon="2.96456">
        <ele>633</ele>
        <time>2023-08-15T12:55:16.203Z</time>
      </trkpt>
      <trkpt lat="43.81107" lon="2.96453">
        <ele>633</ele>
        <time>2023-08-15T12:55:20.562Z</time>
      </trkpt>
      <trkpt lat="43.81104" lon="2.9645">
        <ele>633</ele>
        <time>2023-08-15T12:55:24.912Z</time>
      </trkpt>
      <trkpt lat="43.81098" lon="2.96447">
        <ele>633</ele>
        <time>2023-08-15T12:55:29.283Z</time>
      </trkpt>
      <trkpt lat="43.81091" lon="2.96445">
        <ele>624</ele>
        <time>2023-08-15T12:55:34.163Z</time>
      </trkpt>
      <trkpt lat="43.81086" lon="2.96444">
        <ele>624</ele>
        <time>2023-08-15T12:55:38.482Z</time>
      </trkpt>
      <trkpt lat="43.81079" lon="2.96448">
        <ele>624</ele>
        <time>2023-08-15T12:55:42.922Z</time>
      </trkpt>
      <trkpt lat="43.81073" lon="2.96449">
        <ele>624</ele>
        <time>2023-08-15T12:55:47.263Z</time>
      </trkpt>
      <trkpt lat="43.81067" lon="2.96449">
        <ele>615</ele>
        <time>2023-08-15T12:55:51.702Z</time>
      </trkpt>
      <trkpt lat="43.81061" lon="2.9645">
        <ele>615</ele>
        <time>2023-08-15T12:55:55.562Z</time>
      </trkpt>
      <trkpt lat="43.81055" lon="2.9645">
        <ele>615</ele>
        <time>2023-08-15T12:55:59.983Z</time>
      </trkpt>
      <trkpt lat="43.81053" lon="2.96447">
        <ele>615</ele>
        <time>2023-08-15T12:56:04.903Z</time>
      </trkpt>
      <trkpt lat="43.81049" lon="2.96447">
        <ele>615</ele>
        <time>2023-08-15T12:56:09.362Z</time>
      </trkpt>
      <trkpt lat="43.81046" lon="2.96445">
        <ele>615</ele>
        <time>2023-08-15T12:56:13.182Z</time>
      </trkpt>
      <trkpt lat="43.81046" lon="2.96441">
        <ele>615</ele>
        <time>2023-08-15T12:56:17.043Z</time>
      </trkpt>
      <trkpt lat="43.81046" lon="2.96438">
        <ele>615</ele>
        <time>2023-08-15T12:56:21.942Z</time>
      </trkpt>
      <trkpt lat="43.81046" lon="2.96438">
        <ele>615</ele>
        <time>2023-08-15T12:56:26.303Z</time>
      </trkpt>
      <trkpt lat="43.81043" lon="2.96436">
        <ele>615</ele>
        <time>2023-08-15T12:56:30.162Z</time>
      </trkpt>
      <trkpt lat="43.81038" lon="2.96434">
        <ele>606</ele>
        <time>2023-08-15T12:56:33.943Z</time>
      </trkpt>
      <trkpt lat="43.81031" lon="2.96433">
        <ele>606</ele>
        <time>2023-08-15T12:56:38.942Z</time>
      </trkpt>
      <trkpt lat="43.81022" lon="2.96436">
        <ele>606</ele>
        <time>2023-08-15T12:56:43.383Z</time>
      </trkpt>
      <trkpt lat="43.81014" lon="2.96442">
        <ele>606</ele>
        <time>2023-08-15T12:56:47.702Z</time>
      </trkpt>
      <trkpt lat="43.81006" lon="2.96446">
        <ele>607</ele>
        <time>2023-08-15T12:56:52.123Z</time>
      </trkpt>
      <trkpt lat="43.80999" lon="2.9645">
        <ele>607</ele>
        <time>2023-08-15T12:56:57.003Z</time>
      </trkpt>
      <trkpt lat="43.80992" lon="2.96452">
        <ele>607</ele>
        <time>2023-08-15T12:57:01.419Z</time>
      </trkpt>
      <trkpt lat="43.80986" lon="2.96452">
        <ele>607</ele>
        <time>2023-08-15T12:57:05.862Z</time>
      </trkpt>
      <trkpt lat="43.80981" lon="2.96452">
        <ele>609</ele>
        <time>2023-08-15T12:57:10.283Z</time>
      </trkpt>
      <trkpt lat="43.80974" lon="2.96451">
        <ele>609</ele>
        <time>2023-08-15T12:57:15.292Z</time>
      </trkpt>
      <trkpt lat="43.80972" lon="2.9644">
        <ele>609</ele>
        <time>2023-08-15T12:57:19.642Z</time>
      </trkpt>
      <trkpt lat="43.80968" lon="2.96436">
        <ele>609</ele>
        <time>2023-08-15T12:57:24.003Z</time>
      </trkpt>
      <trkpt lat="43.80962" lon="2.96433">
        <ele>609</ele>
        <time>2023-08-15T12:57:29.002Z</time>
      </trkpt>
      <trkpt lat="43.80956" lon="2.9643">
        <ele>617</ele>
        <time>2023-08-15T12:57:33.343Z</time>
      </trkpt>
      <trkpt lat="43.8095" lon="2.96426">
        <ele>617</ele>
        <time>2023-08-15T12:57:38.272Z</time>
      </trkpt>
      <trkpt lat="43.80946" lon="2.96424">
        <ele>617</ele>
        <time>2023-08-15T12:57:42.162Z</time>
      </trkpt>
      <trkpt lat="43.80946" lon="2.96425">
        <ele>617</ele>
        <time>2023-08-15T12:57:46.562Z</time>
      </trkpt>
      <trkpt lat="43.80944" lon="2.96424">
        <ele>617</ele>
        <time>2023-08-15T12:57:50.932Z</time>
      </trkpt>
      <trkpt lat="43.80939" lon="2.96422">
        <ele>617</ele>
        <time>2023-08-15T12:57:55.403Z</time>
      </trkpt>
      <trkpt lat="43.80934" lon="2.96419">
        <ele>617</ele>
        <time>2023-08-15T12:57:59.822Z</time>
      </trkpt>
      <trkpt lat="43.80929" lon="2.96413">
        <ele>611</ele>
        <time>2023-08-15T12:58:04.243Z</time>
      </trkpt>
      <trkpt lat="43.80924" lon="2.9641">
        <ele>611</ele>
        <time>2023-08-15T12:58:08.642Z</time>
      </trkpt>
      <trkpt lat="43.80918" lon="2.96408">
        <ele>611</ele>
        <time>2023-08-15T12:58:13.002Z</time>
      </trkpt>
      <trkpt lat="43.8091" lon="2.96404">
        <ele>611</ele>
        <time>2023-08-15T12:58:17.902Z</time>
      </trkpt>
      <trkpt lat="43.80904" lon="2.96399">
        <ele>618</ele>
        <time>2023-08-15T12:58:22.322Z</time>
      </trkpt>
      <trkpt lat="43.80901" lon="2.96396">
        <ele>609</ele>
        <time>2023-08-15T12:58:27.251Z</time>
      </trkpt>
      <trkpt lat="43.80899" lon="2.96394">
        <ele>609</ele>
        <time>2023-08-15T12:58:31.183Z</time>
      </trkpt>
      <trkpt lat="43.80893" lon="2.96391">
        <ele>609</ele>
        <time>2023-08-15T12:58:36.183Z</time>
      </trkpt>
      <trkpt lat="43.80888" lon="2.9639">
        <ele>609</ele>
        <time>2023-08-15T12:58:40.424Z</time>
      </trkpt>
      <trkpt lat="43.80882" lon="2.96389">
        <ele>609</ele>
        <time>2023-08-15T12:58:45.403Z</time>
      </trkpt>
      <trkpt lat="43.80875" lon="2.96388">
        <ele>609</ele>
        <time>2023-08-15T12:58:49.862Z</time>
      </trkpt>
      <trkpt lat="43.8087" lon="2.96385">
        <ele>600</ele>
        <time>2023-08-15T12:58:54.262Z</time>
      </trkpt>
      <trkpt lat="43.80864" lon="2.96382">
        <ele>600</ele>
        <time>2023-08-15T12:58:59.283Z</time>
      </trkpt>
      <trkpt lat="43.8086" lon="2.96378">
        <ele>600</ele>
        <time>2023-08-15T12:59:03.102Z</time>
      </trkpt>
      <trkpt lat="43.80856" lon="2.96373">
        <ele>607</ele>
        <time>2023-08-15T12:59:07.424Z</time>
      </trkpt>
      <trkpt lat="43.80853" lon="2.96368">
        <ele>607</ele>
        <time>2023-08-15T12:59:11.751Z</time>
      </trkpt>
      <trkpt lat="43.80849" lon="2.96361">
        <ele>607</ele>
        <time>2023-08-15T12:59:16.162Z</time>
      </trkpt>
      <trkpt lat="43.80846" lon="2.96353">
        <ele>604</ele>
        <time>2023-08-15T12:59:20.502Z</time>
      </trkpt>
      <trkpt lat="43.80843" lon="2.96349">
        <ele>604</ele>
        <time>2023-08-15T12:59:24.902Z</time>
      </trkpt>
      <trkpt lat="43.80841" lon="2.96346">
        <ele>605</ele>
        <time>2023-08-15T12:59:29.362Z</time>
      </trkpt>
      <trkpt lat="43.80839" lon="2.96337">
        <ele>605</ele>
        <time>2023-08-15T12:59:33.802Z</time>
      </trkpt>
      <trkpt lat="43.8084" lon="2.9633">
        <ele>605</ele>
        <time>2023-08-15T12:59:38.203Z</time>
      </trkpt>
      <trkpt lat="43.80843" lon="2.96323">
        <ele>605</ele>
        <time>2023-08-15T12:59:42.622Z</time>
      </trkpt>
      <trkpt lat="43.80857" lon="2.96313">
        <ele>609</ele>
        <time>2023-08-15T13:00:00.762Z</time>
      </trkpt>
      <trkpt lat="43.80859" lon="2.96309">
        <ele>609</ele>
        <time>2023-08-15T13:00:05.143Z</time>
      </trkpt>
      <trkpt lat="43.80864" lon="2.96302">
        <ele>609</ele>
        <time>2023-08-15T13:00:09.522Z</time>
      </trkpt>
      <trkpt lat="43.80866" lon="2.96293">
        <ele>609</ele>
        <time>2023-08-15T13:00:13.982Z</time>
      </trkpt>
      <trkpt lat="43.80868" lon="2.96281">
        <ele>607</ele>
        <time>2023-08-15T13:00:18.943Z</time>
      </trkpt>
      <trkpt lat="43.8087" lon="2.96273">
        <ele>607</ele>
        <time>2023-08-15T13:00:23.243Z</time>
      </trkpt>
      <trkpt lat="43.80875" lon="2.96267">
        <ele>607</ele>
        <time>2023-08-15T13:00:27.582Z</time>
      </trkpt>
      <trkpt lat="43.80879" lon="2.9626">
        <ele>612</ele>
        <time>2023-08-15T13:00:32.042Z</time>
      </trkpt>
      <trkpt lat="43.80883" lon="2.96253">
        <ele>612</ele>
        <time>2023-08-15T13:00:36.420Z</time>
      </trkpt>
      <trkpt lat="43.80892" lon="2.96248">
        <ele>612</ele>
        <time>2023-08-15T13:00:58.371Z</time>
      </trkpt>
      <trkpt lat="43.80894" lon="2.96242">
        <ele>612</ele>
        <time>2023-08-15T13:01:02.263Z</time>
      </trkpt>
      <trkpt lat="43.80895" lon="2.96237">
        <ele>612</ele>
        <time>2023-08-15T13:01:06.551Z</time>
      </trkpt>
      <trkpt lat="43.80896" lon="2.96234">
        <ele>606</ele>
        <time>2023-08-15T13:01:10.902Z</time>
      </trkpt>
      <trkpt lat="43.80898" lon="2.96228">
        <ele>606</ele>
        <time>2023-08-15T13:01:14.742Z</time>
      </trkpt>
      <trkpt lat="43.80902" lon="2.96219">
        <ele>606</ele>
        <time>2023-08-15T13:01:19.162Z</time>
      </trkpt>
      <trkpt lat="43.80905" lon="2.96211">
        <ele>612</ele>
        <time>2023-08-15T13:01:23.542Z</time>
      </trkpt>
      <trkpt lat="43.80908" lon="2.96204">
        <ele>603</ele>
        <time>2023-08-15T13:01:27.882Z</time>
      </trkpt>
      <trkpt lat="43.80912" lon="2.96196">
        <ele>603</ele>
        <time>2023-08-15T13:01:32.243Z</time>
      </trkpt>
      <trkpt lat="43.80917" lon="2.96196">
        <ele>603</ele>
        <time>2023-08-15T13:01:37.203Z</time>
      </trkpt>
      <trkpt lat="43.80922" lon="2.9619">
        <ele>603</ele>
        <time>2023-08-15T13:01:41.542Z</time>
      </trkpt>
      <trkpt lat="43.80925" lon="2.96187">
        <ele>603</ele>
        <time>2023-08-15T13:01:45.963Z</time>
      </trkpt>
      <trkpt lat="43.8093" lon="2.96184">
        <ele>603</ele>
        <time>2023-08-15T13:01:50.408Z</time>
      </trkpt>
      <trkpt lat="43.80931" lon="2.96183">
        <ele>612</ele>
        <time>2023-08-15T13:01:54.782Z</time>
      </trkpt>
      <trkpt lat="43.80933" lon="2.9618">
        <ele>605</ele>
        <time>2023-08-15T13:01:58.662Z</time>
      </trkpt>
      <trkpt lat="43.80936" lon="2.96174">
        <ele>605</ele>
        <time>2023-08-15T13:02:03.022Z</time>
      </trkpt>
      <trkpt lat="43.80939" lon="2.96168">
        <ele>605</ele>
        <time>2023-08-15T13:02:07.922Z</time>
      </trkpt>
      <trkpt lat="43.80943" lon="2.96162">
        <ele>605</ele>
        <time>2023-08-15T13:02:12.362Z</time>
      </trkpt>
      <trkpt lat="43.80948" lon="2.96158">
        <ele>605</ele>
        <time>2023-08-15T13:02:16.183Z</time>
      </trkpt>
      <trkpt lat="43.80954" lon="2.96153">
        <ele>599</ele>
        <time>2023-08-15T13:02:21.012Z</time>
      </trkpt>
      <trkpt lat="43.8096" lon="2.96148">
        <ele>609</ele>
        <time>2023-08-15T13:02:24.923Z</time>
      </trkpt>
      <trkpt lat="43.80966" lon="2.96143">
        <ele>609</ele>
        <time>2023-08-15T13:02:29.923Z</time>
      </trkpt>
      <trkpt lat="43.8097" lon="2.96138">
        <ele>609</ele>
        <time>2023-08-15T13:02:34.323Z</time>
      </trkpt>
      <trkpt lat="43.80972" lon="2.96132">
        <ele>609</ele>
        <time>2023-08-15T13:02:37.618Z</time>
      </trkpt>
      <trkpt lat="43.80972" lon="2.96127">
        <ele>609</ele>
        <time>2023-08-15T13:02:43.266Z</time>
      </trkpt>
      <trkpt lat="43.80969" lon="2.96129">
        <ele>609</ele>
        <time>2023-08-15T13:02:47.086Z</time>
      </trkpt>
      <trkpt lat="43.80971" lon="2.96124">
        <ele>602</ele>
        <time>2023-08-15T13:02:52.108Z</time>
      </trkpt>
      <trkpt lat="43.80973" lon="2.96117">
        <ele>602</ele>
        <time>2023-08-15T13:02:56.413Z</time>
      </trkpt>
      <trkpt lat="43.80977" lon="2.9611">
        <ele>602</ele>
        <time>2023-08-15T13:03:00.808Z</time>
      </trkpt>
      <trkpt lat="43.80982" lon="2.96105">
        <ele>602</ele>
        <time>2023-08-15T13:03:05.228Z</time>
      </trkpt>
      <trkpt lat="43.80988" lon="2.96099">
        <ele>607</ele>
        <time>2023-08-15T13:03:09.708Z</time>
      </trkpt>
      <trkpt lat="43.80994" lon="2.96094">
        <ele>596</ele>
        <time>2023-08-15T13:03:14.148Z</time>
      </trkpt>
      <trkpt lat="43.81" lon="2.9609">
        <ele>596</ele>
        <time>2023-08-15T13:03:18.508Z</time>
      </trkpt>
      <trkpt lat="43.81007" lon="2.96087">
        <ele>596</ele>
        <time>2023-08-15T13:03:22.909Z</time>
      </trkpt>
      <trkpt lat="43.81013" lon="2.96086">
        <ele>596</ele>
        <time>2023-08-15T13:03:27.308Z</time>
      </trkpt>
      <trkpt lat="43.8102" lon="2.96084">
        <ele>602</ele>
        <time>2023-08-15T13:03:31.688Z</time>
      </trkpt>
      <trkpt lat="43.81025" lon="2.96081">
        <ele>602</ele>
        <time>2023-08-15T13:03:36.129Z</time>
      </trkpt>
      <trkpt lat="43.81029" lon="2.96075">
        <ele>602</ele>
        <time>2023-08-15T13:03:41.028Z</time>
      </trkpt>
      <trkpt lat="43.81033" lon="2.96069">
        <ele>594</ele>
        <time>2023-08-15T13:03:45.412Z</time>
      </trkpt>
      <trkpt lat="43.81036" lon="2.96065">
        <ele>594</ele>
        <time>2023-08-15T13:03:49.349Z</time>
      </trkpt>
      <trkpt lat="43.81041" lon="2.96061">
        <ele>594</ele>
        <time>2023-08-15T13:03:54.308Z</time>
      </trkpt>
      <trkpt lat="43.81047" lon="2.96056">
        <ele>602</ele>
        <time>2023-08-15T13:04:11.948Z</time>
      </trkpt>
      <trkpt lat="43.81051" lon="2.96053">
        <ele>602</ele>
        <time>2023-08-15T13:04:16.309Z</time>
      </trkpt>
      <trkpt lat="43.81055" lon="2.96046">
        <ele>602</ele>
        <time>2023-08-15T13:04:20.748Z</time>
      </trkpt>
      <trkpt lat="43.81058" lon="2.96039">
        <ele>596</ele>
        <time>2023-08-15T13:04:25.129Z</time>
      </trkpt>
      <trkpt lat="43.81059" lon="2.96035">
        <ele>596</ele>
        <time>2023-08-15T13:04:29.608Z</time>
      </trkpt>
      <trkpt lat="43.81058" lon="2.96035">
        <ele>596</ele>
        <time>2023-08-15T13:04:34.009Z</time>
      </trkpt>
      <trkpt lat="43.81059" lon="2.9603">
        <ele>596</ele>
        <time>2023-08-15T13:04:37.948Z</time>
      </trkpt>
      <trkpt lat="43.81065" lon="2.96019">
        <ele>596</ele>
        <time>2023-08-15T13:04:42.929Z</time>
      </trkpt>
      <trkpt lat="43.81068" lon="2.96015">
        <ele>596</ele>
        <time>2023-08-15T13:04:47.348Z</time>
      </trkpt>
      <trkpt lat="43.8107" lon="2.96009">
        <ele>600</ele>
        <time>2023-08-15T13:04:51.229Z</time>
      </trkpt>
      <trkpt lat="43.81073" lon="2.95999">
        <ele>600</ele>
        <time>2023-08-15T13:04:56.009Z</time>
      </trkpt>
      <trkpt lat="43.81075" lon="2.95989">
        <ele>600</ele>
        <time>2023-08-15T13:05:00.348Z</time>
      </trkpt>
      <trkpt lat="43.81079" lon="2.95978">
        <ele>597</ele>
        <time>2023-08-15T13:05:04.788Z</time>
      </trkpt>
      <trkpt lat="43.81082" lon="2.95968">
        <ele>597</ele>
        <time>2023-08-15T13:05:09.169Z</time>
      </trkpt>
      <trkpt lat="43.81086" lon="2.95959">
        <ele>597</ele>
        <time>2023-08-15T13:05:13.628Z</time>
      </trkpt>
      <trkpt lat="43.81087" lon="2.9595">
        <ele>593</ele>
        <time>2023-08-15T13:05:18.009Z</time>
      </trkpt>
      <trkpt lat="43.81086" lon="2.95941">
        <ele>593</ele>
        <time>2023-08-15T13:05:22.407Z</time>
      </trkpt>
      <trkpt lat="43.81079" lon="2.9594">
        <ele>593</ele>
        <time>2023-08-15T13:05:26.888Z</time>
      </trkpt>
      <trkpt lat="43.81077" lon="2.95943">
        <ele>593</ele>
        <time>2023-08-15T13:05:31.370Z</time>
      </trkpt>
      <trkpt lat="43.81076" lon="2.9595">
        <ele>593</ele>
        <time>2023-08-15T13:05:35.848Z</time>
      </trkpt>
      <trkpt lat="43.81075" lon="2.95959">
        <ele>597</ele>
        <time>2023-08-15T13:05:40.249Z</time>
      </trkpt>
      <trkpt lat="43.81074" lon="2.95968">
        <ele>597</ele>
        <time>2023-08-15T13:05:45.308Z</time>
      </trkpt>
      <trkpt lat="43.81072" lon="2.95976">
        <ele>597</ele>
        <time>2023-08-15T13:05:49.228Z</time>
      </trkpt>
      <trkpt lat="43.81069" lon="2.95982">
        <ele>586</ele>
        <time>2023-08-15T13:05:54.188Z</time>
      </trkpt>
      <trkpt lat="43.81067" lon="2.95988">
        <ele>592</ele>
        <time>2023-08-15T13:05:58.568Z</time>
      </trkpt>
      <trkpt lat="43.81064" lon="2.95994">
        <ele>592</ele>
        <time>2023-08-15T13:06:03.009Z</time>
      </trkpt>
      <trkpt lat="43.8106" lon="2.95999">
        <ele>592</ele>
        <time>2023-08-15T13:06:07.389Z</time>
      </trkpt>
      <trkpt lat="43.81055" lon="2.96004">
        <ele>592</ele>
        <time>2023-08-15T13:06:11.268Z</time>
      </trkpt>
      <trkpt lat="43.81049" lon="2.96002">
        <ele>592</ele>
        <time>2023-08-15T13:06:15.648Z</time>
      </trkpt>
      <trkpt lat="43.81047" lon="2.96001">
        <ele>592</ele>
        <time>2023-08-15T13:06:19.528Z</time>
      </trkpt>
      <trkpt lat="43.81043" lon="2.96001">
        <ele>592</ele>
        <time>2023-08-15T13:06:23.889Z</time>
      </trkpt>
      <trkpt lat="43.81038" lon="2.96003">
        <ele>581</ele>
        <time>2023-08-15T13:06:28.229Z</time>
      </trkpt>
      <trkpt lat="43.8103" lon="2.96008">
        <ele>581</ele>
        <time>2023-08-15T13:06:33.089Z</time>
      </trkpt>
      <trkpt lat="43.81024" lon="2.96014">
        <ele>581</ele>
        <time>2023-08-15T13:06:37.009Z</time>
      </trkpt>
      <trkpt lat="43.81019" lon="2.96019">
        <ele>588</ele>
        <time>2023-08-15T13:06:41.909Z</time>
      </trkpt>
      <trkpt lat="43.81018" lon="2.96021">
        <ele>588</ele>
        <time>2023-08-15T13:06:46.249Z</time>
      </trkpt>
      <trkpt lat="43.81015" lon="2.96023">
        <ele>588</ele>
        <time>2023-08-15T13:06:50.168Z</time>
      </trkpt>
      <trkpt lat="43.81011" lon="2.96025">
        <ele>582</ele>
        <time>2023-08-15T13:06:54.628Z</time>
      </trkpt>
      <trkpt lat="43.81004" lon="2.96026">
        <ele>582</ele>
        <time>2023-08-15T13:06:58.989Z</time>
      </trkpt>
      <trkpt lat="43.80998" lon="2.96022">
        <ele>582</ele>
        <time>2023-08-15T13:07:03.410Z</time>
      </trkpt>
      <trkpt lat="43.80995" lon="2.96021">
        <ele>582</ele>
        <time>2023-08-15T13:07:07.928Z</time>
      </trkpt>
      <trkpt lat="43.80988" lon="2.96022">
        <ele>582</ele>
        <time>2023-08-15T13:07:12.349Z</time>
      </trkpt>
      <trkpt lat="43.80984" lon="2.96021">
        <ele>573</ele>
        <time>2023-08-15T13:07:16.808Z</time>
      </trkpt>
      <trkpt lat="43.80981" lon="2.96021">
        <ele>573</ele>
        <time>2023-08-15T13:07:21.228Z</time>
      </trkpt>
      <trkpt lat="43.80974" lon="2.96026">
        <ele>573</ele>
        <time>2023-08-15T13:07:25.528Z</time>
      </trkpt>
      <trkpt lat="43.80968" lon="2.9603">
        <ele>573</ele>
        <time>2023-08-15T13:07:30.008Z</time>
      </trkpt>
      <trkpt lat="43.80962" lon="2.96035">
        <ele>573</ele>
        <time>2023-08-15T13:07:34.405Z</time>
      </trkpt>
      <trkpt lat="43.80956" lon="2.96041">
        <ele>565</ele>
        <time>2023-08-15T13:07:38.808Z</time>
      </trkpt>
      <trkpt lat="43.80949" lon="2.96042">
        <ele>573</ele>
        <time>2023-08-15T13:07:43.209Z</time>
      </trkpt>
      <trkpt lat="43.80943" lon="2.96046">
        <ele>573</ele>
        <time>2023-08-15T13:07:48.189Z</time>
      </trkpt>
      <trkpt lat="43.8094" lon="2.9605">
        <ele>573</ele>
        <time>2023-08-15T13:07:52.069Z</time>
      </trkpt>
      <trkpt lat="43.80936" lon="2.96055">
        <ele>573</ele>
        <time>2023-08-15T13:07:56.415Z</time>
      </trkpt>
      <trkpt lat="43.80931" lon="2.9606">
        <ele>573</ele>
        <time>2023-08-15T13:08:00.828Z</time>
      </trkpt>
      <trkpt lat="43.80931" lon="2.96066">
        <ele>573</ele>
        <time>2023-08-15T13:08:19.273Z</time>
      </trkpt>
      <trkpt lat="43.80931" lon="2.96068">
        <ele>573</ele>
        <time>2023-08-15T13:08:23.388Z</time>
      </trkpt>
      <trkpt lat="43.80929" lon="2.96071">
        <ele>576</ele>
        <time>2023-08-15T13:08:27.655Z</time>
      </trkpt>
      <trkpt lat="43.80926" lon="2.96075">
        <ele>576</ele>
        <time>2023-08-15T13:08:32.075Z</time>
      </trkpt>
      <trkpt lat="43.80922" lon="2.96081">
        <ele>576</ele>
        <time>2023-08-15T13:08:35.936Z</time>
      </trkpt>
      <trkpt lat="43.80918" lon="2.96087">
        <ele>576</ele>
        <time>2023-08-15T13:08:40.915Z</time>
      </trkpt>
      <trkpt lat="43.80913" lon="2.96092">
        <ele>576</ele>
        <time>2023-08-15T13:08:45.376Z</time>
      </trkpt>
      <trkpt lat="43.80908" lon="2.96097">
        <ele>576</ele>
        <time>2023-08-15T13:08:49.216Z</time>
      </trkpt>
      <trkpt lat="43.80904" lon="2.96099">
        <ele>585</ele>
        <time>2023-08-15T13:08:53.469Z</time>
      </trkpt>
      <trkpt lat="43.80901" lon="2.96102">
        <ele>575</ele>
        <time>2023-08-15T13:08:57.855Z</time>
      </trkpt>
      <trkpt lat="43.80897" lon="2.96106">
        <ele>575</ele>
        <time>2023-08-15T13:09:02.376Z</time>
      </trkpt>
      <trkpt lat="43.80892" lon="2.96111">
        <ele>575</ele>
        <time>2023-08-15T13:09:06.715Z</time>
      </trkpt>
      <trkpt lat="43.80887" lon="2.96115">
        <ele>575</ele>
        <time>2023-08-15T13:09:10.595Z</time>
      </trkpt>
      <trkpt lat="43.80881" lon="2.96118">
        <ele>575</ele>
        <time>2023-08-15T13:09:14.936Z</time>
      </trkpt>
      <trkpt lat="43.80876" lon="2.96123">
        <ele>575</ele>
        <time>2023-08-15T13:09:19.316Z</time>
      </trkpt>
      <trkpt lat="43.80874" lon="2.96128">
        <ele>573</ele>
        <time>2023-08-15T13:09:24.376Z</time>
      </trkpt>
      <trkpt lat="43.8087" lon="2.96132">
        <ele>573</ele>
        <time>2023-08-15T13:09:28.835Z</time>
      </trkpt>
      <trkpt lat="43.80865" lon="2.96137">
        <ele>573</ele>
        <time>2023-08-15T13:09:33.156Z</time>
      </trkpt>
      <trkpt lat="43.8086" lon="2.96141">
        <ele>573</ele>
        <time>2023-08-15T13:09:37.515Z</time>
      </trkpt>
      <trkpt lat="43.80855" lon="2.96146">
        <ele>573</ele>
        <time>2023-08-15T13:09:41.995Z</time>
      </trkpt>
      <trkpt lat="43.8085" lon="2.96151">
        <ele>573</ele>
        <time>2023-08-15T13:09:46.356Z</time>
      </trkpt>
      <trkpt lat="43.80842" lon="2.96154">
        <ele>579</ele>
        <time>2023-08-15T13:09:55.236Z</time>
      </trkpt>
      <trkpt lat="43.80842" lon="2.9615">
        <ele>569</ele>
        <time>2023-08-15T13:09:59.615Z</time>
      </trkpt>
      <trkpt lat="43.80841" lon="2.9615">
        <ele>569</ele>
        <time>2023-08-15T13:10:03.976Z</time>
      </trkpt>
      <trkpt lat="43.80837" lon="2.96152">
        <ele>569</ele>
        <time>2023-08-15T13:10:08.418Z</time>
      </trkpt>
      <trkpt lat="43.80829" lon="2.96155">
        <ele>579</ele>
        <time>2023-08-15T13:10:12.835Z</time>
      </trkpt>
      <trkpt lat="43.80823" lon="2.9616">
        <ele>579</ele>
        <time>2023-08-15T13:10:17.235Z</time>
      </trkpt>
      <trkpt lat="43.80815" lon="2.96164">
        <ele>570</ele>
        <time>2023-08-15T13:10:22.195Z</time>
      </trkpt>
      <trkpt lat="43.80809" lon="2.96166">
        <ele>570</ele>
        <time>2023-08-15T13:10:26.575Z</time>
      </trkpt>
      <trkpt lat="43.80804" lon="2.96168">
        <ele>570</ele>
        <time>2023-08-15T13:10:31.036Z</time>
      </trkpt>
      <trkpt lat="43.80797" lon="2.9617">
        <ele>570</ele>
        <time>2023-08-15T13:10:35.495Z</time>
      </trkpt>
      <trkpt lat="43.80792" lon="2.96174">
        <ele>570</ele>
        <time>2023-08-15T13:10:39.855Z</time>
      </trkpt>
      <trkpt lat="43.80788" lon="2.9618">
        <ele>557</ele>
        <time>2023-08-15T13:10:44.316Z</time>
      </trkpt>
      <trkpt lat="43.80783" lon="2.96184">
        <ele>563</ele>
        <time>2023-08-15T13:10:48.755Z</time>
      </trkpt>
      <trkpt lat="43.8078" lon="2.96186">
        <ele>563</ele>
        <time>2023-08-15T13:10:53.155Z</time>
      </trkpt>
      <trkpt lat="43.80775" lon="2.96189">
        <ele>563</ele>
        <time>2023-08-15T13:10:58.076Z</time>
      </trkpt>
      <trkpt lat="43.80769" lon="2.96192">
        <ele>563</ele>
        <time>2023-08-15T13:11:02.424Z</time>
      </trkpt>
      <trkpt lat="43.80764" lon="2.96194">
        <ele>563</ele>
        <time>2023-08-15T13:11:06.815Z</time>
      </trkpt>
      <trkpt lat="43.80759" lon="2.96198">
        <ele>555</ele>
        <time>2023-08-15T13:11:11.255Z</time>
      </trkpt>
      <trkpt lat="43.80754" lon="2.96203">
        <ele>555</ele>
        <time>2023-08-15T13:11:15.595Z</time>
      </trkpt>
      <trkpt lat="43.80749" lon="2.96208">
        <ele>555</ele>
        <time>2023-08-15T13:11:19.995Z</time>
      </trkpt>
      <trkpt lat="43.80742" lon="2.96208">
        <ele>555</ele>
        <time>2023-08-15T13:11:24.955Z</time>
      </trkpt>
      <trkpt lat="43.8074" lon="2.96201">
        <ele>555</ele>
        <time>2023-08-15T13:11:28.896Z</time>
      </trkpt>
      <trkpt lat="43.80743" lon="2.96196">
        <ele>555</ele>
        <time>2023-08-15T13:11:33.316Z</time>
      </trkpt>
      <trkpt lat="43.80751" lon="2.96193">
        <ele>555</ele>
        <time>2023-08-15T13:11:37.735Z</time>
      </trkpt>
      <trkpt lat="43.80759" lon="2.96195">
        <ele>555</ele>
        <time>2023-08-15T13:11:42.156Z</time>
      </trkpt>
      <trkpt lat="43.80768" lon="2.96196">
        <ele>563</ele>
        <time>2023-08-15T13:11:47.016Z</time>
      </trkpt>
      <trkpt lat="43.80775" lon="2.96196">
        <ele>563</ele>
        <time>2023-08-15T13:11:50.936Z</time>
      </trkpt>
      <trkpt lat="43.80781" lon="2.96196">
        <ele>563</ele>
        <time>2023-08-15T13:11:55.936Z</time>
      </trkpt>
      <trkpt lat="43.80786" lon="2.96196">
        <ele>563</ele>
        <time>2023-08-15T13:12:00.336Z</time>
      </trkpt>
      <trkpt lat="43.80793" lon="2.96192">
        <ele>575</ele>
        <time>2023-08-15T13:12:04.735Z</time>
      </trkpt>
      <trkpt lat="43.80798" lon="2.96187">
        <ele>575</ele>
        <time>2023-08-15T13:12:09.136Z</time>
      </trkpt>
      <trkpt lat="43.80802" lon="2.9618">
        <ele>570</ele>
        <time>2023-08-15T13:12:13.495Z</time>
      </trkpt>
      <trkpt lat="43.80806" lon="2.96172">
        <ele>570</ele>
        <time>2023-08-15T13:12:17.896Z</time>
      </trkpt>
      <trkpt lat="43.8081" lon="2.96164">
        <ele>570</ele>
        <time>2023-08-15T13:12:22.196Z</time>
      </trkpt>
      <trkpt lat="43.80815" lon="2.96157">
        <ele>570</ele>
        <time>2023-08-15T13:12:27.176Z</time>
      </trkpt>
      <trkpt lat="43.80819" lon="2.9615">
        <ele>563</ele>
        <time>2023-08-15T13:12:31.615Z</time>
      </trkpt>
      <trkpt lat="43.80824" lon="2.96145">
        <ele>569</ele>
        <time>2023-08-15T13:12:36.076Z</time>
      </trkpt>
      <trkpt lat="43.80827" lon="2.9614">
        <ele>569</ele>
        <time>2023-08-15T13:12:40.376Z</time>
      </trkpt>
      <trkpt lat="43.80831" lon="2.96134">
        <ele>569</ele>
        <time>2023-08-15T13:12:44.815Z</time>
      </trkpt>
      <trkpt lat="43.80834" lon="2.96129">
        <ele>569</ele>
        <time>2023-08-15T13:12:49.196Z</time>
      </trkpt>
      <trkpt lat="43.80837" lon="2.96124">
        <ele>559</ele>
        <time>2023-08-15T13:12:54.075Z</time>
      </trkpt>
      <trkpt lat="43.80839" lon="2.9612">
        <ele>559</ele>
        <time>2023-08-15T13:12:57.996Z</time>
      </trkpt>
      <trkpt lat="43.80842" lon="2.96115">
        <ele>559</ele>
        <time>2023-08-15T13:13:02.916Z</time>
      </trkpt>
      <trkpt lat="43.80844" lon="2.9611">
        <ele>559</ele>
        <time>2023-08-15T13:13:07.375Z</time>
      </trkpt>
      <trkpt lat="43.80848" lon="2.96104">
        <ele>564</ele>
        <time>2023-08-15T13:13:11.855Z</time>
      </trkpt>
      <trkpt lat="43.80851" lon="2.96099">
        <ele>564</ele>
        <time>2023-08-15T13:13:16.255Z</time>
      </trkpt>
      <trkpt lat="43.80855" lon="2.96094">
        <ele>557</ele>
        <time>2023-08-15T13:13:20.715Z</time>
      </trkpt>
      <trkpt lat="43.80859" lon="2.9609">
        <ele>557</ele>
        <time>2023-08-15T13:13:25.116Z</time>
      </trkpt>
      <trkpt lat="43.80864" lon="2.96084">
        <ele>557</ele>
        <time>2023-08-15T13:13:29.996Z</time>
      </trkpt>
      <trkpt lat="43.80869" lon="2.96079">
        <ele>557</ele>
        <time>2023-08-15T13:13:33.915Z</time>
      </trkpt>
      <trkpt lat="43.80873" lon="2.9608">
        <ele>557</ele>
        <time>2023-08-15T13:13:38.816Z</time>
      </trkpt>
      <trkpt lat="43.80878" lon="2.96078">
        <ele>566</ele>
        <time>2023-08-15T13:13:43.236Z</time>
      </trkpt>
      <trkpt lat="43.80883" lon="2.96075">
        <ele>566</ele>
        <time>2023-08-15T13:13:47.575Z</time>
      </trkpt>
      <trkpt lat="43.8089" lon="2.96073">
        <ele>566</ele>
        <time>2023-08-15T13:13:51.996Z</time>
      </trkpt>
      <trkpt lat="43.80894" lon="2.96074">
        <ele>566</ele>
        <time>2023-08-15T13:13:56.395Z</time>
      </trkpt>
      <trkpt lat="43.80894" lon="2.96076">
        <ele>566</ele>
        <time>2023-08-15T13:14:01.365Z</time>
      </trkpt>
      <trkpt lat="43.80898" lon="2.96073">
        <ele>566</ele>
        <time>2023-08-15T13:14:05.695Z</time>
      </trkpt>
      <trkpt lat="43.80904" lon="2.96068">
        <ele>565</ele>
        <time>2023-08-15T13:14:10.016Z</time>
      </trkpt>
      <trkpt lat="43.80909" lon="2.96059">
        <ele>565</ele>
        <time>2023-08-15T13:14:14.495Z</time>
      </trkpt>
      <trkpt lat="43.80912" lon="2.96049">
        <ele>565</ele>
        <time>2023-08-15T13:14:19.408Z</time>
      </trkpt>
      <trkpt lat="43.80914" lon="2.9604">
        <ele>556</ele>
        <time>2023-08-15T13:14:23.235Z</time>
      </trkpt>
      <trkpt lat="43.80915" lon="2.96033">
        <ele>556</ele>
        <time>2023-08-15T13:14:28.236Z</time>
      </trkpt>
      <trkpt lat="43.80917" lon="2.96029">
        <ele>556</ele>
        <time>2023-08-15T13:14:32.595Z</time>
      </trkpt>
      <trkpt lat="43.8092" lon="2.96022">
        <ele>556</ele>
        <time>2023-08-15T13:14:37.407Z</time>
      </trkpt>
      <trkpt lat="43.80922" lon="2.96014">
        <ele>556</ele>
        <time>2023-08-15T13:14:41.875Z</time>
      </trkpt>
      <trkpt lat="43.80924" lon="2.96008">
        <ele>552</ele>
        <time>2023-08-15T13:14:46.095Z</time>
      </trkpt>
      <trkpt lat="43.80927" lon="2.96003">
        <ele>552</ele>
        <time>2023-08-15T13:14:50.575Z</time>
      </trkpt>
      <trkpt lat="43.80931" lon="2.95996">
        <ele>559</ele>
        <time>2023-08-15T13:14:54.896Z</time>
      </trkpt>
      <trkpt lat="43.80935" lon="2.95991">
        <ele>559</ele>
        <time>2023-08-15T13:14:59.296Z</time>
      </trkpt>
      <trkpt lat="43.8094" lon="2.95986">
        <ele>554</ele>
        <time>2023-08-15T13:15:04.276Z</time>
      </trkpt>
      <trkpt lat="43.80947" lon="2.95983">
        <ele>554</ele>
        <time>2023-08-15T13:15:08.575Z</time>
      </trkpt>
      <trkpt lat="43.80954" lon="2.95979">
        <ele>554</ele>
        <time>2023-08-15T13:15:13.015Z</time>
      </trkpt>
      <trkpt lat="43.80958" lon="2.95975">
        <ele>554</ele>
        <time>2023-08-15T13:15:17.417Z</time>
      </trkpt>
      <trkpt lat="43.80964" lon="2.95971">
        <ele>558</ele>
        <time>2023-08-15T13:15:21.915Z</time>
      </trkpt>
      <trkpt lat="43.80968" lon="2.95968">
        <ele>558</ele>
        <time>2023-08-15T13:15:26.236Z</time>
      </trkpt>
      <trkpt lat="43.80971" lon="2.95968">
        <ele>558</ele>
        <time>2023-08-15T13:15:30.695Z</time>
      </trkpt>
      <trkpt lat="43.80972" lon="2.95968">
        <ele>558</ele>
        <time>2023-08-15T13:15:35.056Z</time>
      </trkpt>
      <trkpt lat="43.80976" lon="2.95963">
        <ele>558</ele>
        <time>2023-08-15T13:15:39.424Z</time>
      </trkpt>
      <trkpt lat="43.80979" lon="2.95961">
        <ele>558</ele>
        <time>2023-08-15T13:15:43.895Z</time>
      </trkpt>
      <trkpt lat="43.80979" lon="2.95961">
        <ele>558</ele>
        <time>2023-08-15T13:15:47.715Z</time>
      </trkpt>
      <trkpt lat="43.8098" lon="2.95958">
        <ele>552</ele>
        <time>2023-08-15T13:15:52.155Z</time>
      </trkpt>
      <trkpt lat="43.80984" lon="2.95951">
        <ele>552</ele>
        <time>2023-08-15T13:15:56.575Z</time>
      </trkpt>
      <trkpt lat="43.8099" lon="2.95944">
        <ele>558</ele>
        <time>2023-08-15T13:16:00.996Z</time>
      </trkpt>
      <trkpt lat="43.80998" lon="2.95938">
        <ele>558</ele>
        <time>2023-08-15T13:16:05.935Z</time>
      </trkpt>
      <trkpt lat="43.81004" lon="2.95936">
        <ele>558</ele>
        <time>2023-08-15T13:16:09.876Z</time>
      </trkpt>
      <trkpt lat="43.81011" lon="2.95935">
        <ele>558</ele>
        <time>2023-08-15T13:16:14.335Z</time>
      </trkpt>
      <trkpt lat="43.81017" lon="2.95933">
        <ele>565</ele>
        <time>2023-08-15T13:16:18.715Z</time>
      </trkpt>
      <trkpt lat="43.81023" lon="2.95928">
        <ele>561</ele>
        <time>2023-08-15T13:16:23.056Z</time>
      </trkpt>
      <trkpt lat="43.81025" lon="2.9592">
        <ele>561</ele>
        <time>2023-08-15T13:16:28.016Z</time>
      </trkpt>
      <trkpt lat="43.81024" lon="2.95914">
        <ele>561</ele>
        <time>2023-08-15T13:16:32.409Z</time>
      </trkpt>
      <trkpt lat="43.81021" lon="2.95908">
        <ele>561</ele>
        <time>2023-08-15T13:16:36.275Z</time>
      </trkpt>
      <trkpt lat="43.81016" lon="2.95904">
        <ele>561</ele>
        <time>2023-08-15T13:16:40.595Z</time>
      </trkpt>
      <trkpt lat="43.8101" lon="2.959">
        <ele>551</ele>
        <time>2023-08-15T13:16:44.956Z</time>
      </trkpt>
      <trkpt lat="43.81003" lon="2.95895">
        <ele>551</ele>
        <time>2023-08-15T13:16:49.336Z</time>
      </trkpt>
      <trkpt lat="43.80998" lon="2.95896">
        <ele>551</ele>
        <time>2023-08-15T13:16:53.815Z</time>
      </trkpt>
      <trkpt lat="43.80997" lon="2.95895">
        <ele>551</ele>
        <time>2023-08-15T13:16:58.255Z</time>
      </trkpt>
      <trkpt lat="43.80992" lon="2.95889">
        <ele>551</ele>
        <time>2023-08-15T13:17:02.775Z</time>
      </trkpt>
      <trkpt lat="43.80989" lon="2.95882">
        <ele>551</ele>
        <time>2023-08-15T13:17:07.236Z</time>
      </trkpt>
      <trkpt lat="43.80989" lon="2.95881">
        <ele>551</ele>
        <time>2023-08-15T13:17:11.655Z</time>
      </trkpt>
      <trkpt lat="43.80988" lon="2.95879">
        <ele>551</ele>
        <time>2023-08-15T13:17:16.136Z</time>
      </trkpt>
      <trkpt lat="43.80984" lon="2.95874">
        <ele>547</ele>
        <time>2023-08-15T13:17:20.595Z</time>
      </trkpt>
      <trkpt lat="43.80978" lon="2.95869">
        <ele>547</ele>
        <time>2023-08-15T13:17:24.976Z</time>
      </trkpt>
      <trkpt lat="43.8097" lon="2.95863">
        <ele>547</ele>
        <time>2023-08-15T13:17:29.495Z</time>
      </trkpt>
      <trkpt lat="43.80963" lon="2.95856">
        <ele>547</ele>
        <time>2023-08-15T13:17:33.916Z</time>
      </trkpt>
      <trkpt lat="43.80958" lon="2.9585">
        <ele>540</ele>
        <time>2023-08-15T13:17:38.296Z</time>
      </trkpt>
      <trkpt lat="43.80952" lon="2.95842">
        <ele>545</ele>
        <time>2023-08-15T13:17:42.715Z</time>
      </trkpt>
      <trkpt lat="43.8095" lon="2.95839">
        <ele>545</ele>
        <time>2023-08-15T13:17:47.116Z</time>
      </trkpt>
      <trkpt lat="43.80945" lon="2.95835">
        <ele>545</ele>
        <time>2023-08-15T13:17:51.996Z</time>
      </trkpt>
      <trkpt lat="43.80939" lon="2.95833">
        <ele>545</ele>
        <time>2023-08-15T13:17:56.402Z</time>
      </trkpt>
      <trkpt lat="43.80934" lon="2.95832">
        <ele>545</ele>
        <time>2023-08-15T13:18:00.815Z</time>
      </trkpt>
      <trkpt lat="43.80929" lon="2.9583">
        <ele>538</ele>
        <time>2023-08-15T13:18:05.216Z</time>
      </trkpt>
      <trkpt lat="43.80915" lon="2.95824">
        <ele>538</ele>
        <time>2023-08-15T13:18:22.595Z</time>
      </trkpt>
      <trkpt lat="43.80915" lon="2.95824">
        <ele>538</ele>
        <time>2023-08-15T13:18:27.016Z</time>
      </trkpt>
      <trkpt lat="43.80915" lon="2.95823">
        <ele>538</ele>
        <time>2023-08-15T13:18:31.424Z</time>
      </trkpt>
      <trkpt lat="43.80912" lon="2.95824">
        <ele>538</ele>
        <time>2023-08-15T13:18:35.816Z</time>
      </trkpt>
      <trkpt lat="43.80909" lon="2.95825">
        <ele>538</ele>
        <time>2023-08-15T13:18:40.256Z</time>
      </trkpt>
      <trkpt lat="43.80903" lon="2.95828">
        <ele>538</ele>
        <time>2023-08-15T13:18:44.615Z</time>
      </trkpt>
      <trkpt lat="43.80896" lon="2.95828">
        <ele>529</ele>
        <time>2023-08-15T13:18:48.976Z</time>
      </trkpt>
      <trkpt lat="43.80888" lon="2.95825">
        <ele>529</ele>
        <time>2023-08-15T13:18:53.409Z</time>
      </trkpt>
      <trkpt lat="43.80879" lon="2.95819">
        <ele>539</ele>
        <time>2023-08-15T13:18:57.815Z</time>
      </trkpt>
      <trkpt lat="43.80871" lon="2.95814">
        <ele>532</ele>
        <time>2023-08-15T13:19:02.175Z</time>
      </trkpt>
      <trkpt lat="43.80864" lon="2.9581">
        <ele>532</ele>
        <time>2023-08-15T13:19:06.424Z</time>
      </trkpt>
      <trkpt lat="43.80858" lon="2.95806">
        <ele>532</ele>
        <time>2023-08-15T13:19:10.775Z</time>
      </trkpt>
      <trkpt lat="43.80852" lon="2.95807">
        <ele>532</ele>
        <time>2023-08-15T13:19:15.036Z</time>
      </trkpt>
      <trkpt lat="43.80845" lon="2.95808">
        <ele>529</ele>
        <time>2023-08-15T13:19:19.916Z</time>
      </trkpt>
      <trkpt lat="43.80839" lon="2.95809">
        <ele>529</ele>
        <time>2023-08-15T13:19:24.296Z</time>
      </trkpt>
      <trkpt lat="43.80833" lon="2.95809">
        <ele>529</ele>
        <time>2023-08-15T13:19:28.695Z</time>
      </trkpt>
      <trkpt lat="43.80827" lon="2.95805">
        <ele>529</ele>
        <time>2023-08-15T13:19:33.075Z</time>
      </trkpt>
      <trkpt lat="43.80826" lon="2.95801">
        <ele>529</ele>
        <time>2023-08-15T13:19:36.915Z</time>
      </trkpt>
      <trkpt lat="43.80822" lon="2.95799">
        <ele>529</ele>
        <time>2023-08-15T13:19:41.875Z</time>
      </trkpt>
      <trkpt lat="43.80818" lon="2.95799">
        <ele>525</ele>
        <time>2023-08-15T13:19:46.176Z</time>
      </trkpt>
      <trkpt lat="43.80811" lon="2.95802">
        <ele>525</ele>
        <time>2023-08-15T13:19:50.595Z</time>
      </trkpt>
      <trkpt lat="43.80805" lon="2.95806">
        <ele>525</ele>
        <time>2023-08-15T13:19:54.936Z</time>
      </trkpt>
      <trkpt lat="43.80803" lon="2.95808">
        <ele>525</ele>
        <time>2023-08-15T13:19:59.395Z</time>
      </trkpt>
      <trkpt lat="43.80801" lon="2.95808">
        <ele>525</ele>
        <time>2023-08-15T13:20:04.355Z</time>
      </trkpt>
      <trkpt lat="43.80798" lon="2.9581">
        <ele>525</ele>
        <time>2023-08-15T13:20:08.196Z</time>
      </trkpt>
      <trkpt lat="43.80792" lon="2.95813">
        <ele>520</ele>
        <time>2023-08-15T13:20:13.136Z</time>
      </trkpt>
      <trkpt lat="43.80785" lon="2.95815">
        <ele>520</ele>
        <time>2023-08-15T13:20:17.575Z</time>
      </trkpt>
      <trkpt lat="43.80781" lon="2.95816">
        <ele>520</ele>
        <time>2023-08-15T13:20:22.036Z</time>
      </trkpt>
      <trkpt lat="43.80779" lon="2.95816">
        <ele>520</ele>
        <time>2023-08-15T13:20:26.396Z</time>
      </trkpt>
      <trkpt lat="43.80774" lon="2.95811">
        <ele>520</ele>
        <time>2023-08-15T13:20:30.835Z</time>
      </trkpt>
      <trkpt lat="43.80768" lon="2.95808">
        <ele>520</ele>
        <time>2023-08-15T13:20:35.216Z</time>
      </trkpt>
      <trkpt lat="43.80762" lon="2.95803">
        <ele>513</ele>
        <time>2023-08-15T13:20:39.635Z</time>
      </trkpt>
      <trkpt lat="43.80756" lon="2.95798">
        <ele>513</ele>
        <time>2023-08-15T13:20:44.076Z</time>
      </trkpt>
      <trkpt lat="43.8075" lon="2.95792">
        <ele>525</ele>
        <time>2023-08-15T13:20:48.595Z</time>
      </trkpt>
      <trkpt lat="43.80748" lon="2.95783">
        <ele>525</ele>
        <time>2023-08-15T13:20:52.895Z</time>
      </trkpt>
      <trkpt lat="43.80743" lon="2.95778">
        <ele>525</ele>
        <time>2023-08-15T13:20:57.315Z</time>
      </trkpt>
      <trkpt lat="43.80738" lon="2.95773">
        <ele>525</ele>
        <time>2023-08-15T13:21:01.715Z</time>
      </trkpt>
      <trkpt lat="43.80733" lon="2.9577">
        <ele>515</ele>
        <time>2023-08-15T13:21:06.115Z</time>
      </trkpt>
      <trkpt lat="43.80729" lon="2.95771">
        <ele>515</ele>
        <time>2023-08-15T13:21:19.356Z</time>
      </trkpt>
      <trkpt lat="43.80725" lon="2.95768">
        <ele>515</ele>
        <time>2023-08-15T13:21:23.775Z</time>
      </trkpt>
      <trkpt lat="43.80719" lon="2.95761">
        <ele>525</ele>
        <time>2023-08-15T13:21:28.176Z</time>
      </trkpt>
      <trkpt lat="43.80713" lon="2.95755">
        <ele>525</ele>
        <time>2023-08-15T13:21:32.575Z</time>
      </trkpt>
      <trkpt lat="43.80706" lon="2.95752">
        <ele>517</ele>
        <time>2023-08-15T13:21:36.996Z</time>
      </trkpt>
      <trkpt lat="43.80701" lon="2.9575">
        <ele>517</ele>
        <time>2023-08-15T13:21:41.376Z</time>
      </trkpt>
      <trkpt lat="43.80695" lon="2.95746">
        <ele>517</ele>
        <time>2023-08-15T13:21:45.815Z</time>
      </trkpt>
      <trkpt lat="43.80689" lon="2.95743">
        <ele>517</ele>
        <time>2023-08-15T13:21:50.256Z</time>
      </trkpt>
      <trkpt lat="43.80685" lon="2.95741">
        <ele>517</ele>
        <time>2023-08-15T13:21:54.176Z</time>
      </trkpt>
      <trkpt lat="43.8068" lon="2.95738">
        <ele>510</ele>
        <time>2023-08-15T13:21:59.076Z</time>
      </trkpt>
      <trkpt lat="43.80676" lon="2.95735">
        <ele>517</ele>
        <time>2023-08-15T13:22:02.916Z</time>
      </trkpt>
      <trkpt lat="43.80671" lon="2.95732">
        <ele>517</ele>
        <time>2023-08-15T13:22:07.196Z</time>
      </trkpt>
      <trkpt lat="43.80666" lon="2.9573">
        <ele>517</ele>
        <time>2023-08-15T13:22:12.115Z</time>
      </trkpt>
      <trkpt lat="43.80661" lon="2.95729">
        <ele>517</ele>
        <time>2023-08-15T13:22:16.396Z</time>
      </trkpt>
      <trkpt lat="43.80655" lon="2.95729">
        <ele>517</ele>
        <time>2023-08-15T13:22:21.335Z</time>
      </trkpt>
      <trkpt lat="43.8065" lon="2.95726">
        <ele>509</ele>
        <time>2023-08-15T13:22:25.236Z</time>
      </trkpt>
      <trkpt lat="43.80646" lon="2.95721">
        <ele>509</ele>
        <time>2023-08-15T13:22:29.634Z</time>
      </trkpt>
      <trkpt lat="43.80642" lon="2.95715">
        <ele>509</ele>
        <time>2023-08-15T13:22:33.555Z</time>
      </trkpt>
      <trkpt lat="43.80642" lon="2.95709">
        <ele>509</ele>
        <time>2023-08-15T13:22:38.055Z</time>
      </trkpt>
      <trkpt lat="43.80641" lon="2.95707">
        <ele>515</ele>
        <time>2023-08-15T13:22:42.424Z</time>
      </trkpt>
      <trkpt lat="43.80637" lon="2.95704">
        <ele>515</ele>
        <time>2023-08-15T13:22:46.935Z</time>
      </trkpt>
      <trkpt lat="43.80629" lon="2.95701">
        <ele>515</ele>
        <time>2023-08-15T13:22:51.316Z</time>
      </trkpt>
      <trkpt lat="43.80621" lon="2.95699">
        <ele>508</ele>
        <time>2023-08-15T13:22:56.235Z</time>
      </trkpt>
      <trkpt lat="43.80614" lon="2.95695">
        <ele>508</ele>
        <time>2023-08-15T13:23:00.635Z</time>
      </trkpt>
      <trkpt lat="43.80607" lon="2.95691">
        <ele>508</ele>
        <time>2023-08-15T13:23:04.976Z</time>
      </trkpt>
      <trkpt lat="43.80602" lon="2.95684">
        <ele>508</ele>
        <time>2023-08-15T13:23:09.401Z</time>
      </trkpt>
      <trkpt lat="43.80599" lon="2.95678">
        <ele>511</ele>
        <time>2023-08-15T13:23:13.275Z</time>
      </trkpt>
      <trkpt lat="43.80594" lon="2.95673">
        <ele>502</ele>
        <time>2023-08-15T13:23:17.675Z</time>
      </trkpt>
      <trkpt lat="43.80592" lon="2.95672">
        <ele>502</ele>
        <time>2023-08-15T13:23:21.495Z</time>
      </trkpt>
      <trkpt lat="43.8059" lon="2.9567">
        <ele>502</ele>
        <time>2023-08-15T13:23:26.395Z</time>
      </trkpt>
      <trkpt lat="43.80586" lon="2.95667">
        <ele>502</ele>
        <time>2023-08-15T13:23:30.775Z</time>
      </trkpt>
      <trkpt lat="43.80582" lon="2.95664">
        <ele>502</ele>
        <time>2023-08-15T13:23:35.156Z</time>
      </trkpt>
      <trkpt lat="43.80577" lon="2.95664">
        <ele>502</ele>
        <time>2023-08-15T13:23:39.016Z</time>
      </trkpt>
      <trkpt lat="43.80574" lon="2.95665">
        <ele>502</ele>
        <time>2023-08-15T13:23:43.946Z</time>
      </trkpt>
      <trkpt lat="43.8057" lon="2.95665">
        <ele>502</ele>
        <time>2023-08-15T13:23:47.856Z</time>
      </trkpt>
      <trkpt lat="43.80567" lon="2.95661">
        <ele>483</ele>
        <time>2023-08-15T13:23:52.196Z</time>
      </trkpt>
      <trkpt lat="43.80565" lon="2.95655">
        <ele>483</ele>
        <time>2023-08-15T13:23:56.515Z</time>
      </trkpt>
      <trkpt lat="43.80563" lon="2.95652">
        <ele>486</ele>
        <time>2023-08-15T13:24:00.956Z</time>
      </trkpt>
      <trkpt lat="43.80559" lon="2.95646">
        <ele>486</ele>
        <time>2023-08-15T13:24:05.356Z</time>
      </trkpt>
      <trkpt lat="43.80554" lon="2.9564">
        <ele>486</ele>
        <time>2023-08-15T13:24:09.255Z</time>
      </trkpt>
      <trkpt lat="43.80549" lon="2.95633">
        <ele>486</ele>
        <time>2023-08-15T13:24:14.255Z</time>
      </trkpt>
      <trkpt lat="43.80545" lon="2.95626">
        <ele>486</ele>
        <time>2023-08-15T13:24:18.156Z</time>
      </trkpt>
      <trkpt lat="43.8054" lon="2.9562">
        <ele>473</ele>
        <time>2023-08-15T13:24:22.595Z</time>
      </trkpt>
      <trkpt lat="43.80537" lon="2.95613">
        <ele>473</ele>
        <time>2023-08-15T13:24:26.935Z</time>
      </trkpt>
      <trkpt lat="43.80535" lon="2.95606">
        <ele>473</ele>
        <time>2023-08-15T13:24:31.388Z</time>
      </trkpt>
      <trkpt lat="43.80534" lon="2.956">
        <ele>473</ele>
        <time>2023-08-15T13:24:35.695Z</time>
      </trkpt>
      <trkpt lat="43.80536" lon="2.95596">
        <ele>478</ele>
        <time>2023-08-15T13:24:40.096Z</time>
      </trkpt>
      <trkpt lat="43.80539" lon="2.95592">
        <ele>478</ele>
        <time>2023-08-15T13:24:43.976Z</time>
      </trkpt>
      <trkpt lat="43.80545" lon="2.95589">
        <ele>491</ele>
        <time>2023-08-15T13:24:48.389Z</time>
      </trkpt>
      <trkpt lat="43.80552" lon="2.95586">
        <ele>491</ele>
        <time>2023-08-15T13:24:52.235Z</time>
      </trkpt>
      <trkpt lat="43.80557" lon="2.9558">
        <ele>491</ele>
        <time>2023-08-15T13:24:57.136Z</time>
      </trkpt>
      <trkpt lat="43.80559" lon="2.95572">
        <ele>491</ele>
        <time>2023-08-15T13:25:01.036Z</time>
      </trkpt>
      <trkpt lat="43.80562" lon="2.95564">
        <ele>487</ele>
        <time>2023-08-15T13:25:05.515Z</time>
      </trkpt>
      <trkpt lat="43.80564" lon="2.95555">
        <ele>487</ele>
        <time>2023-08-15T13:25:09.936Z</time>
      </trkpt>
      <trkpt lat="43.80565" lon="2.95548">
        <ele>487</ele>
        <time>2023-08-15T13:25:14.375Z</time>
      </trkpt>
      <trkpt lat="43.80568" lon="2.95543">
        <ele>487</ele>
        <time>2023-08-15T13:25:18.275Z</time>
      </trkpt>
      <trkpt lat="43.80571" lon="2.95538">
        <ele>490</ele>
        <time>2023-08-15T13:25:22.715Z</time>
      </trkpt>
      <trkpt lat="43.80575" lon="2.95534">
        <ele>490</ele>
        <time>2023-08-15T13:25:27.196Z</time>
      </trkpt>
      <trkpt lat="43.80576" lon="2.95528">
        <ele>490</ele>
        <time>2023-08-15T13:25:32.176Z</time>
      </trkpt>
      <trkpt lat="43.80578" lon="2.95524">
        <ele>490</ele>
        <time>2023-08-15T13:25:36.535Z</time>
      </trkpt>
      <trkpt lat="43.80582" lon="2.95518">
        <ele>490</ele>
        <time>2023-08-15T13:25:40.976Z</time>
      </trkpt>
      <trkpt lat="43.80584" lon="2.95515">
        <ele>490</ele>
        <time>2023-08-15T13:25:45.424Z</time>
      </trkpt>
      <trkpt lat="43.80586" lon="2.95513">
        <ele>478</ele>
        <time>2023-08-15T13:25:49.936Z</time>
      </trkpt>
      <trkpt lat="43.80588" lon="2.95507">
        <ele>478</ele>
        <time>2023-08-15T13:25:54.355Z</time>
      </trkpt>
      <trkpt lat="43.80591" lon="2.95501">
        <ele>478</ele>
        <time>2023-08-15T13:25:58.635Z</time>
      </trkpt>
      <trkpt lat="43.80596" lon="2.95497">
        <ele>478</ele>
        <time>2023-08-15T13:26:03.095Z</time>
      </trkpt>
      <trkpt lat="43.80603" lon="2.95495">
        <ele>489</ele>
        <time>2023-08-15T13:26:07.515Z</time>
      </trkpt>
      <trkpt lat="43.80609" lon="2.95494">
        <ele>489</ele>
        <time>2023-08-15T13:26:11.916Z</time>
      </trkpt>
      <trkpt lat="43.80615" lon="2.95494">
        <ele>489</ele>
        <time>2023-08-15T13:26:16.355Z</time>
      </trkpt>
      <trkpt lat="43.80621" lon="2.95493">
        <ele>489</ele>
        <time>2023-08-15T13:26:20.235Z</time>
      </trkpt>
      <trkpt lat="43.80629" lon="2.95492">
        <ele>493</ele>
        <time>2023-08-15T13:26:24.715Z</time>
      </trkpt>
      <trkpt lat="43.80635" lon="2.95493">
        <ele>493</ele>
        <time>2023-08-15T13:26:28.575Z</time>
      </trkpt>
      <trkpt lat="43.80642" lon="2.95495">
        <ele>493</ele>
        <time>2023-08-15T13:26:33.413Z</time>
      </trkpt>
      <trkpt lat="43.80648" lon="2.95492">
        <ele>493</ele>
        <time>2023-08-15T13:26:37.835Z</time>
      </trkpt>
      <trkpt lat="43.80652" lon="2.95486">
        <ele>482</ele>
        <time>2023-08-15T13:26:42.196Z</time>
      </trkpt>
      <trkpt lat="43.80652" lon="2.95478">
        <ele>482</ele>
        <time>2023-08-15T13:26:46.575Z</time>
      </trkpt>
      <trkpt lat="43.80654" lon="2.95471">
        <ele>486</ele>
        <time>2023-08-15T13:26:50.935Z</time>
      </trkpt>
      <trkpt lat="43.80656" lon="2.95464">
        <ele>486</ele>
        <time>2023-08-15T13:26:55.336Z</time>
      </trkpt>
      <trkpt lat="43.8066" lon="2.95457">
        <ele>474</ele>
        <time>2023-08-15T13:27:00.275Z</time>
      </trkpt>
      <trkpt lat="43.80663" lon="2.95453">
        <ele>474</ele>
        <time>2023-08-15T13:27:04.196Z</time>
      </trkpt>
      <trkpt lat="43.8067" lon="2.95451">
        <ele>474</ele>
        <time>2023-08-15T13:27:08.675Z</time>
      </trkpt>
      <trkpt lat="43.80684" lon="2.95459">
        <ele>489</ele>
        <time>2023-08-15T13:27:21.875Z</time>
      </trkpt>
      <trkpt lat="43.80684" lon="2.95459">
        <ele>489</ele>
        <time>2023-08-15T13:27:26.276Z</time>
      </trkpt>
      <trkpt lat="43.80685" lon="2.9546">
        <ele>489</ele>
        <time>2023-08-15T13:27:30.675Z</time>
      </trkpt>
      <trkpt lat="43.80685" lon="2.9546">
        <ele>489</ele>
        <time>2023-08-15T13:27:35.017Z</time>
      </trkpt>
      <trkpt lat="43.80687" lon="2.95459">
        <ele>489</ele>
        <time>2023-08-15T13:27:39.515Z</time>
      </trkpt>
      <trkpt lat="43.80693" lon="2.95456">
        <ele>476</ele>
        <time>2023-08-15T13:27:43.895Z</time>
      </trkpt>
      <trkpt lat="43.807" lon="2.95452">
        <ele>476</ele>
        <time>2023-08-15T13:27:48.256Z</time>
      </trkpt>
      <trkpt lat="43.80707" lon="2.95447">
        <ele>476</ele>
        <time>2023-08-15T13:27:52.595Z</time>
      </trkpt>
      <trkpt lat="43.80716" lon="2.95444">
        <ele>481</ele>
        <time>2023-08-15T13:27:57.035Z</time>
      </trkpt>
      <trkpt lat="43.80721" lon="2.95443">
        <ele>481</ele>
        <time>2023-08-15T13:28:01.956Z</time>
      </trkpt>
      <trkpt lat="43.80723" lon="2.95443">
        <ele>481</ele>
        <time>2023-08-15T13:28:05.855Z</time>
      </trkpt>
      <trkpt lat="43.80723" lon="2.95443">
        <ele>481</ele>
        <time>2023-08-15T13:28:10.235Z</time>
      </trkpt>
      <trkpt lat="43.80725" lon="2.95442">
        <ele>481</ele>
        <time>2023-08-15T13:28:14.595Z</time>
      </trkpt>
      <trkpt lat="43.80732" lon="2.95438">
        <ele>481</ele>
        <time>2023-08-15T13:28:18.976Z</time>
      </trkpt>
      <trkpt lat="43.80736" lon="2.95433">
        <ele>488</ele>
        <time>2023-08-15T13:28:23.935Z</time>
      </trkpt>
      <trkpt lat="43.80739" lon="2.9543">
        <ele>478</ele>
        <time>2023-08-15T13:28:28.236Z</time>
      </trkpt>
      <trkpt lat="43.80745" lon="2.95429">
        <ele>478</ele>
        <time>2023-08-15T13:28:32.635Z</time>
      </trkpt>
      <trkpt lat="43.8075" lon="2.95428">
        <ele>478</ele>
        <time>2023-08-15T13:28:36.935Z</time>
      </trkpt>
      <trkpt lat="43.80756" lon="2.95422">
        <ele>478</ele>
        <time>2023-08-15T13:28:41.934Z</time>
      </trkpt>
      <trkpt lat="43.80759" lon="2.95414">
        <ele>478</ele>
        <time>2023-08-15T13:28:46.336Z</time>
      </trkpt>
      <trkpt lat="43.80759" lon="2.95405">
        <ele>478</ele>
        <time>2023-08-15T13:28:50.755Z</time>
      </trkpt>
      <trkpt lat="43.80757" lon="2.95396">
        <ele>475</ele>
        <time>2023-08-15T13:28:55.196Z</time>
      </trkpt>
      <trkpt lat="43.80755" lon="2.95386">
        <ele>475</ele>
        <time>2023-08-15T13:29:00.036Z</time>
      </trkpt>
      <trkpt lat="43.80753" lon="2.9538">
        <ele>475</ele>
        <time>2023-08-15T13:29:03.916Z</time>
      </trkpt>
      <trkpt lat="43.80751" lon="2.95372">
        <ele>474</ele>
        <time>2023-08-15T13:29:08.396Z</time>
      </trkpt>
      <trkpt lat="43.80748" lon="2.95363">
        <ele>474</ele>
        <time>2023-08-15T13:29:13.276Z</time>
      </trkpt>
      <trkpt lat="43.80746" lon="2.95355">
        <ele>474</ele>
        <time>2023-08-15T13:29:17.156Z</time>
      </trkpt>
      <trkpt lat="43.80744" lon="2.9535">
        <ele>474</ele>
        <time>2023-08-15T13:29:22.116Z</time>
      </trkpt>
      <trkpt lat="43.80743" lon="2.95341">
        <ele>473</ele>
        <time>2023-08-15T13:29:26.424Z</time>
      </trkpt>
      <trkpt lat="43.80743" lon="2.95331">
        <ele>473</ele>
        <time>2023-08-15T13:29:30.875Z</time>
      </trkpt>
      <trkpt lat="43.80741" lon="2.95322">
        <ele>473</ele>
        <time>2023-08-15T13:29:35.235Z</time>
      </trkpt>
      <trkpt lat="43.8074" lon="2.95313">
        <ele>472</ele>
        <time>2023-08-15T13:29:39.595Z</time>
      </trkpt>
      <trkpt lat="43.80743" lon="2.9531">
        <ele>472</ele>
        <time>2023-08-15T13:29:43.915Z</time>
      </trkpt>
      <trkpt lat="43.80744" lon="2.95305">
        <ele>472</ele>
        <time>2023-08-15T13:29:48.295Z</time>
      </trkpt>
      <trkpt lat="43.80747" lon="2.95297">
        <ele>472</ele>
        <time>2023-08-15T13:29:52.695Z</time>
      </trkpt>
      <trkpt lat="43.80749" lon="2.95291">
        <ele>471</ele>
        <time>2023-08-15T13:29:56.956Z</time>
      </trkpt>
      <trkpt lat="43.80749" lon="2.95288">
        <ele>471</ele>
        <time>2023-08-15T13:30:01.412Z</time>
      </trkpt>
      <trkpt lat="43.8075" lon="2.95282">
        <ele>471</ele>
        <time>2023-08-15T13:30:05.196Z</time>
      </trkpt>
      <trkpt lat="43.80749" lon="2.95269">
        <ele>471</ele>
        <time>2023-08-15T13:30:18.495Z</time>
      </trkpt>
      <trkpt lat="43.80749" lon="2.95266">
        <ele>471</ele>
        <time>2023-08-15T13:30:22.855Z</time>
      </trkpt>
      <trkpt lat="43.80749" lon="2.95259">
        <ele>469</ele>
        <time>2023-08-15T13:30:27.295Z</time>
      </trkpt>
      <trkpt lat="43.80749" lon="2.95248">
        <ele>469</ele>
        <time>2023-08-15T13:30:32.254Z</time>
      </trkpt>
      <trkpt lat="43.80751" lon="2.95238">
        <ele>469</ele>
        <time>2023-08-15T13:30:36.055Z</time>
      </trkpt>
      <trkpt lat="43.80752" lon="2.95227">
        <ele>467</ele>
        <time>2023-08-15T13:30:41.036Z</time>
      </trkpt>
      <trkpt lat="43.80753" lon="2.95216">
        <ele>467</ele>
        <time>2023-08-15T13:30:45.424Z</time>
      </trkpt>
      <trkpt lat="43.80752" lon="2.95206">
        <ele>467</ele>
        <time>2023-08-15T13:30:50.376Z</time>
      </trkpt>
      <trkpt lat="43.80752" lon="2.95196">
        <ele>467</ele>
        <time>2023-08-15T13:30:54.715Z</time>
      </trkpt>
      <trkpt lat="43.80751" lon="2.95187">
        <ele>467</ele>
        <time>2023-08-15T13:30:59.036Z</time>
      </trkpt>
      <trkpt lat="43.8075" lon="2.95184">
        <ele>467</ele>
        <time>2023-08-15T13:31:02.935Z</time>
      </trkpt>
      <trkpt lat="43.80748" lon="2.95179">
        <ele>466</ele>
        <time>2023-08-15T13:31:07.315Z</time>
      </trkpt>
      <trkpt lat="43.80746" lon="2.95172">
        <ele>466</ele>
        <time>2023-08-15T13:31:11.755Z</time>
      </trkpt>
      <trkpt lat="43.80746" lon="2.95169">
        <ele>466</ele>
        <time>2023-08-15T13:31:16.137Z</time>
      </trkpt>
      <trkpt lat="43.80746" lon="2.95161">
        <ele>466</ele>
        <time>2023-08-15T13:31:20.016Z</time>
      </trkpt>
      <trkpt lat="43.80746" lon="2.95154">
        <ele>466</ele>
        <time>2023-08-15T13:31:24.424Z</time>
      </trkpt>
      <trkpt lat="43.80748" lon="2.95146">
        <ele>463</ele>
        <time>2023-08-15T13:31:29.396Z</time>
      </trkpt>
      <trkpt lat="43.80749" lon="2.95144">
        <ele>463</ele>
        <time>2023-08-15T13:31:33.855Z</time>
      </trkpt>
      <trkpt lat="43.8075" lon="2.95141">
        <ele>463</ele>
        <time>2023-08-15T13:31:37.815Z</time>
      </trkpt>
      <trkpt lat="43.80751" lon="2.95136">
        <ele>463</ele>
        <time>2023-08-15T13:31:42.256Z</time>
      </trkpt>
      <trkpt lat="43.80751" lon="2.95127">
        <ele>463</ele>
        <time>2023-08-15T13:31:46.595Z</time>
      </trkpt>
      <trkpt lat="43.80752" lon="2.95118">
        <ele>458</ele>
        <time>2023-08-15T13:31:51.055Z</time>
      </trkpt>
      <trkpt lat="43.80751" lon="2.95113">
        <ele>458</ele>
        <time>2023-08-15T13:31:55.976Z</time>
      </trkpt>
      <trkpt lat="43.80749" lon="2.95107">
        <ele>458</ele>
        <time>2023-08-15T13:32:00.374Z</time>
      </trkpt>
      <trkpt lat="43.80743" lon="2.95104">
        <ele>458</ele>
        <time>2023-08-15T13:32:04.775Z</time>
      </trkpt>
      <trkpt lat="43.8074" lon="2.95111">
        <ele>458</ele>
        <time>2023-08-15T13:32:09.136Z</time>
      </trkpt>
      <trkpt lat="43.80741" lon="2.95122">
        <ele>458</ele>
        <time>2023-08-15T13:32:13.555Z</time>
      </trkpt>
      <trkpt lat="43.80743" lon="2.95129">
        <ele>463</ele>
        <time>2023-08-15T13:32:17.936Z</time>
      </trkpt>
      <trkpt lat="43.80744" lon="2.95137">
        <ele>463</ele>
        <time>2023-08-15T13:32:22.397Z</time>
      </trkpt>
      <trkpt lat="43.80742" lon="2.95147">
        <ele>463</ele>
        <time>2023-08-15T13:32:26.715Z</time>
      </trkpt>
      <trkpt lat="43.80739" lon="2.95156">
        <ele>466</ele>
        <time>2023-08-15T13:32:31.176Z</time>
      </trkpt>
      <trkpt lat="43.80735" lon="2.95161">
        <ele>447</ele>
        <time>2023-08-15T13:32:35.535Z</time>
      </trkpt>
      <trkpt lat="43.80734" lon="2.95169">
        <ele>447</ele>
        <time>2023-08-15T13:32:39.956Z</time>
      </trkpt>
      <trkpt lat="43.80733" lon="2.95178">
        <ele>447</ele>
        <time>2023-08-15T13:32:44.376Z</time>
      </trkpt>
      <trkpt lat="43.80731" lon="2.95186">
        <ele>449</ele>
        <time>2023-08-15T13:32:48.815Z</time>
      </trkpt>
      <trkpt lat="43.80729" lon="2.95194">
        <ele>449</ele>
        <time>2023-08-15T13:32:53.196Z</time>
      </trkpt>
      <trkpt lat="43.80728" lon="2.95202">
        <ele>449</ele>
        <time>2023-08-15T13:32:57.635Z</time>
      </trkpt>
      <trkpt lat="43.80726" lon="2.9521">
        <ele>451</ele>
        <time>2023-08-15T13:33:01.976Z</time>
      </trkpt>
      <trkpt lat="43.80727" lon="2.95215">
        <ele>451</ele>
        <time>2023-08-15T13:33:06.356Z</time>
      </trkpt>
      <trkpt lat="43.80726" lon="2.95224">
        <ele>451</ele>
        <time>2023-08-15T13:33:10.755Z</time>
      </trkpt>
      <trkpt lat="43.80725" lon="2.95232">
        <ele>451</ele>
        <time>2023-08-15T13:33:15.155Z</time>
      </trkpt>
      <trkpt lat="43.80723" lon="2.95241">
        <ele>456</ele>
        <time>2023-08-15T13:33:28.297Z</time>
      </trkpt>
      <trkpt lat="43.80722" lon="2.95244">
        <ele>456</ele>
        <time>2023-08-15T13:33:32.755Z</time>
      </trkpt>
      <trkpt lat="43.80722" lon="2.95247">
        <ele>456</ele>
        <time>2023-08-15T13:33:37.236Z</time>
      </trkpt>
      <trkpt lat="43.80721" lon="2.95251">
        <ele>456</ele>
        <time>2023-08-15T13:33:41.595Z</time>
      </trkpt>
      <trkpt lat="43.8072" lon="2.9526">
        <ele>456</ele>
        <time>2023-08-15T13:33:46.016Z</time>
      </trkpt>
      <trkpt lat="43.80718" lon="2.95271">
        <ele>458</ele>
        <time>2023-08-15T13:33:50.424Z</time>
      </trkpt>
      <trkpt lat="43.80717" lon="2.95282">
        <ele>458</ele>
        <time>2023-08-15T13:33:54.875Z</time>
      </trkpt>
      <trkpt lat="43.80717" lon="2.95291">
        <ele>458</ele>
        <time>2023-08-15T13:33:59.316Z</time>
      </trkpt>
      <trkpt lat="43.80716" lon="2.95298">
        <ele>458</ele>
        <time>2023-08-15T13:34:03.735Z</time>
      </trkpt>
      <trkpt lat="43.80714" lon="2.95306">
        <ele>458</ele>
        <time>2023-08-15T13:34:08.115Z</time>
      </trkpt>
      <trkpt lat="43.80711" lon="2.95314">
        <ele>458</ele>
        <time>2023-08-15T13:34:12.996Z</time>
      </trkpt>
      <trkpt lat="43.80707" lon="2.95321">
        <ele>443</ele>
        <time>2023-08-15T13:34:17.418Z</time>
      </trkpt>
      <trkpt lat="43.80703" lon="2.95327">
        <ele>443</ele>
        <time>2023-08-15T13:34:21.855Z</time>
      </trkpt>
      <trkpt lat="43.80697" lon="2.95336">
        <ele>443</ele>
        <time>2023-08-15T13:34:47.555Z</time>
      </trkpt>
      <trkpt lat="43.80695" lon="2.95329">
        <ele>443</ele>
        <time>2023-08-15T13:34:51.936Z</time>
      </trkpt>
      <trkpt lat="43.80698" lon="2.95322">
        <ele>443</ele>
        <time>2023-08-15T13:34:56.375Z</time>
      </trkpt>
      <trkpt lat="43.80702" lon="2.95315">
        <ele>442</ele>
        <time>2023-08-15T13:35:00.795Z</time>
      </trkpt>
      <trkpt lat="43.80705" lon="2.95308">
        <ele>442</ele>
        <time>2023-08-15T13:35:05.216Z</time>
      </trkpt>
      <trkpt lat="43.80708" lon="2.95301">
        <ele>442</ele>
        <time>2023-08-15T13:35:09.595Z</time>
      </trkpt>
      <trkpt lat="43.80708" lon="2.953">
        <ele>442</ele>
        <time>2023-08-15T13:35:14.075Z</time>
      </trkpt>
      <trkpt lat="43.80709" lon="2.95296">
        <ele>458</ele>
        <time>2023-08-15T13:35:18.412Z</time>
      </trkpt>
      <trkpt lat="43.80711" lon="2.95289">
        <ele>458</ele>
        <time>2023-08-15T13:35:22.855Z</time>
      </trkpt>
      <trkpt lat="43.80711" lon="2.9528">
        <ele>458</ele>
        <time>2023-08-15T13:35:26.715Z</time>
      </trkpt>
      <trkpt lat="43.8071" lon="2.9527">
        <ele>458</ele>
        <time>2023-08-15T13:35:31.056Z</time>
      </trkpt>
      <trkpt lat="43.80708" lon="2.95259">
        <ele>441</ele>
        <time>2023-08-15T13:35:35.995Z</time>
      </trkpt>
      <trkpt lat="43.80707" lon="2.95249">
        <ele>441</ele>
        <time>2023-08-15T13:35:40.376Z</time>
      </trkpt>
      <trkpt lat="43.80707" lon="2.95241">
        <ele>441</ele>
        <time>2023-08-15T13:35:44.815Z</time>
      </trkpt>
      <trkpt lat="43.80708" lon="2.95238">
        <ele>441</ele>
        <time>2023-08-15T13:35:49.215Z</time>
      </trkpt>
      <trkpt lat="43.80708" lon="2.95231">
        <ele>434</ele>
        <time>2023-08-15T13:35:53.655Z</time>
      </trkpt>
      <trkpt lat="43.80707" lon="2.95224">
        <ele>434</ele>
        <time>2023-08-15T13:35:58.135Z</time>
      </trkpt>
      <trkpt lat="43.807" lon="2.95211">
        <ele>434</ele>
        <time>2023-08-15T13:36:11.376Z</time>
      </trkpt>
      <trkpt lat="43.80698" lon="2.95207">
        <ele>430</ele>
        <time>2023-08-15T13:36:15.255Z</time>
      </trkpt>
      <trkpt lat="43.80698" lon="2.95198">
        <ele>430</ele>
        <time>2023-08-15T13:36:20.174Z</time>
      </trkpt>
      <trkpt lat="43.80698" lon="2.9519">
        <ele>430</ele>
        <time>2023-08-15T13:36:23.996Z</time>
      </trkpt>
      <trkpt lat="43.80698" lon="2.95181">
        <ele>430</ele>
        <time>2023-08-15T13:36:28.906Z</time>
      </trkpt>
      <trkpt lat="43.807" lon="2.95172">
        <ele>430</ele>
        <time>2023-08-15T13:36:33.256Z</time>
      </trkpt>
      <trkpt lat="43.80702" lon="2.95164">
        <ele>430</ele>
        <time>2023-08-15T13:36:37.115Z</time>
      </trkpt>
      <trkpt lat="43.80705" lon="2.95155">
        <ele>430</ele>
        <time>2023-08-15T13:36:42.055Z</time>
      </trkpt>
      <trkpt lat="43.80706" lon="2.95148">
        <ele>433</ele>
        <time>2023-08-15T13:36:45.895Z</time>
      </trkpt>
      <trkpt lat="43.80709" lon="2.95139">
        <ele>446</ele>
        <time>2023-08-15T13:36:50.815Z</time>
      </trkpt>
      <trkpt lat="43.8071" lon="2.95134">
        <ele>446</ele>
        <time>2023-08-15T13:36:55.255Z</time>
      </trkpt>
      <trkpt lat="43.8071" lon="2.95126">
        <ele>446</ele>
        <time>2023-08-15T13:36:59.695Z</time>
      </trkpt>
      <trkpt lat="43.8071" lon="2.95117">
        <ele>444</ele>
        <time>2023-08-15T13:37:04.174Z</time>
      </trkpt>
      <trkpt lat="43.80709" lon="2.95108">
        <ele>444</ele>
        <time>2023-08-15T13:37:07.956Z</time>
      </trkpt>
      <trkpt lat="43.80708" lon="2.95099">
        <ele>434</ele>
        <time>2023-08-15T13:37:12.935Z</time>
      </trkpt>
      <trkpt lat="43.80708" lon="2.95094">
        <ele>432</ele>
        <time>2023-08-15T13:37:16.836Z</time>
      </trkpt>
      <trkpt lat="43.80708" lon="2.95087">
        <ele>432</ele>
        <time>2023-08-15T13:37:21.116Z</time>
      </trkpt>
      <trkpt lat="43.80709" lon="2.95079">
        <ele>442</ele>
        <time>2023-08-15T13:37:25.495Z</time>
      </trkpt>
      <trkpt lat="43.80709" lon="2.95071">
        <ele>442</ele>
        <time>2023-08-15T13:37:29.816Z</time>
      </trkpt>
      <trkpt lat="43.80708" lon="2.95069">
        <ele>431</ele>
        <time>2023-08-15T13:37:34.156Z</time>
      </trkpt>
      <trkpt lat="43.80708" lon="2.9506">
        <ele>431</ele>
        <time>2023-08-15T13:37:38.495Z</time>
      </trkpt>
      <trkpt lat="43.80708" lon="2.95051">
        <ele>431</ele>
        <time>2023-08-15T13:37:42.916Z</time>
      </trkpt>
      <trkpt lat="43.80708" lon="2.95045">
        <ele>431</ele>
        <time>2023-08-15T13:37:47.356Z</time>
      </trkpt>
      <trkpt lat="43.80708" lon="2.95037">
        <ele>429</ele>
        <time>2023-08-15T13:37:51.775Z</time>
      </trkpt>
      <trkpt lat="43.80708" lon="2.9503">
        <ele>429</ele>
        <time>2023-08-15T13:37:56.176Z</time>
      </trkpt>
      <trkpt lat="43.80708" lon="2.95024">
        <ele>429</ele>
        <time>2023-08-15T13:38:00.424Z</time>
      </trkpt>
      <trkpt lat="43.80707" lon="2.95017">
        <ele>429</ele>
        <time>2023-08-15T13:38:04.775Z</time>
      </trkpt>
      <trkpt lat="43.80706" lon="2.9501">
        <ele>425</ele>
        <time>2023-08-15T13:38:09.196Z</time>
      </trkpt>
      <trkpt lat="43.80705" lon="2.95003">
        <ele>425</ele>
        <time>2023-08-15T13:38:13.095Z</time>
      </trkpt>
      <trkpt lat="43.80703" lon="2.94994">
        <ele>425</ele>
        <time>2023-08-15T13:38:17.955Z</time>
      </trkpt>
      <trkpt lat="43.80703" lon="2.94987">
        <ele>425</ele>
        <time>2023-08-15T13:38:21.835Z</time>
      </trkpt>
      <trkpt lat="43.807" lon="2.9498">
        <ele>424</ele>
        <time>2023-08-15T13:38:26.256Z</time>
      </trkpt>
      <trkpt lat="43.80697" lon="2.94973">
        <ele>424</ele>
        <time>2023-08-15T13:38:30.695Z</time>
      </trkpt>
      <trkpt lat="43.80693" lon="2.94967">
        <ele>424</ele>
        <time>2023-08-15T13:38:35.015Z</time>
      </trkpt>
      <trkpt lat="43.8069" lon="2.94961">
        <ele>424</ele>
        <time>2023-08-15T13:38:39.417Z</time>
      </trkpt>
      <trkpt lat="43.80686" lon="2.94953">
        <ele>423</ele>
        <time>2023-08-15T13:38:43.936Z</time>
      </trkpt>
      <trkpt lat="43.80684" lon="2.94946">
        <ele>423</ele>
        <time>2023-08-15T13:38:48.335Z</time>
      </trkpt>
      <trkpt lat="43.80681" lon="2.94939">
        <ele>423</ele>
        <time>2023-08-15T13:38:53.196Z</time>
      </trkpt>
      <trkpt lat="43.80678" lon="2.94934">
        <ele>421</ele>
        <time>2023-08-15T13:38:57.175Z</time>
      </trkpt>
      <trkpt lat="43.80676" lon="2.94929">
        <ele>421</ele>
        <time>2023-08-15T13:39:02.115Z</time>
      </trkpt>
      <trkpt lat="43.80674" lon="2.94925">
        <ele>421</ele>
        <time>2023-08-15T13:39:06.424Z</time>
      </trkpt>
      <trkpt lat="43.8067" lon="2.94923">
        <ele>421</ele>
        <time>2023-08-15T13:39:10.755Z</time>
      </trkpt>
      <trkpt lat="43.80666" lon="2.94921">
        <ele>421</ele>
        <time>2023-08-15T13:39:15.076Z</time>
      </trkpt>
      <trkpt lat="43.80661" lon="2.94918">
        <ele>421</ele>
        <time>2023-08-15T13:39:20.015Z</time>
      </trkpt>
      <trkpt lat="43.80658" lon="2.94917">
        <ele>421</ele>
        <time>2023-08-15T13:39:24.424Z</time>
      </trkpt>
      <trkpt lat="43.80654" lon="2.94919">
        <ele>421</ele>
        <time>2023-08-15T13:39:28.835Z</time>
      </trkpt>
      <trkpt lat="43.80649" lon="2.94922">
        <ele>424</ele>
        <time>2023-08-15T13:39:33.635Z</time>
      </trkpt>
      <trkpt lat="43.80645" lon="2.94924">
        <ele>424</ele>
        <time>2023-08-15T13:39:38.056Z</time>
      </trkpt>
      <trkpt lat="43.80639" lon="2.94928">
        <ele>424</ele>
        <time>2023-08-15T13:39:43.056Z</time>
      </trkpt>
      <trkpt lat="43.80634" lon="2.94931">
        <ele>425</ele>
        <time>2023-08-15T13:39:47.475Z</time>
      </trkpt>
      <trkpt lat="43.80629" lon="2.94932">
        <ele>425</ele>
        <time>2023-08-15T13:39:51.915Z</time>
      </trkpt>
      <trkpt lat="43.80624" lon="2.94933">
        <ele>427</ele>
        <time>2023-08-15T13:39:56.356Z</time>
      </trkpt>
      <trkpt lat="43.80619" lon="2.94935">
        <ele>427</ele>
        <time>2023-08-15T13:40:00.715Z</time>
      </trkpt>
      <trkpt lat="43.80614" lon="2.94938">
        <ele>427</ele>
        <time>2023-08-15T13:40:05.035Z</time>
      </trkpt>
      <trkpt lat="43.8061" lon="2.94941">
        <ele>427</ele>
        <time>2023-08-15T13:40:08.995Z</time>
      </trkpt>
      <trkpt lat="43.80605" lon="2.94945">
        <ele>427</ele>
        <time>2023-08-15T13:40:13.916Z</time>
      </trkpt>
      <trkpt lat="43.80603" lon="2.94951">
        <ele>427</ele>
        <time>2023-08-15T13:40:18.355Z</time>
      </trkpt>
      <trkpt lat="43.80602" lon="2.94958">
        <ele>427</ele>
        <time>2023-08-15T13:40:22.815Z</time>
      </trkpt>
      <trkpt lat="43.80603" lon="2.94965">
        <ele>428</ele>
        <time>2023-08-15T13:40:27.216Z</time>
      </trkpt>
      <trkpt lat="43.80605" lon="2.94975">
        <ele>428</ele>
        <time>2023-08-15T13:40:31.595Z</time>
      </trkpt>
      <trkpt lat="43.80608" lon="2.94983">
        <ele>428</ele>
        <time>2023-08-15T13:40:35.935Z</time>
      </trkpt>
      <trkpt lat="43.8061" lon="2.94991">
        <ele>427</ele>
        <time>2023-08-15T13:40:40.256Z</time>
      </trkpt>
      <trkpt lat="43.80614" lon="2.94997">
        <ele>427</ele>
        <time>2023-08-15T13:40:45.236Z</time>
      </trkpt>
      <trkpt lat="43.80617" lon="2.95003">
        <ele>427</ele>
        <time>2023-08-15T13:40:49.675Z</time>
      </trkpt>
      <trkpt lat="43.8062" lon="2.95009">
        <ele>427</ele>
        <time>2023-08-15T13:40:54.155Z</time>
      </trkpt>
      <trkpt lat="43.80623" lon="2.95015">
        <ele>426</ele>
        <time>2023-08-15T13:40:58.595Z</time>
      </trkpt>
      <trkpt lat="43.80625" lon="2.95019">
        <ele>426</ele>
        <time>2023-08-15T13:41:02.976Z</time>
      </trkpt>
      <trkpt lat="43.80626" lon="2.95021">
        <ele>425</ele>
        <time>2023-08-15T13:41:07.936Z</time>
      </trkpt>
      <trkpt lat="43.8063" lon="2.95026">
        <ele>425</ele>
        <time>2023-08-15T13:41:12.356Z</time>
      </trkpt>
      <trkpt lat="43.80633" lon="2.95032">
        <ele>425</ele>
        <time>2023-08-15T13:41:16.196Z</time>
      </trkpt>
      <trkpt lat="43.80637" lon="2.95038">
        <ele>425</ele>
        <time>2023-08-15T13:41:20.447Z</time>
      </trkpt>
      <trkpt lat="43.8064" lon="2.95047">
        <ele>425</ele>
        <time>2023-08-15T13:41:24.915Z</time>
      </trkpt>
      <trkpt lat="43.80642" lon="2.95055">
        <ele>425</ele>
        <time>2023-08-15T13:41:29.335Z</time>
      </trkpt>
      <trkpt lat="43.80644" lon="2.95063">
        <ele>425</ele>
        <time>2023-08-15T13:41:33.755Z</time>
      </trkpt>
      <trkpt lat="43.80647" lon="2.9507">
        <ele>425</ele>
        <time>2023-08-15T13:41:38.136Z</time>
      </trkpt>
      <trkpt lat="43.80649" lon="2.95076">
        <ele>425</ele>
        <time>2023-08-15T13:41:42.555Z</time>
      </trkpt>
      <trkpt lat="43.8065" lon="2.95082">
        <ele>425</ele>
        <time>2023-08-15T13:41:46.424Z</time>
      </trkpt>
      <trkpt lat="43.80651" lon="2.95087">
        <ele>425</ele>
        <time>2023-08-15T13:41:50.936Z</time>
      </trkpt>
      <trkpt lat="43.80651" lon="2.95089">
        <ele>425</ele>
        <time>2023-08-15T13:41:55.336Z</time>
      </trkpt>
      <trkpt lat="43.80652" lon="2.95095">
        <ele>425</ele>
        <time>2023-08-15T13:41:59.755Z</time>
      </trkpt>
      <trkpt lat="43.80653" lon="2.95104">
        <ele>426</ele>
        <time>2023-08-15T13:42:03.715Z</time>
      </trkpt>
      <trkpt lat="43.80654" lon="2.95114">
        <ele>428</ele>
        <time>2023-08-15T13:42:08.116Z</time>
      </trkpt>
      <trkpt lat="43.80654" lon="2.95123">
        <ele>428</ele>
        <time>2023-08-15T13:42:12.575Z</time>
      </trkpt>
      <trkpt lat="43.80654" lon="2.95131">
        <ele>427</ele>
        <time>2023-08-15T13:42:16.955Z</time>
      </trkpt>
      <trkpt lat="43.80653" lon="2.95139">
        <ele>427</ele>
        <time>2023-08-15T13:42:21.356Z</time>
      </trkpt>
      <trkpt lat="43.80653" lon="2.95141">
        <ele>427</ele>
        <time>2023-08-15T13:42:25.815Z</time>
      </trkpt>
      <trkpt lat="43.80649" lon="2.95142">
        <ele>427</ele>
        <time>2023-08-15T13:42:30.216Z</time>
      </trkpt>
      <trkpt lat="43.80644" lon="2.95142">
        <ele>427</ele>
        <time>2023-08-15T13:42:34.594Z</time>
      </trkpt>
      <trkpt lat="43.80639" lon="2.95139">
        <ele>427</ele>
        <time>2023-08-15T13:42:38.424Z</time>
      </trkpt>
      <trkpt lat="43.80634" lon="2.95136">
        <ele>427</ele>
        <time>2023-08-15T13:42:42.796Z</time>
      </trkpt>
      <trkpt lat="43.80629" lon="2.95134">
        <ele>427</ele>
        <time>2023-08-15T13:42:47.136Z</time>
      </trkpt>
      <trkpt lat="43.80624" lon="2.95132">
        <ele>426</ele>
        <time>2023-08-15T13:42:51.495Z</time>
      </trkpt>
      <trkpt lat="43.8062" lon="2.95131">
        <ele>426</ele>
        <time>2023-08-15T13:42:55.936Z</time>
      </trkpt>
      <trkpt lat="43.80615" lon="2.95132">
        <ele>426</ele>
        <time>2023-08-15T13:43:00.315Z</time>
      </trkpt>
      <trkpt lat="43.8061" lon="2.95136">
        <ele>426</ele>
        <time>2023-08-15T13:43:04.715Z</time>
      </trkpt>
      <trkpt lat="43.80608" lon="2.95142">
        <ele>426</ele>
        <time>2023-08-15T13:43:08.595Z</time>
      </trkpt>
      <trkpt lat="43.80606" lon="2.95149">
        <ele>426</ele>
        <time>2023-08-15T13:43:12.935Z</time>
      </trkpt>
      <trkpt lat="43.80606" lon="2.95158">
        <ele>427</ele>
        <time>2023-08-15T13:43:17.916Z</time>
      </trkpt>
      <trkpt lat="43.80606" lon="2.95167">
        <ele>427</ele>
        <time>2023-08-15T13:43:22.196Z</time>
      </trkpt>
      <trkpt lat="43.80606" lon="2.95175">
        <ele>427</ele>
        <time>2023-08-15T13:43:26.056Z</time>
      </trkpt>
      <trkpt lat="43.8061" lon="2.95178">
        <ele>427</ele>
        <time>2023-08-15T13:43:30.424Z</time>
      </trkpt>
      <trkpt lat="43.80611" lon="2.95181">
        <ele>426</ele>
        <time>2023-08-15T13:44:08.409Z</time>
      </trkpt>
      <trkpt lat="43.80614" lon="2.95179">
        <ele>427</ele>
        <time>2023-08-15T13:44:13.410Z</time>
      </trkpt>
      <trkpt lat="43.80616" lon="2.95178">
        <ele>427</ele>
        <time>2023-08-15T13:44:18.404Z</time>
      </trkpt>
      <trkpt lat="43.80619" lon="2.95175">
        <ele>427</ele>
        <time>2023-08-15T13:44:23.402Z</time>
      </trkpt>
      <trkpt lat="43.80621" lon="2.95172">
        <ele>427</ele>
        <time>2023-08-15T13:44:28.410Z</time>
      </trkpt>
      <trkpt lat="43.80621" lon="2.95172">
        <ele>427</ele>
        <time>2023-08-15T13:46:07.916Z</time>
      </trkpt>
      <trkpt lat="43.80614" lon="2.95167">
        <ele>427</ele>
        <time>2023-08-15T13:46:12.387Z</time>
      </trkpt>
      <trkpt lat="43.80609" lon="2.95158">
        <ele>427</ele>
        <time>2023-08-15T13:46:16.296Z</time>
      </trkpt>
      <trkpt lat="43.80608" lon="2.95145">
        <ele>426</ele>
        <time>2023-08-15T13:46:21.215Z</time>
      </trkpt>
      <trkpt lat="43.80609" lon="2.95133">
        <ele>426</ele>
        <time>2023-08-15T13:46:25.515Z</time>
      </trkpt>
      <trkpt lat="43.80611" lon="2.95128">
        <ele>426</ele>
        <time>2023-08-15T13:46:29.935Z</time>
      </trkpt>
      <trkpt lat="43.80612" lon="2.95124">
        <ele>425</ele>
        <time>2023-08-15T13:46:34.376Z</time>
      </trkpt>
      <trkpt lat="43.80611" lon="2.95123">
        <ele>425</ele>
        <time>2023-08-15T13:46:38.256Z</time>
      </trkpt>
      <trkpt lat="43.80609" lon="2.95118">
        <ele>425</ele>
        <time>2023-08-15T13:46:41.936Z</time>
      </trkpt>
      <trkpt lat="43.80606" lon="2.95117">
        <ele>425</ele>
        <time>2023-08-15T13:46:46.935Z</time>
      </trkpt>
    </trkseg>
  </trk>
</gpx>